<?xml version="1.0" encoding="UTF-8" standalone="no" ?>
<gpx xmlns="http://www.topografix.com/GPX/1/1" xmlns:xsi="http://www.w3.org/2001/XMLSchema-instance" xsi:schemaLocation="http://www.topografix.com/GPX/1/1 http://www.topografix.com/GPX/1/1/gpx.xsd" version="1.1" creator="VisuGPX - https://www.visugpx.com">
  <metadata>
    <name>Pointe de la Cacau</name>
    <desc><![CDATA[Difficulté moyenne,
retour par le Ravin de Gorgue Longue.]]></desc>
  </metadata>
  <trk>
    <name><![CDATA[Pointe de la Cacau_1]]></name>
    <trkseg>
      <trkpt lat="43.23324" lon="5.51345">
        <ele>234.8</ele>
        <time>2021-05-05T08:25:20Z</time>
      </trkpt>
      <trkpt lat="43.23324" lon="5.51338">
        <ele>234.6</ele>
        <time>2021-05-05T08:25:42Z</time>
      </trkpt>
      <trkpt lat="43.23327" lon="5.51345">
        <ele>234.7</ele>
        <time>2021-05-05T08:26:20Z</time>
      </trkpt>
      <trkpt lat="43.2333" lon="5.5135">
        <ele>234.7</ele>
        <time>2021-05-05T08:26:36Z</time>
      </trkpt>
      <trkpt lat="43.23335" lon="5.51351">
        <ele>234.6</ele>
        <time>2021-05-05T08:26:44Z</time>
      </trkpt>
      <trkpt lat="43.2334" lon="5.51351">
        <ele>234.6</ele>
        <time>2021-05-05T08:26:54Z</time>
      </trkpt>
      <trkpt lat="43.23346" lon="5.51347">
        <ele>234.3</ele>
        <time>2021-05-05T08:27:00Z</time>
      </trkpt>
      <trkpt lat="43.23351" lon="5.51344">
        <ele>234.1</ele>
        <time>2021-05-05T08:27:06Z</time>
      </trkpt>
      <trkpt lat="43.23355" lon="5.51338">
        <ele>233.7</ele>
        <time>2021-05-05T08:27:12Z</time>
      </trkpt>
      <trkpt lat="43.23358" lon="5.51331">
        <ele>233.4</ele>
        <time>2021-05-05T08:27:16Z</time>
      </trkpt>
      <trkpt lat="43.23359" lon="5.51325">
        <ele>233.3</ele>
        <time>2021-05-05T08:27:20Z</time>
      </trkpt>
      <trkpt lat="43.23362" lon="5.5132">
        <ele>233.1</ele>
        <time>2021-05-05T08:27:26Z</time>
      </trkpt>
      <trkpt lat="43.23366" lon="5.51312">
        <ele>232.9</ele>
        <time>2021-05-05T08:27:32Z</time>
      </trkpt>
      <trkpt lat="43.2337" lon="5.51308">
        <ele>232.7</ele>
        <time>2021-05-05T08:27:36Z</time>
      </trkpt>
      <trkpt lat="43.23373" lon="5.51302">
        <ele>232.5</ele>
        <time>2021-05-05T08:27:40Z</time>
      </trkpt>
      <trkpt lat="43.23375" lon="5.51296">
        <ele>232.3</ele>
        <time>2021-05-05T08:27:44Z</time>
      </trkpt>
      <trkpt lat="43.23379" lon="5.5129">
        <ele>232.1</ele>
        <time>2021-05-05T08:27:50Z</time>
      </trkpt>
      <trkpt lat="43.23383" lon="5.51283">
        <ele>231.8</ele>
        <time>2021-05-05T08:27:56Z</time>
      </trkpt>
      <trkpt lat="43.23387" lon="5.51276">
        <ele>231.6</ele>
        <time>2021-05-05T08:28:02Z</time>
      </trkpt>
      <trkpt lat="43.23392" lon="5.51269">
        <ele>231.3</ele>
        <time>2021-05-05T08:28:08Z</time>
      </trkpt>
      <trkpt lat="43.23395" lon="5.51264">
        <ele>231.1</ele>
        <time>2021-05-05T08:28:12Z</time>
      </trkpt>
      <trkpt lat="43.23398" lon="5.51257">
        <ele>230.8</ele>
        <time>2021-05-05T08:28:16Z</time>
      </trkpt>
      <trkpt lat="43.234" lon="5.51251">
        <ele>230.6</ele>
        <time>2021-05-05T08:28:20Z</time>
      </trkpt>
      <trkpt lat="43.23401" lon="5.51245">
        <ele>230.5</ele>
        <time>2021-05-05T08:28:24Z</time>
      </trkpt>
      <trkpt lat="43.23402" lon="5.51238">
        <ele>230.4</ele>
        <time>2021-05-05T08:28:28Z</time>
      </trkpt>
      <trkpt lat="43.23402" lon="5.51232">
        <ele>230.3</ele>
        <time>2021-05-05T08:28:32Z</time>
      </trkpt>
      <trkpt lat="43.23403" lon="5.51225">
        <ele>230.2</ele>
        <time>2021-05-05T08:28:36Z</time>
      </trkpt>
      <trkpt lat="43.23404" lon="5.51218">
        <ele>230.1</ele>
        <time>2021-05-05T08:28:40Z</time>
      </trkpt>
      <trkpt lat="43.23406" lon="5.51212">
        <ele>230</ele>
        <time>2021-05-05T08:28:44Z</time>
      </trkpt>
      <trkpt lat="43.23409" lon="5.51207">
        <ele>229.8</ele>
        <time>2021-05-05T08:28:48Z</time>
      </trkpt>
      <trkpt lat="43.23411" lon="5.51198">
        <ele>229.6</ele>
        <time>2021-05-05T08:28:54Z</time>
      </trkpt>
      <trkpt lat="43.23412" lon="5.51191">
        <ele>229.5</ele>
        <time>2021-05-05T08:28:58Z</time>
      </trkpt>
      <trkpt lat="43.23413" lon="5.51185">
        <ele>229.4</ele>
        <time>2021-05-05T08:29:02Z</time>
      </trkpt>
      <trkpt lat="43.23414" lon="5.51176">
        <ele>229.2</ele>
        <time>2021-05-05T08:29:08Z</time>
      </trkpt>
      <trkpt lat="43.23415" lon="5.51167">
        <ele>229.1</ele>
        <time>2021-05-05T08:29:14Z</time>
      </trkpt>
      <trkpt lat="43.23416" lon="5.51159">
        <ele>228.8</ele>
        <time>2021-05-05T08:29:20Z</time>
      </trkpt>
      <trkpt lat="43.23418" lon="5.51151">
        <ele>228.6</ele>
        <time>2021-05-05T08:29:26Z</time>
      </trkpt>
      <trkpt lat="43.23421" lon="5.51145">
        <ele>228.5</ele>
        <time>2021-05-05T08:29:34Z</time>
      </trkpt>
      <trkpt lat="43.23424" lon="5.5114">
        <ele>228.3</ele>
        <time>2021-05-05T08:29:42Z</time>
      </trkpt>
      <trkpt lat="43.23427" lon="5.51134">
        <ele>228.2</ele>
        <time>2021-05-05T08:29:50Z</time>
      </trkpt>
      <trkpt lat="43.2343" lon="5.51126">
        <ele>227.9</ele>
        <time>2021-05-05T08:29:56Z</time>
      </trkpt>
      <trkpt lat="43.23434" lon="5.51118">
        <ele>227.7</ele>
        <time>2021-05-05T08:30:02Z</time>
      </trkpt>
      <trkpt lat="43.23436" lon="5.51113">
        <ele>227.6</ele>
        <time>2021-05-05T08:30:06Z</time>
      </trkpt>
      <trkpt lat="43.23439" lon="5.51106">
        <ele>227.3</ele>
        <time>2021-05-05T08:30:10Z</time>
      </trkpt>
      <trkpt lat="43.23442" lon="5.51098">
        <ele>227.1</ele>
        <time>2021-05-05T08:30:16Z</time>
      </trkpt>
      <trkpt lat="43.23444" lon="5.5109">
        <ele>226.8</ele>
        <time>2021-05-05T08:30:22Z</time>
      </trkpt>
      <trkpt lat="43.23445" lon="5.51083">
        <ele>226.7</ele>
        <time>2021-05-05T08:30:26Z</time>
      </trkpt>
      <trkpt lat="43.23445" lon="5.51077">
        <ele>226.6</ele>
        <time>2021-05-05T08:30:30Z</time>
      </trkpt>
      <trkpt lat="43.23447" lon="5.51069">
        <ele>226.5</ele>
        <time>2021-05-05T08:30:36Z</time>
      </trkpt>
      <trkpt lat="43.23448" lon="5.51061">
        <ele>226.4</ele>
        <time>2021-05-05T08:30:42Z</time>
      </trkpt>
      <trkpt lat="43.2345" lon="5.51052">
        <ele>226.3</ele>
        <time>2021-05-05T08:30:48Z</time>
      </trkpt>
      <trkpt lat="43.23453" lon="5.51046">
        <ele>226.2</ele>
        <time>2021-05-05T08:30:52Z</time>
      </trkpt>
      <trkpt lat="43.23455" lon="5.5104">
        <ele>226.1</ele>
        <time>2021-05-05T08:30:56Z</time>
      </trkpt>
      <trkpt lat="43.23457" lon="5.51034">
        <ele>225.9</ele>
        <time>2021-05-05T08:31:00Z</time>
      </trkpt>
      <trkpt lat="43.23457" lon="5.51027">
        <ele>225.9</ele>
        <time>2021-05-05T08:31:04Z</time>
      </trkpt>
      <trkpt lat="43.23455" lon="5.51019">
        <ele>225.8</ele>
        <time>2021-05-05T08:31:08Z</time>
      </trkpt>
      <trkpt lat="43.23452" lon="5.51013">
        <ele>225.9</ele>
        <time>2021-05-05T08:31:12Z</time>
      </trkpt>
      <trkpt lat="43.23449" lon="5.51008">
        <ele>225.9</ele>
        <time>2021-05-05T08:31:16Z</time>
      </trkpt>
      <trkpt lat="43.23446" lon="5.51003">
        <ele>226</ele>
        <time>2021-05-05T08:31:20Z</time>
      </trkpt>
      <trkpt lat="43.23442" lon="5.50996">
        <ele>225.9</ele>
        <time>2021-05-05T08:31:26Z</time>
      </trkpt>
      <trkpt lat="43.23437" lon="5.5099">
        <ele>225.8</ele>
        <time>2021-05-05T08:31:32Z</time>
      </trkpt>
      <trkpt lat="43.23434" lon="5.50982">
        <ele>225.5</ele>
        <time>2021-05-05T08:31:38Z</time>
      </trkpt>
      <trkpt lat="43.23431" lon="5.50976">
        <ele>225.2</ele>
        <time>2021-05-05T08:31:42Z</time>
      </trkpt>
      <trkpt lat="43.23428" lon="5.5097">
        <ele>225</ele>
        <time>2021-05-05T08:31:46Z</time>
      </trkpt>
      <trkpt lat="43.23425" lon="5.50965">
        <ele>224.8</ele>
        <time>2021-05-05T08:31:50Z</time>
      </trkpt>
      <trkpt lat="43.23423" lon="5.50959">
        <ele>224.5</ele>
        <time>2021-05-05T08:31:54Z</time>
      </trkpt>
      <trkpt lat="43.2342" lon="5.50954">
        <ele>224.2</ele>
        <time>2021-05-05T08:31:58Z</time>
      </trkpt>
      <trkpt lat="43.23416" lon="5.50949">
        <ele>224</ele>
        <time>2021-05-05T08:32:02Z</time>
      </trkpt>
      <trkpt lat="43.23413" lon="5.50944">
        <ele>223.8</ele>
        <time>2021-05-05T08:32:06Z</time>
      </trkpt>
      <trkpt lat="43.2341" lon="5.50938">
        <ele>223.7</ele>
        <time>2021-05-05T08:32:10Z</time>
      </trkpt>
      <trkpt lat="43.23407" lon="5.50933">
        <ele>223.6</ele>
        <time>2021-05-05T08:32:14Z</time>
      </trkpt>
      <trkpt lat="43.23404" lon="5.50928">
        <ele>223.6</ele>
        <time>2021-05-05T08:32:18Z</time>
      </trkpt>
      <trkpt lat="43.234" lon="5.50924">
        <ele>223.6</ele>
        <time>2021-05-05T08:32:22Z</time>
      </trkpt>
      <trkpt lat="43.23396" lon="5.5092">
        <ele>223.7</ele>
        <time>2021-05-05T08:32:26Z</time>
      </trkpt>
      <trkpt lat="43.23392" lon="5.50916">
        <ele>223.7</ele>
        <time>2021-05-05T08:32:30Z</time>
      </trkpt>
      <trkpt lat="43.23387" lon="5.5091">
        <ele>223.7</ele>
        <time>2021-05-05T08:32:36Z</time>
      </trkpt>
      <trkpt lat="43.23386" lon="5.50903">
        <ele>223.2</ele>
        <time>2021-05-05T08:32:42Z</time>
      </trkpt>
      <trkpt lat="43.23385" lon="5.50897">
        <ele>222.9</ele>
        <time>2021-05-05T08:32:48Z</time>
      </trkpt>
      <trkpt lat="43.23381" lon="5.50889">
        <ele>222.5</ele>
        <time>2021-05-05T08:32:54Z</time>
      </trkpt>
      <trkpt lat="43.23379" lon="5.50882">
        <ele>222.1</ele>
        <time>2021-05-05T08:33:00Z</time>
      </trkpt>
      <trkpt lat="43.23376" lon="5.50875">
        <ele>221.7</ele>
        <time>2021-05-05T08:33:06Z</time>
      </trkpt>
      <trkpt lat="43.23373" lon="5.5087">
        <ele>221.4</ele>
        <time>2021-05-05T08:33:12Z</time>
      </trkpt>
      <trkpt lat="43.23372" lon="5.50863">
        <ele>220.9</ele>
        <time>2021-05-05T08:33:18Z</time>
      </trkpt>
      <trkpt lat="43.23374" lon="5.50856">
        <ele>220.3</ele>
        <time>2021-05-05T08:33:24Z</time>
      </trkpt>
      <trkpt lat="43.23372" lon="5.50849">
        <ele>219.8</ele>
        <time>2021-05-05T08:33:32Z</time>
      </trkpt>
      <trkpt lat="43.23367" lon="5.50846">
        <ele>219.7</ele>
        <time>2021-05-05T08:33:38Z</time>
      </trkpt>
      <trkpt lat="43.23363" lon="5.50843">
        <ele>219.5</ele>
        <time>2021-05-05T08:33:44Z</time>
      </trkpt>
      <trkpt lat="43.23358" lon="5.5084">
        <ele>219.3</ele>
        <time>2021-05-05T08:33:50Z</time>
      </trkpt>
      <trkpt lat="43.23354" lon="5.50834">
        <ele>218.8</ele>
        <time>2021-05-05T08:33:56Z</time>
      </trkpt>
      <trkpt lat="43.23351" lon="5.50829">
        <ele>218.3</ele>
        <time>2021-05-05T08:34:02Z</time>
      </trkpt>
      <trkpt lat="43.23346" lon="5.50824">
        <ele>217.7</ele>
        <time>2021-05-05T08:34:08Z</time>
      </trkpt>
      <trkpt lat="43.23341" lon="5.50819">
        <ele>217</ele>
        <time>2021-05-05T08:34:14Z</time>
      </trkpt>
      <trkpt lat="43.23338" lon="5.50813">
        <ele>216.1</ele>
        <time>2021-05-05T08:34:20Z</time>
      </trkpt>
      <trkpt lat="43.23335" lon="5.50805">
        <ele>215</ele>
        <time>2021-05-05T08:34:26Z</time>
      </trkpt>
      <trkpt lat="43.23332" lon="5.50798">
        <ele>213.9</ele>
        <time>2021-05-05T08:34:32Z</time>
      </trkpt>
      <trkpt lat="43.2333" lon="5.50792">
        <ele>213.1</ele>
        <time>2021-05-05T08:34:38Z</time>
      </trkpt>
      <trkpt lat="43.2333" lon="5.50786">
        <ele>212.1</ele>
        <time>2021-05-05T08:34:44Z</time>
      </trkpt>
      <trkpt lat="43.2333" lon="5.50779">
        <ele>211.2</ele>
        <time>2021-05-05T08:34:54Z</time>
      </trkpt>
      <trkpt lat="43.2333" lon="5.50773">
        <ele>210.2</ele>
        <time>2021-05-05T08:35:00Z</time>
      </trkpt>
      <trkpt lat="43.23327" lon="5.50767">
        <ele>209.3</ele>
        <time>2021-05-05T08:35:04Z</time>
      </trkpt>
      <trkpt lat="43.23325" lon="5.5076">
        <ele>208.1</ele>
        <time>2021-05-05T08:35:10Z</time>
      </trkpt>
      <trkpt lat="43.23324" lon="5.50753">
        <ele>206.9</ele>
        <time>2021-05-05T08:35:16Z</time>
      </trkpt>
      <trkpt lat="43.23327" lon="5.50759">
        <ele>208.1</ele>
        <time>2021-05-05T08:35:30Z</time>
      </trkpt>
      <trkpt lat="43.2333" lon="5.50765">
        <ele>209.1</ele>
        <time>2021-05-05T08:35:36Z</time>
      </trkpt>
      <trkpt lat="43.23332" lon="5.50772">
        <ele>210.1</ele>
        <time>2021-05-05T08:35:42Z</time>
      </trkpt>
      <trkpt lat="43.23337" lon="5.50769">
        <ele>210.2</ele>
        <time>2021-05-05T08:35:54Z</time>
      </trkpt>
      <trkpt lat="43.23342" lon="5.50766">
        <ele>210.3</ele>
        <time>2021-05-05T08:36:02Z</time>
      </trkpt>
      <trkpt lat="43.23343" lon="5.50759">
        <ele>209.5</ele>
        <time>2021-05-05T08:36:08Z</time>
      </trkpt>
      <trkpt lat="43.23341" lon="5.50752">
        <ele>208.3</ele>
        <time>2021-05-05T08:36:14Z</time>
      </trkpt>
      <trkpt lat="43.2334" lon="5.50744">
        <ele>207.6</ele>
        <time>2021-05-05T08:36:20Z</time>
      </trkpt>
      <trkpt lat="43.23338" lon="5.50737">
        <ele>207</ele>
        <time>2021-05-05T08:36:24Z</time>
      </trkpt>
      <trkpt lat="43.23334" lon="5.50733">
        <ele>206.1</ele>
        <time>2021-05-05T08:36:30Z</time>
      </trkpt>
      <trkpt lat="43.23332" lon="5.50726">
        <ele>205.5</ele>
        <time>2021-05-05T08:36:36Z</time>
      </trkpt>
      <trkpt lat="43.23329" lon="5.50721">
        <ele>205</ele>
        <time>2021-05-05T08:36:42Z</time>
      </trkpt>
      <trkpt lat="43.23327" lon="5.50716">
        <ele>204.6</ele>
        <time>2021-05-05T08:36:48Z</time>
      </trkpt>
      <trkpt lat="43.23323" lon="5.5071">
        <ele>204.1</ele>
        <time>2021-05-05T08:36:56Z</time>
      </trkpt>
      <trkpt lat="43.23321" lon="5.50704">
        <ele>203.6</ele>
        <time>2021-05-05T08:37:04Z</time>
      </trkpt>
      <trkpt lat="43.23317" lon="5.50699">
        <ele>203.1</ele>
        <time>2021-05-05T08:37:10Z</time>
      </trkpt>
      <trkpt lat="43.23313" lon="5.50694">
        <ele>202.7</ele>
        <time>2021-05-05T08:37:18Z</time>
      </trkpt>
      <trkpt lat="43.23309" lon="5.5069">
        <ele>202.3</ele>
        <time>2021-05-05T08:37:24Z</time>
      </trkpt>
      <trkpt lat="43.23307" lon="5.50684">
        <ele>201.8</ele>
        <time>2021-05-05T08:37:36Z</time>
      </trkpt>
      <trkpt lat="43.23305" lon="5.50678">
        <ele>201.3</ele>
        <time>2021-05-05T08:37:50Z</time>
      </trkpt>
      <trkpt lat="43.233" lon="5.50675">
        <ele>200.9</ele>
        <time>2021-05-05T08:38:00Z</time>
      </trkpt>
      <trkpt lat="43.23293" lon="5.50678">
        <ele>200.8</ele>
        <time>2021-05-05T08:38:06Z</time>
      </trkpt>
      <trkpt lat="43.23288" lon="5.50682">
        <ele>200.8</ele>
        <time>2021-05-05T08:38:12Z</time>
      </trkpt>
      <trkpt lat="43.23282" lon="5.50685">
        <ele>200.6</ele>
        <time>2021-05-05T08:38:18Z</time>
      </trkpt>
      <trkpt lat="43.23276" lon="5.50684">
        <ele>200.3</ele>
        <time>2021-05-05T08:38:26Z</time>
      </trkpt>
      <trkpt lat="43.23273" lon="5.50681">
        <ele>199.9</ele>
        <time>2021-05-05T08:38:32Z</time>
      </trkpt>
      <trkpt lat="43.23268" lon="5.50678">
        <ele>199.5</ele>
        <time>2021-05-05T08:38:38Z</time>
      </trkpt>
      <trkpt lat="43.23264" lon="5.50678">
        <ele>199.3</ele>
        <time>2021-05-05T08:38:46Z</time>
      </trkpt>
      <trkpt lat="43.23259" lon="5.50679">
        <ele>199.1</ele>
        <time>2021-05-05T08:38:52Z</time>
      </trkpt>
      <trkpt lat="43.23252" lon="5.5068">
        <ele>198.9</ele>
        <time>2021-05-05T08:38:58Z</time>
      </trkpt>
      <trkpt lat="43.23246" lon="5.50684">
        <ele>198.4</ele>
        <time>2021-05-05T08:39:04Z</time>
      </trkpt>
      <trkpt lat="43.23242" lon="5.50689">
        <ele>198.2</ele>
        <time>2021-05-05T08:39:08Z</time>
      </trkpt>
      <trkpt lat="43.23239" lon="5.50694">
        <ele>198.1</ele>
        <time>2021-05-05T08:39:12Z</time>
      </trkpt>
      <trkpt lat="43.23234" lon="5.50696">
        <ele>197.7</ele>
        <time>2021-05-05T08:39:18Z</time>
      </trkpt>
      <trkpt lat="43.23229" lon="5.50696">
        <ele>197.1</ele>
        <time>2021-05-05T08:39:24Z</time>
      </trkpt>
      <trkpt lat="43.23225" lon="5.50699">
        <ele>196.9</ele>
        <time>2021-05-05T08:39:32Z</time>
      </trkpt>
      <trkpt lat="43.23219" lon="5.50702">
        <ele>196.5</ele>
        <time>2021-05-05T08:39:38Z</time>
      </trkpt>
      <trkpt lat="43.23215" lon="5.50704">
        <ele>196.2</ele>
        <time>2021-05-05T08:39:42Z</time>
      </trkpt>
      <trkpt lat="43.2321" lon="5.50705">
        <ele>195.8</ele>
        <time>2021-05-05T08:39:48Z</time>
      </trkpt>
      <trkpt lat="43.23205" lon="5.50704">
        <ele>194.9</ele>
        <time>2021-05-05T08:39:58Z</time>
      </trkpt>
      <trkpt lat="43.232" lon="5.507">
        <ele>193.8</ele>
        <time>2021-05-05T08:40:04Z</time>
      </trkpt>
      <trkpt lat="43.23196" lon="5.50695">
        <ele>192.7</ele>
        <time>2021-05-05T08:40:10Z</time>
      </trkpt>
      <trkpt lat="43.23193" lon="5.50691">
        <ele>191.5</ele>
        <time>2021-05-05T08:40:16Z</time>
      </trkpt>
      <trkpt lat="43.23191" lon="5.50685">
        <ele>190.3</ele>
        <time>2021-05-05T08:40:22Z</time>
      </trkpt>
      <trkpt lat="43.23188" lon="5.5068">
        <ele>189</ele>
        <time>2021-05-05T08:40:28Z</time>
      </trkpt>
      <trkpt lat="43.23183" lon="5.50674">
        <ele>187.3</ele>
        <time>2021-05-05T08:40:34Z</time>
      </trkpt>
      <trkpt lat="43.23179" lon="5.50671">
        <ele>186</ele>
        <time>2021-05-05T08:40:38Z</time>
      </trkpt>
      <trkpt lat="43.23174" lon="5.50669">
        <ele>184.7</ele>
        <time>2021-05-05T08:40:44Z</time>
      </trkpt>
      <trkpt lat="43.23169" lon="5.50669">
        <ele>183.9</ele>
        <time>2021-05-05T08:40:48Z</time>
      </trkpt>
      <trkpt lat="43.23164" lon="5.50669">
        <ele>183.3</ele>
        <time>2021-05-05T08:40:52Z</time>
      </trkpt>
      <trkpt lat="43.23159" lon="5.50671">
        <ele>183</ele>
        <time>2021-05-05T08:40:58Z</time>
      </trkpt>
      <trkpt lat="43.23153" lon="5.50674">
        <ele>182.9</ele>
        <time>2021-05-05T08:41:04Z</time>
      </trkpt>
      <trkpt lat="43.23148" lon="5.50677">
        <ele>182.9</ele>
        <time>2021-05-05T08:41:10Z</time>
      </trkpt>
      <trkpt lat="43.23142" lon="5.50678">
        <ele>182.5</ele>
        <time>2021-05-05T08:41:16Z</time>
      </trkpt>
      <trkpt lat="43.23138" lon="5.50678">
        <ele>182</ele>
        <time>2021-05-05T08:41:22Z</time>
      </trkpt>
      <trkpt lat="43.23132" lon="5.50678">
        <ele>181.3</ele>
        <time>2021-05-05T08:41:30Z</time>
      </trkpt>
      <trkpt lat="43.23127" lon="5.50681">
        <ele>181.6</ele>
        <time>2021-05-05T08:41:36Z</time>
      </trkpt>
      <trkpt lat="43.23123" lon="5.50684">
        <ele>181.7</ele>
        <time>2021-05-05T08:41:40Z</time>
      </trkpt>
      <trkpt lat="43.23118" lon="5.50687">
        <ele>181.9</ele>
        <time>2021-05-05T08:41:44Z</time>
      </trkpt>
      <trkpt lat="43.23113" lon="5.5069">
        <ele>182.1</ele>
        <time>2021-05-05T08:41:50Z</time>
      </trkpt>
      <trkpt lat="43.23108" lon="5.50691">
        <ele>181.7</ele>
        <time>2021-05-05T08:41:54Z</time>
      </trkpt>
      <trkpt lat="43.23102" lon="5.50692">
        <ele>181.5</ele>
        <time>2021-05-05T08:41:58Z</time>
      </trkpt>
      <trkpt lat="43.23098" lon="5.50693">
        <ele>181.2</ele>
        <time>2021-05-05T08:42:04Z</time>
      </trkpt>
      <trkpt lat="43.23093" lon="5.50695">
        <ele>181.1</ele>
        <time>2021-05-05T08:42:10Z</time>
      </trkpt>
      <trkpt lat="43.23087" lon="5.50697">
        <ele>181</ele>
        <time>2021-05-05T08:42:20Z</time>
      </trkpt>
      <trkpt lat="43.23083" lon="5.50698">
        <ele>180.9</ele>
        <time>2021-05-05T08:42:28Z</time>
      </trkpt>
      <trkpt lat="43.23077" lon="5.50698">
        <ele>180.9</ele>
        <time>2021-05-05T08:42:36Z</time>
      </trkpt>
      <trkpt lat="43.23073" lon="5.50696">
        <ele>180.2</ele>
        <time>2021-05-05T08:42:44Z</time>
      </trkpt>
      <trkpt lat="43.23071" lon="5.5069">
        <ele>178.8</ele>
        <time>2021-05-05T08:42:52Z</time>
      </trkpt>
      <trkpt lat="43.23069" lon="5.50681">
        <ele>176.8</ele>
        <time>2021-05-05T08:43:00Z</time>
      </trkpt>
      <trkpt lat="43.23067" lon="5.50675">
        <ele>175.4</ele>
        <time>2021-05-05T08:43:06Z</time>
      </trkpt>
      <trkpt lat="43.23063" lon="5.50669">
        <ele>174</ele>
        <time>2021-05-05T08:43:12Z</time>
      </trkpt>
      <trkpt lat="43.2306" lon="5.50661">
        <ele>174.1</ele>
        <time>2021-05-05T08:43:18Z</time>
      </trkpt>
      <trkpt lat="43.23057" lon="5.50656">
        <ele>174.8</ele>
        <time>2021-05-05T08:43:24Z</time>
      </trkpt>
      <trkpt lat="43.23053" lon="5.50652">
        <ele>175.4</ele>
        <time>2021-05-05T08:43:30Z</time>
      </trkpt>
      <trkpt lat="43.23049" lon="5.50647">
        <ele>176.2</ele>
        <time>2021-05-05T08:43:36Z</time>
      </trkpt>
      <trkpt lat="43.23045" lon="5.50642">
        <ele>176.9</ele>
        <time>2021-05-05T08:43:42Z</time>
      </trkpt>
      <trkpt lat="43.23039" lon="5.50639">
        <ele>177.6</ele>
        <time>2021-05-05T08:43:48Z</time>
      </trkpt>
      <trkpt lat="43.23035" lon="5.50636">
        <ele>178.3</ele>
        <time>2021-05-05T08:43:54Z</time>
      </trkpt>
      <trkpt lat="43.23031" lon="5.50633">
        <ele>179</ele>
        <time>2021-05-05T08:44:02Z</time>
      </trkpt>
      <trkpt lat="43.23026" lon="5.50633">
        <ele>179.3</ele>
        <time>2021-05-05T08:44:24Z</time>
      </trkpt>
      <trkpt lat="43.2303" lon="5.50627">
        <ele>179.9</ele>
        <time>2021-05-05T08:46:10Z</time>
      </trkpt>
      <trkpt lat="43.23035" lon="5.50622">
        <ele>180.1</ele>
        <time>2021-05-05T08:46:16Z</time>
      </trkpt>
      <trkpt lat="43.23041" lon="5.50619">
        <ele>180.1</ele>
        <time>2021-05-05T08:46:24Z</time>
      </trkpt>
      <trkpt lat="43.23045" lon="5.50616">
        <ele>180</ele>
        <time>2021-05-05T08:46:28Z</time>
      </trkpt>
      <trkpt lat="43.23051" lon="5.50611">
        <ele>180</ele>
        <time>2021-05-05T08:46:34Z</time>
      </trkpt>
      <trkpt lat="43.23057" lon="5.50609">
        <ele>179.7</ele>
        <time>2021-05-05T08:46:40Z</time>
      </trkpt>
      <trkpt lat="43.23062" lon="5.50611">
        <ele>179.2</ele>
        <time>2021-05-05T08:46:48Z</time>
      </trkpt>
      <trkpt lat="43.23067" lon="5.50613">
        <ele>178.4</ele>
        <time>2021-05-05T08:46:56Z</time>
      </trkpt>
      <trkpt lat="43.23072" lon="5.50616">
        <ele>177.6</ele>
        <time>2021-05-05T08:47:04Z</time>
      </trkpt>
      <trkpt lat="43.23076" lon="5.50621">
        <ele>176.9</ele>
        <time>2021-05-05T08:47:10Z</time>
      </trkpt>
      <trkpt lat="43.23078" lon="5.50628">
        <ele>176.2</ele>
        <time>2021-05-05T08:47:16Z</time>
      </trkpt>
      <trkpt lat="43.23082" lon="5.50635">
        <ele>175.4</ele>
        <time>2021-05-05T08:47:22Z</time>
      </trkpt>
      <trkpt lat="43.23085" lon="5.5064">
        <ele>175.1</ele>
        <time>2021-05-05T08:47:28Z</time>
      </trkpt>
      <trkpt lat="43.23089" lon="5.50642">
        <ele>175.5</ele>
        <time>2021-05-05T08:47:34Z</time>
      </trkpt>
      <trkpt lat="43.23094" lon="5.50643">
        <ele>176</ele>
        <time>2021-05-05T08:47:40Z</time>
      </trkpt>
      <trkpt lat="43.231" lon="5.50642">
        <ele>176.9</ele>
        <time>2021-05-05T08:47:46Z</time>
      </trkpt>
      <trkpt lat="43.23104" lon="5.50638">
        <ele>177.6</ele>
        <time>2021-05-05T08:47:52Z</time>
      </trkpt>
      <trkpt lat="43.23106" lon="5.50631">
        <ele>178.3</ele>
        <time>2021-05-05T08:47:58Z</time>
      </trkpt>
      <trkpt lat="43.23108" lon="5.50624">
        <ele>179</ele>
        <time>2021-05-05T08:48:04Z</time>
      </trkpt>
      <trkpt lat="43.23108" lon="5.50617">
        <ele>179.5</ele>
        <time>2021-05-05T08:48:08Z</time>
      </trkpt>
      <trkpt lat="43.2311" lon="5.50608">
        <ele>180.4</ele>
        <time>2021-05-05T08:48:14Z</time>
      </trkpt>
      <trkpt lat="43.23113" lon="5.50601">
        <ele>181.2</ele>
        <time>2021-05-05T08:48:20Z</time>
      </trkpt>
      <trkpt lat="43.23115" lon="5.50593">
        <ele>182.1</ele>
        <time>2021-05-05T08:48:26Z</time>
      </trkpt>
      <trkpt lat="43.23116" lon="5.50587">
        <ele>182.7</ele>
        <time>2021-05-05T08:48:30Z</time>
      </trkpt>
      <trkpt lat="43.23118" lon="5.50579">
        <ele>183.4</ele>
        <time>2021-05-05T08:48:36Z</time>
      </trkpt>
      <trkpt lat="43.23121" lon="5.50572">
        <ele>184.3</ele>
        <time>2021-05-05T08:48:42Z</time>
      </trkpt>
      <trkpt lat="43.23122" lon="5.50566">
        <ele>184.9</ele>
        <time>2021-05-05T08:48:46Z</time>
      </trkpt>
      <trkpt lat="43.23123" lon="5.50559">
        <ele>185.6</ele>
        <time>2021-05-05T08:48:50Z</time>
      </trkpt>
      <trkpt lat="43.23125" lon="5.50553">
        <ele>186.1</ele>
        <time>2021-05-05T08:48:54Z</time>
      </trkpt>
      <trkpt lat="43.23127" lon="5.50546">
        <ele>187</ele>
        <time>2021-05-05T08:49:00Z</time>
      </trkpt>
      <trkpt lat="43.2313" lon="5.50541">
        <ele>187.7</ele>
        <time>2021-05-05T08:49:04Z</time>
      </trkpt>
      <trkpt lat="43.23131" lon="5.50533">
        <ele>188.3</ele>
        <time>2021-05-05T08:49:12Z</time>
      </trkpt>
      <trkpt lat="43.23133" lon="5.50525">
        <ele>189.1</ele>
        <time>2021-05-05T08:49:18Z</time>
      </trkpt>
      <trkpt lat="43.23133" lon="5.50517">
        <ele>189.7</ele>
        <time>2021-05-05T08:49:22Z</time>
      </trkpt>
      <trkpt lat="43.23134" lon="5.50511">
        <ele>190.2</ele>
        <time>2021-05-05T08:49:26Z</time>
      </trkpt>
      <trkpt lat="43.23133" lon="5.50502">
        <ele>190.9</ele>
        <time>2021-05-05T08:49:32Z</time>
      </trkpt>
      <trkpt lat="43.23132" lon="5.50494">
        <ele>191</ele>
        <time>2021-05-05T08:49:36Z</time>
      </trkpt>
      <trkpt lat="43.23131" lon="5.50488">
        <ele>191</ele>
        <time>2021-05-05T08:49:40Z</time>
      </trkpt>
      <trkpt lat="43.23128" lon="5.50483">
        <ele>190.8</ele>
        <time>2021-05-05T08:49:44Z</time>
      </trkpt>
      <trkpt lat="43.23125" lon="5.50477">
        <ele>190.5</ele>
        <time>2021-05-05T08:49:50Z</time>
      </trkpt>
      <trkpt lat="43.23118" lon="5.50472">
        <ele>189.8</ele>
        <time>2021-05-05T08:49:56Z</time>
      </trkpt>
      <trkpt lat="43.23114" lon="5.5047">
        <ele>189.2</ele>
        <time>2021-05-05T08:50:00Z</time>
      </trkpt>
      <trkpt lat="43.23109" lon="5.50467">
        <ele>188.6</ele>
        <time>2021-05-05T08:50:06Z</time>
      </trkpt>
      <trkpt lat="43.23106" lon="5.50463">
        <ele>188.1</ele>
        <time>2021-05-05T08:50:12Z</time>
      </trkpt>
      <trkpt lat="43.23101" lon="5.50458">
        <ele>187.6</ele>
        <time>2021-05-05T08:50:18Z</time>
      </trkpt>
      <trkpt lat="43.23099" lon="5.50449">
        <ele>187.4</ele>
        <time>2021-05-05T08:50:24Z</time>
      </trkpt>
      <trkpt lat="43.23098" lon="5.50442">
        <ele>187.3</ele>
        <time>2021-05-05T08:50:28Z</time>
      </trkpt>
      <trkpt lat="43.23097" lon="5.50436">
        <ele>187.2</ele>
        <time>2021-05-05T08:50:32Z</time>
      </trkpt>
      <trkpt lat="43.23096" lon="5.50427">
        <ele>187</ele>
        <time>2021-05-05T08:50:38Z</time>
      </trkpt>
      <trkpt lat="43.23096" lon="5.50421">
        <ele>187.1</ele>
        <time>2021-05-05T08:50:42Z</time>
      </trkpt>
      <trkpt lat="43.23097" lon="5.50414">
        <ele>187.5</ele>
        <time>2021-05-05T08:50:48Z</time>
      </trkpt>
      <trkpt lat="43.23098" lon="5.50407">
        <ele>188</ele>
        <time>2021-05-05T08:50:54Z</time>
      </trkpt>
      <trkpt lat="43.231" lon="5.504">
        <ele>188.7</ele>
        <time>2021-05-05T08:51:00Z</time>
      </trkpt>
      <trkpt lat="43.231" lon="5.50392">
        <ele>189.3</ele>
        <time>2021-05-05T08:51:06Z</time>
      </trkpt>
      <trkpt lat="43.23102" lon="5.50386">
        <ele>189.9</ele>
        <time>2021-05-05T08:51:14Z</time>
      </trkpt>
      <trkpt lat="43.23103" lon="5.50379">
        <ele>190.4</ele>
        <time>2021-05-05T08:51:22Z</time>
      </trkpt>
      <trkpt lat="43.23105" lon="5.50372">
        <ele>191</ele>
        <time>2021-05-05T08:51:28Z</time>
      </trkpt>
      <trkpt lat="43.23107" lon="5.50364">
        <ele>191.6</ele>
        <time>2021-05-05T08:51:34Z</time>
      </trkpt>
      <trkpt lat="43.23109" lon="5.50358">
        <ele>192.3</ele>
        <time>2021-05-05T08:51:40Z</time>
      </trkpt>
      <trkpt lat="43.23112" lon="5.50351">
        <ele>193</ele>
        <time>2021-05-05T08:51:46Z</time>
      </trkpt>
      <trkpt lat="43.23113" lon="5.50343">
        <ele>193.4</ele>
        <time>2021-05-05T08:51:52Z</time>
      </trkpt>
      <trkpt lat="43.23115" lon="5.50336">
        <ele>194</ele>
        <time>2021-05-05T08:51:58Z</time>
      </trkpt>
      <trkpt lat="43.23118" lon="5.50328">
        <ele>194.4</ele>
        <time>2021-05-05T08:52:04Z</time>
      </trkpt>
      <trkpt lat="43.2312" lon="5.50319">
        <ele>194.7</ele>
        <time>2021-05-05T08:52:10Z</time>
      </trkpt>
      <trkpt lat="43.23122" lon="5.50313">
        <ele>194.8</ele>
        <time>2021-05-05T08:52:14Z</time>
      </trkpt>
      <trkpt lat="43.23124" lon="5.50307">
        <ele>195</ele>
        <time>2021-05-05T08:52:18Z</time>
      </trkpt>
      <trkpt lat="43.23125" lon="5.503">
        <ele>195.2</ele>
        <time>2021-05-05T08:52:22Z</time>
      </trkpt>
      <trkpt lat="43.23125" lon="5.50294">
        <ele>195.3</ele>
        <time>2021-05-05T08:52:26Z</time>
      </trkpt>
      <trkpt lat="43.23127" lon="5.50287">
        <ele>195.4</ele>
        <time>2021-05-05T08:52:30Z</time>
      </trkpt>
      <trkpt lat="43.2313" lon="5.50281">
        <ele>195.6</ele>
        <time>2021-05-05T08:52:34Z</time>
      </trkpt>
      <trkpt lat="43.23132" lon="5.50275">
        <ele>195.7</ele>
        <time>2021-05-05T08:52:38Z</time>
      </trkpt>
      <trkpt lat="43.23131" lon="5.50268">
        <ele>195.7</ele>
        <time>2021-05-05T08:52:42Z</time>
      </trkpt>
      <trkpt lat="43.23129" lon="5.50261">
        <ele>195.6</ele>
        <time>2021-05-05T08:52:48Z</time>
      </trkpt>
      <trkpt lat="43.2313" lon="5.50255">
        <ele>195.7</ele>
        <time>2021-05-05T08:52:52Z</time>
      </trkpt>
      <trkpt lat="43.23127" lon="5.50247">
        <ele>195.4</ele>
        <time>2021-05-05T08:52:58Z</time>
      </trkpt>
      <trkpt lat="43.23127" lon="5.50239">
        <ele>195</ele>
        <time>2021-05-05T08:53:04Z</time>
      </trkpt>
      <trkpt lat="43.23125" lon="5.50231">
        <ele>194.6</ele>
        <time>2021-05-05T08:53:10Z</time>
      </trkpt>
      <trkpt lat="43.23123" lon="5.50224">
        <ele>194.2</ele>
        <time>2021-05-05T08:53:14Z</time>
      </trkpt>
      <trkpt lat="43.2312" lon="5.50215">
        <ele>193.8</ele>
        <time>2021-05-05T08:53:20Z</time>
      </trkpt>
      <trkpt lat="43.23117" lon="5.50207">
        <ele>193.4</ele>
        <time>2021-05-05T08:53:26Z</time>
      </trkpt>
      <trkpt lat="43.23115" lon="5.50201">
        <ele>193.2</ele>
        <time>2021-05-05T08:53:30Z</time>
      </trkpt>
      <trkpt lat="43.23113" lon="5.50196">
        <ele>193</ele>
        <time>2021-05-05T08:53:34Z</time>
      </trkpt>
      <trkpt lat="43.23109" lon="5.5019">
        <ele>192.9</ele>
        <time>2021-05-05T08:53:40Z</time>
      </trkpt>
      <trkpt lat="43.23111" lon="5.50181">
        <ele>192.5</ele>
        <time>2021-05-05T08:53:46Z</time>
      </trkpt>
      <trkpt lat="43.23115" lon="5.50175">
        <ele>192.2</ele>
        <time>2021-05-05T08:53:52Z</time>
      </trkpt>
      <trkpt lat="43.23117" lon="5.50168">
        <ele>191.9</ele>
        <time>2021-05-05T08:53:58Z</time>
      </trkpt>
      <trkpt lat="43.23121" lon="5.50164">
        <ele>191.6</ele>
        <time>2021-05-05T08:54:04Z</time>
      </trkpt>
      <trkpt lat="43.23124" lon="5.50159">
        <ele>191.3</ele>
        <time>2021-05-05T08:54:08Z</time>
      </trkpt>
      <trkpt lat="43.23129" lon="5.50152">
        <ele>191.1</ele>
        <time>2021-05-05T08:54:14Z</time>
      </trkpt>
      <trkpt lat="43.23133" lon="5.50146">
        <ele>190.8</ele>
        <time>2021-05-05T08:54:20Z</time>
      </trkpt>
      <trkpt lat="43.23134" lon="5.50139">
        <ele>190.7</ele>
        <time>2021-05-05T08:54:26Z</time>
      </trkpt>
      <trkpt lat="43.23137" lon="5.50135">
        <ele>190.5</ele>
        <time>2021-05-05T08:54:42Z</time>
      </trkpt>
      <trkpt lat="43.23138" lon="5.50129">
        <ele>190.4</ele>
        <time>2021-05-05T08:54:50Z</time>
      </trkpt>
      <trkpt lat="43.23136" lon="5.50123">
        <ele>190.3</ele>
        <time>2021-05-05T08:55:00Z</time>
      </trkpt>
      <trkpt lat="43.23132" lon="5.5012">
        <ele>190.3</ele>
        <time>2021-05-05T08:55:26Z</time>
      </trkpt>
      <trkpt lat="43.23129" lon="5.50115">
        <ele>190.2</ele>
        <time>2021-05-05T08:59:02Z</time>
      </trkpt>
      <trkpt lat="43.23127" lon="5.50108">
        <ele>190.1</ele>
        <time>2021-05-05T08:59:08Z</time>
      </trkpt>
      <trkpt lat="43.23123" lon="5.50101">
        <ele>189.9</ele>
        <time>2021-05-05T08:59:14Z</time>
      </trkpt>
      <trkpt lat="43.23122" lon="5.50092">
        <ele>189.7</ele>
        <time>2021-05-05T08:59:20Z</time>
      </trkpt>
      <trkpt lat="43.23121" lon="5.50082">
        <ele>189.5</ele>
        <time>2021-05-05T08:59:26Z</time>
      </trkpt>
      <trkpt lat="43.23119" lon="5.50074">
        <ele>189.8</ele>
        <time>2021-05-05T08:59:32Z</time>
      </trkpt>
      <trkpt lat="43.23117" lon="5.50065">
        <ele>190.2</ele>
        <time>2021-05-05T08:59:38Z</time>
      </trkpt>
      <trkpt lat="43.23114" lon="5.5006">
        <ele>190.2</ele>
        <time>2021-05-05T08:59:42Z</time>
      </trkpt>
      <trkpt lat="43.2311" lon="5.50056">
        <ele>190.2</ele>
        <time>2021-05-05T08:59:46Z</time>
      </trkpt>
      <trkpt lat="43.23108" lon="5.5005">
        <ele>190.2</ele>
        <time>2021-05-05T08:59:50Z</time>
      </trkpt>
      <trkpt lat="43.23105" lon="5.50044">
        <ele>190.1</ele>
        <time>2021-05-05T08:59:54Z</time>
      </trkpt>
      <trkpt lat="43.231" lon="5.50038">
        <ele>189.9</ele>
        <time>2021-05-05T09:00:00Z</time>
      </trkpt>
      <trkpt lat="43.23095" lon="5.50036">
        <ele>189.4</ele>
        <time>2021-05-05T09:00:06Z</time>
      </trkpt>
      <trkpt lat="43.2309" lon="5.50038">
        <ele>189</ele>
        <time>2021-05-05T09:00:12Z</time>
      </trkpt>
      <trkpt lat="43.23085" lon="5.50037">
        <ele>188.6</ele>
        <time>2021-05-05T09:00:18Z</time>
      </trkpt>
      <trkpt lat="43.2308" lon="5.50034">
        <ele>188.7</ele>
        <time>2021-05-05T09:00:22Z</time>
      </trkpt>
      <trkpt lat="43.23076" lon="5.50029">
        <ele>189.1</ele>
        <time>2021-05-05T09:00:28Z</time>
      </trkpt>
      <trkpt lat="43.23071" lon="5.50026">
        <ele>189.4</ele>
        <time>2021-05-05T09:00:34Z</time>
      </trkpt>
      <trkpt lat="43.23066" lon="5.50023">
        <ele>189.8</ele>
        <time>2021-05-05T09:00:40Z</time>
      </trkpt>
      <trkpt lat="43.23061" lon="5.50021">
        <ele>190.2</ele>
        <time>2021-05-05T09:00:46Z</time>
      </trkpt>
      <trkpt lat="43.23055" lon="5.50018">
        <ele>190.6</ele>
        <time>2021-05-05T09:00:52Z</time>
      </trkpt>
      <trkpt lat="43.23051" lon="5.50014">
        <ele>190.9</ele>
        <time>2021-05-05T09:00:58Z</time>
      </trkpt>
      <trkpt lat="43.23046" lon="5.50013">
        <ele>191.2</ele>
        <time>2021-05-05T09:01:04Z</time>
      </trkpt>
      <trkpt lat="43.23041" lon="5.50013">
        <ele>191.6</ele>
        <time>2021-05-05T09:01:08Z</time>
      </trkpt>
      <trkpt lat="43.23035" lon="5.50011">
        <ele>192</ele>
        <time>2021-05-05T09:01:14Z</time>
      </trkpt>
      <trkpt lat="43.2303" lon="5.50008">
        <ele>192.3</ele>
        <time>2021-05-05T09:01:20Z</time>
      </trkpt>
      <trkpt lat="43.23025" lon="5.50005">
        <ele>192.5</ele>
        <time>2021-05-05T09:01:26Z</time>
      </trkpt>
      <trkpt lat="43.23018" lon="5.50002">
        <ele>192.8</ele>
        <time>2021-05-05T09:01:32Z</time>
      </trkpt>
      <trkpt lat="43.23013" lon="5.5">
        <ele>193.1</ele>
        <time>2021-05-05T09:01:38Z</time>
      </trkpt>
      <trkpt lat="43.23007" lon="5.49997">
        <ele>193.5</ele>
        <time>2021-05-05T09:01:44Z</time>
      </trkpt>
      <trkpt lat="43.23001" lon="5.49996">
        <ele>193.9</ele>
        <time>2021-05-05T09:01:52Z</time>
      </trkpt>
      <trkpt lat="43.22996" lon="5.49996">
        <ele>195.2</ele>
        <time>2021-05-05T09:02:00Z</time>
      </trkpt>
      <trkpt lat="43.22991" lon="5.49997">
        <ele>196.7</ele>
        <time>2021-05-05T09:02:06Z</time>
      </trkpt>
      <trkpt lat="43.22986" lon="5.5">
        <ele>198.3</ele>
        <time>2021-05-05T09:02:12Z</time>
      </trkpt>
      <trkpt lat="43.22982" lon="5.50003">
        <ele>199.7</ele>
        <time>2021-05-05T09:02:18Z</time>
      </trkpt>
      <trkpt lat="43.22977" lon="5.50005">
        <ele>201.2</ele>
        <time>2021-05-05T09:02:24Z</time>
      </trkpt>
      <trkpt lat="43.22971" lon="5.50003">
        <ele>202.9</ele>
        <time>2021-05-05T09:02:32Z</time>
      </trkpt>
      <trkpt lat="43.22965" lon="5.5">
        <ele>204.4</ele>
        <time>2021-05-05T09:02:38Z</time>
      </trkpt>
      <trkpt lat="43.22961" lon="5.50003">
        <ele>205.9</ele>
        <time>2021-05-05T09:02:46Z</time>
      </trkpt>
      <trkpt lat="43.22963" lon="5.50011">
        <ele>206</ele>
        <time>2021-05-05T09:02:52Z</time>
      </trkpt>
      <trkpt lat="43.22966" lon="5.50017">
        <ele>205.5</ele>
        <time>2021-05-05T09:02:56Z</time>
      </trkpt>
      <trkpt lat="43.2297" lon="5.50023">
        <ele>204.6</ele>
        <time>2021-05-05T09:03:02Z</time>
      </trkpt>
      <trkpt lat="43.22976" lon="5.50027">
        <ele>203.2</ele>
        <time>2021-05-05T09:03:08Z</time>
      </trkpt>
      <trkpt lat="43.22979" lon="5.50032">
        <ele>202.7</ele>
        <time>2021-05-05T09:03:14Z</time>
      </trkpt>
      <trkpt lat="43.22981" lon="5.50038">
        <ele>202.3</ele>
        <time>2021-05-05T09:03:20Z</time>
      </trkpt>
      <trkpt lat="43.22982" lon="5.50044">
        <ele>202.5</ele>
        <time>2021-05-05T09:03:26Z</time>
      </trkpt>
      <trkpt lat="43.22983" lon="5.50052">
        <ele>202.9</ele>
        <time>2021-05-05T09:03:32Z</time>
      </trkpt>
      <trkpt lat="43.22982" lon="5.50059">
        <ele>203.7</ele>
        <time>2021-05-05T09:03:38Z</time>
      </trkpt>
      <trkpt lat="43.2298" lon="5.50066">
        <ele>204.9</ele>
        <time>2021-05-05T09:03:44Z</time>
      </trkpt>
      <trkpt lat="43.22978" lon="5.50074">
        <ele>206</ele>
        <time>2021-05-05T09:03:50Z</time>
      </trkpt>
      <trkpt lat="43.22978" lon="5.50081">
        <ele>206.5</ele>
        <time>2021-05-05T09:03:56Z</time>
      </trkpt>
      <trkpt lat="43.22977" lon="5.50089">
        <ele>207.6</ele>
        <time>2021-05-05T09:04:02Z</time>
      </trkpt>
      <trkpt lat="43.22977" lon="5.50097">
        <ele>208.2</ele>
        <time>2021-05-05T09:04:08Z</time>
      </trkpt>
      <trkpt lat="43.2298" lon="5.50104">
        <ele>208</ele>
        <time>2021-05-05T09:04:14Z</time>
      </trkpt>
      <trkpt lat="43.22982" lon="5.50111">
        <ele>208.3</ele>
        <time>2021-05-05T09:04:20Z</time>
      </trkpt>
      <trkpt lat="43.22984" lon="5.50117">
        <ele>208.2</ele>
        <time>2021-05-05T09:04:26Z</time>
      </trkpt>
      <trkpt lat="43.22986" lon="5.50123">
        <ele>208.4</ele>
        <time>2021-05-05T09:04:32Z</time>
      </trkpt>
      <trkpt lat="43.22987" lon="5.50131">
        <ele>208.9</ele>
        <time>2021-05-05T09:04:38Z</time>
      </trkpt>
      <trkpt lat="43.2299" lon="5.50139">
        <ele>208.7</ele>
        <time>2021-05-05T09:04:44Z</time>
      </trkpt>
      <trkpt lat="43.22993" lon="5.50145">
        <ele>208.5</ele>
        <time>2021-05-05T09:04:50Z</time>
      </trkpt>
      <trkpt lat="43.22995" lon="5.50153">
        <ele>208.8</ele>
        <time>2021-05-05T09:04:58Z</time>
      </trkpt>
      <trkpt lat="43.22992" lon="5.50158">
        <ele>210.1</ele>
        <time>2021-05-05T09:05:08Z</time>
      </trkpt>
      <trkpt lat="43.22989" lon="5.50164">
        <ele>211.6</ele>
        <time>2021-05-05T09:05:16Z</time>
      </trkpt>
      <trkpt lat="43.22986" lon="5.5017">
        <ele>213</ele>
        <time>2021-05-05T09:05:26Z</time>
      </trkpt>
      <trkpt lat="43.2298" lon="5.50172">
        <ele>214.6</ele>
        <time>2021-05-05T09:05:38Z</time>
      </trkpt>
      <trkpt lat="43.22975" lon="5.50173">
        <ele>215.9</ele>
        <time>2021-05-05T09:05:46Z</time>
      </trkpt>
      <trkpt lat="43.22971" lon="5.50177">
        <ele>217.2</ele>
        <time>2021-05-05T09:05:58Z</time>
      </trkpt>
      <trkpt lat="43.2297" lon="5.50183">
        <ele>217.9</ele>
        <time>2021-05-05T09:06:06Z</time>
      </trkpt>
      <trkpt lat="43.22971" lon="5.50191">
        <ele>218.2</ele>
        <time>2021-05-05T09:06:12Z</time>
      </trkpt>
      <trkpt lat="43.22973" lon="5.50199">
        <ele>218.3</ele>
        <time>2021-05-05T09:06:18Z</time>
      </trkpt>
      <trkpt lat="43.22974" lon="5.50206">
        <ele>218.4</ele>
        <time>2021-05-05T09:06:26Z</time>
      </trkpt>
      <trkpt lat="43.22971" lon="5.50213">
        <ele>219.5</ele>
        <time>2021-05-05T09:06:36Z</time>
      </trkpt>
      <trkpt lat="43.22969" lon="5.50218">
        <ele>220.4</ele>
        <time>2021-05-05T09:06:50Z</time>
      </trkpt>
      <trkpt lat="43.22968" lon="5.50224">
        <ele>221.1</ele>
        <time>2021-05-05T09:07:26Z</time>
      </trkpt>
      <trkpt lat="43.22963" lon="5.50229">
        <ele>222.5</ele>
        <time>2021-05-05T09:07:36Z</time>
      </trkpt>
      <trkpt lat="43.2296" lon="5.50236">
        <ele>223.8</ele>
        <time>2021-05-05T09:07:44Z</time>
      </trkpt>
      <trkpt lat="43.22957" lon="5.50242">
        <ele>224.9</ele>
        <time>2021-05-05T09:09:00Z</time>
      </trkpt>
      <trkpt lat="43.22954" lon="5.50247">
        <ele>225.9</ele>
        <time>2021-05-05T09:09:08Z</time>
      </trkpt>
      <trkpt lat="43.22951" lon="5.50251">
        <ele>226.8</ele>
        <time>2021-05-05T09:09:16Z</time>
      </trkpt>
      <trkpt lat="43.22946" lon="5.50255">
        <ele>228</ele>
        <time>2021-05-05T09:09:22Z</time>
      </trkpt>
      <trkpt lat="43.22942" lon="5.5026">
        <ele>228.8</ele>
        <time>2021-05-05T09:09:28Z</time>
      </trkpt>
      <trkpt lat="43.22939" lon="5.50267">
        <ele>229.4</ele>
        <time>2021-05-05T09:09:34Z</time>
      </trkpt>
      <trkpt lat="43.22935" lon="5.50272">
        <ele>230.1</ele>
        <time>2021-05-05T09:09:40Z</time>
      </trkpt>
      <trkpt lat="43.22932" lon="5.50278">
        <ele>230.7</ele>
        <time>2021-05-05T09:09:46Z</time>
      </trkpt>
      <trkpt lat="43.22929" lon="5.50283">
        <ele>231.1</ele>
        <time>2021-05-05T09:09:52Z</time>
      </trkpt>
      <trkpt lat="43.22926" lon="5.50288">
        <ele>231.7</ele>
        <time>2021-05-05T09:09:58Z</time>
      </trkpt>
      <trkpt lat="43.22922" lon="5.50292">
        <ele>232.4</ele>
        <time>2021-05-05T09:10:04Z</time>
      </trkpt>
      <trkpt lat="43.22919" lon="5.50297">
        <ele>232.9</ele>
        <time>2021-05-05T09:10:10Z</time>
      </trkpt>
      <trkpt lat="43.22914" lon="5.50302">
        <ele>233.7</ele>
        <time>2021-05-05T09:10:18Z</time>
      </trkpt>
      <trkpt lat="43.2291" lon="5.50308">
        <ele>234.5</ele>
        <time>2021-05-05T09:10:26Z</time>
      </trkpt>
      <trkpt lat="43.22906" lon="5.50312">
        <ele>235.3</ele>
        <time>2021-05-05T09:10:32Z</time>
      </trkpt>
      <trkpt lat="43.22902" lon="5.50317">
        <ele>236</ele>
        <time>2021-05-05T09:10:38Z</time>
      </trkpt>
      <trkpt lat="43.229" lon="5.50324">
        <ele>236.2</ele>
        <time>2021-05-05T09:10:44Z</time>
      </trkpt>
      <trkpt lat="43.22897" lon="5.5033">
        <ele>236.6</ele>
        <time>2021-05-05T09:10:52Z</time>
      </trkpt>
      <trkpt lat="43.22893" lon="5.50332">
        <ele>237.5</ele>
        <time>2021-05-05T09:10:58Z</time>
      </trkpt>
      <trkpt lat="43.22889" lon="5.50337">
        <ele>238.2</ele>
        <time>2021-05-05T09:11:04Z</time>
      </trkpt>
      <trkpt lat="43.22885" lon="5.50343">
        <ele>238.6</ele>
        <time>2021-05-05T09:11:10Z</time>
      </trkpt>
      <trkpt lat="43.22882" lon="5.50348">
        <ele>239.3</ele>
        <time>2021-05-05T09:11:16Z</time>
      </trkpt>
      <trkpt lat="43.22877" lon="5.50353">
        <ele>239.9</ele>
        <time>2021-05-05T09:11:24Z</time>
      </trkpt>
      <trkpt lat="43.22875" lon="5.50359">
        <ele>240.1</ele>
        <time>2021-05-05T09:11:30Z</time>
      </trkpt>
      <trkpt lat="43.22872" lon="5.50365">
        <ele>240.5</ele>
        <time>2021-05-05T09:13:10Z</time>
      </trkpt>
      <trkpt lat="43.22868" lon="5.50369">
        <ele>241.2</ele>
        <time>2021-05-05T09:13:16Z</time>
      </trkpt>
      <trkpt lat="43.22864" lon="5.50372">
        <ele>241.8</ele>
        <time>2021-05-05T09:13:22Z</time>
      </trkpt>
      <trkpt lat="43.22857" lon="5.50375">
        <ele>242.9</ele>
        <time>2021-05-05T09:13:30Z</time>
      </trkpt>
      <trkpt lat="43.22854" lon="5.50381">
        <ele>243.4</ele>
        <time>2021-05-05T09:13:36Z</time>
      </trkpt>
      <trkpt lat="43.22849" lon="5.50385">
        <ele>244</ele>
        <time>2021-05-05T09:13:42Z</time>
      </trkpt>
      <trkpt lat="43.22845" lon="5.50389">
        <ele>244.6</ele>
        <time>2021-05-05T09:13:48Z</time>
      </trkpt>
      <trkpt lat="43.22841" lon="5.50392">
        <ele>245.3</ele>
        <time>2021-05-05T09:13:54Z</time>
      </trkpt>
      <trkpt lat="43.22837" lon="5.50398">
        <ele>245.7</ele>
        <time>2021-05-05T09:14:00Z</time>
      </trkpt>
      <trkpt lat="43.22832" lon="5.50403">
        <ele>246.2</ele>
        <time>2021-05-05T09:14:06Z</time>
      </trkpt>
      <trkpt lat="43.22827" lon="5.50406">
        <ele>246.7</ele>
        <time>2021-05-05T09:14:12Z</time>
      </trkpt>
      <trkpt lat="43.22824" lon="5.50411">
        <ele>246.7</ele>
        <time>2021-05-05T09:14:20Z</time>
      </trkpt>
      <trkpt lat="43.22819" lon="5.50416">
        <ele>247.1</ele>
        <time>2021-05-05T09:14:28Z</time>
      </trkpt>
      <trkpt lat="43.22814" lon="5.5042">
        <ele>247.6</ele>
        <time>2021-05-05T09:14:36Z</time>
      </trkpt>
      <trkpt lat="43.22809" lon="5.50423">
        <ele>248.3</ele>
        <time>2021-05-05T09:14:44Z</time>
      </trkpt>
      <trkpt lat="43.22805" lon="5.50426">
        <ele>248.9</ele>
        <time>2021-05-05T09:14:54Z</time>
      </trkpt>
      <trkpt lat="43.228" lon="5.50429">
        <ele>249.5</ele>
        <time>2021-05-05T09:15:00Z</time>
      </trkpt>
      <trkpt lat="43.22795" lon="5.50431">
        <ele>250.2</ele>
        <time>2021-05-05T09:15:06Z</time>
      </trkpt>
      <trkpt lat="43.2279" lon="5.50431">
        <ele>251.1</ele>
        <time>2021-05-05T09:15:12Z</time>
      </trkpt>
      <trkpt lat="43.22785" lon="5.50432">
        <ele>251.7</ele>
        <time>2021-05-05T09:15:18Z</time>
      </trkpt>
      <trkpt lat="43.22781" lon="5.50435">
        <ele>252.4</ele>
        <time>2021-05-05T09:15:24Z</time>
      </trkpt>
      <trkpt lat="43.22775" lon="5.50438">
        <ele>253.2</ele>
        <time>2021-05-05T09:15:32Z</time>
      </trkpt>
      <trkpt lat="43.22769" lon="5.5044">
        <ele>254.1</ele>
        <time>2021-05-05T09:15:40Z</time>
      </trkpt>
      <trkpt lat="43.22764" lon="5.50443">
        <ele>254.8</ele>
        <time>2021-05-05T09:15:48Z</time>
      </trkpt>
      <trkpt lat="43.22759" lon="5.50443">
        <ele>255.5</ele>
        <time>2021-05-05T09:15:54Z</time>
      </trkpt>
      <trkpt lat="43.22754" lon="5.50441">
        <ele>256.3</ele>
        <time>2021-05-05T09:16:02Z</time>
      </trkpt>
      <trkpt lat="43.22749" lon="5.5044">
        <ele>257</ele>
        <time>2021-05-05T09:16:10Z</time>
      </trkpt>
      <trkpt lat="43.22746" lon="5.50436">
        <ele>257</ele>
        <time>2021-05-05T09:16:16Z</time>
      </trkpt>
      <trkpt lat="43.22744" lon="5.5043">
        <ele>257</ele>
        <time>2021-05-05T09:16:22Z</time>
      </trkpt>
      <trkpt lat="43.2274" lon="5.50426">
        <ele>256.9</ele>
        <time>2021-05-05T09:16:28Z</time>
      </trkpt>
      <trkpt lat="43.22736" lon="5.50429">
        <ele>256.9</ele>
        <time>2021-05-05T09:16:50Z</time>
      </trkpt>
      <trkpt lat="43.22731" lon="5.50425">
        <ele>256.8</ele>
        <time>2021-05-05T09:18:14Z</time>
      </trkpt>
      <trkpt lat="43.22727" lon="5.50418">
        <ele>256.5</ele>
        <time>2021-05-05T09:18:20Z</time>
      </trkpt>
      <trkpt lat="43.22723" lon="5.50411">
        <ele>256.7</ele>
        <time>2021-05-05T09:18:26Z</time>
      </trkpt>
      <trkpt lat="43.2272" lon="5.50406">
        <ele>257</ele>
        <time>2021-05-05T09:18:30Z</time>
      </trkpt>
      <trkpt lat="43.22717" lon="5.50402">
        <ele>257.2</ele>
        <time>2021-05-05T09:18:34Z</time>
      </trkpt>
      <trkpt lat="43.22714" lon="5.50395">
        <ele>257.4</ele>
        <time>2021-05-05T09:18:40Z</time>
      </trkpt>
      <trkpt lat="43.22711" lon="5.50389">
        <ele>257.6</ele>
        <time>2021-05-05T09:18:46Z</time>
      </trkpt>
      <trkpt lat="43.22707" lon="5.50382">
        <ele>257.8</ele>
        <time>2021-05-05T09:18:52Z</time>
      </trkpt>
      <trkpt lat="43.22703" lon="5.50375">
        <ele>257.9</ele>
        <time>2021-05-05T09:18:58Z</time>
      </trkpt>
      <trkpt lat="43.22699" lon="5.50371">
        <ele>257.8</ele>
        <time>2021-05-05T09:19:02Z</time>
      </trkpt>
      <trkpt lat="43.22697" lon="5.50365">
        <ele>257.9</ele>
        <time>2021-05-05T09:19:06Z</time>
      </trkpt>
      <trkpt lat="43.22694" lon="5.50358">
        <ele>258</ele>
        <time>2021-05-05T09:19:12Z</time>
      </trkpt>
      <trkpt lat="43.22689" lon="5.50351">
        <ele>257.8</ele>
        <time>2021-05-05T09:19:18Z</time>
      </trkpt>
      <trkpt lat="43.22685" lon="5.50344">
        <ele>257.7</ele>
        <time>2021-05-05T09:19:24Z</time>
      </trkpt>
      <trkpt lat="43.22682" lon="5.50339">
        <ele>257.5</ele>
        <time>2021-05-05T09:19:28Z</time>
      </trkpt>
      <trkpt lat="43.22679" lon="5.50334">
        <ele>257.3</ele>
        <time>2021-05-05T09:19:32Z</time>
      </trkpt>
      <trkpt lat="43.22675" lon="5.50327">
        <ele>257.5</ele>
        <time>2021-05-05T09:19:38Z</time>
      </trkpt>
      <trkpt lat="43.22672" lon="5.50322">
        <ele>257.8</ele>
        <time>2021-05-05T09:19:42Z</time>
      </trkpt>
      <trkpt lat="43.22669" lon="5.50316">
        <ele>258.1</ele>
        <time>2021-05-05T09:19:46Z</time>
      </trkpt>
      <trkpt lat="43.22666" lon="5.50312">
        <ele>258.2</ele>
        <time>2021-05-05T09:19:50Z</time>
      </trkpt>
      <trkpt lat="43.22661" lon="5.50305">
        <ele>258.1</ele>
        <time>2021-05-05T09:19:56Z</time>
      </trkpt>
      <trkpt lat="43.22656" lon="5.50299">
        <ele>258</ele>
        <time>2021-05-05T09:20:02Z</time>
      </trkpt>
      <trkpt lat="43.22654" lon="5.50294">
        <ele>258.1</ele>
        <time>2021-05-05T09:20:06Z</time>
      </trkpt>
      <trkpt lat="43.2265" lon="5.5029">
        <ele>258</ele>
        <time>2021-05-05T09:20:10Z</time>
      </trkpt>
      <trkpt lat="43.22646" lon="5.50286">
        <ele>257.8</ele>
        <time>2021-05-05T09:20:14Z</time>
      </trkpt>
      <trkpt lat="43.22641" lon="5.50281">
        <ele>257.7</ele>
        <time>2021-05-05T09:20:18Z</time>
      </trkpt>
      <trkpt lat="43.22637" lon="5.50277">
        <ele>257.6</ele>
        <time>2021-05-05T09:20:22Z</time>
      </trkpt>
      <trkpt lat="43.22633" lon="5.50273">
        <ele>257.3</ele>
        <time>2021-05-05T09:20:26Z</time>
      </trkpt>
      <trkpt lat="43.22628" lon="5.50272">
        <ele>256.8</ele>
        <time>2021-05-05T09:20:30Z</time>
      </trkpt>
      <trkpt lat="43.22623" lon="5.5027">
        <ele>256.2</ele>
        <time>2021-05-05T09:20:34Z</time>
      </trkpt>
      <trkpt lat="43.22618" lon="5.5027">
        <ele>255.4</ele>
        <time>2021-05-05T09:20:38Z</time>
      </trkpt>
      <trkpt lat="43.22614" lon="5.5027">
        <ele>254.8</ele>
        <time>2021-05-05T09:20:42Z</time>
      </trkpt>
      <trkpt lat="43.22609" lon="5.50269">
        <ele>254.1</ele>
        <time>2021-05-05T09:20:46Z</time>
      </trkpt>
      <trkpt lat="43.22604" lon="5.50269">
        <ele>253.4</ele>
        <time>2021-05-05T09:20:50Z</time>
      </trkpt>
      <trkpt lat="43.22599" lon="5.50269">
        <ele>252.6</ele>
        <time>2021-05-05T09:20:54Z</time>
      </trkpt>
      <trkpt lat="43.22592" lon="5.5027">
        <ele>251.5</ele>
        <time>2021-05-05T09:21:00Z</time>
      </trkpt>
      <trkpt lat="43.22587" lon="5.5027">
        <ele>250.7</ele>
        <time>2021-05-05T09:21:04Z</time>
      </trkpt>
      <trkpt lat="43.22581" lon="5.50271">
        <ele>249.8</ele>
        <time>2021-05-05T09:21:10Z</time>
      </trkpt>
      <trkpt lat="43.22573" lon="5.50271">
        <ele>249.1</ele>
        <time>2021-05-05T09:21:16Z</time>
      </trkpt>
      <trkpt lat="43.22567" lon="5.50271">
        <ele>248.6</ele>
        <time>2021-05-05T09:21:20Z</time>
      </trkpt>
      <trkpt lat="43.22562" lon="5.50272">
        <ele>248</ele>
        <time>2021-05-05T09:21:24Z</time>
      </trkpt>
      <trkpt lat="43.22557" lon="5.50272">
        <ele>247.7</ele>
        <time>2021-05-05T09:21:28Z</time>
      </trkpt>
      <trkpt lat="43.22553" lon="5.50271">
        <ele>247.4</ele>
        <time>2021-05-05T09:21:32Z</time>
      </trkpt>
      <trkpt lat="43.22548" lon="5.50271">
        <ele>247</ele>
        <time>2021-05-05T09:21:36Z</time>
      </trkpt>
      <trkpt lat="43.22543" lon="5.5027">
        <ele>246.7</ele>
        <time>2021-05-05T09:21:40Z</time>
      </trkpt>
      <trkpt lat="43.22538" lon="5.5027">
        <ele>246.3</ele>
        <time>2021-05-05T09:21:44Z</time>
      </trkpt>
      <trkpt lat="43.22533" lon="5.50271">
        <ele>245.7</ele>
        <time>2021-05-05T09:21:50Z</time>
      </trkpt>
      <trkpt lat="43.22527" lon="5.50271">
        <ele>245.3</ele>
        <time>2021-05-05T09:21:56Z</time>
      </trkpt>
      <trkpt lat="43.22521" lon="5.50268">
        <ele>245.2</ele>
        <time>2021-05-05T09:22:02Z</time>
      </trkpt>
      <trkpt lat="43.22517" lon="5.50266">
        <ele>245.1</ele>
        <time>2021-05-05T09:22:06Z</time>
      </trkpt>
      <trkpt lat="43.22512" lon="5.50265">
        <ele>244.9</ele>
        <time>2021-05-05T09:22:10Z</time>
      </trkpt>
      <trkpt lat="43.22507" lon="5.50263">
        <ele>244.7</ele>
        <time>2021-05-05T09:22:14Z</time>
      </trkpt>
      <trkpt lat="43.22503" lon="5.50261">
        <ele>244.7</ele>
        <time>2021-05-05T09:22:18Z</time>
      </trkpt>
      <trkpt lat="43.22497" lon="5.50256">
        <ele>244.8</ele>
        <time>2021-05-05T09:22:24Z</time>
      </trkpt>
      <trkpt lat="43.22492" lon="5.50253">
        <ele>245</ele>
        <time>2021-05-05T09:22:30Z</time>
      </trkpt>
      <trkpt lat="43.22488" lon="5.50248">
        <ele>245.2</ele>
        <time>2021-05-05T09:22:34Z</time>
      </trkpt>
      <trkpt lat="43.22484" lon="5.50245">
        <ele>245.1</ele>
        <time>2021-05-05T09:22:38Z</time>
      </trkpt>
      <trkpt lat="43.2248" lon="5.50242">
        <ele>245</ele>
        <time>2021-05-05T09:22:42Z</time>
      </trkpt>
      <trkpt lat="43.22475" lon="5.50239">
        <ele>244.9</ele>
        <time>2021-05-05T09:22:46Z</time>
      </trkpt>
      <trkpt lat="43.2247" lon="5.50237">
        <ele>244.6</ele>
        <time>2021-05-05T09:22:52Z</time>
      </trkpt>
      <trkpt lat="43.22465" lon="5.50234">
        <ele>244.3</ele>
        <time>2021-05-05T09:23:00Z</time>
      </trkpt>
      <trkpt lat="43.22461" lon="5.50231">
        <ele>244.2</ele>
        <time>2021-05-05T09:23:06Z</time>
      </trkpt>
      <trkpt lat="43.22456" lon="5.50228">
        <ele>243.8</ele>
        <time>2021-05-05T09:23:14Z</time>
      </trkpt>
      <trkpt lat="43.22451" lon="5.50225">
        <ele>243.4</ele>
        <time>2021-05-05T09:23:20Z</time>
      </trkpt>
      <trkpt lat="43.22446" lon="5.50223">
        <ele>243</ele>
        <time>2021-05-05T09:23:26Z</time>
      </trkpt>
      <trkpt lat="43.22443" lon="5.50217">
        <ele>242.9</ele>
        <time>2021-05-05T09:23:34Z</time>
      </trkpt>
      <trkpt lat="43.22438" lon="5.50214">
        <ele>242.5</ele>
        <time>2021-05-05T09:23:42Z</time>
      </trkpt>
      <trkpt lat="43.22432" lon="5.50211">
        <ele>241.9</ele>
        <time>2021-05-05T09:23:48Z</time>
      </trkpt>
      <trkpt lat="43.22427" lon="5.50206">
        <ele>241.5</ele>
        <time>2021-05-05T09:23:54Z</time>
      </trkpt>
      <trkpt lat="43.22422" lon="5.502">
        <ele>241</ele>
        <time>2021-05-05T09:24:00Z</time>
      </trkpt>
      <trkpt lat="43.22418" lon="5.50196">
        <ele>240.5</ele>
        <time>2021-05-05T09:24:06Z</time>
      </trkpt>
      <trkpt lat="43.22414" lon="5.50192">
        <ele>240</ele>
        <time>2021-05-05T09:24:12Z</time>
      </trkpt>
      <trkpt lat="43.22409" lon="5.50189">
        <ele>239.3</ele>
        <time>2021-05-05T09:24:20Z</time>
      </trkpt>
      <trkpt lat="43.22408" lon="5.50183">
        <ele>239.3</ele>
        <time>2021-05-05T09:24:26Z</time>
      </trkpt>
      <trkpt lat="43.22406" lon="5.50177">
        <ele>239.1</ele>
        <time>2021-05-05T09:24:30Z</time>
      </trkpt>
      <trkpt lat="43.22403" lon="5.50172">
        <ele>238.8</ele>
        <time>2021-05-05T09:24:34Z</time>
      </trkpt>
      <trkpt lat="43.224" lon="5.50167">
        <ele>238.5</ele>
        <time>2021-05-05T09:24:38Z</time>
      </trkpt>
      <trkpt lat="43.22396" lon="5.50164">
        <ele>238.2</ele>
        <time>2021-05-05T09:24:42Z</time>
      </trkpt>
      <trkpt lat="43.22389" lon="5.5016">
        <ele>237.5</ele>
        <time>2021-05-05T09:24:48Z</time>
      </trkpt>
      <trkpt lat="43.22385" lon="5.50161">
        <ele>236.8</ele>
        <time>2021-05-05T09:24:52Z</time>
      </trkpt>
      <trkpt lat="43.22378" lon="5.50162">
        <ele>235.7</ele>
        <time>2021-05-05T09:24:58Z</time>
      </trkpt>
      <trkpt lat="43.22372" lon="5.50163">
        <ele>234.9</ele>
        <time>2021-05-05T09:25:02Z</time>
      </trkpt>
      <trkpt lat="43.22368" lon="5.50163">
        <ele>234.3</ele>
        <time>2021-05-05T09:25:06Z</time>
      </trkpt>
      <trkpt lat="43.22363" lon="5.50163">
        <ele>233.5</ele>
        <time>2021-05-05T09:25:10Z</time>
      </trkpt>
      <trkpt lat="43.22358" lon="5.50163">
        <ele>232.9</ele>
        <time>2021-05-05T09:25:14Z</time>
      </trkpt>
      <trkpt lat="43.22354" lon="5.50162">
        <ele>232.3</ele>
        <time>2021-05-05T09:25:18Z</time>
      </trkpt>
      <trkpt lat="43.22347" lon="5.50165">
        <ele>231.1</ele>
        <time>2021-05-05T09:25:24Z</time>
      </trkpt>
      <trkpt lat="43.22343" lon="5.50167">
        <ele>230.3</ele>
        <time>2021-05-05T09:25:28Z</time>
      </trkpt>
      <trkpt lat="43.22336" lon="5.50168">
        <ele>229.3</ele>
        <time>2021-05-05T09:25:34Z</time>
      </trkpt>
      <trkpt lat="43.22331" lon="5.5017">
        <ele>228.7</ele>
        <time>2021-05-05T09:25:38Z</time>
      </trkpt>
      <trkpt lat="43.22326" lon="5.5017">
        <ele>228.2</ele>
        <time>2021-05-05T09:25:42Z</time>
      </trkpt>
      <trkpt lat="43.22321" lon="5.50172">
        <ele>227.7</ele>
        <time>2021-05-05T09:25:46Z</time>
      </trkpt>
      <trkpt lat="43.22315" lon="5.50174">
        <ele>227</ele>
        <time>2021-05-05T09:25:52Z</time>
      </trkpt>
      <trkpt lat="43.22309" lon="5.50176">
        <ele>226.4</ele>
        <time>2021-05-05T09:25:58Z</time>
      </trkpt>
      <trkpt lat="43.22304" lon="5.50176">
        <ele>226</ele>
        <time>2021-05-05T09:26:04Z</time>
      </trkpt>
      <trkpt lat="43.22298" lon="5.50177">
        <ele>225.4</ele>
        <time>2021-05-05T09:26:12Z</time>
      </trkpt>
      <trkpt lat="43.22294" lon="5.5018">
        <ele>224.9</ele>
        <time>2021-05-05T09:26:16Z</time>
      </trkpt>
      <trkpt lat="43.22288" lon="5.50183">
        <ele>224.2</ele>
        <time>2021-05-05T09:26:22Z</time>
      </trkpt>
      <trkpt lat="43.22284" lon="5.50185">
        <ele>223.8</ele>
        <time>2021-05-05T09:26:26Z</time>
      </trkpt>
      <trkpt lat="43.2228" lon="5.50187">
        <ele>223.3</ele>
        <time>2021-05-05T09:26:30Z</time>
      </trkpt>
      <trkpt lat="43.22275" lon="5.50188">
        <ele>222.8</ele>
        <time>2021-05-05T09:26:34Z</time>
      </trkpt>
      <trkpt lat="43.2227" lon="5.5019">
        <ele>222.3</ele>
        <time>2021-05-05T09:26:38Z</time>
      </trkpt>
      <trkpt lat="43.22265" lon="5.50191">
        <ele>221.8</ele>
        <time>2021-05-05T09:26:42Z</time>
      </trkpt>
      <trkpt lat="43.22259" lon="5.50189">
        <ele>221.4</ele>
        <time>2021-05-05T09:26:48Z</time>
      </trkpt>
      <trkpt lat="43.22255" lon="5.50186">
        <ele>221.3</ele>
        <time>2021-05-05T09:26:52Z</time>
      </trkpt>
      <trkpt lat="43.22252" lon="5.50181">
        <ele>221.3</ele>
        <time>2021-05-05T09:26:56Z</time>
      </trkpt>
      <trkpt lat="43.2225" lon="5.50175">
        <ele>221.5</ele>
        <time>2021-05-05T09:27:00Z</time>
      </trkpt>
      <trkpt lat="43.22248" lon="5.50169">
        <ele>221.7</ele>
        <time>2021-05-05T09:27:04Z</time>
      </trkpt>
      <trkpt lat="43.22246" lon="5.50162">
        <ele>221.9</ele>
        <time>2021-05-05T09:27:08Z</time>
      </trkpt>
      <trkpt lat="43.22244" lon="5.50157">
        <ele>222</ele>
        <time>2021-05-05T09:27:12Z</time>
      </trkpt>
      <trkpt lat="43.22242" lon="5.50151">
        <ele>222.1</ele>
        <time>2021-05-05T09:27:16Z</time>
      </trkpt>
      <trkpt lat="43.2224" lon="5.50145">
        <ele>222.2</ele>
        <time>2021-05-05T09:27:20Z</time>
      </trkpt>
      <trkpt lat="43.22236" lon="5.50138">
        <ele>222.1</ele>
        <time>2021-05-05T09:27:26Z</time>
      </trkpt>
      <trkpt lat="43.22233" lon="5.50134">
        <ele>221.9</ele>
        <time>2021-05-05T09:27:30Z</time>
      </trkpt>
      <trkpt lat="43.22228" lon="5.50127">
        <ele>221.7</ele>
        <time>2021-05-05T09:27:36Z</time>
      </trkpt>
      <trkpt lat="43.22223" lon="5.50121">
        <ele>221.4</ele>
        <time>2021-05-05T09:27:42Z</time>
      </trkpt>
      <trkpt lat="43.22219" lon="5.50115">
        <ele>221</ele>
        <time>2021-05-05T09:27:48Z</time>
      </trkpt>
      <trkpt lat="43.22213" lon="5.5011">
        <ele>220.5</ele>
        <time>2021-05-05T09:27:54Z</time>
      </trkpt>
      <trkpt lat="43.22209" lon="5.50109">
        <ele>219.8</ele>
        <time>2021-05-05T09:27:58Z</time>
      </trkpt>
      <trkpt lat="43.22202" lon="5.50109">
        <ele>218.9</ele>
        <time>2021-05-05T09:28:04Z</time>
      </trkpt>
      <trkpt lat="43.22197" lon="5.50107">
        <ele>218.1</ele>
        <time>2021-05-05T09:28:10Z</time>
      </trkpt>
      <trkpt lat="43.22191" lon="5.50106">
        <ele>217.2</ele>
        <time>2021-05-05T09:28:16Z</time>
      </trkpt>
      <trkpt lat="43.22186" lon="5.50107">
        <ele>216.4</ele>
        <time>2021-05-05T09:28:22Z</time>
      </trkpt>
      <trkpt lat="43.22181" lon="5.50106">
        <ele>215.7</ele>
        <time>2021-05-05T09:28:28Z</time>
      </trkpt>
      <trkpt lat="43.22175" lon="5.50105">
        <ele>214.8</ele>
        <time>2021-05-05T09:28:34Z</time>
      </trkpt>
      <trkpt lat="43.2217" lon="5.50104">
        <ele>214.1</ele>
        <time>2021-05-05T09:28:40Z</time>
      </trkpt>
      <trkpt lat="43.22165" lon="5.50104">
        <ele>213.1</ele>
        <time>2021-05-05T09:28:46Z</time>
      </trkpt>
      <trkpt lat="43.22159" lon="5.50105">
        <ele>211.9</ele>
        <time>2021-05-05T09:28:52Z</time>
      </trkpt>
      <trkpt lat="43.22153" lon="5.50107">
        <ele>210.5</ele>
        <time>2021-05-05T09:28:58Z</time>
      </trkpt>
      <trkpt lat="43.22148" lon="5.5011">
        <ele>209.2</ele>
        <time>2021-05-05T09:29:04Z</time>
      </trkpt>
      <trkpt lat="43.22143" lon="5.50111">
        <ele>208.2</ele>
        <time>2021-05-05T09:29:10Z</time>
      </trkpt>
      <trkpt lat="43.2214" lon="5.50107">
        <ele>207.6</ele>
        <time>2021-05-05T09:32:40Z</time>
      </trkpt>
      <trkpt lat="43.22135" lon="5.50107">
        <ele>206.5</ele>
        <time>2021-05-05T09:34:14Z</time>
      </trkpt>
      <trkpt lat="43.22131" lon="5.50113">
        <ele>205.5</ele>
        <time>2021-05-05T09:34:22Z</time>
      </trkpt>
      <trkpt lat="43.22127" lon="5.50119">
        <ele>204.6</ele>
        <time>2021-05-05T09:34:30Z</time>
      </trkpt>
      <trkpt lat="43.22123" lon="5.50126">
        <ele>203.7</ele>
        <time>2021-05-05T09:34:38Z</time>
      </trkpt>
      <trkpt lat="43.2212" lon="5.50132">
        <ele>203.1</ele>
        <time>2021-05-05T09:34:44Z</time>
      </trkpt>
      <trkpt lat="43.22116" lon="5.50139">
        <ele>202.3</ele>
        <time>2021-05-05T09:34:50Z</time>
      </trkpt>
      <trkpt lat="43.22114" lon="5.50144">
        <ele>201.9</ele>
        <time>2021-05-05T09:34:54Z</time>
      </trkpt>
      <trkpt lat="43.22112" lon="5.5015">
        <ele>201.6</ele>
        <time>2021-05-05T09:34:58Z</time>
      </trkpt>
      <trkpt lat="43.2211" lon="5.50157">
        <ele>201.2</ele>
        <time>2021-05-05T09:35:02Z</time>
      </trkpt>
      <trkpt lat="43.22108" lon="5.50163">
        <ele>200.7</ele>
        <time>2021-05-05T09:35:06Z</time>
      </trkpt>
      <trkpt lat="43.22106" lon="5.50169">
        <ele>200.4</ele>
        <time>2021-05-05T09:35:10Z</time>
      </trkpt>
      <trkpt lat="43.22105" lon="5.50176">
        <ele>200.4</ele>
        <time>2021-05-05T09:35:14Z</time>
      </trkpt>
      <trkpt lat="43.22103" lon="5.50183">
        <ele>200.4</ele>
        <time>2021-05-05T09:35:18Z</time>
      </trkpt>
      <trkpt lat="43.22101" lon="5.5019">
        <ele>200.1</ele>
        <time>2021-05-05T09:35:22Z</time>
      </trkpt>
      <trkpt lat="43.22098" lon="5.50198">
        <ele>199.9</ele>
        <time>2021-05-05T09:35:28Z</time>
      </trkpt>
      <trkpt lat="43.22095" lon="5.50206">
        <ele>199.7</ele>
        <time>2021-05-05T09:35:34Z</time>
      </trkpt>
      <trkpt lat="43.22093" lon="5.50212">
        <ele>199.7</ele>
        <time>2021-05-05T09:35:38Z</time>
      </trkpt>
      <trkpt lat="43.2209" lon="5.50221">
        <ele>199.6</ele>
        <time>2021-05-05T09:35:44Z</time>
      </trkpt>
      <trkpt lat="43.22088" lon="5.50227">
        <ele>199.6</ele>
        <time>2021-05-05T09:35:48Z</time>
      </trkpt>
      <trkpt lat="43.22087" lon="5.50233">
        <ele>199.8</ele>
        <time>2021-05-05T09:35:52Z</time>
      </trkpt>
      <trkpt lat="43.22086" lon="5.50239">
        <ele>199.9</ele>
        <time>2021-05-05T09:35:56Z</time>
      </trkpt>
      <trkpt lat="43.22086" lon="5.50246">
        <ele>200.2</ele>
        <time>2021-05-05T09:36:00Z</time>
      </trkpt>
      <trkpt lat="43.22085" lon="5.50254">
        <ele>200.3</ele>
        <time>2021-05-05T09:36:04Z</time>
      </trkpt>
      <trkpt lat="43.22084" lon="5.50262">
        <ele>200.4</ele>
        <time>2021-05-05T09:36:10Z</time>
      </trkpt>
      <trkpt lat="43.22084" lon="5.5027">
        <ele>200.5</ele>
        <time>2021-05-05T09:36:16Z</time>
      </trkpt>
      <trkpt lat="43.22084" lon="5.50278">
        <ele>200.8</ele>
        <time>2021-05-05T09:36:22Z</time>
      </trkpt>
      <trkpt lat="43.22084" lon="5.50285">
        <ele>200.9</ele>
        <time>2021-05-05T09:36:26Z</time>
      </trkpt>
      <trkpt lat="43.22084" lon="5.50292">
        <ele>201.1</ele>
        <time>2021-05-05T09:36:30Z</time>
      </trkpt>
      <trkpt lat="43.22085" lon="5.50298">
        <ele>201.3</ele>
        <time>2021-05-05T09:36:34Z</time>
      </trkpt>
      <trkpt lat="43.22084" lon="5.50306">
        <ele>201.4</ele>
        <time>2021-05-05T09:36:40Z</time>
      </trkpt>
      <trkpt lat="43.22082" lon="5.50311">
        <ele>201.3</ele>
        <time>2021-05-05T09:36:50Z</time>
      </trkpt>
      <trkpt lat="43.22078" lon="5.50318">
        <ele>201.2</ele>
        <time>2021-05-05T09:37:02Z</time>
      </trkpt>
      <trkpt lat="43.22074" lon="5.50324">
        <ele>201</ele>
        <time>2021-05-05T09:37:08Z</time>
      </trkpt>
      <trkpt lat="43.22069" lon="5.50331">
        <ele>200.9</ele>
        <time>2021-05-05T09:37:14Z</time>
      </trkpt>
      <trkpt lat="43.22066" lon="5.50335">
        <ele>200.7</ele>
        <time>2021-05-05T09:37:18Z</time>
      </trkpt>
      <trkpt lat="43.22063" lon="5.5034">
        <ele>200.2</ele>
        <time>2021-05-05T09:37:22Z</time>
      </trkpt>
      <trkpt lat="43.2206" lon="5.50345">
        <ele>199.8</ele>
        <time>2021-05-05T09:37:26Z</time>
      </trkpt>
      <trkpt lat="43.22055" lon="5.50352">
        <ele>199.3</ele>
        <time>2021-05-05T09:37:32Z</time>
      </trkpt>
      <trkpt lat="43.22052" lon="5.50356">
        <ele>198.8</ele>
        <time>2021-05-05T09:37:36Z</time>
      </trkpt>
      <trkpt lat="43.22048" lon="5.50361">
        <ele>198.4</ele>
        <time>2021-05-05T09:37:40Z</time>
      </trkpt>
      <trkpt lat="43.22045" lon="5.50366">
        <ele>198.1</ele>
        <time>2021-05-05T09:37:44Z</time>
      </trkpt>
      <trkpt lat="43.22041" lon="5.50372">
        <ele>197.6</ele>
        <time>2021-05-05T09:37:50Z</time>
      </trkpt>
      <trkpt lat="43.22037" lon="5.50379">
        <ele>197.1</ele>
        <time>2021-05-05T09:37:56Z</time>
      </trkpt>
      <trkpt lat="43.22032" lon="5.50385">
        <ele>196.6</ele>
        <time>2021-05-05T09:38:02Z</time>
      </trkpt>
      <trkpt lat="43.22028" lon="5.5039">
        <ele>196.2</ele>
        <time>2021-05-05T09:38:08Z</time>
      </trkpt>
      <trkpt lat="43.22024" lon="5.50393">
        <ele>195.9</ele>
        <time>2021-05-05T09:38:12Z</time>
      </trkpt>
      <trkpt lat="43.22019" lon="5.50399">
        <ele>195.4</ele>
        <time>2021-05-05T09:38:18Z</time>
      </trkpt>
      <trkpt lat="43.22014" lon="5.50403">
        <ele>195.1</ele>
        <time>2021-05-05T09:38:24Z</time>
      </trkpt>
      <trkpt lat="43.22012" lon="5.5041">
        <ele>194.8</ele>
        <time>2021-05-05T09:38:30Z</time>
      </trkpt>
      <trkpt lat="43.22015" lon="5.50418">
        <ele>194.7</ele>
        <time>2021-05-05T09:38:36Z</time>
      </trkpt>
      <trkpt lat="43.2202" lon="5.5042">
        <ele>194.8</ele>
        <time>2021-05-05T09:38:40Z</time>
      </trkpt>
      <trkpt lat="43.22025" lon="5.50423">
        <ele>195.1</ele>
        <time>2021-05-05T09:38:46Z</time>
      </trkpt>
      <trkpt lat="43.22031" lon="5.50426">
        <ele>195.3</ele>
        <time>2021-05-05T09:38:52Z</time>
      </trkpt>
      <trkpt lat="43.22037" lon="5.5043">
        <ele>195.5</ele>
        <time>2021-05-05T09:38:58Z</time>
      </trkpt>
      <trkpt lat="43.22043" lon="5.50433">
        <ele>195.9</ele>
        <time>2021-05-05T09:39:04Z</time>
      </trkpt>
      <trkpt lat="43.22049" lon="5.50435">
        <ele>196.2</ele>
        <time>2021-05-05T09:39:10Z</time>
      </trkpt>
      <trkpt lat="43.22054" lon="5.50438">
        <ele>196.6</ele>
        <time>2021-05-05T09:39:16Z</time>
      </trkpt>
      <trkpt lat="43.22059" lon="5.5044">
        <ele>196.9</ele>
        <time>2021-05-05T09:39:22Z</time>
      </trkpt>
      <trkpt lat="43.22064" lon="5.50441">
        <ele>197.3</ele>
        <time>2021-05-05T09:39:26Z</time>
      </trkpt>
      <trkpt lat="43.2207" lon="5.50441">
        <ele>197.6</ele>
        <time>2021-05-05T09:39:30Z</time>
      </trkpt>
      <trkpt lat="43.22074" lon="5.50443">
        <ele>198</ele>
        <time>2021-05-05T09:39:34Z</time>
      </trkpt>
      <trkpt lat="43.22078" lon="5.5045">
        <ele>198.3</ele>
        <time>2021-05-05T09:39:40Z</time>
      </trkpt>
      <trkpt lat="43.22073" lon="5.50456">
        <ele>198.1</ele>
        <time>2021-05-05T09:39:46Z</time>
      </trkpt>
      <trkpt lat="43.22068" lon="5.50457">
        <ele>197.7</ele>
        <time>2021-05-05T09:39:50Z</time>
      </trkpt>
      <trkpt lat="43.22062" lon="5.50456">
        <ele>197.2</ele>
        <time>2021-05-05T09:39:56Z</time>
      </trkpt>
      <trkpt lat="43.22056" lon="5.50455">
        <ele>196.7</ele>
        <time>2021-05-05T09:40:00Z</time>
      </trkpt>
      <trkpt lat="43.22051" lon="5.50453">
        <ele>196.3</ele>
        <time>2021-05-05T09:40:04Z</time>
      </trkpt>
      <trkpt lat="43.22046" lon="5.50452">
        <ele>195.9</ele>
        <time>2021-05-05T09:40:08Z</time>
      </trkpt>
      <trkpt lat="43.22039" lon="5.50453">
        <ele>195.4</ele>
        <time>2021-05-05T09:40:14Z</time>
      </trkpt>
      <trkpt lat="43.22033" lon="5.50453">
        <ele>194.9</ele>
        <time>2021-05-05T09:40:20Z</time>
      </trkpt>
      <trkpt lat="43.22028" lon="5.50452">
        <ele>194.5</ele>
        <time>2021-05-05T09:40:24Z</time>
      </trkpt>
      <trkpt lat="43.22023" lon="5.5045">
        <ele>194.1</ele>
        <time>2021-05-05T09:40:28Z</time>
      </trkpt>
      <trkpt lat="43.22018" lon="5.50454">
        <ele>193.7</ele>
        <time>2021-05-05T09:40:32Z</time>
      </trkpt>
      <trkpt lat="43.22012" lon="5.50458">
        <ele>193</ele>
        <time>2021-05-05T09:40:38Z</time>
      </trkpt>
      <trkpt lat="43.22007" lon="5.50461">
        <ele>192.5</ele>
        <time>2021-05-05T09:40:42Z</time>
      </trkpt>
      <trkpt lat="43.22002" lon="5.50465">
        <ele>191.8</ele>
        <time>2021-05-05T09:40:46Z</time>
      </trkpt>
      <trkpt lat="43.21998" lon="5.50469">
        <ele>191.4</ele>
        <time>2021-05-05T09:40:50Z</time>
      </trkpt>
      <trkpt lat="43.21992" lon="5.50471">
        <ele>191.1</ele>
        <time>2021-05-05T09:40:54Z</time>
      </trkpt>
      <trkpt lat="43.21988" lon="5.50474">
        <ele>190.8</ele>
        <time>2021-05-05T09:40:58Z</time>
      </trkpt>
      <trkpt lat="43.21984" lon="5.50477">
        <ele>190.5</ele>
        <time>2021-05-05T09:41:02Z</time>
      </trkpt>
      <trkpt lat="43.2198" lon="5.5048">
        <ele>190.2</ele>
        <time>2021-05-05T09:41:06Z</time>
      </trkpt>
      <trkpt lat="43.21976" lon="5.50483">
        <ele>189.8</ele>
        <time>2021-05-05T09:41:10Z</time>
      </trkpt>
      <trkpt lat="43.21971" lon="5.50489">
        <ele>189.2</ele>
        <time>2021-05-05T09:41:16Z</time>
      </trkpt>
      <trkpt lat="43.21967" lon="5.50496">
        <ele>188.7</ele>
        <time>2021-05-05T09:41:22Z</time>
      </trkpt>
      <trkpt lat="43.21962" lon="5.50501">
        <ele>188.2</ele>
        <time>2021-05-05T09:41:28Z</time>
      </trkpt>
      <trkpt lat="43.21958" lon="5.50506">
        <ele>188.1</ele>
        <time>2021-05-05T09:41:32Z</time>
      </trkpt>
      <trkpt lat="43.21953" lon="5.50511">
        <ele>187.9</ele>
        <time>2021-05-05T09:41:38Z</time>
      </trkpt>
      <trkpt lat="43.21948" lon="5.50513">
        <ele>187.6</ele>
        <time>2021-05-05T09:41:42Z</time>
      </trkpt>
      <trkpt lat="43.21944" lon="5.50515">
        <ele>187.3</ele>
        <time>2021-05-05T09:41:46Z</time>
      </trkpt>
      <trkpt lat="43.21939" lon="5.50519">
        <ele>187.1</ele>
        <time>2021-05-05T09:41:50Z</time>
      </trkpt>
      <trkpt lat="43.21935" lon="5.50524">
        <ele>186.7</ele>
        <time>2021-05-05T09:41:54Z</time>
      </trkpt>
      <trkpt lat="43.21931" lon="5.50529">
        <ele>186.4</ele>
        <time>2021-05-05T09:41:58Z</time>
      </trkpt>
      <trkpt lat="43.21928" lon="5.50535">
        <ele>186.1</ele>
        <time>2021-05-05T09:42:02Z</time>
      </trkpt>
      <trkpt lat="43.21924" lon="5.5054">
        <ele>185.7</ele>
        <time>2021-05-05T09:42:08Z</time>
      </trkpt>
      <trkpt lat="43.21921" lon="5.50545">
        <ele>185.3</ele>
        <time>2021-05-05T09:42:12Z</time>
      </trkpt>
      <trkpt lat="43.21916" lon="5.50551">
        <ele>184.7</ele>
        <time>2021-05-05T09:42:18Z</time>
      </trkpt>
      <trkpt lat="43.21912" lon="5.50554">
        <ele>184.2</ele>
        <time>2021-05-05T09:42:22Z</time>
      </trkpt>
      <trkpt lat="43.21906" lon="5.50557">
        <ele>183.6</ele>
        <time>2021-05-05T09:42:28Z</time>
      </trkpt>
      <trkpt lat="43.21901" lon="5.5056">
        <ele>182.9</ele>
        <time>2021-05-05T09:42:34Z</time>
      </trkpt>
      <trkpt lat="43.21896" lon="5.50561">
        <ele>182.4</ele>
        <time>2021-05-05T09:42:38Z</time>
      </trkpt>
      <trkpt lat="43.21891" lon="5.50561">
        <ele>181.9</ele>
        <time>2021-05-05T09:42:42Z</time>
      </trkpt>
      <trkpt lat="43.21884" lon="5.5056">
        <ele>181.2</ele>
        <time>2021-05-05T09:42:48Z</time>
      </trkpt>
      <trkpt lat="43.21878" lon="5.50561">
        <ele>180.6</ele>
        <time>2021-05-05T09:42:54Z</time>
      </trkpt>
      <trkpt lat="43.21874" lon="5.50563">
        <ele>180</ele>
        <time>2021-05-05T09:42:58Z</time>
      </trkpt>
      <trkpt lat="43.2187" lon="5.50566">
        <ele>179.4</ele>
        <time>2021-05-05T09:43:02Z</time>
      </trkpt>
      <trkpt lat="43.21865" lon="5.5057">
        <ele>178.6</ele>
        <time>2021-05-05T09:43:06Z</time>
      </trkpt>
      <trkpt lat="43.21861" lon="5.50574">
        <ele>177.9</ele>
        <time>2021-05-05T09:43:10Z</time>
      </trkpt>
      <trkpt lat="43.21856" lon="5.50577">
        <ele>177.1</ele>
        <time>2021-05-05T09:43:14Z</time>
      </trkpt>
      <trkpt lat="43.2185" lon="5.50581">
        <ele>176.1</ele>
        <time>2021-05-05T09:43:20Z</time>
      </trkpt>
      <trkpt lat="43.21845" lon="5.50585">
        <ele>175.5</ele>
        <time>2021-05-05T09:43:24Z</time>
      </trkpt>
      <trkpt lat="43.21842" lon="5.5059">
        <ele>175.1</ele>
        <time>2021-05-05T09:43:30Z</time>
      </trkpt>
      <trkpt lat="43.21838" lon="5.50594">
        <ele>174.7</ele>
        <time>2021-05-05T09:43:34Z</time>
      </trkpt>
      <trkpt lat="43.21833" lon="5.50597">
        <ele>174.3</ele>
        <time>2021-05-05T09:43:38Z</time>
      </trkpt>
      <trkpt lat="43.21829" lon="5.50601">
        <ele>174.5</ele>
        <time>2021-05-05T09:43:42Z</time>
      </trkpt>
      <trkpt lat="43.21824" lon="5.50605">
        <ele>174.7</ele>
        <time>2021-05-05T09:43:46Z</time>
      </trkpt>
      <trkpt lat="43.21819" lon="5.50609">
        <ele>174.9</ele>
        <time>2021-05-05T09:43:52Z</time>
      </trkpt>
      <trkpt lat="43.21816" lon="5.50613">
        <ele>175.2</ele>
        <time>2021-05-05T09:43:56Z</time>
      </trkpt>
      <trkpt lat="43.21813" lon="5.50621">
        <ele>175.5</ele>
        <time>2021-05-05T09:44:02Z</time>
      </trkpt>
      <trkpt lat="43.21814" lon="5.50627">
        <ele>175.8</ele>
        <time>2021-05-05T09:44:06Z</time>
      </trkpt>
      <trkpt lat="43.21817" lon="5.50634">
        <ele>176</ele>
        <time>2021-05-05T09:44:10Z</time>
      </trkpt>
      <trkpt lat="43.21818" lon="5.5064">
        <ele>176.1</ele>
        <time>2021-05-05T09:44:14Z</time>
      </trkpt>
      <trkpt lat="43.21821" lon="5.50649">
        <ele>176.3</ele>
        <time>2021-05-05T09:44:20Z</time>
      </trkpt>
      <trkpt lat="43.21824" lon="5.50653">
        <ele>176.2</ele>
        <time>2021-05-05T09:44:24Z</time>
      </trkpt>
      <trkpt lat="43.21828" lon="5.50656">
        <ele>176.1</ele>
        <time>2021-05-05T09:44:28Z</time>
      </trkpt>
      <trkpt lat="43.21834" lon="5.50657">
        <ele>175.8</ele>
        <time>2021-05-05T09:44:32Z</time>
      </trkpt>
      <trkpt lat="43.2184" lon="5.5066">
        <ele>176.3</ele>
        <time>2021-05-05T09:44:38Z</time>
      </trkpt>
      <trkpt lat="43.21845" lon="5.50661">
        <ele>176.6</ele>
        <time>2021-05-05T09:44:42Z</time>
      </trkpt>
      <trkpt lat="43.2185" lon="5.5066">
        <ele>176.9</ele>
        <time>2021-05-05T09:44:46Z</time>
      </trkpt>
      <trkpt lat="43.21854" lon="5.50659">
        <ele>177.2</ele>
        <time>2021-05-05T09:44:50Z</time>
      </trkpt>
      <trkpt lat="43.2186" lon="5.50659">
        <ele>177.6</ele>
        <time>2021-05-05T09:44:56Z</time>
      </trkpt>
      <trkpt lat="43.21856" lon="5.50665">
        <ele>177.4</ele>
        <time>2021-05-05T09:45:06Z</time>
      </trkpt>
      <trkpt lat="43.21851" lon="5.50669">
        <ele>177.3</ele>
        <time>2021-05-05T09:45:14Z</time>
      </trkpt>
      <trkpt lat="43.21846" lon="5.50673">
        <ele>177.6</ele>
        <time>2021-05-05T09:45:20Z</time>
      </trkpt>
      <trkpt lat="43.21842" lon="5.50675">
        <ele>177.7</ele>
        <time>2021-05-05T09:45:26Z</time>
      </trkpt>
      <trkpt lat="43.21836" lon="5.50678">
        <ele>177.7</ele>
        <time>2021-05-05T09:45:32Z</time>
      </trkpt>
      <trkpt lat="43.21832" lon="5.50682">
        <ele>178.3</ele>
        <time>2021-05-05T09:45:38Z</time>
      </trkpt>
      <trkpt lat="43.21826" lon="5.50685">
        <ele>179</ele>
        <time>2021-05-05T09:45:44Z</time>
      </trkpt>
      <trkpt lat="43.21822" lon="5.50683">
        <ele>179</ele>
        <time>2021-05-05T09:45:50Z</time>
      </trkpt>
      <trkpt lat="43.21817" lon="5.5068">
        <ele>178.9</ele>
        <time>2021-05-05T09:45:56Z</time>
      </trkpt>
      <trkpt lat="43.21811" lon="5.50678">
        <ele>179</ele>
        <time>2021-05-05T09:46:02Z</time>
      </trkpt>
      <trkpt lat="43.21808" lon="5.50685">
        <ele>180</ele>
        <time>2021-05-05T09:46:10Z</time>
      </trkpt>
      <trkpt lat="43.21805" lon="5.50693">
        <ele>181.1</ele>
        <time>2021-05-05T09:46:16Z</time>
      </trkpt>
      <trkpt lat="43.21805" lon="5.507">
        <ele>181.8</ele>
        <time>2021-05-05T09:46:20Z</time>
      </trkpt>
      <trkpt lat="43.21806" lon="5.50708">
        <ele>182.7</ele>
        <time>2021-05-05T09:46:26Z</time>
      </trkpt>
      <trkpt lat="43.21807" lon="5.50714">
        <ele>183.5</ele>
        <time>2021-05-05T09:46:32Z</time>
      </trkpt>
      <trkpt lat="43.21808" lon="5.50723">
        <ele>184.6</ele>
        <time>2021-05-05T09:46:38Z</time>
      </trkpt>
      <trkpt lat="43.21808" lon="5.5073">
        <ele>185.3</ele>
        <time>2021-05-05T09:46:44Z</time>
      </trkpt>
      <trkpt lat="43.21808" lon="5.50737">
        <ele>186.2</ele>
        <time>2021-05-05T09:46:52Z</time>
      </trkpt>
      <trkpt lat="43.21803" lon="5.50742">
        <ele>186.7</ele>
        <time>2021-05-05T09:46:58Z</time>
      </trkpt>
      <trkpt lat="43.21797" lon="5.50745">
        <ele>187</ele>
        <time>2021-05-05T09:47:04Z</time>
      </trkpt>
      <trkpt lat="43.21791" lon="5.50747">
        <ele>187.1</ele>
        <time>2021-05-05T09:47:10Z</time>
      </trkpt>
      <trkpt lat="43.21785" lon="5.50747">
        <ele>187.2</ele>
        <time>2021-05-05T09:47:16Z</time>
      </trkpt>
      <trkpt lat="43.21779" lon="5.50751">
        <ele>187.4</ele>
        <time>2021-05-05T09:47:22Z</time>
      </trkpt>
      <trkpt lat="43.21775" lon="5.50757">
        <ele>187.7</ele>
        <time>2021-05-05T09:47:28Z</time>
      </trkpt>
      <trkpt lat="43.21772" lon="5.50764">
        <ele>188.1</ele>
        <time>2021-05-05T09:47:34Z</time>
      </trkpt>
      <trkpt lat="43.21769" lon="5.50772">
        <ele>188.4</ele>
        <time>2021-05-05T09:47:40Z</time>
      </trkpt>
      <trkpt lat="43.21766" lon="5.50777">
        <ele>188.6</ele>
        <time>2021-05-05T09:47:44Z</time>
      </trkpt>
      <trkpt lat="43.21762" lon="5.50782">
        <ele>188.8</ele>
        <time>2021-05-05T09:47:48Z</time>
      </trkpt>
      <trkpt lat="43.21759" lon="5.50788">
        <ele>189.1</ele>
        <time>2021-05-05T09:47:52Z</time>
      </trkpt>
      <trkpt lat="43.21755" lon="5.50793">
        <ele>189.2</ele>
        <time>2021-05-05T09:47:58Z</time>
      </trkpt>
      <trkpt lat="43.21751" lon="5.50797">
        <ele>189.3</ele>
        <time>2021-05-05T09:48:02Z</time>
      </trkpt>
      <trkpt lat="43.21748" lon="5.50801">
        <ele>189.5</ele>
        <time>2021-05-05T09:48:06Z</time>
      </trkpt>
      <trkpt lat="43.21744" lon="5.50805">
        <ele>189.7</ele>
        <time>2021-05-05T09:48:10Z</time>
      </trkpt>
      <trkpt lat="43.2174" lon="5.50809">
        <ele>189.9</ele>
        <time>2021-05-05T09:48:14Z</time>
      </trkpt>
      <trkpt lat="43.21736" lon="5.50813">
        <ele>190.2</ele>
        <time>2021-05-05T09:48:18Z</time>
      </trkpt>
      <trkpt lat="43.21733" lon="5.50818">
        <ele>190.4</ele>
        <time>2021-05-05T09:48:22Z</time>
      </trkpt>
      <trkpt lat="43.2173" lon="5.50823">
        <ele>190.6</ele>
        <time>2021-05-05T09:48:26Z</time>
      </trkpt>
      <trkpt lat="43.21727" lon="5.50829">
        <ele>190.8</ele>
        <time>2021-05-05T09:48:30Z</time>
      </trkpt>
      <trkpt lat="43.21725" lon="5.50834">
        <ele>191</ele>
        <time>2021-05-05T09:48:34Z</time>
      </trkpt>
      <trkpt lat="43.21722" lon="5.5084">
        <ele>190.9</ele>
        <time>2021-05-05T09:48:38Z</time>
      </trkpt>
      <trkpt lat="43.21719" lon="5.50845">
        <ele>190.9</ele>
        <time>2021-05-05T09:48:42Z</time>
      </trkpt>
      <trkpt lat="43.21716" lon="5.5085">
        <ele>190.8</ele>
        <time>2021-05-05T09:48:46Z</time>
      </trkpt>
      <trkpt lat="43.21711" lon="5.50856">
        <ele>190.7</ele>
        <time>2021-05-05T09:48:52Z</time>
      </trkpt>
      <trkpt lat="43.21706" lon="5.50861">
        <ele>190.6</ele>
        <time>2021-05-05T09:48:58Z</time>
      </trkpt>
      <trkpt lat="43.21703" lon="5.50866">
        <ele>190.6</ele>
        <time>2021-05-05T09:49:06Z</time>
      </trkpt>
      <trkpt lat="43.21699" lon="5.50871">
        <ele>190.5</ele>
        <time>2021-05-05T09:49:12Z</time>
      </trkpt>
      <trkpt lat="43.21696" lon="5.50876">
        <ele>190.3</ele>
        <time>2021-05-05T09:50:50Z</time>
      </trkpt>
      <trkpt lat="43.2169" lon="5.50874">
        <ele>190.3</ele>
        <time>2021-05-05T09:50:58Z</time>
      </trkpt>
      <trkpt lat="43.21687" lon="5.50869">
        <ele>190.3</ele>
        <time>2021-05-05T09:51:06Z</time>
      </trkpt>
      <trkpt lat="43.21683" lon="5.50863">
        <ele>190.4</ele>
        <time>2021-05-05T09:51:14Z</time>
      </trkpt>
      <trkpt lat="43.21678" lon="5.50859">
        <ele>190.5</ele>
        <time>2021-05-05T09:51:20Z</time>
      </trkpt>
      <trkpt lat="43.21674" lon="5.50854">
        <ele>190.5</ele>
        <time>2021-05-05T09:51:26Z</time>
      </trkpt>
      <trkpt lat="43.21669" lon="5.50849">
        <ele>190.6</ele>
        <time>2021-05-05T09:51:32Z</time>
      </trkpt>
      <trkpt lat="43.21665" lon="5.50843">
        <ele>190.7</ele>
        <time>2021-05-05T09:51:38Z</time>
      </trkpt>
      <trkpt lat="43.21661" lon="5.50837">
        <ele>190.8</ele>
        <time>2021-05-05T09:51:44Z</time>
      </trkpt>
      <trkpt lat="43.21657" lon="5.50833">
        <ele>190.8</ele>
        <time>2021-05-05T09:51:58Z</time>
      </trkpt>
      <trkpt lat="43.21654" lon="5.50828">
        <ele>190.6</ele>
        <time>2021-05-05T09:52:04Z</time>
      </trkpt>
      <trkpt lat="43.21649" lon="5.50824">
        <ele>190.5</ele>
        <time>2021-05-05T09:52:14Z</time>
      </trkpt>
      <trkpt lat="43.21649" lon="5.5083">
        <ele>190.6</ele>
        <time>2021-05-05T09:52:46Z</time>
      </trkpt>
      <trkpt lat="43.21648" lon="5.50837">
        <ele>190.4</ele>
        <time>2021-05-05T09:54:10Z</time>
      </trkpt>
      <trkpt lat="43.21651" lon="5.50831">
        <ele>190.6</ele>
        <time>2021-05-05T09:54:30Z</time>
      </trkpt>
      <trkpt lat="43.21648" lon="5.50824">
        <ele>190.5</ele>
        <time>2021-05-05T10:05:24Z</time>
      </trkpt>
      <trkpt lat="43.21643" lon="5.5082">
        <ele>190.4</ele>
        <time>2021-05-05T10:05:30Z</time>
      </trkpt>
      <trkpt lat="43.21639" lon="5.50817">
        <ele>190.3</ele>
        <time>2021-05-05T10:05:34Z</time>
      </trkpt>
      <trkpt lat="43.21633" lon="5.50814">
        <ele>190.2</ele>
        <time>2021-05-05T10:05:40Z</time>
      </trkpt>
      <trkpt lat="43.21629" lon="5.50811">
        <ele>190.1</ele>
        <time>2021-05-05T10:05:46Z</time>
      </trkpt>
      <trkpt lat="43.21624" lon="5.50807">
        <ele>190</ele>
        <time>2021-05-05T10:05:52Z</time>
      </trkpt>
      <trkpt lat="43.21619" lon="5.50803">
        <ele>189.9</ele>
        <time>2021-05-05T10:05:58Z</time>
      </trkpt>
      <trkpt lat="43.21614" lon="5.50799">
        <ele>189.9</ele>
        <time>2021-05-05T10:06:02Z</time>
      </trkpt>
      <trkpt lat="43.21611" lon="5.50794">
        <ele>189.8</ele>
        <time>2021-05-05T10:06:08Z</time>
      </trkpt>
      <trkpt lat="43.21605" lon="5.5079">
        <ele>189.8</ele>
        <time>2021-05-05T10:06:14Z</time>
      </trkpt>
      <trkpt lat="43.216" lon="5.50787">
        <ele>189.7</ele>
        <time>2021-05-05T10:06:18Z</time>
      </trkpt>
      <trkpt lat="43.21596" lon="5.50785">
        <ele>189.7</ele>
        <time>2021-05-05T10:06:22Z</time>
      </trkpt>
      <trkpt lat="43.21591" lon="5.50782">
        <ele>189.7</ele>
        <time>2021-05-05T10:06:26Z</time>
      </trkpt>
      <trkpt lat="43.21586" lon="5.50781">
        <ele>189.7</ele>
        <time>2021-05-05T10:06:30Z</time>
      </trkpt>
      <trkpt lat="43.21582" lon="5.50779">
        <ele>189.7</ele>
        <time>2021-05-05T10:06:34Z</time>
      </trkpt>
      <trkpt lat="43.21575" lon="5.50777">
        <ele>189.7</ele>
        <time>2021-05-05T10:06:40Z</time>
      </trkpt>
      <trkpt lat="43.21569" lon="5.50776">
        <ele>189.8</ele>
        <time>2021-05-05T10:06:46Z</time>
      </trkpt>
      <trkpt lat="43.21565" lon="5.50775">
        <ele>189.8</ele>
        <time>2021-05-05T10:06:50Z</time>
      </trkpt>
      <trkpt lat="43.21559" lon="5.50772">
        <ele>189.9</ele>
        <time>2021-05-05T10:06:56Z</time>
      </trkpt>
      <trkpt lat="43.21552" lon="5.50769">
        <ele>190</ele>
        <time>2021-05-05T10:07:02Z</time>
      </trkpt>
      <trkpt lat="43.21548" lon="5.50767">
        <ele>190</ele>
        <time>2021-05-05T10:07:06Z</time>
      </trkpt>
      <trkpt lat="43.21541" lon="5.50765">
        <ele>190.1</ele>
        <time>2021-05-05T10:07:12Z</time>
      </trkpt>
      <trkpt lat="43.21535" lon="5.50762">
        <ele>190.3</ele>
        <time>2021-05-05T10:07:18Z</time>
      </trkpt>
      <trkpt lat="43.21529" lon="5.5076">
        <ele>190.4</ele>
        <time>2021-05-05T10:07:24Z</time>
      </trkpt>
      <trkpt lat="43.21525" lon="5.50758">
        <ele>190.5</ele>
        <time>2021-05-05T10:07:28Z</time>
      </trkpt>
      <trkpt lat="43.21521" lon="5.50755">
        <ele>190.6</ele>
        <time>2021-05-05T10:07:32Z</time>
      </trkpt>
      <trkpt lat="43.21514" lon="5.50752">
        <ele>190.8</ele>
        <time>2021-05-05T10:07:38Z</time>
      </trkpt>
      <trkpt lat="43.2151" lon="5.50751">
        <ele>190.9</ele>
        <time>2021-05-05T10:07:42Z</time>
      </trkpt>
      <trkpt lat="43.21505" lon="5.50748">
        <ele>190.9</ele>
        <time>2021-05-05T10:07:46Z</time>
      </trkpt>
      <trkpt lat="43.215" lon="5.50747">
        <ele>190.9</ele>
        <time>2021-05-05T10:07:50Z</time>
      </trkpt>
      <trkpt lat="43.21495" lon="5.50743">
        <ele>190.8</ele>
        <time>2021-05-05T10:07:56Z</time>
      </trkpt>
      <trkpt lat="43.21489" lon="5.50738">
        <ele>190.8</ele>
        <time>2021-05-05T10:08:02Z</time>
      </trkpt>
      <trkpt lat="43.21484" lon="5.50735">
        <ele>190.7</ele>
        <time>2021-05-05T10:08:06Z</time>
      </trkpt>
      <trkpt lat="43.21479" lon="5.50731">
        <ele>190.7</ele>
        <time>2021-05-05T10:08:10Z</time>
      </trkpt>
      <trkpt lat="43.21474" lon="5.50728">
        <ele>190.7</ele>
        <time>2021-05-05T10:08:16Z</time>
      </trkpt>
      <trkpt lat="43.21468" lon="5.50725">
        <ele>190.7</ele>
        <time>2021-05-05T10:08:22Z</time>
      </trkpt>
      <trkpt lat="43.21462" lon="5.5072">
        <ele>190.8</ele>
        <time>2021-05-05T10:08:28Z</time>
      </trkpt>
      <trkpt lat="43.21457" lon="5.50714">
        <ele>190.8</ele>
        <time>2021-05-05T10:08:34Z</time>
      </trkpt>
      <trkpt lat="43.21453" lon="5.50709">
        <ele>190.8</ele>
        <time>2021-05-05T10:08:38Z</time>
      </trkpt>
      <trkpt lat="43.21449" lon="5.50705">
        <ele>190.9</ele>
        <time>2021-05-05T10:08:42Z</time>
      </trkpt>
      <trkpt lat="43.21444" lon="5.507">
        <ele>191</ele>
        <time>2021-05-05T10:08:48Z</time>
      </trkpt>
      <trkpt lat="43.21438" lon="5.50695">
        <ele>191.2</ele>
        <time>2021-05-05T10:08:54Z</time>
      </trkpt>
      <trkpt lat="43.21434" lon="5.50691">
        <ele>191.3</ele>
        <time>2021-05-05T10:08:58Z</time>
      </trkpt>
      <trkpt lat="43.21429" lon="5.50685">
        <ele>191.4</ele>
        <time>2021-05-05T10:09:04Z</time>
      </trkpt>
      <trkpt lat="43.21425" lon="5.5068">
        <ele>191.6</ele>
        <time>2021-05-05T10:09:08Z</time>
      </trkpt>
      <trkpt lat="43.2142" lon="5.50677">
        <ele>191.8</ele>
        <time>2021-05-05T10:09:12Z</time>
      </trkpt>
      <trkpt lat="43.21414" lon="5.50673">
        <ele>191.8</ele>
        <time>2021-05-05T10:09:18Z</time>
      </trkpt>
      <trkpt lat="43.21408" lon="5.5067">
        <ele>191.7</ele>
        <time>2021-05-05T10:09:24Z</time>
      </trkpt>
      <trkpt lat="43.21403" lon="5.50667">
        <ele>191.5</ele>
        <time>2021-05-05T10:09:30Z</time>
      </trkpt>
      <trkpt lat="43.21398" lon="5.50664">
        <ele>191.3</ele>
        <time>2021-05-05T10:09:34Z</time>
      </trkpt>
      <trkpt lat="43.21394" lon="5.50661">
        <ele>191.1</ele>
        <time>2021-05-05T10:09:38Z</time>
      </trkpt>
      <trkpt lat="43.2139" lon="5.50658">
        <ele>190.9</ele>
        <time>2021-05-05T10:09:42Z</time>
      </trkpt>
      <trkpt lat="43.21385" lon="5.50656">
        <ele>190.7</ele>
        <time>2021-05-05T10:09:46Z</time>
      </trkpt>
      <trkpt lat="43.21381" lon="5.50653">
        <ele>190.6</ele>
        <time>2021-05-05T10:09:50Z</time>
      </trkpt>
      <trkpt lat="43.21375" lon="5.5065">
        <ele>190.4</ele>
        <time>2021-05-05T10:09:54Z</time>
      </trkpt>
      <trkpt lat="43.21371" lon="5.50647">
        <ele>190.3</ele>
        <time>2021-05-05T10:09:58Z</time>
      </trkpt>
      <trkpt lat="43.21367" lon="5.50644">
        <ele>190.2</ele>
        <time>2021-05-05T10:10:02Z</time>
      </trkpt>
      <trkpt lat="43.21361" lon="5.50641">
        <ele>190</ele>
        <time>2021-05-05T10:10:08Z</time>
      </trkpt>
      <trkpt lat="43.21357" lon="5.5064">
        <ele>189.9</ele>
        <time>2021-05-05T10:10:12Z</time>
      </trkpt>
      <trkpt lat="43.21352" lon="5.50638">
        <ele>189.8</ele>
        <time>2021-05-05T10:10:16Z</time>
      </trkpt>
      <trkpt lat="43.21347" lon="5.50636">
        <ele>189.7</ele>
        <time>2021-05-05T10:10:20Z</time>
      </trkpt>
      <trkpt lat="43.21342" lon="5.50636">
        <ele>189.6</ele>
        <time>2021-05-05T10:10:24Z</time>
      </trkpt>
      <trkpt lat="43.21337" lon="5.50635">
        <ele>189.5</ele>
        <time>2021-05-05T10:10:28Z</time>
      </trkpt>
      <trkpt lat="43.21333" lon="5.50633">
        <ele>189.3</ele>
        <time>2021-05-05T10:10:32Z</time>
      </trkpt>
      <trkpt lat="43.21328" lon="5.50632">
        <ele>189</ele>
        <time>2021-05-05T10:10:36Z</time>
      </trkpt>
      <trkpt lat="43.21322" lon="5.50631">
        <ele>188.6</ele>
        <time>2021-05-05T10:10:42Z</time>
      </trkpt>
      <trkpt lat="43.21316" lon="5.50629">
        <ele>188.1</ele>
        <time>2021-05-05T10:10:48Z</time>
      </trkpt>
      <trkpt lat="43.21311" lon="5.50628">
        <ele>187.8</ele>
        <time>2021-05-05T10:10:52Z</time>
      </trkpt>
      <trkpt lat="43.21306" lon="5.50627">
        <ele>187.5</ele>
        <time>2021-05-05T10:10:56Z</time>
      </trkpt>
      <trkpt lat="43.21301" lon="5.50625">
        <ele>187.1</ele>
        <time>2021-05-05T10:11:00Z</time>
      </trkpt>
      <trkpt lat="43.21294" lon="5.50623">
        <ele>186.8</ele>
        <time>2021-05-05T10:11:06Z</time>
      </trkpt>
      <trkpt lat="43.21289" lon="5.5062">
        <ele>186.5</ele>
        <time>2021-05-05T10:11:10Z</time>
      </trkpt>
      <trkpt lat="43.21285" lon="5.50618">
        <ele>186.3</ele>
        <time>2021-05-05T10:11:14Z</time>
      </trkpt>
      <trkpt lat="43.2128" lon="5.50616">
        <ele>186</ele>
        <time>2021-05-05T10:11:18Z</time>
      </trkpt>
      <trkpt lat="43.21275" lon="5.50614">
        <ele>185.8</ele>
        <time>2021-05-05T10:11:22Z</time>
      </trkpt>
      <trkpt lat="43.2127" lon="5.50613">
        <ele>185.5</ele>
        <time>2021-05-05T10:11:26Z</time>
      </trkpt>
      <trkpt lat="43.21265" lon="5.50612">
        <ele>185.3</ele>
        <time>2021-05-05T10:11:30Z</time>
      </trkpt>
      <trkpt lat="43.2126" lon="5.50611">
        <ele>185</ele>
        <time>2021-05-05T10:11:34Z</time>
      </trkpt>
      <trkpt lat="43.21255" lon="5.50608">
        <ele>184.8</ele>
        <time>2021-05-05T10:11:38Z</time>
      </trkpt>
      <trkpt lat="43.2125" lon="5.50606">
        <ele>184.7</ele>
        <time>2021-05-05T10:11:42Z</time>
      </trkpt>
      <trkpt lat="43.21246" lon="5.50602">
        <ele>184.5</ele>
        <time>2021-05-05T10:11:46Z</time>
      </trkpt>
      <trkpt lat="43.21241" lon="5.50599">
        <ele>184.2</ele>
        <time>2021-05-05T10:11:50Z</time>
      </trkpt>
      <trkpt lat="43.21237" lon="5.50595">
        <ele>184</ele>
        <time>2021-05-05T10:11:54Z</time>
      </trkpt>
      <trkpt lat="43.21232" lon="5.50592">
        <ele>183.8</ele>
        <time>2021-05-05T10:11:58Z</time>
      </trkpt>
      <trkpt lat="43.21228" lon="5.50588">
        <ele>183.6</ele>
        <time>2021-05-05T10:12:02Z</time>
      </trkpt>
      <trkpt lat="43.21223" lon="5.50583">
        <ele>183.4</ele>
        <time>2021-05-05T10:12:08Z</time>
      </trkpt>
      <trkpt lat="43.21219" lon="5.50579">
        <ele>183.2</ele>
        <time>2021-05-05T10:12:12Z</time>
      </trkpt>
      <trkpt lat="43.21215" lon="5.50574">
        <ele>183</ele>
        <time>2021-05-05T10:12:16Z</time>
      </trkpt>
      <trkpt lat="43.21211" lon="5.50568">
        <ele>182.9</ele>
        <time>2021-05-05T10:12:22Z</time>
      </trkpt>
      <trkpt lat="43.21207" lon="5.50565">
        <ele>182.7</ele>
        <time>2021-05-05T10:12:26Z</time>
      </trkpt>
      <trkpt lat="43.21203" lon="5.50561">
        <ele>182.4</ele>
        <time>2021-05-05T10:12:30Z</time>
      </trkpt>
      <trkpt lat="43.21197" lon="5.50559">
        <ele>182</ele>
        <time>2021-05-05T10:12:36Z</time>
      </trkpt>
      <trkpt lat="43.21192" lon="5.50557">
        <ele>181.6</ele>
        <time>2021-05-05T10:12:40Z</time>
      </trkpt>
      <trkpt lat="43.21187" lon="5.50553">
        <ele>181.3</ele>
        <time>2021-05-05T10:12:44Z</time>
      </trkpt>
      <trkpt lat="43.21183" lon="5.5055">
        <ele>181.1</ele>
        <time>2021-05-05T10:12:48Z</time>
      </trkpt>
      <trkpt lat="43.21177" lon="5.50546">
        <ele>180.7</ele>
        <time>2021-05-05T10:12:54Z</time>
      </trkpt>
      <trkpt lat="43.21171" lon="5.50541">
        <ele>180.4</ele>
        <time>2021-05-05T10:13:00Z</time>
      </trkpt>
      <trkpt lat="43.21167" lon="5.50537">
        <ele>180.2</ele>
        <time>2021-05-05T10:13:04Z</time>
      </trkpt>
      <trkpt lat="43.21163" lon="5.50535">
        <ele>180</ele>
        <time>2021-05-05T10:13:08Z</time>
      </trkpt>
      <trkpt lat="43.21158" lon="5.50532">
        <ele>179.7</ele>
        <time>2021-05-05T10:13:12Z</time>
      </trkpt>
      <trkpt lat="43.21153" lon="5.50529">
        <ele>179.3</ele>
        <time>2021-05-05T10:13:16Z</time>
      </trkpt>
      <trkpt lat="43.21149" lon="5.50526">
        <ele>179</ele>
        <time>2021-05-05T10:13:20Z</time>
      </trkpt>
      <trkpt lat="43.21144" lon="5.50524">
        <ele>178.7</ele>
        <time>2021-05-05T10:13:24Z</time>
      </trkpt>
      <trkpt lat="43.2114" lon="5.5052">
        <ele>178.5</ele>
        <time>2021-05-05T10:13:28Z</time>
      </trkpt>
      <trkpt lat="43.21135" lon="5.50516">
        <ele>178.2</ele>
        <time>2021-05-05T10:13:32Z</time>
      </trkpt>
      <trkpt lat="43.2113" lon="5.50513">
        <ele>177.9</ele>
        <time>2021-05-05T10:13:36Z</time>
      </trkpt>
      <trkpt lat="43.21126" lon="5.5051">
        <ele>177.6</ele>
        <time>2021-05-05T10:13:40Z</time>
      </trkpt>
      <trkpt lat="43.21122" lon="5.50507">
        <ele>177.3</ele>
        <time>2021-05-05T10:13:44Z</time>
      </trkpt>
      <trkpt lat="43.21116" lon="5.50504">
        <ele>176.9</ele>
        <time>2021-05-05T10:13:50Z</time>
      </trkpt>
      <trkpt lat="43.21111" lon="5.505">
        <ele>176.7</ele>
        <time>2021-05-05T10:13:56Z</time>
      </trkpt>
      <trkpt lat="43.21106" lon="5.50497">
        <ele>176.2</ele>
        <time>2021-05-05T10:14:00Z</time>
      </trkpt>
      <trkpt lat="43.21101" lon="5.50493">
        <ele>175.8</ele>
        <time>2021-05-05T10:14:04Z</time>
      </trkpt>
      <trkpt lat="43.21097" lon="5.50489">
        <ele>175.4</ele>
        <time>2021-05-05T10:14:08Z</time>
      </trkpt>
      <trkpt lat="43.21092" lon="5.50487">
        <ele>175</ele>
        <time>2021-05-05T10:14:12Z</time>
      </trkpt>
      <trkpt lat="43.21088" lon="5.50484">
        <ele>174.6</ele>
        <time>2021-05-05T10:14:16Z</time>
      </trkpt>
      <trkpt lat="43.21083" lon="5.50479">
        <ele>174.3</ele>
        <time>2021-05-05T10:14:22Z</time>
      </trkpt>
      <trkpt lat="43.21079" lon="5.50475">
        <ele>173.7</ele>
        <time>2021-05-05T10:14:26Z</time>
      </trkpt>
      <trkpt lat="43.21075" lon="5.50471">
        <ele>173.1</ele>
        <time>2021-05-05T10:14:30Z</time>
      </trkpt>
      <trkpt lat="43.2107" lon="5.50465">
        <ele>172.4</ele>
        <time>2021-05-05T10:14:36Z</time>
      </trkpt>
      <trkpt lat="43.21065" lon="5.50459">
        <ele>171.7</ele>
        <time>2021-05-05T10:14:42Z</time>
      </trkpt>
      <trkpt lat="43.2106" lon="5.50454">
        <ele>171.1</ele>
        <time>2021-05-05T10:14:46Z</time>
      </trkpt>
      <trkpt lat="43.21056" lon="5.50447">
        <ele>170.5</ele>
        <time>2021-05-05T10:14:52Z</time>
      </trkpt>
      <trkpt lat="43.21054" lon="5.50442">
        <ele>170.2</ele>
        <time>2021-05-05T10:14:56Z</time>
      </trkpt>
      <trkpt lat="43.21052" lon="5.50435">
        <ele>170</ele>
        <time>2021-05-05T10:15:02Z</time>
      </trkpt>
      <trkpt lat="43.2105" lon="5.50427">
        <ele>169.7</ele>
        <time>2021-05-05T10:15:08Z</time>
      </trkpt>
      <trkpt lat="43.21049" lon="5.50418">
        <ele>169.6</ele>
        <time>2021-05-05T10:15:14Z</time>
      </trkpt>
      <trkpt lat="43.21046" lon="5.50411">
        <ele>169.2</ele>
        <time>2021-05-05T10:15:18Z</time>
      </trkpt>
      <trkpt lat="43.21044" lon="5.50405">
        <ele>168.8</ele>
        <time>2021-05-05T10:15:22Z</time>
      </trkpt>
      <trkpt lat="43.21043" lon="5.50398">
        <ele>168.6</ele>
        <time>2021-05-05T10:15:26Z</time>
      </trkpt>
      <trkpt lat="43.21042" lon="5.50392">
        <ele>168.4</ele>
        <time>2021-05-05T10:15:30Z</time>
      </trkpt>
      <trkpt lat="43.21041" lon="5.50386">
        <ele>168.2</ele>
        <time>2021-05-05T10:15:34Z</time>
      </trkpt>
      <trkpt lat="43.2104" lon="5.5038">
        <ele>168</ele>
        <time>2021-05-05T10:15:38Z</time>
      </trkpt>
      <trkpt lat="43.21038" lon="5.50372">
        <ele>167.7</ele>
        <time>2021-05-05T10:15:44Z</time>
      </trkpt>
      <trkpt lat="43.21036" lon="5.50363">
        <ele>167.4</ele>
        <time>2021-05-05T10:15:50Z</time>
      </trkpt>
      <trkpt lat="43.21035" lon="5.50354">
        <ele>167.2</ele>
        <time>2021-05-05T10:15:56Z</time>
      </trkpt>
      <trkpt lat="43.21034" lon="5.50347">
        <ele>167.1</ele>
        <time>2021-05-05T10:16:00Z</time>
      </trkpt>
      <trkpt lat="43.21032" lon="5.5034">
        <ele>166.8</ele>
        <time>2021-05-05T10:16:04Z</time>
      </trkpt>
      <trkpt lat="43.2103" lon="5.50335">
        <ele>166.6</ele>
        <time>2021-05-05T10:16:08Z</time>
      </trkpt>
      <trkpt lat="43.21028" lon="5.50329">
        <ele>166.2</ele>
        <time>2021-05-05T10:16:12Z</time>
      </trkpt>
      <trkpt lat="43.21025" lon="5.50323">
        <ele>165.8</ele>
        <time>2021-05-05T10:16:16Z</time>
      </trkpt>
      <trkpt lat="43.21023" lon="5.50317">
        <ele>165.4</ele>
        <time>2021-05-05T10:16:20Z</time>
      </trkpt>
      <trkpt lat="43.2102" lon="5.50312">
        <ele>165</ele>
        <time>2021-05-05T10:16:24Z</time>
      </trkpt>
      <trkpt lat="43.21016" lon="5.50303">
        <ele>164.5</ele>
        <time>2021-05-05T10:16:30Z</time>
      </trkpt>
      <trkpt lat="43.21014" lon="5.50297">
        <ele>164.1</ele>
        <time>2021-05-05T10:16:34Z</time>
      </trkpt>
      <trkpt lat="43.21013" lon="5.50291">
        <ele>163.8</ele>
        <time>2021-05-05T10:16:38Z</time>
      </trkpt>
      <trkpt lat="43.21011" lon="5.50282">
        <ele>163.5</ele>
        <time>2021-05-05T10:16:44Z</time>
      </trkpt>
      <trkpt lat="43.21011" lon="5.50276">
        <ele>163.4</ele>
        <time>2021-05-05T10:16:48Z</time>
      </trkpt>
      <trkpt lat="43.2101" lon="5.50269">
        <ele>163.3</ele>
        <time>2021-05-05T10:16:52Z</time>
      </trkpt>
      <trkpt lat="43.2101" lon="5.5026">
        <ele>163.1</ele>
        <time>2021-05-05T10:16:58Z</time>
      </trkpt>
      <trkpt lat="43.2101" lon="5.50254">
        <ele>163</ele>
        <time>2021-05-05T10:17:02Z</time>
      </trkpt>
      <trkpt lat="43.2101" lon="5.50245">
        <ele>162.7</ele>
        <time>2021-05-05T10:17:08Z</time>
      </trkpt>
      <trkpt lat="43.21009" lon="5.50236">
        <ele>162.4</ele>
        <time>2021-05-05T10:17:14Z</time>
      </trkpt>
      <trkpt lat="43.21007" lon="5.50228">
        <ele>161.9</ele>
        <time>2021-05-05T10:17:20Z</time>
      </trkpt>
      <trkpt lat="43.21004" lon="5.50223">
        <ele>161.4</ele>
        <time>2021-05-05T10:17:28Z</time>
      </trkpt>
      <trkpt lat="43.21" lon="5.50218">
        <ele>160.8</ele>
        <time>2021-05-05T10:17:54Z</time>
      </trkpt>
      <trkpt lat="43.20997" lon="5.50212">
        <ele>160.4</ele>
        <time>2021-05-05T10:18:02Z</time>
      </trkpt>
      <trkpt lat="43.20994" lon="5.50207">
        <ele>160.1</ele>
        <time>2021-05-05T10:18:30Z</time>
      </trkpt>
      <trkpt lat="43.20991" lon="5.5021">
        <ele>159.9</ele>
        <time>2021-05-05T10:20:18Z</time>
      </trkpt>
      <trkpt lat="43.20986" lon="5.50207">
        <ele>159.5</ele>
        <time>2021-05-05T10:20:24Z</time>
      </trkpt>
      <trkpt lat="43.20981" lon="5.50204">
        <ele>159.1</ele>
        <time>2021-05-05T10:20:30Z</time>
      </trkpt>
      <trkpt lat="43.20975" lon="5.50201">
        <ele>158.7</ele>
        <time>2021-05-05T10:20:36Z</time>
      </trkpt>
      <trkpt lat="43.20969" lon="5.50199">
        <ele>158.2</ele>
        <time>2021-05-05T10:20:42Z</time>
      </trkpt>
      <trkpt lat="43.20963" lon="5.50197">
        <ele>157.8</ele>
        <time>2021-05-05T10:20:48Z</time>
      </trkpt>
      <trkpt lat="43.20957" lon="5.50194">
        <ele>157.4</ele>
        <time>2021-05-05T10:20:54Z</time>
      </trkpt>
      <trkpt lat="43.20951" lon="5.50192">
        <ele>157</ele>
        <time>2021-05-05T10:21:00Z</time>
      </trkpt>
      <trkpt lat="43.20945" lon="5.50189">
        <ele>156.7</ele>
        <time>2021-05-05T10:21:06Z</time>
      </trkpt>
      <trkpt lat="43.2094" lon="5.50187">
        <ele>156.3</ele>
        <time>2021-05-05T10:21:12Z</time>
      </trkpt>
      <trkpt lat="43.20933" lon="5.50183">
        <ele>155.9</ele>
        <time>2021-05-05T10:21:18Z</time>
      </trkpt>
      <trkpt lat="43.20929" lon="5.50182">
        <ele>155.7</ele>
        <time>2021-05-05T10:21:22Z</time>
      </trkpt>
      <trkpt lat="43.20924" lon="5.5018">
        <ele>155.4</ele>
        <time>2021-05-05T10:21:26Z</time>
      </trkpt>
      <trkpt lat="43.20919" lon="5.50178">
        <ele>155.1</ele>
        <time>2021-05-05T10:21:30Z</time>
      </trkpt>
      <trkpt lat="43.20915" lon="5.50177">
        <ele>154.9</ele>
        <time>2021-05-05T10:21:34Z</time>
      </trkpt>
      <trkpt lat="43.20908" lon="5.50175">
        <ele>154.5</ele>
        <time>2021-05-05T10:21:40Z</time>
      </trkpt>
      <trkpt lat="43.20904" lon="5.50173">
        <ele>154.2</ele>
        <time>2021-05-05T10:21:44Z</time>
      </trkpt>
      <trkpt lat="43.20897" lon="5.50172">
        <ele>153.8</ele>
        <time>2021-05-05T10:21:50Z</time>
      </trkpt>
      <trkpt lat="43.20891" lon="5.50171">
        <ele>153.4</ele>
        <time>2021-05-05T10:21:56Z</time>
      </trkpt>
      <trkpt lat="43.20885" lon="5.5017">
        <ele>153.1</ele>
        <time>2021-05-05T10:22:02Z</time>
      </trkpt>
      <trkpt lat="43.20879" lon="5.5017">
        <ele>152.7</ele>
        <time>2021-05-05T10:22:08Z</time>
      </trkpt>
      <trkpt lat="43.20874" lon="5.5017">
        <ele>152.4</ele>
        <time>2021-05-05T10:22:12Z</time>
      </trkpt>
      <trkpt lat="43.20869" lon="5.50169">
        <ele>152.1</ele>
        <time>2021-05-05T10:22:16Z</time>
      </trkpt>
      <trkpt lat="43.20863" lon="5.5017">
        <ele>151.7</ele>
        <time>2021-05-05T10:22:22Z</time>
      </trkpt>
      <trkpt lat="43.20856" lon="5.50172">
        <ele>151.3</ele>
        <time>2021-05-05T10:22:28Z</time>
      </trkpt>
      <trkpt lat="43.2085" lon="5.50176">
        <ele>150.8</ele>
        <time>2021-05-05T10:22:34Z</time>
      </trkpt>
      <trkpt lat="43.20846" lon="5.50179">
        <ele>150.5</ele>
        <time>2021-05-05T10:22:38Z</time>
      </trkpt>
      <trkpt lat="43.20841" lon="5.50184">
        <ele>150.1</ele>
        <time>2021-05-05T10:22:44Z</time>
      </trkpt>
      <trkpt lat="43.20836" lon="5.50191">
        <ele>149.6</ele>
        <time>2021-05-05T10:22:50Z</time>
      </trkpt>
      <trkpt lat="43.20832" lon="5.50196">
        <ele>149.2</ele>
        <time>2021-05-05T10:22:54Z</time>
      </trkpt>
      <trkpt lat="43.20828" lon="5.50201">
        <ele>148.7</ele>
        <time>2021-05-05T10:23:00Z</time>
      </trkpt>
      <trkpt lat="43.20823" lon="5.50205">
        <ele>148.2</ele>
        <time>2021-05-05T10:23:04Z</time>
      </trkpt>
      <trkpt lat="43.20818" lon="5.50206">
        <ele>147.7</ele>
        <time>2021-05-05T10:23:08Z</time>
      </trkpt>
      <trkpt lat="43.20813" lon="5.50208">
        <ele>147.3</ele>
        <time>2021-05-05T10:23:12Z</time>
      </trkpt>
      <trkpt lat="43.20808" lon="5.50209">
        <ele>146.9</ele>
        <time>2021-05-05T10:23:16Z</time>
      </trkpt>
      <trkpt lat="43.20801" lon="5.50212">
        <ele>146.3</ele>
        <time>2021-05-05T10:23:22Z</time>
      </trkpt>
      <trkpt lat="43.20796" lon="5.50212">
        <ele>145.9</ele>
        <time>2021-05-05T10:23:28Z</time>
      </trkpt>
      <trkpt lat="43.2079" lon="5.50212">
        <ele>145.4</ele>
        <time>2021-05-05T10:23:34Z</time>
      </trkpt>
      <trkpt lat="43.20784" lon="5.50212">
        <ele>144.9</ele>
        <time>2021-05-05T10:23:40Z</time>
      </trkpt>
      <trkpt lat="43.20778" lon="5.50213">
        <ele>144.4</ele>
        <time>2021-05-05T10:23:46Z</time>
      </trkpt>
      <trkpt lat="43.20772" lon="5.50212">
        <ele>144</ele>
        <time>2021-05-05T10:23:50Z</time>
      </trkpt>
      <trkpt lat="43.20766" lon="5.50213">
        <ele>143.5</ele>
        <time>2021-05-05T10:23:56Z</time>
      </trkpt>
      <trkpt lat="43.2076" lon="5.50212">
        <ele>143</ele>
        <time>2021-05-05T10:24:00Z</time>
      </trkpt>
      <trkpt lat="43.20755" lon="5.50212">
        <ele>142.6</ele>
        <time>2021-05-05T10:24:04Z</time>
      </trkpt>
      <trkpt lat="43.20751" lon="5.50213">
        <ele>142.3</ele>
        <time>2021-05-05T10:24:08Z</time>
      </trkpt>
      <trkpt lat="43.20744" lon="5.50213">
        <ele>141.5</ele>
        <time>2021-05-05T10:24:14Z</time>
      </trkpt>
      <trkpt lat="43.20737" lon="5.50212">
        <ele>140.6</ele>
        <time>2021-05-05T10:24:20Z</time>
      </trkpt>
      <trkpt lat="43.20731" lon="5.50212">
        <ele>139.8</ele>
        <time>2021-05-05T10:24:26Z</time>
      </trkpt>
      <trkpt lat="43.20726" lon="5.50213">
        <ele>139.3</ele>
        <time>2021-05-05T10:24:30Z</time>
      </trkpt>
      <trkpt lat="43.2072" lon="5.50214">
        <ele>138.5</ele>
        <time>2021-05-05T10:24:36Z</time>
      </trkpt>
      <trkpt lat="43.20714" lon="5.50213">
        <ele>137.8</ele>
        <time>2021-05-05T10:24:40Z</time>
      </trkpt>
      <trkpt lat="43.20708" lon="5.5021">
        <ele>136.8</ele>
        <time>2021-05-05T10:24:46Z</time>
      </trkpt>
      <trkpt lat="43.20702" lon="5.50207">
        <ele>135.8</ele>
        <time>2021-05-05T10:24:52Z</time>
      </trkpt>
      <trkpt lat="43.20696" lon="5.50204">
        <ele>134.9</ele>
        <time>2021-05-05T10:24:58Z</time>
      </trkpt>
      <trkpt lat="43.20691" lon="5.50199">
        <ele>133.7</ele>
        <time>2021-05-05T10:25:04Z</time>
      </trkpt>
      <trkpt lat="43.20686" lon="5.50194">
        <ele>132.5</ele>
        <time>2021-05-05T10:25:10Z</time>
      </trkpt>
      <trkpt lat="43.2068" lon="5.50191">
        <ele>131.5</ele>
        <time>2021-05-05T10:25:16Z</time>
      </trkpt>
      <trkpt lat="43.20675" lon="5.5019">
        <ele>130.7</ele>
        <time>2021-05-05T10:25:22Z</time>
      </trkpt>
      <trkpt lat="43.20669" lon="5.50191">
        <ele>130</ele>
        <time>2021-05-05T10:25:28Z</time>
      </trkpt>
      <trkpt lat="43.20662" lon="5.50194">
        <ele>130.3</ele>
        <time>2021-05-05T10:25:34Z</time>
      </trkpt>
      <trkpt lat="43.20658" lon="5.50197">
        <ele>130.9</ele>
        <time>2021-05-05T10:25:38Z</time>
      </trkpt>
      <trkpt lat="43.20653" lon="5.50199">
        <ele>131.4</ele>
        <time>2021-05-05T10:25:42Z</time>
      </trkpt>
      <trkpt lat="43.20648" lon="5.502">
        <ele>131.9</ele>
        <time>2021-05-05T10:25:46Z</time>
      </trkpt>
      <trkpt lat="43.20643" lon="5.50202">
        <ele>132.3</ele>
        <time>2021-05-05T10:25:50Z</time>
      </trkpt>
      <trkpt lat="43.20639" lon="5.50204">
        <ele>132.8</ele>
        <time>2021-05-05T10:25:54Z</time>
      </trkpt>
      <trkpt lat="43.20634" lon="5.50207">
        <ele>133.2</ele>
        <time>2021-05-05T10:26:00Z</time>
      </trkpt>
      <trkpt lat="43.20629" lon="5.50204">
        <ele>133.3</ele>
        <time>2021-05-05T10:26:06Z</time>
      </trkpt>
      <trkpt lat="43.20627" lon="5.50197">
        <ele>133.1</ele>
        <time>2021-05-05T10:26:14Z</time>
      </trkpt>
      <trkpt lat="43.20628" lon="5.5019">
        <ele>132.8</ele>
        <time>2021-05-05T10:26:34Z</time>
      </trkpt>
      <trkpt lat="43.20629" lon="5.50183">
        <ele>132.3</ele>
        <time>2021-05-05T10:26:40Z</time>
      </trkpt>
      <trkpt lat="43.20631" lon="5.50176">
        <ele>131.7</ele>
        <time>2021-05-05T10:26:48Z</time>
      </trkpt>
      <trkpt lat="43.20631" lon="5.50169">
        <ele>131.4</ele>
        <time>2021-05-05T10:26:56Z</time>
      </trkpt>
      <trkpt lat="43.20628" lon="5.50175">
        <ele>132</ele>
        <time>2021-05-05T10:27:16Z</time>
      </trkpt>
      <trkpt lat="43.20631" lon="5.50181">
        <ele>132</ele>
        <time>2021-05-05T10:27:22Z</time>
      </trkpt>
      <trkpt lat="43.20629" lon="5.50188">
        <ele>132.5</ele>
        <time>2021-05-05T10:28:00Z</time>
      </trkpt>
      <trkpt lat="43.20627" lon="5.50194">
        <ele>133</ele>
        <time>2021-05-05T10:28:06Z</time>
      </trkpt>
      <trkpt lat="43.20624" lon="5.502">
        <ele>133.5</ele>
        <time>2021-05-05T10:28:12Z</time>
      </trkpt>
      <trkpt lat="43.20628" lon="5.50206">
        <ele>133.5</ele>
        <time>2021-05-05T10:28:38Z</time>
      </trkpt>
      <trkpt lat="43.20622" lon="5.50205">
        <ele>133.8</ele>
        <time>2021-05-05T10:33:14Z</time>
      </trkpt>
      <trkpt lat="43.20615" lon="5.50205">
        <ele>134.2</ele>
        <time>2021-05-05T10:33:20Z</time>
      </trkpt>
      <trkpt lat="43.20611" lon="5.50204">
        <ele>134.5</ele>
        <time>2021-05-05T10:33:24Z</time>
      </trkpt>
      <trkpt lat="43.20606" lon="5.50205">
        <ele>134.7</ele>
        <time>2021-05-05T10:33:28Z</time>
      </trkpt>
      <trkpt lat="43.206" lon="5.50205">
        <ele>135.1</ele>
        <time>2021-05-05T10:33:34Z</time>
      </trkpt>
      <trkpt lat="43.20594" lon="5.50204">
        <ele>135.4</ele>
        <time>2021-05-05T10:33:40Z</time>
      </trkpt>
      <trkpt lat="43.20589" lon="5.50201">
        <ele>135.8</ele>
        <time>2021-05-05T10:33:48Z</time>
      </trkpt>
      <trkpt lat="43.20584" lon="5.502">
        <ele>136.2</ele>
        <time>2021-05-05T10:33:58Z</time>
      </trkpt>
      <trkpt lat="43.20578" lon="5.50199">
        <ele>136.8</ele>
        <time>2021-05-05T10:34:06Z</time>
      </trkpt>
      <trkpt lat="43.20573" lon="5.50195">
        <ele>137.5</ele>
        <time>2021-05-05T10:34:14Z</time>
      </trkpt>
      <trkpt lat="43.20568" lon="5.50192">
        <ele>138.2</ele>
        <time>2021-05-05T10:34:22Z</time>
      </trkpt>
      <trkpt lat="43.20563" lon="5.5019">
        <ele>138.9</ele>
        <time>2021-05-05T10:34:28Z</time>
      </trkpt>
      <trkpt lat="43.20558" lon="5.50189">
        <ele>139.6</ele>
        <time>2021-05-05T10:34:34Z</time>
      </trkpt>
      <trkpt lat="43.20553" lon="5.50185">
        <ele>140.2</ele>
        <time>2021-05-05T10:34:40Z</time>
      </trkpt>
      <trkpt lat="43.20552" lon="5.50179">
        <ele>140.6</ele>
        <time>2021-05-05T10:34:54Z</time>
      </trkpt>
      <trkpt lat="43.20548" lon="5.50176">
        <ele>141.3</ele>
        <time>2021-05-05T10:35:00Z</time>
      </trkpt>
      <trkpt lat="43.20541" lon="5.50173">
        <ele>142.3</ele>
        <time>2021-05-05T10:35:06Z</time>
      </trkpt>
      <trkpt lat="43.20536" lon="5.5017">
        <ele>143.1</ele>
        <time>2021-05-05T10:35:12Z</time>
      </trkpt>
      <trkpt lat="43.20531" lon="5.50165">
        <ele>143.8</ele>
        <time>2021-05-05T10:35:18Z</time>
      </trkpt>
      <trkpt lat="43.20525" lon="5.50161">
        <ele>144.2</ele>
        <time>2021-05-05T10:35:24Z</time>
      </trkpt>
      <trkpt lat="43.20521" lon="5.50157">
        <ele>144.6</ele>
        <time>2021-05-05T10:35:30Z</time>
      </trkpt>
      <trkpt lat="43.20517" lon="5.50153">
        <ele>145</ele>
        <time>2021-05-05T10:35:36Z</time>
      </trkpt>
      <trkpt lat="43.20513" lon="5.5015">
        <ele>145.6</ele>
        <time>2021-05-05T10:35:42Z</time>
      </trkpt>
      <trkpt lat="43.20507" lon="5.50144">
        <ele>146.2</ele>
        <time>2021-05-05T10:35:48Z</time>
      </trkpt>
      <trkpt lat="43.20503" lon="5.50141">
        <ele>146.8</ele>
        <time>2021-05-05T10:35:52Z</time>
      </trkpt>
      <trkpt lat="43.20498" lon="5.50135">
        <ele>147.1</ele>
        <time>2021-05-05T10:35:58Z</time>
      </trkpt>
      <trkpt lat="43.20494" lon="5.50128">
        <ele>146.7</ele>
        <time>2021-05-05T10:36:04Z</time>
      </trkpt>
      <trkpt lat="43.20493" lon="5.50122">
        <ele>146.5</ele>
        <time>2021-05-05T10:36:08Z</time>
      </trkpt>
      <trkpt lat="43.20492" lon="5.50112">
        <ele>146.2</ele>
        <time>2021-05-05T10:36:14Z</time>
      </trkpt>
      <trkpt lat="43.20493" lon="5.50104">
        <ele>146.1</ele>
        <time>2021-05-05T10:36:20Z</time>
      </trkpt>
      <trkpt lat="43.20491" lon="5.50096">
        <ele>145.8</ele>
        <time>2021-05-05T10:36:26Z</time>
      </trkpt>
      <trkpt lat="43.20491" lon="5.50088">
        <ele>145.7</ele>
        <time>2021-05-05T10:36:32Z</time>
      </trkpt>
      <trkpt lat="43.20491" lon="5.50081">
        <ele>145.5</ele>
        <time>2021-05-05T10:36:36Z</time>
      </trkpt>
      <trkpt lat="43.20492" lon="5.50075">
        <ele>145.2</ele>
        <time>2021-05-05T10:36:40Z</time>
      </trkpt>
      <trkpt lat="43.20492" lon="5.50069">
        <ele>144.9</ele>
        <time>2021-05-05T10:36:44Z</time>
      </trkpt>
      <trkpt lat="43.20489" lon="5.5006">
        <ele>144.4</ele>
        <time>2021-05-05T10:36:50Z</time>
      </trkpt>
      <trkpt lat="43.20486" lon="5.50054">
        <ele>144</ele>
        <time>2021-05-05T10:36:54Z</time>
      </trkpt>
      <trkpt lat="43.20483" lon="5.50047">
        <ele>143.5</ele>
        <time>2021-05-05T10:37:00Z</time>
      </trkpt>
      <trkpt lat="43.20481" lon="5.5004">
        <ele>143.1</ele>
        <time>2021-05-05T10:37:06Z</time>
      </trkpt>
      <trkpt lat="43.20479" lon="5.50033">
        <ele>142.7</ele>
        <time>2021-05-05T10:37:12Z</time>
      </trkpt>
      <trkpt lat="43.20475" lon="5.50026">
        <ele>142.2</ele>
        <time>2021-05-05T10:37:18Z</time>
      </trkpt>
      <trkpt lat="43.2047" lon="5.50019">
        <ele>141.8</ele>
        <time>2021-05-05T10:37:24Z</time>
      </trkpt>
      <trkpt lat="43.20466" lon="5.50013">
        <ele>141.3</ele>
        <time>2021-05-05T10:37:30Z</time>
      </trkpt>
      <trkpt lat="43.20461" lon="5.50007">
        <ele>140.9</ele>
        <time>2021-05-05T10:37:36Z</time>
      </trkpt>
      <trkpt lat="43.20458" lon="5.50002">
        <ele>140.5</ele>
        <time>2021-05-05T10:37:40Z</time>
      </trkpt>
      <trkpt lat="43.20454" lon="5.49997">
        <ele>140.2</ele>
        <time>2021-05-05T10:37:44Z</time>
      </trkpt>
      <trkpt lat="43.20451" lon="5.49993">
        <ele>139.8</ele>
        <time>2021-05-05T10:37:48Z</time>
      </trkpt>
      <trkpt lat="43.20447" lon="5.49988">
        <ele>139.4</ele>
        <time>2021-05-05T10:37:52Z</time>
      </trkpt>
      <trkpt lat="43.20442" lon="5.49982">
        <ele>139</ele>
        <time>2021-05-05T10:37:58Z</time>
      </trkpt>
      <trkpt lat="43.20438" lon="5.49975">
        <ele>138.6</ele>
        <time>2021-05-05T10:38:04Z</time>
      </trkpt>
      <trkpt lat="43.20435" lon="5.4997">
        <ele>138.3</ele>
        <time>2021-05-05T10:38:08Z</time>
      </trkpt>
      <trkpt lat="43.20433" lon="5.49965">
        <ele>138.1</ele>
        <time>2021-05-05T10:38:12Z</time>
      </trkpt>
      <trkpt lat="43.20433" lon="5.49956">
        <ele>137.7</ele>
        <time>2021-05-05T10:38:18Z</time>
      </trkpt>
      <trkpt lat="43.20433" lon="5.49948">
        <ele>137.4</ele>
        <time>2021-05-05T10:38:24Z</time>
      </trkpt>
      <trkpt lat="43.20434" lon="5.4994">
        <ele>137</ele>
        <time>2021-05-05T10:38:30Z</time>
      </trkpt>
      <trkpt lat="43.20434" lon="5.4993">
        <ele>136.6</ele>
        <time>2021-05-05T10:38:36Z</time>
      </trkpt>
      <trkpt lat="43.20434" lon="5.49922">
        <ele>136.2</ele>
        <time>2021-05-05T10:38:42Z</time>
      </trkpt>
      <trkpt lat="43.20435" lon="5.49916">
        <ele>135.8</ele>
        <time>2021-05-05T10:38:46Z</time>
      </trkpt>
      <trkpt lat="43.20435" lon="5.49909">
        <ele>135.2</ele>
        <time>2021-05-05T10:38:50Z</time>
      </trkpt>
      <trkpt lat="43.20435" lon="5.49901">
        <ele>134.3</ele>
        <time>2021-05-05T10:38:56Z</time>
      </trkpt>
      <trkpt lat="43.20437" lon="5.49892">
        <ele>133.3</ele>
        <time>2021-05-05T10:39:02Z</time>
      </trkpt>
      <trkpt lat="43.20437" lon="5.49883">
        <ele>132.4</ele>
        <time>2021-05-05T10:39:08Z</time>
      </trkpt>
      <trkpt lat="43.20436" lon="5.49874">
        <ele>131.6</ele>
        <time>2021-05-05T10:39:14Z</time>
      </trkpt>
      <trkpt lat="43.20435" lon="5.49869">
        <ele>131.2</ele>
        <time>2021-05-05T10:39:18Z</time>
      </trkpt>
      <trkpt lat="43.20434" lon="5.4986">
        <ele>130.4</ele>
        <time>2021-05-05T10:39:24Z</time>
      </trkpt>
      <trkpt lat="43.20432" lon="5.49854">
        <ele>130</ele>
        <time>2021-05-05T10:39:30Z</time>
      </trkpt>
      <trkpt lat="43.20429" lon="5.49847">
        <ele>129.7</ele>
        <time>2021-05-05T10:39:38Z</time>
      </trkpt>
      <trkpt lat="43.20426" lon="5.49841">
        <ele>129.6</ele>
        <time>2021-05-05T10:39:44Z</time>
      </trkpt>
      <trkpt lat="43.20422" lon="5.49837">
        <ele>129.6</ele>
        <time>2021-05-05T10:39:54Z</time>
      </trkpt>
      <trkpt lat="43.20418" lon="5.4984">
        <ele>130.4</ele>
        <time>2021-05-05T10:42:48Z</time>
      </trkpt>
      <trkpt lat="43.20412" lon="5.49843">
        <ele>128.4</ele>
        <time>2021-05-05T10:42:58Z</time>
      </trkpt>
      <trkpt lat="43.20407" lon="5.49841">
        <ele>125.3</ele>
        <time>2021-05-05T10:43:06Z</time>
      </trkpt>
      <trkpt lat="43.20407" lon="5.49835">
        <ele>124.3</ele>
        <time>2021-05-05T10:43:18Z</time>
      </trkpt>
      <trkpt lat="43.20405" lon="5.49841">
        <ele>123.6</ele>
        <time>2021-05-05T10:43:30Z</time>
      </trkpt>
      <trkpt lat="43.204" lon="5.49845">
        <ele>121.4</ele>
        <time>2021-05-05T10:43:38Z</time>
      </trkpt>
      <trkpt lat="43.20395" lon="5.49848">
        <ele>119.1</ele>
        <time>2021-05-05T10:43:44Z</time>
      </trkpt>
      <trkpt lat="43.20391" lon="5.49852">
        <ele>117.3</ele>
        <time>2021-05-05T10:43:52Z</time>
      </trkpt>
      <trkpt lat="43.20386" lon="5.49854">
        <ele>115.1</ele>
        <time>2021-05-05T10:44:00Z</time>
      </trkpt>
      <trkpt lat="43.20383" lon="5.49859">
        <ele>114</ele>
        <time>2021-05-05T10:44:06Z</time>
      </trkpt>
      <trkpt lat="43.20384" lon="5.49866">
        <ele>115.4</ele>
        <time>2021-05-05T10:44:12Z</time>
      </trkpt>
      <trkpt lat="43.20385" lon="5.49872">
        <ele>117.3</ele>
        <time>2021-05-05T10:44:20Z</time>
      </trkpt>
      <trkpt lat="43.20387" lon="5.49878">
        <ele>119.2</ele>
        <time>2021-05-05T10:44:26Z</time>
      </trkpt>
      <trkpt lat="43.20387" lon="5.49885">
        <ele>120.2</ele>
        <time>2021-05-05T10:44:32Z</time>
      </trkpt>
      <trkpt lat="43.20386" lon="5.49891">
        <ele>120.3</ele>
        <time>2021-05-05T10:44:40Z</time>
      </trkpt>
      <trkpt lat="43.20384" lon="5.49899">
        <ele>120.6</ele>
        <time>2021-05-05T10:44:48Z</time>
      </trkpt>
      <trkpt lat="43.20382" lon="5.49905">
        <ele>120.8</ele>
        <time>2021-05-05T10:44:56Z</time>
      </trkpt>
      <trkpt lat="43.20383" lon="5.49912">
        <ele>122</ele>
        <time>2021-05-05T10:45:06Z</time>
      </trkpt>
      <trkpt lat="43.20386" lon="5.49918">
        <ele>124.1</ele>
        <time>2021-05-05T10:45:26Z</time>
      </trkpt>
      <trkpt lat="43.20388" lon="5.49924">
        <ele>125.5</ele>
        <time>2021-05-05T10:45:34Z</time>
      </trkpt>
      <trkpt lat="43.20387" lon="5.4993">
        <ele>125.5</ele>
        <time>2021-05-05T10:47:38Z</time>
      </trkpt>
      <trkpt lat="43.20384" lon="5.49934">
        <ele>124.7</ele>
        <time>2021-05-05T10:47:46Z</time>
      </trkpt>
      <trkpt lat="43.2038" lon="5.49938">
        <ele>123.5</ele>
        <time>2021-05-05T10:47:54Z</time>
      </trkpt>
      <trkpt lat="43.20376" lon="5.49942">
        <ele>122.3</ele>
        <time>2021-05-05T10:48:02Z</time>
      </trkpt>
      <trkpt lat="43.20373" lon="5.49948">
        <ele>122.1</ele>
        <time>2021-05-05T10:48:16Z</time>
      </trkpt>
      <trkpt lat="43.20372" lon="5.49955">
        <ele>122.3</ele>
        <time>2021-05-05T10:48:24Z</time>
      </trkpt>
      <trkpt lat="43.20372" lon="5.49961">
        <ele>123</ele>
        <time>2021-05-05T10:48:30Z</time>
      </trkpt>
      <trkpt lat="43.2037" lon="5.49967">
        <ele>122.9</ele>
        <time>2021-05-05T10:48:38Z</time>
      </trkpt>
      <trkpt lat="43.20368" lon="5.49972">
        <ele>122.9</ele>
        <time>2021-05-05T10:48:44Z</time>
      </trkpt>
      <trkpt lat="43.20367" lon="5.49979">
        <ele>123.4</ele>
        <time>2021-05-05T10:48:50Z</time>
      </trkpt>
      <trkpt lat="43.20367" lon="5.49987">
        <ele>124.2</ele>
        <time>2021-05-05T10:48:56Z</time>
      </trkpt>
      <trkpt lat="43.20364" lon="5.49994">
        <ele>124.3</ele>
        <time>2021-05-05T10:49:06Z</time>
      </trkpt>
      <trkpt lat="43.20358" lon="5.49997">
        <ele>123.2</ele>
        <time>2021-05-05T10:49:12Z</time>
      </trkpt>
      <trkpt lat="43.20355" lon="5.50003">
        <ele>123</ele>
        <time>2021-05-05T10:49:16Z</time>
      </trkpt>
      <trkpt lat="43.20351" lon="5.50008">
        <ele>122.2</ele>
        <time>2021-05-05T10:49:22Z</time>
      </trkpt>
      <trkpt lat="43.20349" lon="5.50014">
        <ele>122.1</ele>
        <time>2021-05-05T10:49:28Z</time>
      </trkpt>
      <trkpt lat="43.20346" lon="5.50021">
        <ele>122</ele>
        <time>2021-05-05T10:49:36Z</time>
      </trkpt>
      <trkpt lat="43.20343" lon="5.50027">
        <ele>121.7</ele>
        <time>2021-05-05T10:49:44Z</time>
      </trkpt>
      <trkpt lat="43.20338" lon="5.5003">
        <ele>120.7</ele>
        <time>2021-05-05T10:49:52Z</time>
      </trkpt>
      <trkpt lat="43.20333" lon="5.50033">
        <ele>119.8</ele>
        <time>2021-05-05T10:50:02Z</time>
      </trkpt>
      <trkpt lat="43.20331" lon="5.5004">
        <ele>119.3</ele>
        <time>2021-05-05T10:50:12Z</time>
      </trkpt>
      <trkpt lat="43.2033" lon="5.50046">
        <ele>119.1</ele>
        <time>2021-05-05T10:50:40Z</time>
      </trkpt>
      <trkpt lat="43.20331" lon="5.50052">
        <ele>120.4</ele>
        <time>2021-05-05T10:50:50Z</time>
      </trkpt>
      <trkpt lat="43.20334" lon="5.50058">
        <ele>122.1</ele>
        <time>2021-05-05T10:51:00Z</time>
      </trkpt>
      <trkpt lat="43.20338" lon="5.50064">
        <ele>123.4</ele>
        <time>2021-05-05T10:51:08Z</time>
      </trkpt>
      <trkpt lat="43.20342" lon="5.50068">
        <ele>124.7</ele>
        <time>2021-05-05T10:51:16Z</time>
      </trkpt>
      <trkpt lat="43.20343" lon="5.50074">
        <ele>125.5</ele>
        <time>2021-05-05T10:51:26Z</time>
      </trkpt>
      <trkpt lat="43.20344" lon="5.50081">
        <ele>126</ele>
        <time>2021-05-05T10:51:40Z</time>
      </trkpt>
      <trkpt lat="43.20345" lon="5.50088">
        <ele>126.7</ele>
        <time>2021-05-05T10:51:48Z</time>
      </trkpt>
      <trkpt lat="43.20344" lon="5.50095">
        <ele>126.9</ele>
        <time>2021-05-05T10:51:58Z</time>
      </trkpt>
      <trkpt lat="43.20344" lon="5.50101">
        <ele>127.4</ele>
        <time>2021-05-05T10:52:06Z</time>
      </trkpt>
      <trkpt lat="43.20343" lon="5.50108">
        <ele>127.6</ele>
        <time>2021-05-05T10:52:12Z</time>
      </trkpt>
      <trkpt lat="43.20341" lon="5.50113">
        <ele>127.6</ele>
        <time>2021-05-05T10:52:18Z</time>
      </trkpt>
      <trkpt lat="43.20337" lon="5.50118">
        <ele>127.1</ele>
        <time>2021-05-05T10:52:26Z</time>
      </trkpt>
      <trkpt lat="43.20332" lon="5.50121">
        <ele>126.2</ele>
        <time>2021-05-05T10:52:34Z</time>
      </trkpt>
      <trkpt lat="43.20328" lon="5.50125">
        <ele>125.2</ele>
        <time>2021-05-05T10:52:42Z</time>
      </trkpt>
      <trkpt lat="43.20323" lon="5.50128">
        <ele>124</ele>
        <time>2021-05-05T10:52:52Z</time>
      </trkpt>
      <trkpt lat="43.20318" lon="5.50131">
        <ele>122.6</ele>
        <time>2021-05-05T10:53:02Z</time>
      </trkpt>
      <trkpt lat="43.20312" lon="5.50132">
        <ele>120.9</ele>
        <time>2021-05-05T10:53:08Z</time>
      </trkpt>
      <trkpt lat="43.20307" lon="5.50135">
        <ele>119.6</ele>
        <time>2021-05-05T10:53:14Z</time>
      </trkpt>
      <trkpt lat="43.20302" lon="5.50138">
        <ele>118.4</ele>
        <time>2021-05-05T10:53:24Z</time>
      </trkpt>
      <trkpt lat="43.20297" lon="5.50138">
        <ele>116.7</ele>
        <time>2021-05-05T10:53:32Z</time>
      </trkpt>
      <trkpt lat="43.20291" lon="5.50139">
        <ele>115</ele>
        <time>2021-05-05T10:53:38Z</time>
      </trkpt>
      <trkpt lat="43.20286" lon="5.5014">
        <ele>113.8</ele>
        <time>2021-05-05T10:53:44Z</time>
      </trkpt>
      <trkpt lat="43.20281" lon="5.50143">
        <ele>112.8</ele>
        <time>2021-05-05T10:53:50Z</time>
      </trkpt>
      <trkpt lat="43.20276" lon="5.50147">
        <ele>112.1</ele>
        <time>2021-05-05T10:53:56Z</time>
      </trkpt>
      <trkpt lat="43.20271" lon="5.5015">
        <ele>111</ele>
        <time>2021-05-05T10:54:04Z</time>
      </trkpt>
      <trkpt lat="43.20266" lon="5.5015">
        <ele>109.7</ele>
        <time>2021-05-05T10:54:10Z</time>
      </trkpt>
      <trkpt lat="43.20261" lon="5.50148">
        <ele>108</ele>
        <time>2021-05-05T10:54:18Z</time>
      </trkpt>
      <trkpt lat="43.20256" lon="5.50149">
        <ele>106.7</ele>
        <time>2021-05-05T10:54:22Z</time>
      </trkpt>
      <trkpt lat="43.2025" lon="5.5015">
        <ele>105.2</ele>
        <time>2021-05-05T10:54:28Z</time>
      </trkpt>
      <trkpt lat="43.20245" lon="5.50151">
        <ele>102.4</ele>
        <time>2021-05-05T10:54:34Z</time>
      </trkpt>
      <trkpt lat="43.20239" lon="5.5015">
        <ele>98.9</ele>
        <time>2021-05-05T10:54:40Z</time>
      </trkpt>
      <trkpt lat="43.20233" lon="5.5015">
        <ele>95.3</ele>
        <time>2021-05-05T10:54:46Z</time>
      </trkpt>
      <trkpt lat="43.20228" lon="5.5015">
        <ele>92.1</ele>
        <time>2021-05-05T10:54:54Z</time>
      </trkpt>
      <trkpt lat="43.20223" lon="5.50152">
        <ele>89.8</ele>
        <time>2021-05-05T10:55:02Z</time>
      </trkpt>
      <trkpt lat="43.20219" lon="5.50154">
        <ele>87.9</ele>
        <time>2021-05-05T10:55:08Z</time>
      </trkpt>
      <trkpt lat="43.20214" lon="5.50156">
        <ele>85.6</ele>
        <time>2021-05-05T10:55:14Z</time>
      </trkpt>
      <trkpt lat="43.20212" lon="5.5015">
        <ele>82.6</ele>
        <time>2021-05-05T10:55:32Z</time>
      </trkpt>
      <trkpt lat="43.20214" lon="5.50144">
        <ele>82.1</ele>
        <time>2021-05-05T10:56:00Z</time>
      </trkpt>
      <trkpt lat="43.2021" lon="5.5014">
        <ele>78.1</ele>
        <time>2021-05-05T10:56:29Z</time>
      </trkpt>
      <trkpt lat="43.20206" lon="5.50143">
        <ele>76.6</ele>
        <time>2021-05-05T10:56:35Z</time>
      </trkpt>
      <trkpt lat="43.20202" lon="5.50148">
        <ele>76.1</ele>
        <time>2021-05-05T10:56:45Z</time>
      </trkpt>
      <trkpt lat="43.20206" lon="5.50153">
        <ele>79.9</ele>
        <time>2021-05-05T10:57:20Z</time>
      </trkpt>
      <trkpt lat="43.2021" lon="5.50152">
        <ele>82.3</ele>
        <time>2021-05-05T10:57:48Z</time>
      </trkpt>
      <trkpt lat="43.20211" lon="5.5016">
        <ele>85.4</ele>
        <time>2021-05-05T10:58:00Z</time>
      </trkpt>
      <trkpt lat="43.20216" lon="5.50162">
        <ele>88.5</ele>
        <time>2021-05-05T10:58:18Z</time>
      </trkpt>
      <trkpt lat="43.20214" lon="5.50169">
        <ele>89.6</ele>
        <time>2021-05-05T11:00:10Z</time>
      </trkpt>
      <trkpt lat="43.20211" lon="5.50174">
        <ele>88.5</ele>
        <time>2021-05-05T11:00:18Z</time>
      </trkpt>
      <trkpt lat="43.20206" lon="5.50178">
        <ele>86.8</ele>
        <time>2021-05-05T11:00:30Z</time>
      </trkpt>
      <trkpt lat="43.20205" lon="5.50184">
        <ele>87.5</ele>
        <time>2021-05-05T11:00:42Z</time>
      </trkpt>
      <trkpt lat="43.20203" lon="5.5019">
        <ele>87.5</ele>
        <time>2021-05-05T11:00:48Z</time>
      </trkpt>
      <trkpt lat="43.20199" lon="5.50199">
        <ele>87.6</ele>
        <time>2021-05-05T11:00:56Z</time>
      </trkpt>
      <trkpt lat="43.20197" lon="5.50206">
        <ele>88</ele>
        <time>2021-05-05T11:01:02Z</time>
      </trkpt>
      <trkpt lat="43.20195" lon="5.50212">
        <ele>88.7</ele>
        <time>2021-05-05T11:01:08Z</time>
      </trkpt>
      <trkpt lat="43.20191" lon="5.50217">
        <ele>87.9</ele>
        <time>2021-05-05T11:01:16Z</time>
      </trkpt>
      <trkpt lat="43.20186" lon="5.50219">
        <ele>86.6</ele>
        <time>2021-05-05T11:01:30Z</time>
      </trkpt>
      <trkpt lat="43.20183" lon="5.50223">
        <ele>86.1</ele>
        <time>2021-05-05T11:01:36Z</time>
      </trkpt>
      <trkpt lat="43.20178" lon="5.50226">
        <ele>85.2</ele>
        <time>2021-05-05T11:01:40Z</time>
      </trkpt>
      <trkpt lat="43.20177" lon="5.50231">
        <ele>86.1</ele>
        <time>2021-05-05T11:01:48Z</time>
      </trkpt>
      <trkpt lat="43.20173" lon="5.50238">
        <ele>86.6</ele>
        <time>2021-05-05T11:02:00Z</time>
      </trkpt>
      <trkpt lat="43.20169" lon="5.50246">
        <ele>87.8</ele>
        <time>2021-05-05T11:02:08Z</time>
      </trkpt>
      <trkpt lat="43.20167" lon="5.50252">
        <ele>88.3</ele>
        <time>2021-05-05T11:02:16Z</time>
      </trkpt>
      <trkpt lat="43.20164" lon="5.50259">
        <ele>86.7</ele>
        <time>2021-05-05T11:02:24Z</time>
      </trkpt>
      <trkpt lat="43.20162" lon="5.50266">
        <ele>85.3</ele>
        <time>2021-05-05T11:02:38Z</time>
      </trkpt>
      <trkpt lat="43.20159" lon="5.50271">
        <ele>83.5</ele>
        <time>2021-05-05T11:02:50Z</time>
      </trkpt>
      <trkpt lat="43.20156" lon="5.50277">
        <ele>82.3</ele>
        <time>2021-05-05T11:02:56Z</time>
      </trkpt>
      <trkpt lat="43.20153" lon="5.50282">
        <ele>80</ele>
        <time>2021-05-05T11:03:04Z</time>
      </trkpt>
      <trkpt lat="43.20151" lon="5.50289">
        <ele>79.2</ele>
        <time>2021-05-05T11:03:10Z</time>
      </trkpt>
      <trkpt lat="43.20149" lon="5.50296">
        <ele>78.6</ele>
        <time>2021-05-05T11:03:16Z</time>
      </trkpt>
      <trkpt lat="43.20148" lon="5.50302">
        <ele>78.1</ele>
        <time>2021-05-05T11:03:24Z</time>
      </trkpt>
      <trkpt lat="43.20145" lon="5.50307">
        <ele>76.6</ele>
        <time>2021-05-05T11:03:32Z</time>
      </trkpt>
      <trkpt lat="43.20141" lon="5.50312">
        <ele>74.7</ele>
        <time>2021-05-05T11:03:38Z</time>
      </trkpt>
      <trkpt lat="43.20141" lon="5.50319">
        <ele>75.2</ele>
        <time>2021-05-05T11:03:46Z</time>
      </trkpt>
      <trkpt lat="43.20142" lon="5.50325">
        <ele>76.6</ele>
        <time>2021-05-05T11:04:30Z</time>
      </trkpt>
      <trkpt lat="43.20145" lon="5.50332">
        <ele>78.9</ele>
        <time>2021-05-05T11:04:40Z</time>
      </trkpt>
      <trkpt lat="43.20141" lon="5.50334">
        <ele>76.4</ele>
        <time>2021-05-05T11:06:38Z</time>
      </trkpt>
      <trkpt lat="43.20143" lon="5.50339">
        <ele>78.1</ele>
        <time>2021-05-05T11:07:10Z</time>
      </trkpt>
      <trkpt lat="43.20141" lon="5.50346">
        <ele>77</ele>
        <time>2021-05-05T11:12:26Z</time>
      </trkpt>
      <trkpt lat="43.20137" lon="5.50351">
        <ele>74.5</ele>
        <time>2021-05-05T11:12:40Z</time>
      </trkpt>
      <trkpt lat="43.20131" lon="5.50353">
        <ele>71.3</ele>
        <time>2021-05-05T11:12:48Z</time>
      </trkpt>
      <trkpt lat="43.20126" lon="5.50359">
        <ele>69.2</ele>
        <time>2021-05-05T11:12:54Z</time>
      </trkpt>
      <trkpt lat="43.20123" lon="5.50363">
        <ele>67.6</ele>
        <time>2021-05-05T11:13:00Z</time>
      </trkpt>
      <trkpt lat="43.20118" lon="5.50366">
        <ele>65.2</ele>
        <time>2021-05-05T11:13:08Z</time>
      </trkpt>
      <trkpt lat="43.20113" lon="5.50371">
        <ele>63.3</ele>
        <time>2021-05-05T11:13:16Z</time>
      </trkpt>
      <trkpt lat="43.20111" lon="5.50376">
        <ele>62.5</ele>
        <time>2021-05-05T11:13:22Z</time>
      </trkpt>
      <trkpt lat="43.20108" lon="5.50383">
        <ele>62</ele>
        <time>2021-05-05T11:13:28Z</time>
      </trkpt>
      <trkpt lat="43.20105" lon="5.50389">
        <ele>61.3</ele>
        <time>2021-05-05T11:13:36Z</time>
      </trkpt>
      <trkpt lat="43.20101" lon="5.50391">
        <ele>59.5</ele>
        <time>2021-05-05T11:13:46Z</time>
      </trkpt>
      <trkpt lat="43.20096" lon="5.50396">
        <ele>58.2</ele>
        <time>2021-05-05T11:13:54Z</time>
      </trkpt>
      <trkpt lat="43.20092" lon="5.504">
        <ele>56.8</ele>
        <time>2021-05-05T11:14:00Z</time>
      </trkpt>
      <trkpt lat="43.20088" lon="5.50405">
        <ele>55.9</ele>
        <time>2021-05-05T11:14:06Z</time>
      </trkpt>
      <trkpt lat="43.20085" lon="5.50411">
        <ele>55.8</ele>
        <time>2021-05-05T11:14:12Z</time>
      </trkpt>
      <trkpt lat="43.20082" lon="5.50416">
        <ele>55.5</ele>
        <time>2021-05-05T11:14:20Z</time>
      </trkpt>
      <trkpt lat="43.20081" lon="5.50423">
        <ele>55.8</ele>
        <time>2021-05-05T11:14:26Z</time>
      </trkpt>
      <trkpt lat="43.20083" lon="5.50429">
        <ele>56.9</ele>
        <time>2021-05-05T11:14:32Z</time>
      </trkpt>
      <trkpt lat="43.20083" lon="5.50437">
        <ele>57.4</ele>
        <time>2021-05-05T11:14:38Z</time>
      </trkpt>
      <trkpt lat="43.20084" lon="5.50444">
        <ele>58.5</ele>
        <time>2021-05-05T11:14:44Z</time>
      </trkpt>
      <trkpt lat="43.20084" lon="5.50451">
        <ele>59.1</ele>
        <time>2021-05-05T11:14:52Z</time>
      </trkpt>
      <trkpt lat="43.20081" lon="5.50458">
        <ele>58.8</ele>
        <time>2021-05-05T11:15:00Z</time>
      </trkpt>
      <trkpt lat="43.20077" lon="5.50464">
        <ele>57.7</ele>
        <time>2021-05-05T11:15:08Z</time>
      </trkpt>
      <trkpt lat="43.20074" lon="5.50472">
        <ele>57.3</ele>
        <time>2021-05-05T11:15:14Z</time>
      </trkpt>
      <trkpt lat="43.20073" lon="5.5048">
        <ele>57.6</ele>
        <time>2021-05-05T11:15:20Z</time>
      </trkpt>
      <trkpt lat="43.20071" lon="5.50488">
        <ele>57.7</ele>
        <time>2021-05-05T11:15:28Z</time>
      </trkpt>
      <trkpt lat="43.20069" lon="5.50495">
        <ele>57.6</ele>
        <time>2021-05-05T11:15:34Z</time>
      </trkpt>
      <trkpt lat="43.20066" lon="5.505">
        <ele>56.7</ele>
        <time>2021-05-05T11:15:44Z</time>
      </trkpt>
      <trkpt lat="43.20063" lon="5.50508">
        <ele>55.1</ele>
        <time>2021-05-05T11:15:54Z</time>
      </trkpt>
      <trkpt lat="43.20062" lon="5.50515">
        <ele>54</ele>
        <time>2021-05-05T11:16:00Z</time>
      </trkpt>
      <trkpt lat="43.20058" lon="5.50519">
        <ele>52.3</ele>
        <time>2021-05-05T11:16:06Z</time>
      </trkpt>
      <trkpt lat="43.20053" lon="5.5052">
        <ele>50.4</ele>
        <time>2021-05-05T11:16:14Z</time>
      </trkpt>
      <trkpt lat="43.20051" lon="5.50526">
        <ele>49</ele>
        <time>2021-05-05T11:16:22Z</time>
      </trkpt>
      <trkpt lat="43.20048" lon="5.50532">
        <ele>47.6</ele>
        <time>2021-05-05T11:16:28Z</time>
      </trkpt>
      <trkpt lat="43.20045" lon="5.50536">
        <ele>46</ele>
        <time>2021-05-05T11:16:38Z</time>
      </trkpt>
      <trkpt lat="43.20041" lon="5.50542">
        <ele>44.3</ele>
        <time>2021-05-05T11:16:46Z</time>
      </trkpt>
      <trkpt lat="43.20038" lon="5.50546">
        <ele>42.7</ele>
        <time>2021-05-05T11:16:58Z</time>
      </trkpt>
      <trkpt lat="43.20034" lon="5.50551">
        <ele>41</ele>
        <time>2021-05-05T11:17:08Z</time>
      </trkpt>
      <trkpt lat="43.20031" lon="5.50557">
        <ele>39.6</ele>
        <time>2021-05-05T11:17:16Z</time>
      </trkpt>
      <trkpt lat="43.20027" lon="5.50563">
        <ele>38.1</ele>
        <time>2021-05-05T11:17:28Z</time>
      </trkpt>
      <trkpt lat="43.20023" lon="5.50568">
        <ele>36.3</ele>
        <time>2021-05-05T11:17:36Z</time>
      </trkpt>
      <trkpt lat="43.20022" lon="5.50575">
        <ele>35.5</ele>
        <time>2021-05-05T11:17:44Z</time>
      </trkpt>
      <trkpt lat="43.20019" lon="5.5058">
        <ele>34.1</ele>
        <time>2021-05-05T11:17:54Z</time>
      </trkpt>
      <trkpt lat="43.20015" lon="5.50583">
        <ele>32.7</ele>
        <time>2021-05-05T11:18:16Z</time>
      </trkpt>
      <trkpt lat="43.20015" lon="5.50591">
        <ele>31.9</ele>
        <time>2021-05-05T11:18:26Z</time>
      </trkpt>
      <trkpt lat="43.20016" lon="5.50597">
        <ele>31.5</ele>
        <time>2021-05-05T11:18:36Z</time>
      </trkpt>
      <trkpt lat="43.20015" lon="5.50604">
        <ele>30.5</ele>
        <time>2021-05-05T11:18:48Z</time>
      </trkpt>
      <trkpt lat="43.20011" lon="5.50607">
        <ele>28.9</ele>
        <time>2021-05-05T11:18:54Z</time>
      </trkpt>
      <trkpt lat="43.20012" lon="5.50614">
        <ele>28.3</ele>
        <time>2021-05-05T11:19:02Z</time>
      </trkpt>
      <trkpt lat="43.20014" lon="5.5062">
        <ele>28.3</ele>
        <time>2021-05-05T11:19:10Z</time>
      </trkpt>
      <trkpt lat="43.20015" lon="5.50627">
        <ele>27.8</ele>
        <time>2021-05-05T11:19:26Z</time>
      </trkpt>
      <trkpt lat="43.20017" lon="5.50634">
        <ele>27.7</ele>
        <time>2021-05-05T11:19:38Z</time>
      </trkpt>
      <trkpt lat="43.20018" lon="5.50642">
        <ele>26.9</ele>
        <time>2021-05-05T11:19:46Z</time>
      </trkpt>
      <trkpt lat="43.2002" lon="5.50648">
        <ele>26.8</ele>
        <time>2021-05-05T11:19:52Z</time>
      </trkpt>
      <trkpt lat="43.20022" lon="5.50654">
        <ele>26.6</ele>
        <time>2021-05-05T11:19:58Z</time>
      </trkpt>
      <trkpt lat="43.20024" lon="5.50661">
        <ele>26.2</ele>
        <time>2021-05-05T11:20:08Z</time>
      </trkpt>
      <trkpt lat="43.20024" lon="5.50669">
        <ele>25.3</ele>
        <time>2021-05-05T11:20:16Z</time>
      </trkpt>
      <trkpt lat="43.20027" lon="5.50676">
        <ele>24.9</ele>
        <time>2021-05-05T11:20:24Z</time>
      </trkpt>
      <trkpt lat="43.20031" lon="5.5068">
        <ele>25.4</ele>
        <time>2021-05-05T11:20:30Z</time>
      </trkpt>
      <trkpt lat="43.20035" lon="5.50683">
        <ele>25.8</ele>
        <time>2021-05-05T11:20:40Z</time>
      </trkpt>
      <trkpt lat="43.20035" lon="5.5069">
        <ele>25</ele>
        <time>2021-05-05T11:20:52Z</time>
      </trkpt>
      <trkpt lat="43.20034" lon="5.50697">
        <ele>23.8</ele>
        <time>2021-05-05T11:21:00Z</time>
      </trkpt>
      <trkpt lat="43.20034" lon="5.50705">
        <ele>22.8</ele>
        <time>2021-05-05T11:21:08Z</time>
      </trkpt>
      <trkpt lat="43.20038" lon="5.50709">
        <ele>23.2</ele>
        <time>2021-05-05T11:21:16Z</time>
      </trkpt>
      <trkpt lat="43.20043" lon="5.50707">
        <ele>24.6</ele>
        <time>2021-05-05T11:21:44Z</time>
      </trkpt>
      <trkpt lat="43.20049" lon="5.50708">
        <ele>25.5</ele>
        <time>2021-05-05T11:24:06Z</time>
      </trkpt>
      <trkpt lat="43.20054" lon="5.50709">
        <ele>26.6</ele>
        <time>2021-05-05T11:24:48Z</time>
      </trkpt>
      <trkpt lat="43.20059" lon="5.50704">
        <ele>28.3</ele>
        <time>2021-05-05T11:25:48Z</time>
      </trkpt>
      <trkpt lat="43.20063" lon="5.50703">
        <ele>29.4</ele>
        <time>2021-05-05T11:25:56Z</time>
      </trkpt>
      <trkpt lat="43.20068" lon="5.50701">
        <ele>30.8</ele>
        <time>2021-05-05T11:26:04Z</time>
      </trkpt>
      <trkpt lat="43.20072" lon="5.50703">
        <ele>31.5</ele>
        <time>2021-05-05T11:26:12Z</time>
      </trkpt>
      <trkpt lat="43.20078" lon="5.50702">
        <ele>32.8</ele>
        <time>2021-05-05T11:26:20Z</time>
      </trkpt>
      <trkpt lat="43.20083" lon="5.50701">
        <ele>33.9</ele>
        <time>2021-05-05T11:26:28Z</time>
      </trkpt>
      <trkpt lat="43.20088" lon="5.50697">
        <ele>35.8</ele>
        <time>2021-05-05T11:26:36Z</time>
      </trkpt>
      <trkpt lat="43.20093" lon="5.50696">
        <ele>37.3</ele>
        <time>2021-05-05T11:26:48Z</time>
      </trkpt>
      <trkpt lat="43.20099" lon="5.50694">
        <ele>39.1</ele>
        <time>2021-05-05T11:26:56Z</time>
      </trkpt>
      <trkpt lat="43.20104" lon="5.50695">
        <ele>40.2</ele>
        <time>2021-05-05T11:27:06Z</time>
      </trkpt>
      <trkpt lat="43.20108" lon="5.50697">
        <ele>41.1</ele>
        <time>2021-05-05T11:27:18Z</time>
      </trkpt>
      <trkpt lat="43.20113" lon="5.507">
        <ele>41.8</ele>
        <time>2021-05-05T11:27:28Z</time>
      </trkpt>
      <trkpt lat="43.20118" lon="5.50701">
        <ele>43</ele>
        <time>2021-05-05T11:27:38Z</time>
      </trkpt>
      <trkpt lat="43.20122" lon="5.50706">
        <ele>43.5</ele>
        <time>2021-05-05T11:27:46Z</time>
      </trkpt>
      <trkpt lat="43.20127" lon="5.50709">
        <ele>44.5</ele>
        <time>2021-05-05T11:27:54Z</time>
      </trkpt>
      <trkpt lat="43.20133" lon="5.50713">
        <ele>45.6</ele>
        <time>2021-05-05T11:28:02Z</time>
      </trkpt>
      <trkpt lat="43.20137" lon="5.50718">
        <ele>45.9</ele>
        <time>2021-05-05T11:28:08Z</time>
      </trkpt>
      <trkpt lat="43.20141" lon="5.50722">
        <ele>46.5</ele>
        <time>2021-05-05T11:28:16Z</time>
      </trkpt>
      <trkpt lat="43.20146" lon="5.50727">
        <ele>47.1</ele>
        <time>2021-05-05T11:28:30Z</time>
      </trkpt>
      <trkpt lat="43.20149" lon="5.50732">
        <ele>47.2</ele>
        <time>2021-05-05T11:28:36Z</time>
      </trkpt>
      <trkpt lat="43.20152" lon="5.50737">
        <ele>47.6</ele>
        <time>2021-05-05T11:28:42Z</time>
      </trkpt>
      <trkpt lat="43.20154" lon="5.50745">
        <ele>47.2</ele>
        <time>2021-05-05T11:28:50Z</time>
      </trkpt>
      <trkpt lat="43.20156" lon="5.50752">
        <ele>46.6</ele>
        <time>2021-05-05T11:28:56Z</time>
      </trkpt>
      <trkpt lat="43.2016" lon="5.50757">
        <ele>46.5</ele>
        <time>2021-05-05T11:29:02Z</time>
      </trkpt>
      <trkpt lat="43.20165" lon="5.50761">
        <ele>46.6</ele>
        <time>2021-05-05T11:29:08Z</time>
      </trkpt>
      <trkpt lat="43.20169" lon="5.50765">
        <ele>46.6</ele>
        <time>2021-05-05T11:29:14Z</time>
      </trkpt>
      <trkpt lat="43.20173" lon="5.50771">
        <ele>46.2</ele>
        <time>2021-05-05T11:29:22Z</time>
      </trkpt>
      <trkpt lat="43.20177" lon="5.50776">
        <ele>46</ele>
        <time>2021-05-05T11:29:30Z</time>
      </trkpt>
      <trkpt lat="43.20181" lon="5.50781">
        <ele>45.6</ele>
        <time>2021-05-05T11:29:38Z</time>
      </trkpt>
      <trkpt lat="43.20185" lon="5.50786">
        <ele>45.5</ele>
        <time>2021-05-05T11:29:54Z</time>
      </trkpt>
      <trkpt lat="43.20191" lon="5.50788">
        <ele>46.4</ele>
        <time>2021-05-05T11:30:00Z</time>
      </trkpt>
      <trkpt lat="43.20195" lon="5.50794">
        <ele>46</ele>
        <time>2021-05-05T11:30:06Z</time>
      </trkpt>
      <trkpt lat="43.20199" lon="5.50798">
        <ele>46</ele>
        <time>2021-05-05T11:30:10Z</time>
      </trkpt>
      <trkpt lat="43.20203" lon="5.50802">
        <ele>45.9</ele>
        <time>2021-05-05T11:30:14Z</time>
      </trkpt>
      <trkpt lat="43.20207" lon="5.50804">
        <ele>46.8</ele>
        <time>2021-05-05T11:30:20Z</time>
      </trkpt>
      <trkpt lat="43.20212" lon="5.50805">
        <ele>47.6</ele>
        <time>2021-05-05T11:30:26Z</time>
      </trkpt>
      <trkpt lat="43.20217" lon="5.50806">
        <ele>48.7</ele>
        <time>2021-05-05T11:30:34Z</time>
      </trkpt>
      <trkpt lat="43.20222" lon="5.50804">
        <ele>50.7</ele>
        <time>2021-05-05T11:30:42Z</time>
      </trkpt>
      <trkpt lat="43.20227" lon="5.50802">
        <ele>52.5</ele>
        <time>2021-05-05T11:30:52Z</time>
      </trkpt>
      <trkpt lat="43.20232" lon="5.508">
        <ele>54.2</ele>
        <time>2021-05-05T11:31:02Z</time>
      </trkpt>
      <trkpt lat="43.20236" lon="5.50799">
        <ele>55.8</ele>
        <time>2021-05-05T11:31:10Z</time>
      </trkpt>
      <trkpt lat="43.20241" lon="5.508">
        <ele>56.7</ele>
        <time>2021-05-05T11:31:16Z</time>
      </trkpt>
      <trkpt lat="43.20245" lon="5.50806">
        <ele>56.4</ele>
        <time>2021-05-05T11:31:24Z</time>
      </trkpt>
      <trkpt lat="43.20249" lon="5.50809">
        <ele>56.5</ele>
        <time>2021-05-05T11:31:30Z</time>
      </trkpt>
      <trkpt lat="43.20254" lon="5.50815">
        <ele>55.7</ele>
        <time>2021-05-05T11:31:36Z</time>
      </trkpt>
      <trkpt lat="43.20258" lon="5.5082">
        <ele>54.9</ele>
        <time>2021-05-05T11:31:44Z</time>
      </trkpt>
      <trkpt lat="43.2026" lon="5.50828">
        <ele>53.2</ele>
        <time>2021-05-05T11:31:50Z</time>
      </trkpt>
      <trkpt lat="43.20263" lon="5.50834">
        <ele>52.1</ele>
        <time>2021-05-05T11:31:56Z</time>
      </trkpt>
      <trkpt lat="43.20267" lon="5.50838">
        <ele>51.4</ele>
        <time>2021-05-05T11:32:04Z</time>
      </trkpt>
      <trkpt lat="43.2027" lon="5.50842">
        <ele>50.7</ele>
        <time>2021-05-05T11:32:16Z</time>
      </trkpt>
      <trkpt lat="43.20275" lon="5.50847">
        <ele>49.9</ele>
        <time>2021-05-05T11:32:28Z</time>
      </trkpt>
      <trkpt lat="43.20279" lon="5.50852">
        <ele>49</ele>
        <time>2021-05-05T11:32:38Z</time>
      </trkpt>
      <trkpt lat="43.20284" lon="5.50851">
        <ele>50.5</ele>
        <time>2021-05-05T11:32:48Z</time>
      </trkpt>
      <trkpt lat="43.20287" lon="5.50856">
        <ele>49.4</ele>
        <time>2021-05-05T11:32:58Z</time>
      </trkpt>
      <trkpt lat="43.20292" lon="5.50858">
        <ele>49.4</ele>
        <time>2021-05-05T11:33:04Z</time>
      </trkpt>
      <trkpt lat="43.20296" lon="5.5086">
        <ele>49.6</ele>
        <time>2021-05-05T11:33:10Z</time>
      </trkpt>
      <trkpt lat="43.20302" lon="5.50862">
        <ele>49.9</ele>
        <time>2021-05-05T11:33:16Z</time>
      </trkpt>
      <trkpt lat="43.20307" lon="5.50863">
        <ele>50.7</ele>
        <time>2021-05-05T11:33:24Z</time>
      </trkpt>
      <trkpt lat="43.20312" lon="5.50861">
        <ele>51.9</ele>
        <time>2021-05-05T11:33:30Z</time>
      </trkpt>
      <trkpt lat="43.20317" lon="5.50859">
        <ele>53.5</ele>
        <time>2021-05-05T11:33:36Z</time>
      </trkpt>
      <trkpt lat="43.20322" lon="5.50858">
        <ele>54.6</ele>
        <time>2021-05-05T11:33:42Z</time>
      </trkpt>
      <trkpt lat="43.20327" lon="5.50861">
        <ele>54.5</ele>
        <time>2021-05-05T11:34:02Z</time>
      </trkpt>
      <trkpt lat="43.20329" lon="5.50867">
        <ele>53</ele>
        <time>2021-05-05T11:34:08Z</time>
      </trkpt>
      <trkpt lat="43.20331" lon="5.50874">
        <ele>51.3</ele>
        <time>2021-05-05T11:34:14Z</time>
      </trkpt>
      <trkpt lat="43.20334" lon="5.5088">
        <ele>49.9</ele>
        <time>2021-05-05T11:34:20Z</time>
      </trkpt>
      <trkpt lat="43.20336" lon="5.50887">
        <ele>47.5</ele>
        <time>2021-05-05T11:34:28Z</time>
      </trkpt>
      <trkpt lat="43.2034" lon="5.50892">
        <ele>45.5</ele>
        <time>2021-05-05T11:34:36Z</time>
      </trkpt>
      <trkpt lat="43.20343" lon="5.50897">
        <ele>43.6</ele>
        <time>2021-05-05T11:34:58Z</time>
      </trkpt>
      <trkpt lat="43.20343" lon="5.50904">
        <ele>41.7</ele>
        <time>2021-05-05T11:37:54Z</time>
      </trkpt>
      <trkpt lat="43.20345" lon="5.50909">
        <ele>39.8</ele>
        <time>2021-05-05T11:38:18Z</time>
      </trkpt>
      <trkpt lat="43.2035" lon="5.50909">
        <ele>39.3</ele>
        <time>2021-05-05T11:38:40Z</time>
      </trkpt>
      <trkpt lat="43.20354" lon="5.50908">
        <ele>39.2</ele>
        <time>2021-05-05T11:39:32Z</time>
      </trkpt>
      <trkpt lat="43.20356" lon="5.50914">
        <ele>37.5</ele>
        <time>2021-05-05T11:39:54Z</time>
      </trkpt>
      <trkpt lat="43.2036" lon="5.50917">
        <ele>36.3</ele>
        <time>2021-05-05T11:40:28Z</time>
      </trkpt>
      <trkpt lat="43.20363" lon="5.50923">
        <ele>34.8</ele>
        <time>2021-05-05T11:40:44Z</time>
      </trkpt>
      <trkpt lat="43.20367" lon="5.50928">
        <ele>33.5</ele>
        <time>2021-05-05T11:40:52Z</time>
      </trkpt>
      <trkpt lat="43.20368" lon="5.50935">
        <ele>32</ele>
        <time>2021-05-05T11:41:02Z</time>
      </trkpt>
      <trkpt lat="43.20369" lon="5.50942">
        <ele>30.5</ele>
        <time>2021-05-05T11:41:16Z</time>
      </trkpt>
      <trkpt lat="43.20371" lon="5.50948">
        <ele>29.2</ele>
        <time>2021-05-05T11:41:28Z</time>
      </trkpt>
      <trkpt lat="43.20371" lon="5.50955">
        <ele>27.8</ele>
        <time>2021-05-05T11:41:38Z</time>
      </trkpt>
      <trkpt lat="43.20371" lon="5.50961">
        <ele>26.6</ele>
        <time>2021-05-05T11:41:48Z</time>
      </trkpt>
      <trkpt lat="43.20372" lon="5.50968">
        <ele>25.3</ele>
        <time>2021-05-05T11:41:56Z</time>
      </trkpt>
      <trkpt lat="43.20373" lon="5.50974">
        <ele>24</ele>
        <time>2021-05-05T11:42:04Z</time>
      </trkpt>
      <trkpt lat="43.20374" lon="5.50982">
        <ele>22.5</ele>
        <time>2021-05-05T11:42:18Z</time>
      </trkpt>
      <trkpt lat="43.20376" lon="5.50988">
        <ele>21.2</ele>
        <time>2021-05-05T11:42:32Z</time>
      </trkpt>
      <trkpt lat="43.2038" lon="5.50993">
        <ele>20.3</ele>
        <time>2021-05-05T11:42:40Z</time>
      </trkpt>
      <trkpt lat="43.20381" lon="5.51">
        <ele>19</ele>
        <time>2021-05-05T11:42:58Z</time>
      </trkpt>
      <trkpt lat="43.20383" lon="5.51007">
        <ele>18.5</ele>
        <time>2021-05-05T11:43:12Z</time>
      </trkpt>
      <trkpt lat="43.20386" lon="5.51012">
        <ele>18.2</ele>
        <time>2021-05-05T11:43:20Z</time>
      </trkpt>
      <trkpt lat="43.20391" lon="5.51013">
        <ele>18.2</ele>
        <time>2021-05-05T11:43:44Z</time>
      </trkpt>
      <trkpt lat="43.20394" lon="5.5102">
        <ele>17.8</ele>
        <time>2021-05-05T11:43:58Z</time>
      </trkpt>
      <trkpt lat="43.20398" lon="5.51023">
        <ele>17.7</ele>
        <time>2021-05-05T11:44:22Z</time>
      </trkpt>
      <trkpt lat="43.20398" lon="5.51029">
        <ele>17.3</ele>
        <time>2021-05-05T11:44:30Z</time>
      </trkpt>
      <trkpt lat="43.20402" lon="5.51032">
        <ele>17.2</ele>
        <time>2021-05-05T11:44:48Z</time>
      </trkpt>
      <trkpt lat="43.20406" lon="5.51036">
        <ele>17</ele>
        <time>2021-05-05T11:45:02Z</time>
      </trkpt>
      <trkpt lat="43.20404" lon="5.51042">
        <ele>16.7</ele>
        <time>2021-05-05T11:45:12Z</time>
      </trkpt>
      <trkpt lat="43.20402" lon="5.51049">
        <ele>16.2</ele>
        <time>2021-05-05T11:45:18Z</time>
      </trkpt>
      <trkpt lat="43.20405" lon="5.51057">
        <ele>15.9</ele>
        <time>2021-05-05T11:45:30Z</time>
      </trkpt>
      <trkpt lat="43.2041" lon="5.51059">
        <ele>15.9</ele>
        <time>2021-05-05T11:45:36Z</time>
      </trkpt>
      <trkpt lat="43.20407" lon="5.51066">
        <ele>15.5</ele>
        <time>2021-05-05T11:50:16Z</time>
      </trkpt>
      <trkpt lat="43.20406" lon="5.51073">
        <ele>15.1</ele>
        <time>2021-05-05T11:50:24Z</time>
      </trkpt>
      <trkpt lat="43.20408" lon="5.51078">
        <ele>14.8</ele>
        <time>2021-05-05T11:50:38Z</time>
      </trkpt>
      <trkpt lat="43.20408" lon="5.51085">
        <ele>14.7</ele>
        <time>2021-05-05T11:50:58Z</time>
      </trkpt>
      <trkpt lat="43.20403" lon="5.51084">
        <ele>14.4</ele>
        <time>2021-05-05T11:51:36Z</time>
      </trkpt>
      <trkpt lat="43.20399" lon="5.51086">
        <ele>14.4</ele>
        <time>2021-05-05T11:51:48Z</time>
      </trkpt>
      <trkpt lat="43.20396" lon="5.5109">
        <ele>14.7</ele>
        <time>2021-05-05T11:52:00Z</time>
      </trkpt>
      <trkpt lat="43.20392" lon="5.51096">
        <ele>15.1</ele>
        <time>2021-05-05T11:52:04Z</time>
      </trkpt>
      <trkpt lat="43.20389" lon="5.51101">
        <ele>15.5</ele>
        <time>2021-05-05T11:52:08Z</time>
      </trkpt>
      <trkpt lat="43.20386" lon="5.51105">
        <ele>15.8</ele>
        <time>2021-05-05T11:52:22Z</time>
      </trkpt>
      <trkpt lat="43.20381" lon="5.51109">
        <ele>15.9</ele>
        <time>2021-05-05T11:52:30Z</time>
      </trkpt>
      <trkpt lat="43.20376" lon="5.51112">
        <ele>16</ele>
        <time>2021-05-05T11:52:42Z</time>
      </trkpt>
      <trkpt lat="43.20372" lon="5.51114">
        <ele>16</ele>
        <time>2021-05-05T11:52:56Z</time>
      </trkpt>
      <trkpt lat="43.20367" lon="5.51118">
        <ele>16.1</ele>
        <time>2021-05-05T11:53:06Z</time>
      </trkpt>
      <trkpt lat="43.20362" lon="5.51119">
        <ele>15.9</ele>
        <time>2021-05-05T11:53:16Z</time>
      </trkpt>
      <trkpt lat="43.20357" lon="5.51124">
        <ele>16.1</ele>
        <time>2021-05-05T11:53:24Z</time>
      </trkpt>
      <trkpt lat="43.20355" lon="5.5113">
        <ele>16.6</ele>
        <time>2021-05-05T11:53:36Z</time>
      </trkpt>
      <trkpt lat="43.2035" lon="5.51133">
        <ele>16.7</ele>
        <time>2021-05-05T11:53:48Z</time>
      </trkpt>
      <trkpt lat="43.20345" lon="5.5113">
        <ele>16.1</ele>
        <time>2021-05-05T11:53:54Z</time>
      </trkpt>
      <trkpt lat="43.2034" lon="5.51128">
        <ele>15.6</ele>
        <time>2021-05-05T11:54:00Z</time>
      </trkpt>
      <trkpt lat="43.20336" lon="5.51129">
        <ele>15.6</ele>
        <time>2021-05-05T11:54:08Z</time>
      </trkpt>
      <trkpt lat="43.20334" lon="5.51136">
        <ele>16.1</ele>
        <time>2021-05-05T11:54:12Z</time>
      </trkpt>
      <trkpt lat="43.20333" lon="5.51143">
        <ele>16.8</ele>
        <time>2021-05-05T11:54:20Z</time>
      </trkpt>
      <trkpt lat="43.20329" lon="5.51148">
        <ele>17.6</ele>
        <time>2021-05-05T11:54:34Z</time>
      </trkpt>
      <trkpt lat="43.20325" lon="5.51152">
        <ele>18.4</ele>
        <time>2021-05-05T11:54:40Z</time>
      </trkpt>
      <trkpt lat="43.20322" lon="5.51159">
        <ele>19.4</ele>
        <time>2021-05-05T11:54:50Z</time>
      </trkpt>
      <trkpt lat="43.20318" lon="5.51164">
        <ele>20.2</ele>
        <time>2021-05-05T11:54:54Z</time>
      </trkpt>
      <trkpt lat="43.20314" lon="5.5117">
        <ele>20.6</ele>
        <time>2021-05-05T11:55:00Z</time>
      </trkpt>
      <trkpt lat="43.20312" lon="5.51177">
        <ele>20.6</ele>
        <time>2021-05-05T11:55:08Z</time>
      </trkpt>
      <trkpt lat="43.20316" lon="5.51181">
        <ele>20</ele>
        <time>2021-05-05T11:56:34Z</time>
      </trkpt>
      <trkpt lat="43.20315" lon="5.51174">
        <ele>20.4</ele>
        <time>2021-05-05T12:01:48Z</time>
      </trkpt>
      <trkpt lat="43.20312" lon="5.51168">
        <ele>21</ele>
        <time>2021-05-05T12:02:00Z</time>
      </trkpt>
      <trkpt lat="43.20307" lon="5.51166">
        <ele>21.5</ele>
        <time>2021-05-05T12:02:04Z</time>
      </trkpt>
      <trkpt lat="43.20301" lon="5.51168">
        <ele>22</ele>
        <time>2021-05-05T12:02:10Z</time>
      </trkpt>
      <trkpt lat="43.20295" lon="5.51168">
        <ele>22.6</ele>
        <time>2021-05-05T12:02:26Z</time>
      </trkpt>
      <trkpt lat="43.20289" lon="5.51169">
        <ele>23.2</ele>
        <time>2021-05-05T12:02:32Z</time>
      </trkpt>
      <trkpt lat="43.20284" lon="5.51168">
        <ele>23.6</ele>
        <time>2021-05-05T12:02:36Z</time>
      </trkpt>
      <trkpt lat="43.2028" lon="5.51167">
        <ele>24.1</ele>
        <time>2021-05-05T12:02:40Z</time>
      </trkpt>
      <trkpt lat="43.20275" lon="5.51164">
        <ele>24.4</ele>
        <time>2021-05-05T12:02:48Z</time>
      </trkpt>
      <trkpt lat="43.20269" lon="5.51168">
        <ele>25</ele>
        <time>2021-05-05T12:02:54Z</time>
      </trkpt>
      <trkpt lat="43.20267" lon="5.51174">
        <ele>24.9</ele>
        <time>2021-05-05T12:03:02Z</time>
      </trkpt>
      <trkpt lat="43.20261" lon="5.51177">
        <ele>25.1</ele>
        <time>2021-05-05T12:03:28Z</time>
      </trkpt>
      <trkpt lat="43.20257" lon="5.5118">
        <ele>25.3</ele>
        <time>2021-05-05T12:03:36Z</time>
      </trkpt>
      <trkpt lat="43.20252" lon="5.51182">
        <ele>25.6</ele>
        <time>2021-05-05T12:03:42Z</time>
      </trkpt>
      <trkpt lat="43.20247" lon="5.51181">
        <ele>26.1</ele>
        <time>2021-05-05T12:03:48Z</time>
      </trkpt>
      <trkpt lat="43.20246" lon="5.51173">
        <ele>26.8</ele>
        <time>2021-05-05T12:03:58Z</time>
      </trkpt>
      <trkpt lat="43.20243" lon="5.51169">
        <ele>27.6</ele>
        <time>2021-05-05T12:04:04Z</time>
      </trkpt>
      <trkpt lat="43.20239" lon="5.51165">
        <ele>28</ele>
        <time>2021-05-05T12:04:10Z</time>
      </trkpt>
      <trkpt lat="43.20235" lon="5.51159">
        <ele>28.1</ele>
        <time>2021-05-05T12:04:20Z</time>
      </trkpt>
      <trkpt lat="43.2023" lon="5.5116">
        <ele>28.9</ele>
        <time>2021-05-05T12:04:26Z</time>
      </trkpt>
      <trkpt lat="43.20224" lon="5.51161">
        <ele>29.6</ele>
        <time>2021-05-05T12:04:34Z</time>
      </trkpt>
      <trkpt lat="43.20219" lon="5.51159">
        <ele>30</ele>
        <time>2021-05-05T12:04:38Z</time>
      </trkpt>
      <trkpt lat="43.20218" lon="5.51153">
        <ele>30</ele>
        <time>2021-05-05T12:04:44Z</time>
      </trkpt>
      <trkpt lat="43.20216" lon="5.51147">
        <ele>30</ele>
        <time>2021-05-05T12:04:48Z</time>
      </trkpt>
      <trkpt lat="43.20213" lon="5.51141">
        <ele>30.3</ele>
        <time>2021-05-05T12:04:54Z</time>
      </trkpt>
      <trkpt lat="43.20209" lon="5.51135">
        <ele>30.7</ele>
        <time>2021-05-05T12:05:02Z</time>
      </trkpt>
      <trkpt lat="43.20205" lon="5.5113">
        <ele>31.2</ele>
        <time>2021-05-05T12:05:08Z</time>
      </trkpt>
      <trkpt lat="43.20201" lon="5.51126">
        <ele>31.7</ele>
        <time>2021-05-05T12:05:14Z</time>
      </trkpt>
      <trkpt lat="43.20199" lon="5.51119">
        <ele>31.8</ele>
        <time>2021-05-05T12:05:24Z</time>
      </trkpt>
      <trkpt lat="43.20204" lon="5.51114">
        <ele>31</ele>
        <time>2021-05-05T12:05:34Z</time>
      </trkpt>
      <trkpt lat="43.20207" lon="5.51109">
        <ele>30.4</ele>
        <time>2021-05-05T12:05:40Z</time>
      </trkpt>
      <trkpt lat="43.20204" lon="5.51104">
        <ele>30.8</ele>
        <time>2021-05-05T12:05:50Z</time>
      </trkpt>
      <trkpt lat="43.20199" lon="5.51098">
        <ele>31.5</ele>
        <time>2021-05-05T12:05:56Z</time>
      </trkpt>
      <trkpt lat="43.20196" lon="5.51092">
        <ele>32</ele>
        <time>2021-05-05T12:06:02Z</time>
      </trkpt>
      <trkpt lat="43.20193" lon="5.51085">
        <ele>32.7</ele>
        <time>2021-05-05T12:06:08Z</time>
      </trkpt>
      <trkpt lat="43.2019" lon="5.51078">
        <ele>32.2</ele>
        <time>2021-05-05T12:06:16Z</time>
      </trkpt>
      <trkpt lat="43.2019" lon="5.51071">
        <ele>31</ele>
        <time>2021-05-05T12:06:24Z</time>
      </trkpt>
      <trkpt lat="43.20188" lon="5.51063">
        <ele>29.9</ele>
        <time>2021-05-05T12:06:30Z</time>
      </trkpt>
      <trkpt lat="43.20187" lon="5.51057">
        <ele>29.1</ele>
        <time>2021-05-05T12:06:34Z</time>
      </trkpt>
      <trkpt lat="43.20183" lon="5.51053">
        <ele>29</ele>
        <time>2021-05-05T12:06:38Z</time>
      </trkpt>
      <trkpt lat="43.20178" lon="5.5105">
        <ele>29.3</ele>
        <time>2021-05-05T12:06:42Z</time>
      </trkpt>
      <trkpt lat="43.20174" lon="5.51048">
        <ele>29.6</ele>
        <time>2021-05-05T12:06:46Z</time>
      </trkpt>
      <trkpt lat="43.20167" lon="5.51048">
        <ele>30.8</ele>
        <time>2021-05-05T12:06:52Z</time>
      </trkpt>
      <trkpt lat="43.20162" lon="5.51044">
        <ele>30</ele>
        <time>2021-05-05T12:06:58Z</time>
      </trkpt>
      <trkpt lat="43.20159" lon="5.51038">
        <ele>28.8</ele>
        <time>2021-05-05T12:07:04Z</time>
      </trkpt>
      <trkpt lat="43.20155" lon="5.51033">
        <ele>28</ele>
        <time>2021-05-05T12:07:10Z</time>
      </trkpt>
      <trkpt lat="43.2015" lon="5.51029">
        <ele>27.2</ele>
        <time>2021-05-05T12:07:18Z</time>
      </trkpt>
      <trkpt lat="43.20145" lon="5.51026">
        <ele>27</ele>
        <time>2021-05-05T12:07:24Z</time>
      </trkpt>
      <trkpt lat="43.2014" lon="5.51027">
        <ele>27.1</ele>
        <time>2021-05-05T12:07:28Z</time>
      </trkpt>
      <trkpt lat="43.20135" lon="5.51028">
        <ele>27.4</ele>
        <time>2021-05-05T12:07:34Z</time>
      </trkpt>
      <trkpt lat="43.2013" lon="5.51027">
        <ele>27.4</ele>
        <time>2021-05-05T12:07:40Z</time>
      </trkpt>
      <trkpt lat="43.20126" lon="5.51027">
        <ele>27.6</ele>
        <time>2021-05-05T12:07:44Z</time>
      </trkpt>
      <trkpt lat="43.2012" lon="5.51024">
        <ele>27.2</ele>
        <time>2021-05-05T12:07:50Z</time>
      </trkpt>
      <trkpt lat="43.20116" lon="5.51021">
        <ele>27</ele>
        <time>2021-05-05T12:07:58Z</time>
      </trkpt>
      <trkpt lat="43.20112" lon="5.51017">
        <ele>26.6</ele>
        <time>2021-05-05T12:08:06Z</time>
      </trkpt>
      <trkpt lat="43.20108" lon="5.51013">
        <ele>26.2</ele>
        <time>2021-05-05T12:08:12Z</time>
      </trkpt>
      <trkpt lat="43.20106" lon="5.51006">
        <ele>25.4</ele>
        <time>2021-05-05T12:08:18Z</time>
      </trkpt>
      <trkpt lat="43.20102" lon="5.51002">
        <ele>25.1</ele>
        <time>2021-05-05T12:08:24Z</time>
      </trkpt>
      <trkpt lat="43.20097" lon="5.51003">
        <ele>25.6</ele>
        <time>2021-05-05T12:08:30Z</time>
      </trkpt>
      <trkpt lat="43.20092" lon="5.50999">
        <ele>25.3</ele>
        <time>2021-05-05T12:08:38Z</time>
      </trkpt>
      <trkpt lat="43.20088" lon="5.50995">
        <ele>24.9</ele>
        <time>2021-05-05T12:08:48Z</time>
      </trkpt>
      <trkpt lat="43.20083" lon="5.50992">
        <ele>24.8</ele>
        <time>2021-05-05T12:08:56Z</time>
      </trkpt>
      <trkpt lat="43.20078" lon="5.50995">
        <ele>25.1</ele>
        <time>2021-05-05T12:09:02Z</time>
      </trkpt>
      <trkpt lat="43.20073" lon="5.50997">
        <ele>25.3</ele>
        <time>2021-05-05T12:09:08Z</time>
      </trkpt>
      <trkpt lat="43.20069" lon="5.50999">
        <ele>25.6</ele>
        <time>2021-05-05T12:09:16Z</time>
      </trkpt>
      <trkpt lat="43.20064" lon="5.50997">
        <ele>25.1</ele>
        <time>2021-05-05T12:09:34Z</time>
      </trkpt>
      <trkpt lat="43.20059" lon="5.50999">
        <ele>25.3</ele>
        <time>2021-05-05T12:09:48Z</time>
      </trkpt>
      <trkpt lat="43.20053" lon="5.51004">
        <ele>25.5</ele>
        <time>2021-05-05T12:09:54Z</time>
      </trkpt>
      <trkpt lat="43.20049" lon="5.51007">
        <ele>25.5</ele>
        <time>2021-05-05T12:10:18Z</time>
      </trkpt>
      <trkpt lat="43.20043" lon="5.51007">
        <ele>25.3</ele>
        <time>2021-05-05T12:11:50Z</time>
      </trkpt>
      <trkpt lat="43.20037" lon="5.51004">
        <ele>25</ele>
        <time>2021-05-05T12:11:56Z</time>
      </trkpt>
      <trkpt lat="43.20033" lon="5.51008">
        <ele>25</ele>
        <time>2021-05-05T12:12:06Z</time>
      </trkpt>
      <trkpt lat="43.20028" lon="5.51005">
        <ele>24.8</ele>
        <time>2021-05-05T12:12:14Z</time>
      </trkpt>
      <trkpt lat="43.20023" lon="5.51001">
        <ele>24.6</ele>
        <time>2021-05-05T12:12:20Z</time>
      </trkpt>
      <trkpt lat="43.20019" lon="5.50996">
        <ele>24</ele>
        <time>2021-05-05T12:12:24Z</time>
      </trkpt>
      <trkpt lat="43.20014" lon="5.50994">
        <ele>23.6</ele>
        <time>2021-05-05T12:12:28Z</time>
      </trkpt>
      <trkpt lat="43.20008" lon="5.50992">
        <ele>23.2</ele>
        <time>2021-05-05T12:12:34Z</time>
      </trkpt>
      <trkpt lat="43.20001" lon="5.50989">
        <ele>22.7</ele>
        <time>2021-05-05T12:12:40Z</time>
      </trkpt>
      <trkpt lat="43.19997" lon="5.50989">
        <ele>22.3</ele>
        <time>2021-05-05T12:12:44Z</time>
      </trkpt>
      <trkpt lat="43.19992" lon="5.50989">
        <ele>22</ele>
        <time>2021-05-05T12:12:48Z</time>
      </trkpt>
      <trkpt lat="43.19986" lon="5.50991">
        <ele>21.6</ele>
        <time>2021-05-05T12:12:54Z</time>
      </trkpt>
      <trkpt lat="43.1998" lon="5.50989">
        <ele>20.8</ele>
        <time>2021-05-05T12:13:00Z</time>
      </trkpt>
      <trkpt lat="43.19975" lon="5.50987">
        <ele>20.1</ele>
        <time>2021-05-05T12:13:04Z</time>
      </trkpt>
      <trkpt lat="43.19971" lon="5.50983">
        <ele>19.3</ele>
        <time>2021-05-05T12:13:08Z</time>
      </trkpt>
      <trkpt lat="43.19966" lon="5.5098">
        <ele>18.4</ele>
        <time>2021-05-05T12:13:14Z</time>
      </trkpt>
      <trkpt lat="43.1996" lon="5.50982">
        <ele>18.1</ele>
        <time>2021-05-05T12:13:20Z</time>
      </trkpt>
      <trkpt lat="43.1996" lon="5.50973">
        <ele>17.1</ele>
        <time>2021-05-05T12:13:30Z</time>
      </trkpt>
      <trkpt lat="43.1996" lon="5.50966">
        <ele>16.3</ele>
        <time>2021-05-05T12:13:36Z</time>
      </trkpt>
      <trkpt lat="43.19958" lon="5.50961">
        <ele>15.5</ele>
        <time>2021-05-05T12:13:42Z</time>
      </trkpt>
      <trkpt lat="43.19953" lon="5.50961">
        <ele>15</ele>
        <time>2021-05-05T12:13:46Z</time>
      </trkpt>
      <trkpt lat="43.19947" lon="5.50961">
        <ele>14.5</ele>
        <time>2021-05-05T12:13:52Z</time>
      </trkpt>
      <trkpt lat="43.19944" lon="5.50956">
        <ele>13.7</ele>
        <time>2021-05-05T12:13:58Z</time>
      </trkpt>
      <trkpt lat="43.19939" lon="5.50951">
        <ele>12.7</ele>
        <time>2021-05-05T12:14:02Z</time>
      </trkpt>
      <trkpt lat="43.19935" lon="5.50953">
        <ele>12.6</ele>
        <time>2021-05-05T12:14:06Z</time>
      </trkpt>
      <trkpt lat="43.1993" lon="5.50955">
        <ele>12.3</ele>
        <time>2021-05-05T12:14:10Z</time>
      </trkpt>
      <trkpt lat="43.19926" lon="5.50954">
        <ele>11.8</ele>
        <time>2021-05-05T12:14:14Z</time>
      </trkpt>
      <trkpt lat="43.1992" lon="5.50954">
        <ele>11.4</ele>
        <time>2021-05-05T12:14:20Z</time>
      </trkpt>
      <trkpt lat="43.19916" lon="5.50951">
        <ele>10.6</ele>
        <time>2021-05-05T12:14:26Z</time>
      </trkpt>
      <trkpt lat="43.19911" lon="5.50948">
        <ele>10.1</ele>
        <time>2021-05-05T12:14:32Z</time>
      </trkpt>
      <trkpt lat="43.19905" lon="5.50948">
        <ele>9.8</ele>
        <time>2021-05-05T12:14:38Z</time>
      </trkpt>
      <trkpt lat="43.19899" lon="5.50947">
        <ele>9.4</ele>
        <time>2021-05-05T12:14:44Z</time>
      </trkpt>
      <trkpt lat="43.19894" lon="5.50944">
        <ele>8.9</ele>
        <time>2021-05-05T12:14:50Z</time>
      </trkpt>
      <trkpt lat="43.19891" lon="5.50938">
        <ele>8.2</ele>
        <time>2021-05-05T12:14:56Z</time>
      </trkpt>
      <trkpt lat="43.19886" lon="5.50939">
        <ele>8</ele>
        <time>2021-05-05T12:15:04Z</time>
      </trkpt>
      <trkpt lat="43.19881" lon="5.50943">
        <ele>8.1</ele>
        <time>2021-05-05T12:15:12Z</time>
      </trkpt>
      <trkpt lat="43.19879" lon="5.50948">
        <ele>8.5</ele>
        <time>2021-05-05T12:15:16Z</time>
      </trkpt>
      <trkpt lat="43.19874" lon="5.50951">
        <ele>8.5</ele>
        <time>2021-05-05T12:16:04Z</time>
      </trkpt>
      <trkpt lat="43.19869" lon="5.50953">
        <ele>8.4</ele>
        <time>2021-05-05T12:16:26Z</time>
      </trkpt>
      <trkpt lat="43.19865" lon="5.50958">
        <ele>8.7</ele>
        <time>2021-05-05T12:16:32Z</time>
      </trkpt>
      <trkpt lat="43.1986" lon="5.50963">
        <ele>8.9</ele>
        <time>2021-05-05T12:16:38Z</time>
      </trkpt>
      <trkpt lat="43.19855" lon="5.50963">
        <ele>8.6</ele>
        <time>2021-05-05T12:16:46Z</time>
      </trkpt>
      <trkpt lat="43.1985" lon="5.50964">
        <ele>8.4</ele>
        <time>2021-05-05T12:16:52Z</time>
      </trkpt>
      <trkpt lat="43.19846" lon="5.50961">
        <ele>7.9</ele>
        <time>2021-05-05T12:16:56Z</time>
      </trkpt>
      <trkpt lat="43.19844" lon="5.50967">
        <ele>8.3</ele>
        <time>2021-05-05T12:17:20Z</time>
      </trkpt>
      <trkpt lat="43.19841" lon="5.50972">
        <ele>8.4</ele>
        <time>2021-05-05T12:17:26Z</time>
      </trkpt>
      <trkpt lat="43.19836" lon="5.50975">
        <ele>8.3</ele>
        <time>2021-05-05T12:17:30Z</time>
      </trkpt>
      <trkpt lat="43.19832" lon="5.50978">
        <ele>8.3</ele>
        <time>2021-05-05T12:17:36Z</time>
      </trkpt>
      <trkpt lat="43.19828" lon="5.50983">
        <ele>8.5</ele>
        <time>2021-05-05T12:17:46Z</time>
      </trkpt>
      <trkpt lat="43.19823" lon="5.50984">
        <ele>8.2</ele>
        <time>2021-05-05T12:17:58Z</time>
      </trkpt>
      <trkpt lat="43.19818" lon="5.50988">
        <ele>8.2</ele>
        <time>2021-05-05T12:18:06Z</time>
      </trkpt>
      <trkpt lat="43.19814" lon="5.50989">
        <ele>8</ele>
        <time>2021-05-05T12:18:14Z</time>
      </trkpt>
      <trkpt lat="43.1981" lon="5.50993">
        <ele>7.9</ele>
        <time>2021-05-05T12:18:24Z</time>
      </trkpt>
      <trkpt lat="43.19806" lon="5.5099">
        <ele>7.5</ele>
        <time>2021-05-05T12:18:34Z</time>
      </trkpt>
      <trkpt lat="43.198" lon="5.5099">
        <ele>7.2</ele>
        <time>2021-05-05T12:18:46Z</time>
      </trkpt>
      <trkpt lat="43.19797" lon="5.50997">
        <ele>7.3</ele>
        <time>2021-05-05T12:19:08Z</time>
      </trkpt>
      <trkpt lat="43.19796" lon="5.51004">
        <ele>7.3</ele>
        <time>2021-05-05T12:19:18Z</time>
      </trkpt>
      <trkpt lat="43.19792" lon="5.51007">
        <ele>7</ele>
        <time>2021-05-05T12:19:24Z</time>
      </trkpt>
      <trkpt lat="43.19788" lon="5.51012">
        <ele>6.7</ele>
        <time>2021-05-05T12:19:42Z</time>
      </trkpt>
      <trkpt lat="43.19788" lon="5.51019">
        <ele>6.7</ele>
        <time>2021-05-05T12:19:52Z</time>
      </trkpt>
      <trkpt lat="43.19791" lon="5.51023">
        <ele>7</ele>
        <time>2021-05-05T12:19:58Z</time>
      </trkpt>
      <trkpt lat="43.19795" lon="5.51029">
        <ele>7.2</ele>
        <time>2021-05-05T12:20:04Z</time>
      </trkpt>
      <trkpt lat="43.19799" lon="5.51032">
        <ele>7.5</ele>
        <time>2021-05-05T12:20:28Z</time>
      </trkpt>
      <trkpt lat="43.19796" lon="5.51037">
        <ele>7.3</ele>
        <time>2021-05-05T12:53:58Z</time>
      </trkpt>
      <trkpt lat="43.19792" lon="5.51039">
        <ele>7</ele>
        <time>2021-05-05T13:00:10Z</time>
      </trkpt>
      <trkpt lat="43.19796" lon="5.51034">
        <ele>7.3</ele>
        <time>2021-05-05T13:00:52Z</time>
      </trkpt>
      <trkpt lat="43.19801" lon="5.51031">
        <ele>7.7</ele>
        <time>2021-05-05T13:06:04Z</time>
      </trkpt>
      <trkpt lat="43.19804" lon="5.51026">
        <ele>7.9</ele>
        <time>2021-05-05T13:25:59Z</time>
      </trkpt>
      <trkpt lat="43.19807" lon="5.51021">
        <ele>8.1</ele>
        <time>2021-05-05T13:26:13Z</time>
      </trkpt>
      <trkpt lat="43.19812" lon="5.51016">
        <ele>8.5</ele>
        <time>2021-05-05T13:26:25Z</time>
      </trkpt>
      <trkpt lat="43.19816" lon="5.51013">
        <ele>8.7</ele>
        <time>2021-05-05T13:26:35Z</time>
      </trkpt>
      <trkpt lat="43.19817" lon="5.51007">
        <ele>8.8</ele>
        <time>2021-05-05T13:26:41Z</time>
      </trkpt>
      <trkpt lat="43.19818" lon="5.50999">
        <ele>8.8</ele>
        <time>2021-05-05T13:26:47Z</time>
      </trkpt>
      <trkpt lat="43.19819" lon="5.50992">
        <ele>8.5</ele>
        <time>2021-05-05T13:26:55Z</time>
      </trkpt>
      <trkpt lat="43.19824" lon="5.50987">
        <ele>8.5</ele>
        <time>2021-05-05T13:27:05Z</time>
      </trkpt>
      <trkpt lat="43.19829" lon="5.50985">
        <ele>8.7</ele>
        <time>2021-05-05T13:27:15Z</time>
      </trkpt>
      <trkpt lat="43.19834" lon="5.50985">
        <ele>9</ele>
        <time>2021-05-05T13:27:23Z</time>
      </trkpt>
      <trkpt lat="43.19839" lon="5.50988">
        <ele>9.5</ele>
        <time>2021-05-05T13:27:33Z</time>
      </trkpt>
      <trkpt lat="43.19841" lon="5.50983">
        <ele>9.3</ele>
        <time>2021-05-05T13:27:47Z</time>
      </trkpt>
      <trkpt lat="43.19845" lon="5.50976">
        <ele>9</ele>
        <time>2021-05-05T13:27:53Z</time>
      </trkpt>
      <trkpt lat="43.19849" lon="5.50973">
        <ele>9</ele>
        <time>2021-05-05T13:27:57Z</time>
      </trkpt>
      <trkpt lat="43.19854" lon="5.50969">
        <ele>9</ele>
        <time>2021-05-05T13:28:03Z</time>
      </trkpt>
      <trkpt lat="43.19859" lon="5.50966">
        <ele>9.1</ele>
        <time>2021-05-05T13:28:09Z</time>
      </trkpt>
      <trkpt lat="43.19862" lon="5.50961">
        <ele>8.8</ele>
        <time>2021-05-05T13:28:15Z</time>
      </trkpt>
      <trkpt lat="43.19865" lon="5.50956">
        <ele>8.5</ele>
        <time>2021-05-05T13:28:23Z</time>
      </trkpt>
      <trkpt lat="43.19868" lon="5.50951">
        <ele>8.2</ele>
        <time>2021-05-05T13:28:53Z</time>
      </trkpt>
      <trkpt lat="43.19873" lon="5.50949">
        <ele>8.3</ele>
        <time>2021-05-05T13:28:59Z</time>
      </trkpt>
      <trkpt lat="43.19875" lon="5.50954">
        <ele>8.9</ele>
        <time>2021-05-05T13:29:15Z</time>
      </trkpt>
      <trkpt lat="43.19876" lon="5.50961">
        <ele>9.5</ele>
        <time>2021-05-05T13:29:21Z</time>
      </trkpt>
      <trkpt lat="43.19878" lon="5.50968">
        <ele>10.3</ele>
        <time>2021-05-05T13:29:27Z</time>
      </trkpt>
      <trkpt lat="43.1988" lon="5.50975">
        <ele>11</ele>
        <time>2021-05-05T13:29:33Z</time>
      </trkpt>
      <trkpt lat="43.19882" lon="5.50981">
        <ele>11.7</ele>
        <time>2021-05-05T13:29:39Z</time>
      </trkpt>
      <trkpt lat="43.19882" lon="5.50988">
        <ele>12.4</ele>
        <time>2021-05-05T13:29:45Z</time>
      </trkpt>
      <trkpt lat="43.19883" lon="5.50996">
        <ele>13.2</ele>
        <time>2021-05-05T13:29:51Z</time>
      </trkpt>
      <trkpt lat="43.19885" lon="5.51003">
        <ele>13.6</ele>
        <time>2021-05-05T13:29:57Z</time>
      </trkpt>
      <trkpt lat="43.19886" lon="5.5101">
        <ele>13.5</ele>
        <time>2021-05-05T13:30:03Z</time>
      </trkpt>
      <trkpt lat="43.19883" lon="5.51016">
        <ele>13.1</ele>
        <time>2021-05-05T13:30:09Z</time>
      </trkpt>
      <trkpt lat="43.19881" lon="5.51023">
        <ele>12.8</ele>
        <time>2021-05-05T13:30:17Z</time>
      </trkpt>
      <trkpt lat="43.19879" lon="5.51028">
        <ele>12.5</ele>
        <time>2021-05-05T13:30:27Z</time>
      </trkpt>
      <trkpt lat="43.19875" lon="5.51032">
        <ele>12.2</ele>
        <time>2021-05-05T13:30:33Z</time>
      </trkpt>
      <trkpt lat="43.19873" lon="5.51038">
        <ele>12</ele>
        <time>2021-05-05T13:30:39Z</time>
      </trkpt>
      <trkpt lat="43.19873" lon="5.51046">
        <ele>11.8</ele>
        <time>2021-05-05T13:30:45Z</time>
      </trkpt>
      <trkpt lat="43.19876" lon="5.5104">
        <ele>12.1</ele>
        <time>2021-05-05T13:32:03Z</time>
      </trkpt>
      <trkpt lat="43.19875" lon="5.51033">
        <ele>12.2</ele>
        <time>2021-05-05T13:32:17Z</time>
      </trkpt>
      <trkpt lat="43.1988" lon="5.51035">
        <ele>12.4</ele>
        <time>2021-05-05T13:32:37Z</time>
      </trkpt>
      <trkpt lat="43.19885" lon="5.5104">
        <ele>12.5</ele>
        <time>2021-05-05T13:32:43Z</time>
      </trkpt>
      <trkpt lat="43.19886" lon="5.51047">
        <ele>12.3</ele>
        <time>2021-05-05T13:32:51Z</time>
      </trkpt>
      <trkpt lat="43.1989" lon="5.51052">
        <ele>12.4</ele>
        <time>2021-05-05T13:32:59Z</time>
      </trkpt>
      <trkpt lat="43.19894" lon="5.51055">
        <ele>12.4</ele>
        <time>2021-05-05T13:33:03Z</time>
      </trkpt>
      <trkpt lat="43.19899" lon="5.51058">
        <ele>12.5</ele>
        <time>2021-05-05T13:33:09Z</time>
      </trkpt>
      <trkpt lat="43.19903" lon="5.51061">
        <ele>12.5</ele>
        <time>2021-05-05T13:33:17Z</time>
      </trkpt>
      <trkpt lat="43.19907" lon="5.51062">
        <ele>12.7</ele>
        <time>2021-05-05T13:33:23Z</time>
      </trkpt>
      <trkpt lat="43.19913" lon="5.51061">
        <ele>12.9</ele>
        <time>2021-05-05T13:33:29Z</time>
      </trkpt>
      <trkpt lat="43.19919" lon="5.51064">
        <ele>13.2</ele>
        <time>2021-05-05T13:33:35Z</time>
      </trkpt>
      <trkpt lat="43.19924" lon="5.51068">
        <ele>13.6</ele>
        <time>2021-05-05T13:33:41Z</time>
      </trkpt>
      <trkpt lat="43.19928" lon="5.51072">
        <ele>14</ele>
        <time>2021-05-05T13:33:47Z</time>
      </trkpt>
      <trkpt lat="43.19933" lon="5.51074">
        <ele>14.5</ele>
        <time>2021-05-05T13:33:53Z</time>
      </trkpt>
      <trkpt lat="43.19938" lon="5.51079">
        <ele>15</ele>
        <time>2021-05-05T13:33:59Z</time>
      </trkpt>
      <trkpt lat="43.19942" lon="5.51085">
        <ele>15.3</ele>
        <time>2021-05-05T13:34:07Z</time>
      </trkpt>
      <trkpt lat="43.19948" lon="5.51087">
        <ele>15.9</ele>
        <time>2021-05-05T13:34:13Z</time>
      </trkpt>
      <trkpt lat="43.19953" lon="5.51091">
        <ele>16.3</ele>
        <time>2021-05-05T13:34:27Z</time>
      </trkpt>
      <trkpt lat="43.19958" lon="5.51092">
        <ele>16.8</ele>
        <time>2021-05-05T13:34:37Z</time>
      </trkpt>
      <trkpt lat="43.19963" lon="5.5109">
        <ele>17.6</ele>
        <time>2021-05-05T13:35:03Z</time>
      </trkpt>
      <trkpt lat="43.19968" lon="5.51093">
        <ele>18</ele>
        <time>2021-05-05T13:35:11Z</time>
      </trkpt>
      <trkpt lat="43.19968" lon="5.511">
        <ele>17.5</ele>
        <time>2021-05-05T13:35:19Z</time>
      </trkpt>
      <trkpt lat="43.19969" lon="5.51108">
        <ele>16.7</ele>
        <time>2021-05-05T13:35:25Z</time>
      </trkpt>
      <trkpt lat="43.19972" lon="5.51116">
        <ele>16.4</ele>
        <time>2021-05-05T13:35:31Z</time>
      </trkpt>
      <trkpt lat="43.19975" lon="5.51124">
        <ele>16</ele>
        <time>2021-05-05T13:35:37Z</time>
      </trkpt>
      <trkpt lat="43.19977" lon="5.51132">
        <ele>15.4</ele>
        <time>2021-05-05T13:35:43Z</time>
      </trkpt>
      <trkpt lat="43.1998" lon="5.51138">
        <ele>15</ele>
        <time>2021-05-05T13:35:49Z</time>
      </trkpt>
      <trkpt lat="43.19984" lon="5.51145">
        <ele>14.6</ele>
        <time>2021-05-05T13:35:55Z</time>
      </trkpt>
      <trkpt lat="43.19986" lon="5.5115">
        <ele>14.2</ele>
        <time>2021-05-05T13:35:59Z</time>
      </trkpt>
      <trkpt lat="43.19989" lon="5.51158">
        <ele>13.5</ele>
        <time>2021-05-05T13:36:05Z</time>
      </trkpt>
      <trkpt lat="43.19991" lon="5.51164">
        <ele>13</ele>
        <time>2021-05-05T13:36:09Z</time>
      </trkpt>
      <trkpt lat="43.19994" lon="5.51169">
        <ele>12.7</ele>
        <time>2021-05-05T13:36:15Z</time>
      </trkpt>
      <trkpt lat="43.19992" lon="5.51175">
        <ele>12.3</ele>
        <time>2021-05-05T13:36:51Z</time>
      </trkpt>
      <trkpt lat="43.19997" lon="5.51175">
        <ele>12.4</ele>
        <time>2021-05-05T13:37:09Z</time>
      </trkpt>
      <trkpt lat="43.20001" lon="5.51181">
        <ele>12.2</ele>
        <time>2021-05-05T13:37:15Z</time>
      </trkpt>
      <trkpt lat="43.20005" lon="5.51184">
        <ele>12.7</ele>
        <time>2021-05-05T13:37:21Z</time>
      </trkpt>
      <trkpt lat="43.20009" lon="5.51189">
        <ele>12.9</ele>
        <time>2021-05-05T13:37:29Z</time>
      </trkpt>
      <trkpt lat="43.20012" lon="5.51195">
        <ele>12.7</ele>
        <time>2021-05-05T13:37:35Z</time>
      </trkpt>
      <trkpt lat="43.20017" lon="5.51199">
        <ele>13.2</ele>
        <time>2021-05-05T13:37:43Z</time>
      </trkpt>
      <trkpt lat="43.20022" lon="5.51201">
        <ele>13.5</ele>
        <time>2021-05-05T13:37:49Z</time>
      </trkpt>
      <trkpt lat="43.20027" lon="5.51205">
        <ele>13.9</ele>
        <time>2021-05-05T13:37:55Z</time>
      </trkpt>
      <trkpt lat="43.20027" lon="5.51212">
        <ele>13.2</ele>
        <time>2021-05-05T13:38:05Z</time>
      </trkpt>
      <trkpt lat="43.20032" lon="5.51211">
        <ele>13.9</ele>
        <time>2021-05-05T13:38:39Z</time>
      </trkpt>
      <trkpt lat="43.20036" lon="5.51209">
        <ele>14.6</ele>
        <time>2021-05-05T13:39:21Z</time>
      </trkpt>
      <trkpt lat="43.20041" lon="5.51206">
        <ele>15.5</ele>
        <time>2021-05-05T13:39:31Z</time>
      </trkpt>
      <trkpt lat="43.20046" lon="5.51204">
        <ele>16.1</ele>
        <time>2021-05-05T13:39:39Z</time>
      </trkpt>
      <trkpt lat="43.20051" lon="5.51205">
        <ele>16.6</ele>
        <time>2021-05-05T13:39:47Z</time>
      </trkpt>
      <trkpt lat="43.20056" lon="5.51206">
        <ele>17.2</ele>
        <time>2021-05-05T13:39:55Z</time>
      </trkpt>
      <trkpt lat="43.20061" lon="5.51207">
        <ele>17.7</ele>
        <time>2021-05-05T13:40:17Z</time>
      </trkpt>
      <trkpt lat="43.20067" lon="5.51208">
        <ele>18.2</ele>
        <time>2021-05-05T13:40:23Z</time>
      </trkpt>
      <trkpt lat="43.20073" lon="5.51211">
        <ele>18.5</ele>
        <time>2021-05-05T13:40:29Z</time>
      </trkpt>
      <trkpt lat="43.20078" lon="5.51213">
        <ele>18.8</ele>
        <time>2021-05-05T13:40:33Z</time>
      </trkpt>
      <trkpt lat="43.20084" lon="5.51215">
        <ele>19.2</ele>
        <time>2021-05-05T13:40:39Z</time>
      </trkpt>
      <trkpt lat="43.2009" lon="5.51218">
        <ele>19.3</ele>
        <time>2021-05-05T13:40:45Z</time>
      </trkpt>
      <trkpt lat="43.20094" lon="5.51222">
        <ele>19.3</ele>
        <time>2021-05-05T13:40:49Z</time>
      </trkpt>
      <trkpt lat="43.20099" lon="5.51224">
        <ele>19.6</ele>
        <time>2021-05-05T13:40:55Z</time>
      </trkpt>
      <trkpt lat="43.20102" lon="5.51229">
        <ele>19.4</ele>
        <time>2021-05-05T13:41:05Z</time>
      </trkpt>
      <trkpt lat="43.20108" lon="5.51231">
        <ele>19.7</ele>
        <time>2021-05-05T13:41:33Z</time>
      </trkpt>
      <trkpt lat="43.20105" lon="5.51236">
        <ele>18.5</ele>
        <time>2021-05-05T13:42:03Z</time>
      </trkpt>
      <trkpt lat="43.2011" lon="5.51233">
        <ele>19.6</ele>
        <time>2021-05-05T13:42:21Z</time>
      </trkpt>
      <trkpt lat="43.20114" lon="5.5124">
        <ele>19.2</ele>
        <time>2021-05-05T13:42:27Z</time>
      </trkpt>
      <trkpt lat="43.20118" lon="5.51243">
        <ele>19.1</ele>
        <time>2021-05-05T13:42:31Z</time>
      </trkpt>
      <trkpt lat="43.20122" lon="5.51246">
        <ele>19.2</ele>
        <time>2021-05-05T13:42:35Z</time>
      </trkpt>
      <trkpt lat="43.20126" lon="5.5125">
        <ele>19.1</ele>
        <time>2021-05-05T13:42:41Z</time>
      </trkpt>
      <trkpt lat="43.20133" lon="5.51252">
        <ele>19.8</ele>
        <time>2021-05-05T13:42:47Z</time>
      </trkpt>
      <trkpt lat="43.20138" lon="5.51254">
        <ele>20.2</ele>
        <time>2021-05-05T13:42:53Z</time>
      </trkpt>
      <trkpt lat="43.20142" lon="5.51261">
        <ele>20</ele>
        <time>2021-05-05T13:42:59Z</time>
      </trkpt>
      <trkpt lat="43.20145" lon="5.51266">
        <ele>19.9</ele>
        <time>2021-05-05T13:43:03Z</time>
      </trkpt>
      <trkpt lat="43.20149" lon="5.5127">
        <ele>19.9</ele>
        <time>2021-05-05T13:43:07Z</time>
      </trkpt>
      <trkpt lat="43.20153" lon="5.51275">
        <ele>19.9</ele>
        <time>2021-05-05T13:43:11Z</time>
      </trkpt>
      <trkpt lat="43.20157" lon="5.51278">
        <ele>20</ele>
        <time>2021-05-05T13:43:15Z</time>
      </trkpt>
      <trkpt lat="43.20162" lon="5.51283">
        <ele>20</ele>
        <time>2021-05-05T13:43:21Z</time>
      </trkpt>
      <trkpt lat="43.20167" lon="5.51283">
        <ele>20.4</ele>
        <time>2021-05-05T13:43:27Z</time>
      </trkpt>
      <trkpt lat="43.20171" lon="5.51279">
        <ele>20.7</ele>
        <time>2021-05-05T13:43:33Z</time>
      </trkpt>
      <trkpt lat="43.20175" lon="5.51274">
        <ele>21.1</ele>
        <time>2021-05-05T13:43:39Z</time>
      </trkpt>
      <trkpt lat="43.20177" lon="5.51268">
        <ele>21.6</ele>
        <time>2021-05-05T13:43:43Z</time>
      </trkpt>
      <trkpt lat="43.20178" lon="5.51261">
        <ele>22.4</ele>
        <time>2021-05-05T13:43:49Z</time>
      </trkpt>
      <trkpt lat="43.20178" lon="5.51254">
        <ele>23.1</ele>
        <time>2021-05-05T13:43:55Z</time>
      </trkpt>
      <trkpt lat="43.20181" lon="5.51248">
        <ele>23.6</ele>
        <time>2021-05-05T13:44:01Z</time>
      </trkpt>
      <trkpt lat="43.20184" lon="5.51241">
        <ele>24.3</ele>
        <time>2021-05-05T13:44:09Z</time>
      </trkpt>
      <trkpt lat="43.20189" lon="5.51239">
        <ele>24.3</ele>
        <time>2021-05-05T13:44:15Z</time>
      </trkpt>
      <trkpt lat="43.20195" lon="5.51241">
        <ele>23.7</ele>
        <time>2021-05-05T13:44:21Z</time>
      </trkpt>
      <trkpt lat="43.202" lon="5.51242">
        <ele>23.4</ele>
        <time>2021-05-05T13:44:27Z</time>
      </trkpt>
      <trkpt lat="43.20204" lon="5.51236">
        <ele>23.8</ele>
        <time>2021-05-05T13:44:33Z</time>
      </trkpt>
      <trkpt lat="43.20208" lon="5.51232">
        <ele>24.1</ele>
        <time>2021-05-05T13:44:39Z</time>
      </trkpt>
      <trkpt lat="43.20213" lon="5.51234">
        <ele>23.5</ele>
        <time>2021-05-05T13:44:49Z</time>
      </trkpt>
      <trkpt lat="43.20213" lon="5.51227">
        <ele>24.3</ele>
        <time>2021-05-05T13:44:59Z</time>
      </trkpt>
      <trkpt lat="43.20216" lon="5.5122">
        <ele>24.9</ele>
        <time>2021-05-05T13:45:07Z</time>
      </trkpt>
      <trkpt lat="43.2022" lon="5.51212">
        <ele>25.5</ele>
        <time>2021-05-05T13:45:17Z</time>
      </trkpt>
      <trkpt lat="43.20224" lon="5.51207">
        <ele>25.7</ele>
        <time>2021-05-05T13:45:25Z</time>
      </trkpt>
      <trkpt lat="43.20228" lon="5.51206">
        <ele>25.5</ele>
        <time>2021-05-05T13:45:39Z</time>
      </trkpt>
      <trkpt lat="43.2023" lon="5.512">
        <ele>25.9</ele>
        <time>2021-05-05T13:45:43Z</time>
      </trkpt>
      <trkpt lat="43.20231" lon="5.51192">
        <ele>26.6</ele>
        <time>2021-05-05T13:45:47Z</time>
      </trkpt>
      <trkpt lat="43.20234" lon="5.51186">
        <ele>26.8</ele>
        <time>2021-05-05T13:45:55Z</time>
      </trkpt>
      <trkpt lat="43.20238" lon="5.51182">
        <ele>26.9</ele>
        <time>2021-05-05T13:46:03Z</time>
      </trkpt>
      <trkpt lat="43.20243" lon="5.51185">
        <ele>26.1</ele>
        <time>2021-05-05T13:46:09Z</time>
      </trkpt>
      <trkpt lat="43.20248" lon="5.51183">
        <ele>25.8</ele>
        <time>2021-05-05T13:46:15Z</time>
      </trkpt>
      <trkpt lat="43.20253" lon="5.51183">
        <ele>25.3</ele>
        <time>2021-05-05T13:46:21Z</time>
      </trkpt>
      <trkpt lat="43.20256" lon="5.51176">
        <ele>25.7</ele>
        <time>2021-05-05T13:46:31Z</time>
      </trkpt>
      <trkpt lat="43.20259" lon="5.51171">
        <ele>25.8</ele>
        <time>2021-05-05T13:46:39Z</time>
      </trkpt>
      <trkpt lat="43.20264" lon="5.51167">
        <ele>25.6</ele>
        <time>2021-05-05T13:46:49Z</time>
      </trkpt>
      <trkpt lat="43.20268" lon="5.51164">
        <ele>25</ele>
        <time>2021-05-05T13:47:09Z</time>
      </trkpt>
      <trkpt lat="43.20274" lon="5.51167">
        <ele>24.7</ele>
        <time>2021-05-05T13:47:17Z</time>
      </trkpt>
      <trkpt lat="43.2028" lon="5.51168">
        <ele>24</ele>
        <time>2021-05-05T13:47:23Z</time>
      </trkpt>
      <trkpt lat="43.20287" lon="5.51168">
        <ele>23.4</ele>
        <time>2021-05-05T13:47:29Z</time>
      </trkpt>
      <trkpt lat="43.20291" lon="5.5117">
        <ele>22.9</ele>
        <time>2021-05-05T13:47:33Z</time>
      </trkpt>
      <trkpt lat="43.20296" lon="5.51172">
        <ele>22.3</ele>
        <time>2021-05-05T13:47:37Z</time>
      </trkpt>
      <trkpt lat="43.20301" lon="5.51173">
        <ele>21.8</ele>
        <time>2021-05-05T13:47:41Z</time>
      </trkpt>
      <trkpt lat="43.20307" lon="5.51171">
        <ele>21.3</ele>
        <time>2021-05-05T13:47:47Z</time>
      </trkpt>
      <trkpt lat="43.20311" lon="5.51173">
        <ele>20.8</ele>
        <time>2021-05-05T13:47:57Z</time>
      </trkpt>
      <trkpt lat="43.20316" lon="5.51171">
        <ele>20.5</ele>
        <time>2021-05-05T13:48:11Z</time>
      </trkpt>
      <trkpt lat="43.2032" lon="5.51174">
        <ele>20</ele>
        <time>2021-05-05T13:48:23Z</time>
      </trkpt>
      <trkpt lat="43.20325" lon="5.51178">
        <ele>19.4</ele>
        <time>2021-05-05T13:48:31Z</time>
      </trkpt>
      <trkpt lat="43.20329" lon="5.51179">
        <ele>18.9</ele>
        <time>2021-05-05T13:48:39Z</time>
      </trkpt>
      <trkpt lat="43.20334" lon="5.51179">
        <ele>18.6</ele>
        <time>2021-05-05T13:48:47Z</time>
      </trkpt>
      <trkpt lat="43.2034" lon="5.51178">
        <ele>19</ele>
        <time>2021-05-05T13:48:55Z</time>
      </trkpt>
      <trkpt lat="43.20345" lon="5.51177">
        <ele>19.4</ele>
        <time>2021-05-05T13:49:03Z</time>
      </trkpt>
      <trkpt lat="43.2035" lon="5.51177">
        <ele>19.7</ele>
        <time>2021-05-05T13:49:09Z</time>
      </trkpt>
      <trkpt lat="43.20356" lon="5.51178">
        <ele>20</ele>
        <time>2021-05-05T13:49:15Z</time>
      </trkpt>
      <trkpt lat="43.20361" lon="5.51181">
        <ele>20.3</ele>
        <time>2021-05-05T13:49:23Z</time>
      </trkpt>
      <trkpt lat="43.20365" lon="5.51185">
        <ele>20.5</ele>
        <time>2021-05-05T13:49:29Z</time>
      </trkpt>
      <trkpt lat="43.20371" lon="5.51187">
        <ele>20.9</ele>
        <time>2021-05-05T13:49:37Z</time>
      </trkpt>
      <trkpt lat="43.20376" lon="5.51185">
        <ele>21.2</ele>
        <time>2021-05-05T13:49:43Z</time>
      </trkpt>
      <trkpt lat="43.20381" lon="5.51182">
        <ele>21.6</ele>
        <time>2021-05-05T13:49:49Z</time>
      </trkpt>
      <trkpt lat="43.20386" lon="5.51179">
        <ele>22</ele>
        <time>2021-05-05T13:49:55Z</time>
      </trkpt>
      <trkpt lat="43.20391" lon="5.5118">
        <ele>22.3</ele>
        <time>2021-05-05T13:50:01Z</time>
      </trkpt>
      <trkpt lat="43.20396" lon="5.51178">
        <ele>22.6</ele>
        <time>2021-05-05T13:50:15Z</time>
      </trkpt>
      <trkpt lat="43.204" lon="5.51175">
        <ele>23</ele>
        <time>2021-05-05T13:50:25Z</time>
      </trkpt>
      <trkpt lat="43.20405" lon="5.51172">
        <ele>23.3</ele>
        <time>2021-05-05T13:50:35Z</time>
      </trkpt>
      <trkpt lat="43.2041" lon="5.51173">
        <ele>23.6</ele>
        <time>2021-05-05T13:50:47Z</time>
      </trkpt>
      <trkpt lat="43.20415" lon="5.51171">
        <ele>23.9</ele>
        <time>2021-05-05T13:50:59Z</time>
      </trkpt>
      <trkpt lat="43.2042" lon="5.51171">
        <ele>24.4</ele>
        <time>2021-05-05T13:51:07Z</time>
      </trkpt>
      <trkpt lat="43.20425" lon="5.5117">
        <ele>25</ele>
        <time>2021-05-05T13:51:13Z</time>
      </trkpt>
      <trkpt lat="43.20431" lon="5.5117">
        <ele>25.6</ele>
        <time>2021-05-05T13:51:19Z</time>
      </trkpt>
      <trkpt lat="43.20435" lon="5.51171">
        <ele>26.2</ele>
        <time>2021-05-05T13:51:29Z</time>
      </trkpt>
      <trkpt lat="43.2044" lon="5.51167">
        <ele>26.8</ele>
        <time>2021-05-05T13:51:37Z</time>
      </trkpt>
      <trkpt lat="43.20445" lon="5.51164">
        <ele>27.1</ele>
        <time>2021-05-05T13:51:47Z</time>
      </trkpt>
      <trkpt lat="43.20451" lon="5.51163">
        <ele>27.7</ele>
        <time>2021-05-05T13:51:55Z</time>
      </trkpt>
      <trkpt lat="43.20455" lon="5.51159">
        <ele>27.6</ele>
        <time>2021-05-05T13:52:03Z</time>
      </trkpt>
      <trkpt lat="43.20459" lon="5.51156">
        <ele>27.8</ele>
        <time>2021-05-05T13:52:09Z</time>
      </trkpt>
      <trkpt lat="43.20464" lon="5.51157">
        <ele>28.5</ele>
        <time>2021-05-05T13:52:19Z</time>
      </trkpt>
      <trkpt lat="43.2047" lon="5.51158">
        <ele>29.3</ele>
        <time>2021-05-05T13:52:27Z</time>
      </trkpt>
      <trkpt lat="43.20475" lon="5.51158">
        <ele>29.9</ele>
        <time>2021-05-05T13:52:35Z</time>
      </trkpt>
      <trkpt lat="43.2048" lon="5.51159">
        <ele>30.6</ele>
        <time>2021-05-05T13:52:41Z</time>
      </trkpt>
      <trkpt lat="43.20485" lon="5.51161">
        <ele>31.4</ele>
        <time>2021-05-05T13:52:51Z</time>
      </trkpt>
      <trkpt lat="43.2049" lon="5.51161">
        <ele>32.1</ele>
        <time>2021-05-05T13:52:59Z</time>
      </trkpt>
      <trkpt lat="43.20495" lon="5.51163">
        <ele>32.8</ele>
        <time>2021-05-05T13:53:07Z</time>
      </trkpt>
      <trkpt lat="43.20499" lon="5.51163">
        <ele>33.4</ele>
        <time>2021-05-05T13:53:29Z</time>
      </trkpt>
      <trkpt lat="43.20503" lon="5.51166">
        <ele>34.5</ele>
        <time>2021-05-05T13:53:35Z</time>
      </trkpt>
      <trkpt lat="43.20509" lon="5.51166">
        <ele>35.4</ele>
        <time>2021-05-05T13:53:41Z</time>
      </trkpt>
      <trkpt lat="43.20514" lon="5.51166">
        <ele>36.4</ele>
        <time>2021-05-05T13:53:49Z</time>
      </trkpt>
      <trkpt lat="43.20519" lon="5.51168">
        <ele>37.3</ele>
        <time>2021-05-05T13:53:55Z</time>
      </trkpt>
      <trkpt lat="43.20523" lon="5.51168">
        <ele>38.1</ele>
        <time>2021-05-05T13:54:07Z</time>
      </trkpt>
      <trkpt lat="43.20528" lon="5.51167">
        <ele>39</ele>
        <time>2021-05-05T13:54:15Z</time>
      </trkpt>
      <trkpt lat="43.20532" lon="5.51171">
        <ele>39.4</ele>
        <time>2021-05-05T13:54:25Z</time>
      </trkpt>
      <trkpt lat="43.20535" lon="5.51178">
        <ele>39.5</ele>
        <time>2021-05-05T13:54:33Z</time>
      </trkpt>
      <trkpt lat="43.20539" lon="5.51182">
        <ele>40</ele>
        <time>2021-05-05T13:54:41Z</time>
      </trkpt>
      <trkpt lat="43.20543" lon="5.51185">
        <ele>40.5</ele>
        <time>2021-05-05T13:54:47Z</time>
      </trkpt>
      <trkpt lat="43.20547" lon="5.51183">
        <ele>41.5</ele>
        <time>2021-05-05T13:55:17Z</time>
      </trkpt>
      <trkpt lat="43.20552" lon="5.51185">
        <ele>42.3</ele>
        <time>2021-05-05T13:55:25Z</time>
      </trkpt>
      <trkpt lat="43.20555" lon="5.5119">
        <ele>42.5</ele>
        <time>2021-05-05T13:57:33Z</time>
      </trkpt>
      <trkpt lat="43.20559" lon="5.51195">
        <ele>43.2</ele>
        <time>2021-05-05T13:58:35Z</time>
      </trkpt>
      <trkpt lat="43.20564" lon="5.51199">
        <ele>44</ele>
        <time>2021-05-05T13:58:45Z</time>
      </trkpt>
      <trkpt lat="43.20568" lon="5.51204">
        <ele>44.5</ele>
        <time>2021-05-05T13:58:53Z</time>
      </trkpt>
      <trkpt lat="43.20572" lon="5.51209">
        <ele>45.1</ele>
        <time>2021-05-05T13:58:59Z</time>
      </trkpt>
      <trkpt lat="43.20576" lon="5.51212">
        <ele>45.9</ele>
        <time>2021-05-05T13:59:07Z</time>
      </trkpt>
      <trkpt lat="43.2058" lon="5.51219">
        <ele>46.3</ele>
        <time>2021-05-05T13:59:15Z</time>
      </trkpt>
      <trkpt lat="43.20584" lon="5.51223">
        <ele>47</ele>
        <time>2021-05-05T13:59:21Z</time>
      </trkpt>
      <trkpt lat="43.20587" lon="5.51228">
        <ele>47.2</ele>
        <time>2021-05-05T13:59:29Z</time>
      </trkpt>
      <trkpt lat="43.20589" lon="5.51236">
        <ele>47.2</ele>
        <time>2021-05-05T13:59:37Z</time>
      </trkpt>
      <trkpt lat="43.2059" lon="5.51243">
        <ele>47.2</ele>
        <time>2021-05-05T13:59:45Z</time>
      </trkpt>
      <trkpt lat="43.20591" lon="5.51249">
        <ele>47.3</ele>
        <time>2021-05-05T13:59:51Z</time>
      </trkpt>
      <trkpt lat="43.20593" lon="5.51256">
        <ele>47</ele>
        <time>2021-05-05T13:59:59Z</time>
      </trkpt>
      <trkpt lat="43.20595" lon="5.51262">
        <ele>46.7</ele>
        <time>2021-05-05T14:00:07Z</time>
      </trkpt>
      <trkpt lat="43.20597" lon="5.51269">
        <ele>46.4</ele>
        <time>2021-05-05T14:00:17Z</time>
      </trkpt>
      <trkpt lat="43.20596" lon="5.51276">
        <ele>45.7</ele>
        <time>2021-05-05T14:00:29Z</time>
      </trkpt>
      <trkpt lat="43.20597" lon="5.51283">
        <ele>45.4</ele>
        <time>2021-05-05T14:00:35Z</time>
      </trkpt>
      <trkpt lat="43.20596" lon="5.51291">
        <ele>44.6</ele>
        <time>2021-05-05T14:00:41Z</time>
      </trkpt>
      <trkpt lat="43.20595" lon="5.51298">
        <ele>43.6</ele>
        <time>2021-05-05T14:00:47Z</time>
      </trkpt>
      <trkpt lat="43.20592" lon="5.51306">
        <ele>42.5</ele>
        <time>2021-05-05T14:00:53Z</time>
      </trkpt>
      <trkpt lat="43.2059" lon="5.51313">
        <ele>41.3</ele>
        <time>2021-05-05T14:00:59Z</time>
      </trkpt>
      <trkpt lat="43.20585" lon="5.51318">
        <ele>39.8</ele>
        <time>2021-05-05T14:01:05Z</time>
      </trkpt>
      <trkpt lat="43.20582" lon="5.51325">
        <ele>38.3</ele>
        <time>2021-05-05T14:01:11Z</time>
      </trkpt>
      <trkpt lat="43.20579" lon="5.51333">
        <ele>37.1</ele>
        <time>2021-05-05T14:01:17Z</time>
      </trkpt>
      <trkpt lat="43.20579" lon="5.5134">
        <ele>36.1</ele>
        <time>2021-05-05T14:01:25Z</time>
      </trkpt>
      <trkpt lat="43.20578" lon="5.51346">
        <ele>34.8</ele>
        <time>2021-05-05T14:01:47Z</time>
      </trkpt>
      <trkpt lat="43.20576" lon="5.51352">
        <ele>33.5</ele>
        <time>2021-05-05T14:01:53Z</time>
      </trkpt>
      <trkpt lat="43.20577" lon="5.51359">
        <ele>32.8</ele>
        <time>2021-05-05T14:01:59Z</time>
      </trkpt>
      <trkpt lat="43.2058" lon="5.51366">
        <ele>32.2</ele>
        <time>2021-05-05T14:02:05Z</time>
      </trkpt>
      <trkpt lat="43.20583" lon="5.51373">
        <ele>31.8</ele>
        <time>2021-05-05T14:02:11Z</time>
      </trkpt>
      <trkpt lat="43.20584" lon="5.5138">
        <ele>30.9</ele>
        <time>2021-05-05T14:02:17Z</time>
      </trkpt>
      <trkpt lat="43.20587" lon="5.51385">
        <ele>30.7</ele>
        <time>2021-05-05T14:03:19Z</time>
      </trkpt>
      <trkpt lat="43.2059" lon="5.51393">
        <ele>29.9</ele>
        <time>2021-05-05T14:03:41Z</time>
      </trkpt>
      <trkpt lat="43.20594" lon="5.51399">
        <ele>30.1</ele>
        <time>2021-05-05T14:03:47Z</time>
      </trkpt>
      <trkpt lat="43.20599" lon="5.51405">
        <ele>30.1</ele>
        <time>2021-05-05T14:03:53Z</time>
      </trkpt>
      <trkpt lat="43.20602" lon="5.51409">
        <ele>29.9</ele>
        <time>2021-05-05T14:03:57Z</time>
      </trkpt>
      <trkpt lat="43.20605" lon="5.51413">
        <ele>30.1</ele>
        <time>2021-05-05T14:04:01Z</time>
      </trkpt>
      <trkpt lat="43.2061" lon="5.51417">
        <ele>30.3</ele>
        <time>2021-05-05T14:04:07Z</time>
      </trkpt>
      <trkpt lat="43.20613" lon="5.51422">
        <ele>29.9</ele>
        <time>2021-05-05T14:04:13Z</time>
      </trkpt>
      <trkpt lat="43.20617" lon="5.51426">
        <ele>29.5</ele>
        <time>2021-05-05T14:04:19Z</time>
      </trkpt>
      <trkpt lat="43.20622" lon="5.51432">
        <ele>29</ele>
        <time>2021-05-05T14:04:25Z</time>
      </trkpt>
      <trkpt lat="43.20627" lon="5.51437">
        <ele>28.3</ele>
        <time>2021-05-05T14:04:31Z</time>
      </trkpt>
      <trkpt lat="43.20631" lon="5.51442">
        <ele>27.8</ele>
        <time>2021-05-05T14:04:39Z</time>
      </trkpt>
      <trkpt lat="43.20636" lon="5.51446">
        <ele>27.3</ele>
        <time>2021-05-05T14:04:47Z</time>
      </trkpt>
      <trkpt lat="43.20641" lon="5.5145">
        <ele>26.9</ele>
        <time>2021-05-05T14:04:53Z</time>
      </trkpt>
      <trkpt lat="43.20645" lon="5.51454">
        <ele>26.1</ele>
        <time>2021-05-05T14:05:03Z</time>
      </trkpt>
      <trkpt lat="43.20649" lon="5.51458">
        <ele>25.5</ele>
        <time>2021-05-05T14:05:11Z</time>
      </trkpt>
      <trkpt lat="43.20653" lon="5.51462">
        <ele>24.6</ele>
        <time>2021-05-05T14:05:19Z</time>
      </trkpt>
      <trkpt lat="43.20658" lon="5.51467">
        <ele>23.5</ele>
        <time>2021-05-05T14:05:27Z</time>
      </trkpt>
      <trkpt lat="43.20662" lon="5.5147">
        <ele>22.9</ele>
        <time>2021-05-05T14:05:33Z</time>
      </trkpt>
      <trkpt lat="43.20667" lon="5.51473">
        <ele>22.4</ele>
        <time>2021-05-05T14:05:41Z</time>
      </trkpt>
      <trkpt lat="43.20673" lon="5.51474">
        <ele>23</ele>
        <time>2021-05-05T14:05:51Z</time>
      </trkpt>
      <trkpt lat="43.20679" lon="5.51475">
        <ele>23.5</ele>
        <time>2021-05-05T14:05:59Z</time>
      </trkpt>
      <trkpt lat="43.20683" lon="5.51475">
        <ele>24.1</ele>
        <time>2021-05-05T14:06:05Z</time>
      </trkpt>
      <trkpt lat="43.20688" lon="5.51476">
        <ele>24.5</ele>
        <time>2021-05-05T14:06:11Z</time>
      </trkpt>
      <trkpt lat="43.20694" lon="5.51479">
        <ele>24.3</ele>
        <time>2021-05-05T14:06:17Z</time>
      </trkpt>
      <trkpt lat="43.20698" lon="5.51482">
        <ele>23.9</ele>
        <time>2021-05-05T14:06:23Z</time>
      </trkpt>
      <trkpt lat="43.20702" lon="5.51484">
        <ele>23.9</ele>
        <time>2021-05-05T14:06:29Z</time>
      </trkpt>
      <trkpt lat="43.20708" lon="5.51488">
        <ele>23</ele>
        <time>2021-05-05T14:06:37Z</time>
      </trkpt>
      <trkpt lat="43.20713" lon="5.51491">
        <ele>22.5</ele>
        <time>2021-05-05T14:06:43Z</time>
      </trkpt>
      <trkpt lat="43.20718" lon="5.51493">
        <ele>22.3</ele>
        <time>2021-05-05T14:06:49Z</time>
      </trkpt>
      <trkpt lat="43.20724" lon="5.51496">
        <ele>22.1</ele>
        <time>2021-05-05T14:06:55Z</time>
      </trkpt>
      <trkpt lat="43.20728" lon="5.515">
        <ele>21.1</ele>
        <time>2021-05-05T14:07:01Z</time>
      </trkpt>
      <trkpt lat="43.20732" lon="5.51505">
        <ele>20.7</ele>
        <time>2021-05-05T14:07:07Z</time>
      </trkpt>
      <trkpt lat="43.20736" lon="5.51512">
        <ele>19.9</ele>
        <time>2021-05-05T14:07:13Z</time>
      </trkpt>
      <trkpt lat="43.2074" lon="5.51517">
        <ele>19.3</ele>
        <time>2021-05-05T14:07:19Z</time>
      </trkpt>
      <trkpt lat="43.20744" lon="5.51525">
        <ele>18.3</ele>
        <time>2021-05-05T14:07:25Z</time>
      </trkpt>
      <trkpt lat="43.20746" lon="5.51531">
        <ele>17.2</ele>
        <time>2021-05-05T14:07:31Z</time>
      </trkpt>
      <trkpt lat="43.20743" lon="5.51537">
        <ele>15.9</ele>
        <time>2021-05-05T14:07:37Z</time>
      </trkpt>
      <trkpt lat="43.20741" lon="5.51543">
        <ele>14.4</ele>
        <time>2021-05-05T14:07:43Z</time>
      </trkpt>
      <trkpt lat="43.20739" lon="5.51549">
        <ele>13.1</ele>
        <time>2021-05-05T14:07:49Z</time>
      </trkpt>
      <trkpt lat="43.20737" lon="5.51557">
        <ele>11.4</ele>
        <time>2021-05-05T14:07:55Z</time>
      </trkpt>
      <trkpt lat="43.20737" lon="5.51564">
        <ele>10.2</ele>
        <time>2021-05-05T14:08:07Z</time>
      </trkpt>
      <trkpt lat="43.20741" lon="5.51569">
        <ele>9.4</ele>
        <time>2021-05-05T14:08:13Z</time>
      </trkpt>
      <trkpt lat="43.20744" lon="5.51574">
        <ele>8.6</ele>
        <time>2021-05-05T14:08:17Z</time>
      </trkpt>
      <trkpt lat="43.20746" lon="5.51579">
        <ele>7.6</ele>
        <time>2021-05-05T14:08:21Z</time>
      </trkpt>
      <trkpt lat="43.20747" lon="5.51586">
        <ele>6.7</ele>
        <time>2021-05-05T14:08:29Z</time>
      </trkpt>
      <trkpt lat="43.20752" lon="5.51589">
        <ele>7</ele>
        <time>2021-05-05T14:08:51Z</time>
      </trkpt>
      <trkpt lat="43.20754" lon="5.51596">
        <ele>7.1</ele>
        <time>2021-05-05T14:08:57Z</time>
      </trkpt>
      <trkpt lat="43.20759" lon="5.51599">
        <ele>8.2</ele>
        <time>2021-05-05T14:09:03Z</time>
      </trkpt>
      <trkpt lat="43.20763" lon="5.516">
        <ele>9.2</ele>
        <time>2021-05-05T14:09:09Z</time>
      </trkpt>
      <trkpt lat="43.2077" lon="5.51602">
        <ele>10.4</ele>
        <time>2021-05-05T14:09:17Z</time>
      </trkpt>
      <trkpt lat="43.20775" lon="5.51607">
        <ele>11.2</ele>
        <time>2021-05-05T14:09:23Z</time>
      </trkpt>
      <trkpt lat="43.20778" lon="5.51615">
        <ele>11</ele>
        <time>2021-05-05T14:09:29Z</time>
      </trkpt>
      <trkpt lat="43.2078" lon="5.51622">
        <ele>10.8</ele>
        <time>2021-05-05T14:09:33Z</time>
      </trkpt>
      <trkpt lat="43.20783" lon="5.51629">
        <ele>10.5</ele>
        <time>2021-05-05T14:09:39Z</time>
      </trkpt>
      <trkpt lat="43.20786" lon="5.51634">
        <ele>10.5</ele>
        <time>2021-05-05T14:09:43Z</time>
      </trkpt>
      <trkpt lat="43.2079" lon="5.5164">
        <ele>10.6</ele>
        <time>2021-05-05T14:09:49Z</time>
      </trkpt>
      <trkpt lat="43.20793" lon="5.51648">
        <ele>10.1</ele>
        <time>2021-05-05T14:09:55Z</time>
      </trkpt>
      <trkpt lat="43.20795" lon="5.51656">
        <ele>9.4</ele>
        <time>2021-05-05T14:10:01Z</time>
      </trkpt>
      <trkpt lat="43.20798" lon="5.51662">
        <ele>9</ele>
        <time>2021-05-05T14:10:07Z</time>
      </trkpt>
      <trkpt lat="43.20802" lon="5.5167">
        <ele>8.7</ele>
        <time>2021-05-05T14:10:13Z</time>
      </trkpt>
      <trkpt lat="43.20805" lon="5.51676">
        <ele>8.9</ele>
        <time>2021-05-05T14:10:17Z</time>
      </trkpt>
      <trkpt lat="43.20808" lon="5.51682">
        <ele>8.9</ele>
        <time>2021-05-05T14:10:21Z</time>
      </trkpt>
      <trkpt lat="43.2081" lon="5.51687">
        <ele>8.9</ele>
        <time>2021-05-05T14:10:25Z</time>
      </trkpt>
      <trkpt lat="43.20812" lon="5.51693">
        <ele>8.9</ele>
        <time>2021-05-05T14:10:29Z</time>
      </trkpt>
      <trkpt lat="43.20817" lon="5.51699">
        <ele>9</ele>
        <time>2021-05-05T14:10:35Z</time>
      </trkpt>
      <trkpt lat="43.20819" lon="5.51705">
        <ele>8.9</ele>
        <time>2021-05-05T14:10:39Z</time>
      </trkpt>
      <trkpt lat="43.20821" lon="5.51711">
        <ele>8.8</ele>
        <time>2021-05-05T14:10:45Z</time>
      </trkpt>
      <trkpt lat="43.20824" lon="5.51716">
        <ele>8.7</ele>
        <time>2021-05-05T14:11:09Z</time>
      </trkpt>
      <trkpt lat="43.20827" lon="5.51724">
        <ele>8.4</ele>
        <time>2021-05-05T14:11:15Z</time>
      </trkpt>
      <trkpt lat="43.20832" lon="5.5173">
        <ele>8.4</ele>
        <time>2021-05-05T14:11:21Z</time>
      </trkpt>
      <trkpt lat="43.20837" lon="5.5173">
        <ele>9.1</ele>
        <time>2021-05-05T14:11:33Z</time>
      </trkpt>
      <trkpt lat="43.20843" lon="5.51726">
        <ele>10.4</ele>
        <time>2021-05-05T14:11:39Z</time>
      </trkpt>
      <trkpt lat="43.20849" lon="5.51725">
        <ele>11.6</ele>
        <time>2021-05-05T14:11:43Z</time>
      </trkpt>
      <trkpt lat="43.20853" lon="5.51727">
        <ele>12.2</ele>
        <time>2021-05-05T14:11:47Z</time>
      </trkpt>
      <trkpt lat="43.20859" lon="5.51729">
        <ele>12.9</ele>
        <time>2021-05-05T14:11:53Z</time>
      </trkpt>
      <trkpt lat="43.20864" lon="5.51731">
        <ele>13.5</ele>
        <time>2021-05-05T14:11:57Z</time>
      </trkpt>
      <trkpt lat="43.20868" lon="5.51735">
        <ele>13.8</ele>
        <time>2021-05-05T14:12:01Z</time>
      </trkpt>
      <trkpt lat="43.20872" lon="5.51739">
        <ele>13.9</ele>
        <time>2021-05-05T14:12:05Z</time>
      </trkpt>
      <trkpt lat="43.20875" lon="5.51743">
        <ele>14</ele>
        <time>2021-05-05T14:12:09Z</time>
      </trkpt>
      <trkpt lat="43.20881" lon="5.51748">
        <ele>14.1</ele>
        <time>2021-05-05T14:12:15Z</time>
      </trkpt>
      <trkpt lat="43.20885" lon="5.51754">
        <ele>14.1</ele>
        <time>2021-05-05T14:12:21Z</time>
      </trkpt>
      <trkpt lat="43.20889" lon="5.51761">
        <ele>13.9</ele>
        <time>2021-05-05T14:12:27Z</time>
      </trkpt>
      <trkpt lat="43.20892" lon="5.5177">
        <ele>13.2</ele>
        <time>2021-05-05T14:12:33Z</time>
      </trkpt>
      <trkpt lat="43.20894" lon="5.51775">
        <ele>12.9</ele>
        <time>2021-05-05T14:12:37Z</time>
      </trkpt>
      <trkpt lat="43.20897" lon="5.5178">
        <ele>12.8</ele>
        <time>2021-05-05T14:12:41Z</time>
      </trkpt>
      <trkpt lat="43.20903" lon="5.51786">
        <ele>12.7</ele>
        <time>2021-05-05T14:12:47Z</time>
      </trkpt>
      <trkpt lat="43.20906" lon="5.51791">
        <ele>12.5</ele>
        <time>2021-05-05T14:12:51Z</time>
      </trkpt>
      <trkpt lat="43.20909" lon="5.51796">
        <ele>12.2</ele>
        <time>2021-05-05T14:12:55Z</time>
      </trkpt>
      <trkpt lat="43.20913" lon="5.51803">
        <ele>11.6</ele>
        <time>2021-05-05T14:13:01Z</time>
      </trkpt>
      <trkpt lat="43.20916" lon="5.51809">
        <ele>11.2</ele>
        <time>2021-05-05T14:13:05Z</time>
      </trkpt>
      <trkpt lat="43.20919" lon="5.51816">
        <ele>11</ele>
        <time>2021-05-05T14:13:11Z</time>
      </trkpt>
      <trkpt lat="43.20924" lon="5.51823">
        <ele>11.2</ele>
        <time>2021-05-05T14:13:17Z</time>
      </trkpt>
      <trkpt lat="43.20928" lon="5.5183">
        <ele>11.3</ele>
        <time>2021-05-05T14:13:23Z</time>
      </trkpt>
      <trkpt lat="43.20931" lon="5.51837">
        <ele>11.6</ele>
        <time>2021-05-05T14:13:29Z</time>
      </trkpt>
      <trkpt lat="43.20934" lon="5.51842">
        <ele>12.1</ele>
        <time>2021-05-05T14:13:33Z</time>
      </trkpt>
      <trkpt lat="43.20937" lon="5.51847">
        <ele>12.6</ele>
        <time>2021-05-05T14:13:37Z</time>
      </trkpt>
      <trkpt lat="43.2094" lon="5.51852">
        <ele>13.1</ele>
        <time>2021-05-05T14:13:41Z</time>
      </trkpt>
      <trkpt lat="43.20944" lon="5.51859">
        <ele>13.5</ele>
        <time>2021-05-05T14:13:47Z</time>
      </trkpt>
      <trkpt lat="43.20947" lon="5.51867">
        <ele>13.7</ele>
        <time>2021-05-05T14:13:53Z</time>
      </trkpt>
      <trkpt lat="43.2095" lon="5.51872">
        <ele>14.1</ele>
        <time>2021-05-05T14:13:57Z</time>
      </trkpt>
      <trkpt lat="43.20953" lon="5.51877">
        <ele>14.3</ele>
        <time>2021-05-05T14:14:01Z</time>
      </trkpt>
      <trkpt lat="43.20957" lon="5.51884">
        <ele>14.7</ele>
        <time>2021-05-05T14:14:07Z</time>
      </trkpt>
      <trkpt lat="43.20959" lon="5.5189">
        <ele>14.8</ele>
        <time>2021-05-05T14:14:11Z</time>
      </trkpt>
      <trkpt lat="43.20962" lon="5.51895">
        <ele>15</ele>
        <time>2021-05-05T14:14:15Z</time>
      </trkpt>
      <trkpt lat="43.20965" lon="5.51903">
        <ele>15</ele>
        <time>2021-05-05T14:14:21Z</time>
      </trkpt>
      <trkpt lat="43.20969" lon="5.5191">
        <ele>15</ele>
        <time>2021-05-05T14:14:27Z</time>
      </trkpt>
      <trkpt lat="43.20973" lon="5.51918">
        <ele>15</ele>
        <time>2021-05-05T14:14:33Z</time>
      </trkpt>
      <trkpt lat="43.20975" lon="5.51923">
        <ele>15</ele>
        <time>2021-05-05T14:14:37Z</time>
      </trkpt>
      <trkpt lat="43.2098" lon="5.51929">
        <ele>15.1</ele>
        <time>2021-05-05T14:14:43Z</time>
      </trkpt>
      <trkpt lat="43.20982" lon="5.51936">
        <ele>14.7</ele>
        <time>2021-05-05T14:14:49Z</time>
      </trkpt>
      <trkpt lat="43.20985" lon="5.51941">
        <ele>14.4</ele>
        <time>2021-05-05T14:14:55Z</time>
      </trkpt>
      <trkpt lat="43.20988" lon="5.51946">
        <ele>14.2</ele>
        <time>2021-05-05T14:15:01Z</time>
      </trkpt>
      <trkpt lat="43.20991" lon="5.51952">
        <ele>13.7</ele>
        <time>2021-05-05T14:15:07Z</time>
      </trkpt>
      <trkpt lat="43.20996" lon="5.51958">
        <ele>13.3</ele>
        <time>2021-05-05T14:15:13Z</time>
      </trkpt>
      <trkpt lat="43.21" lon="5.51962">
        <ele>12.9</ele>
        <time>2021-05-05T14:15:17Z</time>
      </trkpt>
      <trkpt lat="43.21005" lon="5.51967">
        <ele>13.6</ele>
        <time>2021-05-05T14:15:25Z</time>
      </trkpt>
      <trkpt lat="43.2101" lon="5.51973">
        <ele>14</ele>
        <time>2021-05-05T14:15:31Z</time>
      </trkpt>
      <trkpt lat="43.21015" lon="5.51978">
        <ele>14.5</ele>
        <time>2021-05-05T14:15:37Z</time>
      </trkpt>
      <trkpt lat="43.2102" lon="5.51982">
        <ele>15</ele>
        <time>2021-05-05T14:15:41Z</time>
      </trkpt>
      <trkpt lat="43.21025" lon="5.51989">
        <ele>15.1</ele>
        <time>2021-05-05T14:15:47Z</time>
      </trkpt>
      <trkpt lat="43.21029" lon="5.51991">
        <ele>15.9</ele>
        <time>2021-05-05T14:15:53Z</time>
      </trkpt>
      <trkpt lat="43.21033" lon="5.51995">
        <ele>16</ele>
        <time>2021-05-05T14:15:59Z</time>
      </trkpt>
      <trkpt lat="43.21039" lon="5.51999">
        <ele>16.6</ele>
        <time>2021-05-05T14:16:05Z</time>
      </trkpt>
      <trkpt lat="43.21042" lon="5.52002">
        <ele>17</ele>
        <time>2021-05-05T14:16:09Z</time>
      </trkpt>
      <trkpt lat="43.21046" lon="5.52007">
        <ele>17.3</ele>
        <time>2021-05-05T14:16:13Z</time>
      </trkpt>
      <trkpt lat="43.2105" lon="5.52013">
        <ele>17.4</ele>
        <time>2021-05-05T14:16:19Z</time>
      </trkpt>
      <trkpt lat="43.21052" lon="5.5202">
        <ele>17.1</ele>
        <time>2021-05-05T14:16:25Z</time>
      </trkpt>
      <trkpt lat="43.21055" lon="5.52027">
        <ele>16.5</ele>
        <time>2021-05-05T14:16:31Z</time>
      </trkpt>
      <trkpt lat="43.21056" lon="5.52033">
        <ele>15.7</ele>
        <time>2021-05-05T14:16:37Z</time>
      </trkpt>
      <trkpt lat="43.2106" lon="5.5204">
        <ele>15.1</ele>
        <time>2021-05-05T14:16:45Z</time>
      </trkpt>
      <trkpt lat="43.21065" lon="5.52044">
        <ele>14.8</ele>
        <time>2021-05-05T14:16:49Z</time>
      </trkpt>
      <trkpt lat="43.21069" lon="5.52048">
        <ele>14.3</ele>
        <time>2021-05-05T14:16:53Z</time>
      </trkpt>
      <trkpt lat="43.21073" lon="5.52051">
        <ele>13.9</ele>
        <time>2021-05-05T14:16:57Z</time>
      </trkpt>
      <trkpt lat="43.21077" lon="5.52053">
        <ele>13.6</ele>
        <time>2021-05-05T14:17:01Z</time>
      </trkpt>
      <trkpt lat="43.21083" lon="5.52052">
        <ele>13.8</ele>
        <time>2021-05-05T14:17:07Z</time>
      </trkpt>
      <trkpt lat="43.21088" lon="5.52055">
        <ele>14.5</ele>
        <time>2021-05-05T14:17:15Z</time>
      </trkpt>
      <trkpt lat="43.21093" lon="5.5206">
        <ele>14.8</ele>
        <time>2021-05-05T14:17:21Z</time>
      </trkpt>
      <trkpt lat="43.21098" lon="5.52066">
        <ele>14.5</ele>
        <time>2021-05-05T14:17:27Z</time>
      </trkpt>
      <trkpt lat="43.21102" lon="5.52072">
        <ele>14.4</ele>
        <time>2021-05-05T14:17:33Z</time>
      </trkpt>
      <trkpt lat="43.21107" lon="5.52076">
        <ele>14.5</ele>
        <time>2021-05-05T14:17:37Z</time>
      </trkpt>
      <trkpt lat="43.21111" lon="5.5208">
        <ele>14.6</ele>
        <time>2021-05-05T14:17:41Z</time>
      </trkpt>
      <trkpt lat="43.21116" lon="5.52086">
        <ele>15.1</ele>
        <time>2021-05-05T14:17:47Z</time>
      </trkpt>
      <trkpt lat="43.2112" lon="5.5209">
        <ele>16.4</ele>
        <time>2021-05-05T14:17:51Z</time>
      </trkpt>
      <trkpt lat="43.21125" lon="5.52094">
        <ele>17.6</ele>
        <time>2021-05-05T14:17:55Z</time>
      </trkpt>
      <trkpt lat="43.2113" lon="5.52095">
        <ele>18.8</ele>
        <time>2021-05-05T14:17:59Z</time>
      </trkpt>
      <trkpt lat="43.21136" lon="5.52098">
        <ele>20.2</ele>
        <time>2021-05-05T14:18:05Z</time>
      </trkpt>
      <trkpt lat="43.21141" lon="5.52101">
        <ele>21.3</ele>
        <time>2021-05-05T14:18:11Z</time>
      </trkpt>
      <trkpt lat="43.21147" lon="5.52103">
        <ele>22.5</ele>
        <time>2021-05-05T14:18:17Z</time>
      </trkpt>
      <trkpt lat="43.21152" lon="5.52107">
        <ele>23.3</ele>
        <time>2021-05-05T14:18:23Z</time>
      </trkpt>
      <trkpt lat="43.21156" lon="5.52111">
        <ele>23.7</ele>
        <time>2021-05-05T14:18:27Z</time>
      </trkpt>
      <trkpt lat="43.2116" lon="5.52115">
        <ele>24</ele>
        <time>2021-05-05T14:18:31Z</time>
      </trkpt>
      <trkpt lat="43.21163" lon="5.52121">
        <ele>23.9</ele>
        <time>2021-05-05T14:18:37Z</time>
      </trkpt>
      <trkpt lat="43.21165" lon="5.52128">
        <ele>23.5</ele>
        <time>2021-05-05T14:18:43Z</time>
      </trkpt>
      <trkpt lat="43.21169" lon="5.52135">
        <ele>23.5</ele>
        <time>2021-05-05T14:18:49Z</time>
      </trkpt>
      <trkpt lat="43.21172" lon="5.52142">
        <ele>23.6</ele>
        <time>2021-05-05T14:18:55Z</time>
      </trkpt>
      <trkpt lat="43.21175" lon="5.5215">
        <ele>23.6</ele>
        <time>2021-05-05T14:19:01Z</time>
      </trkpt>
      <trkpt lat="43.21179" lon="5.52157">
        <ele>23.5</ele>
        <time>2021-05-05T14:19:07Z</time>
      </trkpt>
      <trkpt lat="43.21182" lon="5.52165">
        <ele>23</ele>
        <time>2021-05-05T14:19:13Z</time>
      </trkpt>
      <trkpt lat="43.21185" lon="5.52171">
        <ele>23.7</ele>
        <time>2021-05-05T14:19:19Z</time>
      </trkpt>
      <trkpt lat="43.21187" lon="5.52177">
        <ele>24.8</ele>
        <time>2021-05-05T14:19:27Z</time>
      </trkpt>
      <trkpt lat="43.2119" lon="5.52185">
        <ele>26</ele>
        <time>2021-05-05T14:19:33Z</time>
      </trkpt>
      <trkpt lat="43.21194" lon="5.52192">
        <ele>27</ele>
        <time>2021-05-05T14:19:39Z</time>
      </trkpt>
      <trkpt lat="43.21199" lon="5.52198">
        <ele>28</ele>
        <time>2021-05-05T14:19:45Z</time>
      </trkpt>
      <trkpt lat="43.21203" lon="5.52205">
        <ele>28.7</ele>
        <time>2021-05-05T14:19:51Z</time>
      </trkpt>
      <trkpt lat="43.21207" lon="5.52209">
        <ele>29.1</ele>
        <time>2021-05-05T14:20:01Z</time>
      </trkpt>
      <trkpt lat="43.21212" lon="5.5221">
        <ele>29.5</ele>
        <time>2021-05-05T14:20:07Z</time>
      </trkpt>
      <trkpt lat="43.21217" lon="5.52211">
        <ele>30</ele>
        <time>2021-05-05T14:20:13Z</time>
      </trkpt>
      <trkpt lat="43.21222" lon="5.52213">
        <ele>30.2</ele>
        <time>2021-05-05T14:20:19Z</time>
      </trkpt>
      <trkpt lat="43.21226" lon="5.5221">
        <ele>30.7</ele>
        <time>2021-05-05T14:22:07Z</time>
      </trkpt>
      <trkpt lat="43.21224" lon="5.52216">
        <ele>30.3</ele>
        <time>2021-05-05T14:24:35Z</time>
      </trkpt>
      <trkpt lat="43.21228" lon="5.52221">
        <ele>30.2</ele>
        <time>2021-05-05T14:24:59Z</time>
      </trkpt>
      <trkpt lat="43.2123" lon="5.52227">
        <ele>29.8</ele>
        <time>2021-05-05T14:25:05Z</time>
      </trkpt>
      <trkpt lat="43.21235" lon="5.52233">
        <ele>29.4</ele>
        <time>2021-05-05T14:25:13Z</time>
      </trkpt>
      <trkpt lat="43.21239" lon="5.52237">
        <ele>29</ele>
        <time>2021-05-05T14:25:19Z</time>
      </trkpt>
      <trkpt lat="43.21243" lon="5.52243">
        <ele>28.3</ele>
        <time>2021-05-05T14:25:25Z</time>
      </trkpt>
      <trkpt lat="43.21248" lon="5.52249">
        <ele>27.3</ele>
        <time>2021-05-05T14:25:31Z</time>
      </trkpt>
      <trkpt lat="43.21253" lon="5.52255">
        <ele>28.7</ele>
        <time>2021-05-05T14:25:37Z</time>
      </trkpt>
      <trkpt lat="43.21257" lon="5.52261">
        <ele>30.8</ele>
        <time>2021-05-05T14:25:43Z</time>
      </trkpt>
      <trkpt lat="43.2126" lon="5.52267">
        <ele>32.3</ele>
        <time>2021-05-05T14:25:57Z</time>
      </trkpt>
      <trkpt lat="43.21261" lon="5.52274">
        <ele>33.7</ele>
        <time>2021-05-05T14:26:05Z</time>
      </trkpt>
      <trkpt lat="43.21265" lon="5.52279">
        <ele>34.7</ele>
        <time>2021-05-05T14:26:13Z</time>
      </trkpt>
      <trkpt lat="43.21266" lon="5.52287">
        <ele>35.9</ele>
        <time>2021-05-05T14:26:21Z</time>
      </trkpt>
      <trkpt lat="43.21266" lon="5.52294">
        <ele>36.6</ele>
        <time>2021-05-05T14:26:27Z</time>
      </trkpt>
      <trkpt lat="43.21266" lon="5.523">
        <ele>37.4</ele>
        <time>2021-05-05T14:26:33Z</time>
      </trkpt>
      <trkpt lat="43.21268" lon="5.52307">
        <ele>38.2</ele>
        <time>2021-05-05T14:26:39Z</time>
      </trkpt>
      <trkpt lat="43.21271" lon="5.52313">
        <ele>38.9</ele>
        <time>2021-05-05T14:26:45Z</time>
      </trkpt>
      <trkpt lat="43.21274" lon="5.52318">
        <ele>39.2</ele>
        <time>2021-05-05T14:26:49Z</time>
      </trkpt>
      <trkpt lat="43.21278" lon="5.52322">
        <ele>39.3</ele>
        <time>2021-05-05T14:26:53Z</time>
      </trkpt>
      <trkpt lat="43.21284" lon="5.52326">
        <ele>39.1</ele>
        <time>2021-05-05T14:26:59Z</time>
      </trkpt>
      <trkpt lat="43.21289" lon="5.52329">
        <ele>38.8</ele>
        <time>2021-05-05T14:27:05Z</time>
      </trkpt>
      <trkpt lat="43.21295" lon="5.52331">
        <ele>38.2</ele>
        <time>2021-05-05T14:27:11Z</time>
      </trkpt>
      <trkpt lat="43.213" lon="5.52333">
        <ele>37.6</ele>
        <time>2021-05-05T14:27:17Z</time>
      </trkpt>
      <trkpt lat="43.21306" lon="5.52333">
        <ele>37</ele>
        <time>2021-05-05T14:27:23Z</time>
      </trkpt>
      <trkpt lat="43.21311" lon="5.52334">
        <ele>36.6</ele>
        <time>2021-05-05T14:27:29Z</time>
      </trkpt>
      <trkpt lat="43.21317" lon="5.52336">
        <ele>36.3</ele>
        <time>2021-05-05T14:27:35Z</time>
      </trkpt>
      <trkpt lat="43.21323" lon="5.52338">
        <ele>36.4</ele>
        <time>2021-05-05T14:27:41Z</time>
      </trkpt>
      <trkpt lat="43.21329" lon="5.52342">
        <ele>36.8</ele>
        <time>2021-05-05T14:27:47Z</time>
      </trkpt>
      <trkpt lat="43.21335" lon="5.52345">
        <ele>37.1</ele>
        <time>2021-05-05T14:27:53Z</time>
      </trkpt>
      <trkpt lat="43.21341" lon="5.52347">
        <ele>38.4</ele>
        <time>2021-05-05T14:27:59Z</time>
      </trkpt>
      <trkpt lat="43.21347" lon="5.52351">
        <ele>39.7</ele>
        <time>2021-05-05T14:28:05Z</time>
      </trkpt>
      <trkpt lat="43.21353" lon="5.52355">
        <ele>41.1</ele>
        <time>2021-05-05T14:28:11Z</time>
      </trkpt>
      <trkpt lat="43.21359" lon="5.52357">
        <ele>42</ele>
        <time>2021-05-05T14:28:17Z</time>
      </trkpt>
      <trkpt lat="43.21364" lon="5.52358">
        <ele>42.6</ele>
        <time>2021-05-05T14:28:23Z</time>
      </trkpt>
      <trkpt lat="43.21369" lon="5.52358">
        <ele>43.1</ele>
        <time>2021-05-05T14:28:29Z</time>
      </trkpt>
      <trkpt lat="43.21373" lon="5.52357">
        <ele>43.1</ele>
        <time>2021-05-05T14:28:35Z</time>
      </trkpt>
      <trkpt lat="43.21377" lon="5.52354">
        <ele>42.8</ele>
        <time>2021-05-05T14:28:39Z</time>
      </trkpt>
      <trkpt lat="43.21381" lon="5.5235">
        <ele>42.3</ele>
        <time>2021-05-05T14:28:43Z</time>
      </trkpt>
      <trkpt lat="43.21386" lon="5.52346">
        <ele>41.6</ele>
        <time>2021-05-05T14:28:47Z</time>
      </trkpt>
      <trkpt lat="43.21391" lon="5.52342">
        <ele>41.2</ele>
        <time>2021-05-05T14:28:51Z</time>
      </trkpt>
      <trkpt lat="43.21395" lon="5.52338">
        <ele>40.9</ele>
        <time>2021-05-05T14:28:55Z</time>
      </trkpt>
      <trkpt lat="43.21401" lon="5.52335">
        <ele>40.8</ele>
        <time>2021-05-05T14:29:01Z</time>
      </trkpt>
      <trkpt lat="43.21406" lon="5.52332">
        <ele>41.4</ele>
        <time>2021-05-05T14:29:05Z</time>
      </trkpt>
      <trkpt lat="43.2141" lon="5.5233">
        <ele>42.6</ele>
        <time>2021-05-05T14:29:09Z</time>
      </trkpt>
      <trkpt lat="43.21416" lon="5.52327">
        <ele>44.3</ele>
        <time>2021-05-05T14:29:15Z</time>
      </trkpt>
      <trkpt lat="43.21421" lon="5.52325">
        <ele>45.1</ele>
        <time>2021-05-05T14:29:19Z</time>
      </trkpt>
      <trkpt lat="43.21425" lon="5.52324">
        <ele>45.6</ele>
        <time>2021-05-05T14:29:23Z</time>
      </trkpt>
      <trkpt lat="43.21431" lon="5.52323">
        <ele>46</ele>
        <time>2021-05-05T14:29:29Z</time>
      </trkpt>
      <trkpt lat="43.21436" lon="5.52323">
        <ele>45.8</ele>
        <time>2021-05-05T14:29:35Z</time>
      </trkpt>
      <trkpt lat="43.21441" lon="5.52322">
        <ele>46.4</ele>
        <time>2021-05-05T14:29:41Z</time>
      </trkpt>
      <trkpt lat="43.21447" lon="5.5232">
        <ele>47.2</ele>
        <time>2021-05-05T14:29:47Z</time>
      </trkpt>
      <trkpt lat="43.21452" lon="5.52319">
        <ele>47.3</ele>
        <time>2021-05-05T14:29:53Z</time>
      </trkpt>
      <trkpt lat="43.21458" lon="5.52321">
        <ele>46.4</ele>
        <time>2021-05-05T14:30:01Z</time>
      </trkpt>
      <trkpt lat="43.21465" lon="5.52322">
        <ele>46.3</ele>
        <time>2021-05-05T14:30:07Z</time>
      </trkpt>
      <trkpt lat="43.21469" lon="5.52322">
        <ele>45.9</ele>
        <time>2021-05-05T14:30:11Z</time>
      </trkpt>
      <trkpt lat="43.21474" lon="5.52322">
        <ele>45.9</ele>
        <time>2021-05-05T14:30:15Z</time>
      </trkpt>
      <trkpt lat="43.2148" lon="5.52324">
        <ele>45.2</ele>
        <time>2021-05-05T14:30:21Z</time>
      </trkpt>
      <trkpt lat="43.21486" lon="5.52327">
        <ele>44</ele>
        <time>2021-05-05T14:30:27Z</time>
      </trkpt>
      <trkpt lat="43.21492" lon="5.52331">
        <ele>42.1</ele>
        <time>2021-05-05T14:30:33Z</time>
      </trkpt>
      <trkpt lat="43.21497" lon="5.52334">
        <ele>41.2</ele>
        <time>2021-05-05T14:30:39Z</time>
      </trkpt>
      <trkpt lat="43.21501" lon="5.52339">
        <ele>41.7</ele>
        <time>2021-05-05T14:30:43Z</time>
      </trkpt>
      <trkpt lat="43.21505" lon="5.52344">
        <ele>42.4</ele>
        <time>2021-05-05T14:30:47Z</time>
      </trkpt>
      <trkpt lat="43.21509" lon="5.5235">
        <ele>43.1</ele>
        <time>2021-05-05T14:30:53Z</time>
      </trkpt>
      <trkpt lat="43.21513" lon="5.52354">
        <ele>43.6</ele>
        <time>2021-05-05T14:30:57Z</time>
      </trkpt>
      <trkpt lat="43.21518" lon="5.52359">
        <ele>43.9</ele>
        <time>2021-05-05T14:31:03Z</time>
      </trkpt>
      <trkpt lat="43.21523" lon="5.52364">
        <ele>44.3</ele>
        <time>2021-05-05T14:31:09Z</time>
      </trkpt>
      <trkpt lat="43.21527" lon="5.52368">
        <ele>44.3</ele>
        <time>2021-05-05T14:31:15Z</time>
      </trkpt>
      <trkpt lat="43.21529" lon="5.52374">
        <ele>44.6</ele>
        <time>2021-05-05T14:31:31Z</time>
      </trkpt>
      <trkpt lat="43.21534" lon="5.52377">
        <ele>44.4</ele>
        <time>2021-05-05T14:31:39Z</time>
      </trkpt>
      <trkpt lat="43.2154" lon="5.5238">
        <ele>44.2</ele>
        <time>2021-05-05T14:31:45Z</time>
      </trkpt>
      <trkpt lat="43.21545" lon="5.52383">
        <ele>43.8</ele>
        <time>2021-05-05T14:31:51Z</time>
      </trkpt>
      <trkpt lat="43.2155" lon="5.52386">
        <ele>43.5</ele>
        <time>2021-05-05T14:31:55Z</time>
      </trkpt>
      <trkpt lat="43.21557" lon="5.52386">
        <ele>42.9</ele>
        <time>2021-05-05T14:31:59Z</time>
      </trkpt>
      <trkpt lat="43.21561" lon="5.5239">
        <ele>42.5</ele>
        <time>2021-05-05T14:32:05Z</time>
      </trkpt>
      <trkpt lat="43.21567" lon="5.52393">
        <ele>41.8</ele>
        <time>2021-05-05T14:32:13Z</time>
      </trkpt>
      <trkpt lat="43.21573" lon="5.52394">
        <ele>41.2</ele>
        <time>2021-05-05T14:32:19Z</time>
      </trkpt>
      <trkpt lat="43.21578" lon="5.52393">
        <ele>40.8</ele>
        <time>2021-05-05T14:32:25Z</time>
      </trkpt>
      <trkpt lat="43.21584" lon="5.52391">
        <ele>40.5</ele>
        <time>2021-05-05T14:32:31Z</time>
      </trkpt>
      <trkpt lat="43.21589" lon="5.52387">
        <ele>41.6</ele>
        <time>2021-05-05T14:32:37Z</time>
      </trkpt>
      <trkpt lat="43.21594" lon="5.52382">
        <ele>42.7</ele>
        <time>2021-05-05T14:32:43Z</time>
      </trkpt>
      <trkpt lat="43.21599" lon="5.52379">
        <ele>43.7</ele>
        <time>2021-05-05T14:32:49Z</time>
      </trkpt>
      <trkpt lat="43.21604" lon="5.52377">
        <ele>44.6</ele>
        <time>2021-05-05T14:32:57Z</time>
      </trkpt>
      <trkpt lat="43.21609" lon="5.52374">
        <ele>45.5</ele>
        <time>2021-05-05T14:33:05Z</time>
      </trkpt>
      <trkpt lat="43.21613" lon="5.52371">
        <ele>46.2</ele>
        <time>2021-05-05T14:33:13Z</time>
      </trkpt>
      <trkpt lat="43.21617" lon="5.52365">
        <ele>47.3</ele>
        <time>2021-05-05T14:33:21Z</time>
      </trkpt>
      <trkpt lat="43.21622" lon="5.52361">
        <ele>48.2</ele>
        <time>2021-05-05T14:33:27Z</time>
      </trkpt>
      <trkpt lat="43.21627" lon="5.52353">
        <ele>49.3</ele>
        <time>2021-05-05T14:33:33Z</time>
      </trkpt>
      <trkpt lat="43.21629" lon="5.52348">
        <ele>49.9</ele>
        <time>2021-05-05T14:33:37Z</time>
      </trkpt>
      <trkpt lat="43.21632" lon="5.52343">
        <ele>50.6</ele>
        <time>2021-05-05T14:33:41Z</time>
      </trkpt>
      <trkpt lat="43.21637" lon="5.52339">
        <ele>51.5</ele>
        <time>2021-05-05T14:33:47Z</time>
      </trkpt>
      <trkpt lat="43.21644" lon="5.52336">
        <ele>52.4</ele>
        <time>2021-05-05T14:33:51Z</time>
      </trkpt>
      <trkpt lat="43.21648" lon="5.52329">
        <ele>53.6</ele>
        <time>2021-05-05T14:33:57Z</time>
      </trkpt>
      <trkpt lat="43.21651" lon="5.52324">
        <ele>54.6</ele>
        <time>2021-05-05T14:34:03Z</time>
      </trkpt>
      <trkpt lat="43.21656" lon="5.52321">
        <ele>55.4</ele>
        <time>2021-05-05T14:34:13Z</time>
      </trkpt>
      <trkpt lat="43.21661" lon="5.52319">
        <ele>55.9</ele>
        <time>2021-05-05T14:34:21Z</time>
      </trkpt>
      <trkpt lat="43.21665" lon="5.52317">
        <ele>56.5</ele>
        <time>2021-05-05T14:34:29Z</time>
      </trkpt>
      <trkpt lat="43.2167" lon="5.52316">
        <ele>56.6</ele>
        <time>2021-05-05T14:34:35Z</time>
      </trkpt>
      <trkpt lat="43.21674" lon="5.52313">
        <ele>56.9</ele>
        <time>2021-05-05T14:34:43Z</time>
      </trkpt>
      <trkpt lat="43.21678" lon="5.52312">
        <ele>57</ele>
        <time>2021-05-05T14:34:53Z</time>
      </trkpt>
      <trkpt lat="43.21682" lon="5.52306">
        <ele>57.3</ele>
        <time>2021-05-05T14:35:01Z</time>
      </trkpt>
      <trkpt lat="43.21686" lon="5.52301">
        <ele>57.5</ele>
        <time>2021-05-05T14:35:07Z</time>
      </trkpt>
      <trkpt lat="43.21691" lon="5.52299">
        <ele>57.6</ele>
        <time>2021-05-05T14:35:17Z</time>
      </trkpt>
      <trkpt lat="43.21696" lon="5.52298">
        <ele>57.4</ele>
        <time>2021-05-05T14:35:23Z</time>
      </trkpt>
      <trkpt lat="43.21702" lon="5.52296">
        <ele>57.4</ele>
        <time>2021-05-05T14:35:29Z</time>
      </trkpt>
      <trkpt lat="43.21706" lon="5.52295">
        <ele>57.2</ele>
        <time>2021-05-05T14:35:37Z</time>
      </trkpt>
      <trkpt lat="43.21711" lon="5.52296">
        <ele>57</ele>
        <time>2021-05-05T14:35:43Z</time>
      </trkpt>
      <trkpt lat="43.21716" lon="5.52297">
        <ele>56.8</ele>
        <time>2021-05-05T14:35:49Z</time>
      </trkpt>
      <trkpt lat="43.21721" lon="5.52298">
        <ele>56.7</ele>
        <time>2021-05-05T14:35:55Z</time>
      </trkpt>
      <trkpt lat="43.21726" lon="5.52298">
        <ele>56.5</ele>
        <time>2021-05-05T14:36:01Z</time>
      </trkpt>
      <trkpt lat="43.21732" lon="5.52297">
        <ele>56.3</ele>
        <time>2021-05-05T14:36:09Z</time>
      </trkpt>
      <trkpt lat="43.21736" lon="5.52295">
        <ele>56.1</ele>
        <time>2021-05-05T14:36:15Z</time>
      </trkpt>
      <trkpt lat="43.21741" lon="5.52294">
        <ele>55.9</ele>
        <time>2021-05-05T14:36:21Z</time>
      </trkpt>
      <trkpt lat="43.21746" lon="5.52294">
        <ele>55.7</ele>
        <time>2021-05-05T14:36:27Z</time>
      </trkpt>
      <trkpt lat="43.21751" lon="5.52293">
        <ele>55.6</ele>
        <time>2021-05-05T14:36:33Z</time>
      </trkpt>
      <trkpt lat="43.21756" lon="5.5229">
        <ele>56.2</ele>
        <time>2021-05-05T14:36:41Z</time>
      </trkpt>
      <trkpt lat="43.2176" lon="5.52287">
        <ele>56.5</ele>
        <time>2021-05-05T14:36:47Z</time>
      </trkpt>
      <trkpt lat="43.21765" lon="5.52283">
        <ele>56.8</ele>
        <time>2021-05-05T14:36:55Z</time>
      </trkpt>
      <trkpt lat="43.2177" lon="5.52279">
        <ele>56.9</ele>
        <time>2021-05-05T14:37:01Z</time>
      </trkpt>
      <trkpt lat="43.21775" lon="5.52274">
        <ele>56.9</ele>
        <time>2021-05-05T14:37:09Z</time>
      </trkpt>
      <trkpt lat="43.2178" lon="5.52269">
        <ele>56.8</ele>
        <time>2021-05-05T14:37:15Z</time>
      </trkpt>
      <trkpt lat="43.21784" lon="5.52264">
        <ele>56.4</ele>
        <time>2021-05-05T14:37:21Z</time>
      </trkpt>
      <trkpt lat="43.21787" lon="5.52259">
        <ele>56.1</ele>
        <time>2021-05-05T14:37:27Z</time>
      </trkpt>
      <trkpt lat="43.21791" lon="5.52255">
        <ele>55.6</ele>
        <time>2021-05-05T14:37:35Z</time>
      </trkpt>
      <trkpt lat="43.21795" lon="5.52252">
        <ele>55.4</ele>
        <time>2021-05-05T14:37:41Z</time>
      </trkpt>
      <trkpt lat="43.218" lon="5.52247">
        <ele>56.3</ele>
        <time>2021-05-05T14:37:51Z</time>
      </trkpt>
      <trkpt lat="43.21803" lon="5.52243">
        <ele>58.1</ele>
        <time>2021-05-05T14:38:01Z</time>
      </trkpt>
      <trkpt lat="43.21809" lon="5.52242">
        <ele>58.6</ele>
        <time>2021-05-05T14:38:11Z</time>
      </trkpt>
      <trkpt lat="43.21814" lon="5.5224">
        <ele>59.4</ele>
        <time>2021-05-05T14:38:19Z</time>
      </trkpt>
      <trkpt lat="43.21819" lon="5.52238">
        <ele>60.4</ele>
        <time>2021-05-05T14:38:27Z</time>
      </trkpt>
      <trkpt lat="43.21825" lon="5.52237">
        <ele>61</ele>
        <time>2021-05-05T14:38:37Z</time>
      </trkpt>
      <trkpt lat="43.21831" lon="5.52237">
        <ele>60.7</ele>
        <time>2021-05-05T14:38:43Z</time>
      </trkpt>
      <trkpt lat="43.21835" lon="5.52233">
        <ele>62.2</ele>
        <time>2021-05-05T14:39:29Z</time>
      </trkpt>
      <trkpt lat="43.2184" lon="5.52233">
        <ele>62.4</ele>
        <time>2021-05-05T14:39:55Z</time>
      </trkpt>
      <trkpt lat="43.21846" lon="5.52234">
        <ele>62.4</ele>
        <time>2021-05-05T14:40:13Z</time>
      </trkpt>
      <trkpt lat="43.21851" lon="5.52232">
        <ele>63.2</ele>
        <time>2021-05-05T14:40:17Z</time>
      </trkpt>
      <trkpt lat="43.21855" lon="5.52231">
        <ele>63.6</ele>
        <time>2021-05-05T14:40:23Z</time>
      </trkpt>
      <trkpt lat="43.2186" lon="5.52233">
        <ele>62.9</ele>
        <time>2021-05-05T14:40:29Z</time>
      </trkpt>
      <trkpt lat="43.21864" lon="5.52237">
        <ele>61.7</ele>
        <time>2021-05-05T14:40:35Z</time>
      </trkpt>
      <trkpt lat="43.21868" lon="5.52241">
        <ele>60.6</ele>
        <time>2021-05-05T14:40:43Z</time>
      </trkpt>
      <trkpt lat="43.21873" lon="5.52242">
        <ele>60.4</ele>
        <time>2021-05-05T14:40:49Z</time>
      </trkpt>
      <trkpt lat="43.21877" lon="5.52246">
        <ele>59.5</ele>
        <time>2021-05-05T14:40:55Z</time>
      </trkpt>
      <trkpt lat="43.21883" lon="5.52248">
        <ele>58.9</ele>
        <time>2021-05-05T14:41:03Z</time>
      </trkpt>
      <trkpt lat="43.21889" lon="5.5225">
        <ele>58.8</ele>
        <time>2021-05-05T14:41:11Z</time>
      </trkpt>
      <trkpt lat="43.21893" lon="5.52252">
        <ele>59.5</ele>
        <time>2021-05-05T14:41:19Z</time>
      </trkpt>
      <trkpt lat="43.21898" lon="5.52253">
        <ele>60.1</ele>
        <time>2021-05-05T14:41:27Z</time>
      </trkpt>
      <trkpt lat="43.21904" lon="5.52254">
        <ele>60.6</ele>
        <time>2021-05-05T14:41:33Z</time>
      </trkpt>
      <trkpt lat="43.21909" lon="5.52255">
        <ele>61</ele>
        <time>2021-05-05T14:41:39Z</time>
      </trkpt>
      <trkpt lat="43.21915" lon="5.52254">
        <ele>61.1</ele>
        <time>2021-05-05T14:41:47Z</time>
      </trkpt>
      <trkpt lat="43.2192" lon="5.52255">
        <ele>62.6</ele>
        <time>2021-05-05T14:41:55Z</time>
      </trkpt>
      <trkpt lat="43.21926" lon="5.52255">
        <ele>63.8</ele>
        <time>2021-05-05T14:42:01Z</time>
      </trkpt>
      <trkpt lat="43.21931" lon="5.52253">
        <ele>64.9</ele>
        <time>2021-05-05T14:42:07Z</time>
      </trkpt>
      <trkpt lat="43.21936" lon="5.52252">
        <ele>66.4</ele>
        <time>2021-05-05T14:42:13Z</time>
      </trkpt>
      <trkpt lat="43.21942" lon="5.52254">
        <ele>68.1</ele>
        <time>2021-05-05T14:42:19Z</time>
      </trkpt>
      <trkpt lat="43.21946" lon="5.52256">
        <ele>69.7</ele>
        <time>2021-05-05T14:42:25Z</time>
      </trkpt>
      <trkpt lat="43.2195" lon="5.5226">
        <ele>71</ele>
        <time>2021-05-05T14:42:31Z</time>
      </trkpt>
      <trkpt lat="43.21954" lon="5.52266">
        <ele>72.3</ele>
        <time>2021-05-05T14:42:39Z</time>
      </trkpt>
      <trkpt lat="43.21958" lon="5.52271">
        <ele>73.4</ele>
        <time>2021-05-05T14:42:47Z</time>
      </trkpt>
      <trkpt lat="43.21962" lon="5.52275">
        <ele>74.3</ele>
        <time>2021-05-05T14:42:55Z</time>
      </trkpt>
      <trkpt lat="43.21966" lon="5.52281">
        <ele>74.9</ele>
        <time>2021-05-05T14:43:03Z</time>
      </trkpt>
      <trkpt lat="43.2197" lon="5.52285">
        <ele>75.2</ele>
        <time>2021-05-05T14:43:09Z</time>
      </trkpt>
      <trkpt lat="43.21974" lon="5.52288">
        <ele>75.4</ele>
        <time>2021-05-05T14:43:17Z</time>
      </trkpt>
      <trkpt lat="43.21979" lon="5.52293">
        <ele>75.4</ele>
        <time>2021-05-05T14:43:29Z</time>
      </trkpt>
      <trkpt lat="43.21984" lon="5.52291">
        <ele>75.8</ele>
        <time>2021-05-05T14:43:37Z</time>
      </trkpt>
      <trkpt lat="43.21989" lon="5.5229">
        <ele>76.2</ele>
        <time>2021-05-05T14:43:45Z</time>
      </trkpt>
      <trkpt lat="43.21994" lon="5.52289">
        <ele>76.7</ele>
        <time>2021-05-05T14:43:51Z</time>
      </trkpt>
      <trkpt lat="43.21999" lon="5.52289">
        <ele>76.9</ele>
        <time>2021-05-05T14:43:55Z</time>
      </trkpt>
      <trkpt lat="43.22003" lon="5.52293">
        <ele>77.7</ele>
        <time>2021-05-05T14:43:59Z</time>
      </trkpt>
      <trkpt lat="43.22008" lon="5.52295">
        <ele>80</ele>
        <time>2021-05-05T14:44:05Z</time>
      </trkpt>
      <trkpt lat="43.22015" lon="5.52296">
        <ele>82.9</ele>
        <time>2021-05-05T14:44:11Z</time>
      </trkpt>
      <trkpt lat="43.22019" lon="5.52298">
        <ele>84.6</ele>
        <time>2021-05-05T14:44:17Z</time>
      </trkpt>
      <trkpt lat="43.22023" lon="5.523">
        <ele>85.9</ele>
        <time>2021-05-05T14:44:23Z</time>
      </trkpt>
      <trkpt lat="43.22026" lon="5.52307">
        <ele>85.2</ele>
        <time>2021-05-05T14:44:31Z</time>
      </trkpt>
      <trkpt lat="43.22029" lon="5.52313">
        <ele>84.1</ele>
        <time>2021-05-05T14:44:37Z</time>
      </trkpt>
      <trkpt lat="43.22031" lon="5.52319">
        <ele>82.6</ele>
        <time>2021-05-05T14:44:47Z</time>
      </trkpt>
      <trkpt lat="43.22032" lon="5.52325">
        <ele>81.1</ele>
        <time>2021-05-05T14:44:55Z</time>
      </trkpt>
      <trkpt lat="43.22032" lon="5.52333">
        <ele>78.3</ele>
        <time>2021-05-05T14:45:03Z</time>
      </trkpt>
      <trkpt lat="43.22033" lon="5.5234">
        <ele>78.5</ele>
        <time>2021-05-05T14:45:09Z</time>
      </trkpt>
      <trkpt lat="43.22034" lon="5.52347">
        <ele>78.9</ele>
        <time>2021-05-05T14:45:15Z</time>
      </trkpt>
      <trkpt lat="43.22033" lon="5.52353">
        <ele>78.8</ele>
        <time>2021-05-05T14:45:21Z</time>
      </trkpt>
      <trkpt lat="43.22031" lon="5.5236">
        <ele>78.6</ele>
        <time>2021-05-05T14:45:29Z</time>
      </trkpt>
      <trkpt lat="43.22031" lon="5.52367">
        <ele>78.9</ele>
        <time>2021-05-05T14:45:37Z</time>
      </trkpt>
      <trkpt lat="43.2203" lon="5.52374">
        <ele>79</ele>
        <time>2021-05-05T14:45:45Z</time>
      </trkpt>
      <trkpt lat="43.2203" lon="5.52382">
        <ele>79.1</ele>
        <time>2021-05-05T14:45:55Z</time>
      </trkpt>
      <trkpt lat="43.22031" lon="5.52389">
        <ele>79.5</ele>
        <time>2021-05-05T14:46:01Z</time>
      </trkpt>
      <trkpt lat="43.22031" lon="5.52397">
        <ele>79.9</ele>
        <time>2021-05-05T14:46:07Z</time>
      </trkpt>
      <trkpt lat="43.22032" lon="5.52405">
        <ele>80.2</ele>
        <time>2021-05-05T14:46:13Z</time>
      </trkpt>
      <trkpt lat="43.22033" lon="5.52412">
        <ele>80.5</ele>
        <time>2021-05-05T14:46:19Z</time>
      </trkpt>
      <trkpt lat="43.22031" lon="5.52418">
        <ele>80.6</ele>
        <time>2021-05-05T14:46:31Z</time>
      </trkpt>
      <trkpt lat="43.22032" lon="5.52424">
        <ele>81</ele>
        <time>2021-05-05T14:46:37Z</time>
      </trkpt>
      <trkpt lat="43.22034" lon="5.52432">
        <ele>81.6</ele>
        <time>2021-05-05T14:46:43Z</time>
      </trkpt>
      <trkpt lat="43.22034" lon="5.52439">
        <ele>82.1</ele>
        <time>2021-05-05T14:46:47Z</time>
      </trkpt>
      <trkpt lat="43.22035" lon="5.52447">
        <ele>82.6</ele>
        <time>2021-05-05T14:46:53Z</time>
      </trkpt>
      <trkpt lat="43.22036" lon="5.52453">
        <ele>83</ele>
        <time>2021-05-05T14:46:59Z</time>
      </trkpt>
      <trkpt lat="43.22035" lon="5.5246">
        <ele>83.4</ele>
        <time>2021-05-05T14:47:05Z</time>
      </trkpt>
      <trkpt lat="43.22033" lon="5.52466">
        <ele>83.8</ele>
        <time>2021-05-05T14:47:13Z</time>
      </trkpt>
      <trkpt lat="43.22029" lon="5.5247">
        <ele>84</ele>
        <time>2021-05-05T14:47:19Z</time>
      </trkpt>
      <trkpt lat="43.22025" lon="5.52474">
        <ele>84.2</ele>
        <time>2021-05-05T14:47:27Z</time>
      </trkpt>
      <trkpt lat="43.22023" lon="5.52482">
        <ele>84.7</ele>
        <time>2021-05-05T14:47:33Z</time>
      </trkpt>
      <trkpt lat="43.22021" lon="5.52487">
        <ele>85.1</ele>
        <time>2021-05-05T14:47:39Z</time>
      </trkpt>
      <trkpt lat="43.22016" lon="5.5249">
        <ele>85.3</ele>
        <time>2021-05-05T14:47:45Z</time>
      </trkpt>
      <trkpt lat="43.22013" lon="5.52496">
        <ele>85.7</ele>
        <time>2021-05-05T14:47:53Z</time>
      </trkpt>
      <trkpt lat="43.22014" lon="5.52504">
        <ele>86.9</ele>
        <time>2021-05-05T14:47:57Z</time>
      </trkpt>
      <trkpt lat="43.22015" lon="5.52511">
        <ele>88.1</ele>
        <time>2021-05-05T14:48:01Z</time>
      </trkpt>
      <trkpt lat="43.22016" lon="5.52518">
        <ele>89.4</ele>
        <time>2021-05-05T14:48:07Z</time>
      </trkpt>
      <trkpt lat="43.22019" lon="5.52525">
        <ele>90.9</ele>
        <time>2021-05-05T14:48:15Z</time>
      </trkpt>
      <trkpt lat="43.22024" lon="5.52528">
        <ele>91.6</ele>
        <time>2021-05-05T14:48:21Z</time>
      </trkpt>
      <trkpt lat="43.2203" lon="5.52531">
        <ele>92.3</ele>
        <time>2021-05-05T14:48:27Z</time>
      </trkpt>
      <trkpt lat="43.22035" lon="5.52533">
        <ele>93</ele>
        <time>2021-05-05T14:48:33Z</time>
      </trkpt>
      <trkpt lat="43.2204" lon="5.52533">
        <ele>93</ele>
        <time>2021-05-05T14:48:39Z</time>
      </trkpt>
      <trkpt lat="43.22043" lon="5.52538">
        <ele>94.2</ele>
        <time>2021-05-05T14:48:43Z</time>
      </trkpt>
      <trkpt lat="43.22047" lon="5.52534">
        <ele>93.4</ele>
        <time>2021-05-05T14:48:57Z</time>
      </trkpt>
      <trkpt lat="43.22052" lon="5.52531">
        <ele>92.9</ele>
        <time>2021-05-05T14:49:03Z</time>
      </trkpt>
      <trkpt lat="43.22057" lon="5.52529">
        <ele>92.7</ele>
        <time>2021-05-05T14:49:07Z</time>
      </trkpt>
      <trkpt lat="43.22061" lon="5.52528">
        <ele>92.5</ele>
        <time>2021-05-05T14:49:13Z</time>
      </trkpt>
      <trkpt lat="43.22065" lon="5.52522">
        <ele>91.2</ele>
        <time>2021-05-05T14:49:21Z</time>
      </trkpt>
      <trkpt lat="43.22069" lon="5.52518">
        <ele>90.3</ele>
        <time>2021-05-05T14:49:27Z</time>
      </trkpt>
      <trkpt lat="43.22073" lon="5.52513">
        <ele>89</ele>
        <time>2021-05-05T14:49:35Z</time>
      </trkpt>
      <trkpt lat="43.22074" lon="5.52504">
        <ele>87.1</ele>
        <time>2021-05-05T14:49:43Z</time>
      </trkpt>
      <trkpt lat="43.22074" lon="5.52498">
        <ele>85.9</ele>
        <time>2021-05-05T14:49:47Z</time>
      </trkpt>
      <trkpt lat="43.22075" lon="5.52492">
        <ele>85.7</ele>
        <time>2021-05-05T14:49:53Z</time>
      </trkpt>
      <trkpt lat="43.22075" lon="5.52483">
        <ele>85.3</ele>
        <time>2021-05-05T14:49:59Z</time>
      </trkpt>
      <trkpt lat="43.22077" lon="5.52477">
        <ele>85.1</ele>
        <time>2021-05-05T14:55:43Z</time>
      </trkpt>
      <trkpt lat="43.22077" lon="5.52469">
        <ele>84.8</ele>
        <time>2021-05-05T14:55:51Z</time>
      </trkpt>
      <trkpt lat="43.22078" lon="5.52462">
        <ele>84.5</ele>
        <time>2021-05-05T14:55:59Z</time>
      </trkpt>
      <trkpt lat="43.22077" lon="5.52454">
        <ele>84.2</ele>
        <time>2021-05-05T14:56:07Z</time>
      </trkpt>
      <trkpt lat="43.22074" lon="5.52449">
        <ele>83.9</ele>
        <time>2021-05-05T14:56:15Z</time>
      </trkpt>
      <trkpt lat="43.22075" lon="5.52443">
        <ele>83.6</ele>
        <time>2021-05-05T14:56:21Z</time>
      </trkpt>
      <trkpt lat="43.22074" lon="5.52434">
        <ele>83.3</ele>
        <time>2021-05-05T14:56:27Z</time>
      </trkpt>
      <trkpt lat="43.22076" lon="5.52427">
        <ele>83</ele>
        <time>2021-05-05T14:56:33Z</time>
      </trkpt>
      <trkpt lat="43.22075" lon="5.5242">
        <ele>82.7</ele>
        <time>2021-05-05T14:56:39Z</time>
      </trkpt>
      <trkpt lat="43.2208" lon="5.52415">
        <ele>83</ele>
        <time>2021-05-05T14:56:49Z</time>
      </trkpt>
      <trkpt lat="43.22085" lon="5.52415">
        <ele>83.6</ele>
        <time>2021-05-05T14:56:59Z</time>
      </trkpt>
      <trkpt lat="43.2209" lon="5.52413">
        <ele>85.6</ele>
        <time>2021-05-05T14:57:11Z</time>
      </trkpt>
      <trkpt lat="43.22095" lon="5.52411">
        <ele>87.8</ele>
        <time>2021-05-05T14:57:21Z</time>
      </trkpt>
      <trkpt lat="43.22101" lon="5.5241">
        <ele>89.9</ele>
        <time>2021-05-05T14:57:27Z</time>
      </trkpt>
      <trkpt lat="43.22105" lon="5.52411">
        <ele>91.5</ele>
        <time>2021-05-05T14:57:33Z</time>
      </trkpt>
      <trkpt lat="43.2211" lon="5.52413">
        <ele>92.5</ele>
        <time>2021-05-05T14:57:41Z</time>
      </trkpt>
      <trkpt lat="43.22114" lon="5.5241">
        <ele>94.7</ele>
        <time>2021-05-05T14:57:50Z</time>
      </trkpt>
      <trkpt lat="43.22118" lon="5.52406">
        <ele>97.2</ele>
        <time>2021-05-05T14:57:59Z</time>
      </trkpt>
      <trkpt lat="43.22123" lon="5.52405">
        <ele>99.3</ele>
        <time>2021-05-05T14:58:07Z</time>
      </trkpt>
      <trkpt lat="43.22127" lon="5.52404">
        <ele>101.5</ele>
        <time>2021-05-05T14:58:15Z</time>
      </trkpt>
      <trkpt lat="43.22132" lon="5.524">
        <ele>104.3</ele>
        <time>2021-05-05T14:58:31Z</time>
      </trkpt>
      <trkpt lat="43.22135" lon="5.52396">
        <ele>107.2</ele>
        <time>2021-05-05T14:59:11Z</time>
      </trkpt>
      <trkpt lat="43.2214" lon="5.52397">
        <ele>109</ele>
        <time>2021-05-05T14:59:21Z</time>
      </trkpt>
      <trkpt lat="43.22146" lon="5.52402">
        <ele>109.1</ele>
        <time>2021-05-05T14:59:27Z</time>
      </trkpt>
      <trkpt lat="43.2215" lon="5.52406">
        <ele>109.2</ele>
        <time>2021-05-05T14:59:31Z</time>
      </trkpt>
      <trkpt lat="43.22152" lon="5.52411">
        <ele>107.6</ele>
        <time>2021-05-05T14:59:37Z</time>
      </trkpt>
      <trkpt lat="43.22153" lon="5.52419">
        <ele>105.3</ele>
        <time>2021-05-05T14:59:45Z</time>
      </trkpt>
      <trkpt lat="43.22154" lon="5.52426">
        <ele>104.7</ele>
        <time>2021-05-05T14:59:51Z</time>
      </trkpt>
      <trkpt lat="43.22153" lon="5.52433">
        <ele>103.6</ele>
        <time>2021-05-05T14:59:55Z</time>
      </trkpt>
      <trkpt lat="43.22152" lon="5.5244">
        <ele>102.6</ele>
        <time>2021-05-05T14:59:59Z</time>
      </trkpt>
      <trkpt lat="43.22151" lon="5.52447">
        <ele>101.7</ele>
        <time>2021-05-05T15:00:05Z</time>
      </trkpt>
      <trkpt lat="43.22151" lon="5.52456">
        <ele>100.6</ele>
        <time>2021-05-05T15:00:11Z</time>
      </trkpt>
      <trkpt lat="43.22152" lon="5.52462">
        <ele>100.1</ele>
        <time>2021-05-05T15:00:15Z</time>
      </trkpt>
      <trkpt lat="43.22155" lon="5.5247">
        <ele>99.9</ele>
        <time>2021-05-05T15:00:21Z</time>
      </trkpt>
      <trkpt lat="43.22156" lon="5.52476">
        <ele>99.3</ele>
        <time>2021-05-05T15:00:27Z</time>
      </trkpt>
      <trkpt lat="43.22155" lon="5.52483">
        <ele>98.4</ele>
        <time>2021-05-05T15:00:35Z</time>
      </trkpt>
      <trkpt lat="43.22154" lon="5.52489">
        <ele>97.4</ele>
        <time>2021-05-05T15:00:43Z</time>
      </trkpt>
      <trkpt lat="43.22151" lon="5.52494">
        <ele>96.3</ele>
        <time>2021-05-05T15:00:53Z</time>
      </trkpt>
      <trkpt lat="43.2215" lon="5.52501">
        <ele>95.8</ele>
        <time>2021-05-05T15:01:25Z</time>
      </trkpt>
      <trkpt lat="43.22149" lon="5.52507">
        <ele>96.2</ele>
        <time>2021-05-05T15:01:29Z</time>
      </trkpt>
      <trkpt lat="43.2215" lon="5.52513">
        <ele>97.2</ele>
        <time>2021-05-05T15:01:33Z</time>
      </trkpt>
      <trkpt lat="43.22149" lon="5.5252">
        <ele>97.8</ele>
        <time>2021-05-05T15:01:39Z</time>
      </trkpt>
      <trkpt lat="43.22143" lon="5.52524">
        <ele>97.9</ele>
        <time>2021-05-05T15:01:45Z</time>
      </trkpt>
      <trkpt lat="43.22139" lon="5.52529">
        <ele>98.1</ele>
        <time>2021-05-05T15:01:51Z</time>
      </trkpt>
      <trkpt lat="43.22137" lon="5.52536">
        <ele>98.9</ele>
        <time>2021-05-05T15:01:57Z</time>
      </trkpt>
      <trkpt lat="43.22136" lon="5.52543">
        <ele>99.8</ele>
        <time>2021-05-05T15:02:05Z</time>
      </trkpt>
      <trkpt lat="43.22134" lon="5.52548">
        <ele>100.5</ele>
        <time>2021-05-05T15:02:11Z</time>
      </trkpt>
      <trkpt lat="43.22135" lon="5.52556">
        <ele>101.7</ele>
        <time>2021-05-05T15:02:17Z</time>
      </trkpt>
      <trkpt lat="43.22134" lon="5.52564">
        <ele>102.8</ele>
        <time>2021-05-05T15:02:23Z</time>
      </trkpt>
      <trkpt lat="43.22135" lon="5.52571">
        <ele>104</ele>
        <time>2021-05-05T15:02:31Z</time>
      </trkpt>
      <trkpt lat="43.22139" lon="5.52574">
        <ele>104.3</ele>
        <time>2021-05-05T15:02:37Z</time>
      </trkpt>
      <trkpt lat="43.22144" lon="5.52577">
        <ele>104.7</ele>
        <time>2021-05-05T15:02:43Z</time>
      </trkpt>
      <trkpt lat="43.22147" lon="5.52581">
        <ele>105.2</ele>
        <time>2021-05-05T15:03:05Z</time>
      </trkpt>
      <trkpt lat="43.22151" lon="5.52585">
        <ele>105.7</ele>
        <time>2021-05-05T15:03:15Z</time>
      </trkpt>
      <trkpt lat="43.22157" lon="5.52585">
        <ele>105.6</ele>
        <time>2021-05-05T15:03:23Z</time>
      </trkpt>
      <trkpt lat="43.22164" lon="5.52586">
        <ele>105.5</ele>
        <time>2021-05-05T15:03:31Z</time>
      </trkpt>
      <trkpt lat="43.22168" lon="5.52584">
        <ele>105.2</ele>
        <time>2021-05-05T15:03:37Z</time>
      </trkpt>
      <trkpt lat="43.22173" lon="5.52576">
        <ele>105.2</ele>
        <time>2021-05-05T15:03:43Z</time>
      </trkpt>
      <trkpt lat="43.22179" lon="5.52574">
        <ele>105.7</ele>
        <time>2021-05-05T15:03:47Z</time>
      </trkpt>
      <trkpt lat="43.22185" lon="5.52574">
        <ele>106.5</ele>
        <time>2021-05-05T15:03:51Z</time>
      </trkpt>
      <trkpt lat="43.2219" lon="5.52572">
        <ele>106.9</ele>
        <time>2021-05-05T15:03:57Z</time>
      </trkpt>
      <trkpt lat="43.22194" lon="5.52568">
        <ele>107.3</ele>
        <time>2021-05-05T15:04:03Z</time>
      </trkpt>
      <trkpt lat="43.22199" lon="5.52564">
        <ele>107.8</ele>
        <time>2021-05-05T15:04:11Z</time>
      </trkpt>
      <trkpt lat="43.22204" lon="5.52562">
        <ele>108.4</ele>
        <time>2021-05-05T15:04:17Z</time>
      </trkpt>
      <trkpt lat="43.22208" lon="5.5256">
        <ele>109.1</ele>
        <time>2021-05-05T15:04:27Z</time>
      </trkpt>
      <trkpt lat="43.22212" lon="5.52563">
        <ele>109.7</ele>
        <time>2021-05-05T15:04:51Z</time>
      </trkpt>
      <trkpt lat="43.22217" lon="5.52569">
        <ele>110.4</ele>
        <time>2021-05-05T15:04:57Z</time>
      </trkpt>
      <trkpt lat="43.22222" lon="5.52573">
        <ele>111</ele>
        <time>2021-05-05T15:05:03Z</time>
      </trkpt>
      <trkpt lat="43.22227" lon="5.52577">
        <ele>111.6</ele>
        <time>2021-05-05T15:05:09Z</time>
      </trkpt>
      <trkpt lat="43.22231" lon="5.52574">
        <ele>112.1</ele>
        <time>2021-05-05T15:05:19Z</time>
      </trkpt>
      <trkpt lat="43.22235" lon="5.52573">
        <ele>112.7</ele>
        <time>2021-05-05T15:05:25Z</time>
      </trkpt>
      <trkpt lat="43.22242" lon="5.52575">
        <ele>113.4</ele>
        <time>2021-05-05T15:05:31Z</time>
      </trkpt>
      <trkpt lat="43.22248" lon="5.52575">
        <ele>114.1</ele>
        <time>2021-05-05T15:05:33Z</time>
      </trkpt>
      <trkpt lat="43.22254" lon="5.52575">
        <ele>115.3</ele>
        <time>2021-05-05T15:05:37Z</time>
      </trkpt>
      <trkpt lat="43.2226" lon="5.52576">
        <ele>116.5</ele>
        <time>2021-05-05T15:05:41Z</time>
      </trkpt>
      <trkpt lat="43.22266" lon="5.52579">
        <ele>117.8</ele>
        <time>2021-05-05T15:05:47Z</time>
      </trkpt>
      <trkpt lat="43.22271" lon="5.52577">
        <ele>119</ele>
        <time>2021-05-05T15:06:01Z</time>
      </trkpt>
      <trkpt lat="43.22276" lon="5.52574">
        <ele>120</ele>
        <time>2021-05-05T15:06:07Z</time>
      </trkpt>
      <trkpt lat="43.22281" lon="5.52571">
        <ele>121</ele>
        <time>2021-05-05T15:06:13Z</time>
      </trkpt>
      <trkpt lat="43.22287" lon="5.5257">
        <ele>122.2</ele>
        <time>2021-05-05T15:06:17Z</time>
      </trkpt>
      <trkpt lat="43.22292" lon="5.52567">
        <ele>123</ele>
        <time>2021-05-05T15:06:21Z</time>
      </trkpt>
      <trkpt lat="43.22298" lon="5.52564">
        <ele>123.9</ele>
        <time>2021-05-05T15:06:27Z</time>
      </trkpt>
      <trkpt lat="43.22301" lon="5.52558">
        <ele>124</ele>
        <time>2021-05-05T15:06:35Z</time>
      </trkpt>
      <trkpt lat="43.22306" lon="5.52555">
        <ele>124.5</ele>
        <time>2021-05-05T15:06:43Z</time>
      </trkpt>
      <trkpt lat="43.22305" lon="5.52547">
        <ele>123.5</ele>
        <time>2021-05-05T15:06:49Z</time>
      </trkpt>
      <trkpt lat="43.22307" lon="5.52541">
        <ele>123.1</ele>
        <time>2021-05-05T15:06:57Z</time>
      </trkpt>
      <trkpt lat="43.22307" lon="5.52535">
        <ele>122.5</ele>
        <time>2021-05-05T15:07:05Z</time>
      </trkpt>
      <trkpt lat="43.22306" lon="5.52527">
        <ele>121.5</ele>
        <time>2021-05-05T15:07:13Z</time>
      </trkpt>
      <trkpt lat="43.22309" lon="5.52522">
        <ele>121.2</ele>
        <time>2021-05-05T15:07:21Z</time>
      </trkpt>
      <trkpt lat="43.22307" lon="5.52515">
        <ele>120.3</ele>
        <time>2021-05-05T15:07:33Z</time>
      </trkpt>
      <trkpt lat="43.22307" lon="5.52506">
        <ele>119.3</ele>
        <time>2021-05-05T15:07:39Z</time>
      </trkpt>
      <trkpt lat="43.22307" lon="5.52497">
        <ele>119.4</ele>
        <time>2021-05-05T15:07:43Z</time>
      </trkpt>
      <trkpt lat="43.22307" lon="5.5249">
        <ele>121.1</ele>
        <time>2021-05-05T15:07:49Z</time>
      </trkpt>
      <trkpt lat="43.22311" lon="5.52487">
        <ele>121.8</ele>
        <time>2021-05-05T15:07:55Z</time>
      </trkpt>
      <trkpt lat="43.22318" lon="5.52486">
        <ele>122</ele>
        <time>2021-05-05T15:08:01Z</time>
      </trkpt>
      <trkpt lat="43.22323" lon="5.52483">
        <ele>122.7</ele>
        <time>2021-05-05T15:08:09Z</time>
      </trkpt>
      <trkpt lat="43.22327" lon="5.5248">
        <ele>123.5</ele>
        <time>2021-05-05T15:08:19Z</time>
      </trkpt>
      <trkpt lat="43.22322" lon="5.52477">
        <ele>124.2</ele>
        <time>2021-05-05T15:08:31Z</time>
      </trkpt>
      <trkpt lat="43.22326" lon="5.52481">
        <ele>123.2</ele>
        <time>2021-05-05T15:08:49Z</time>
      </trkpt>
      <trkpt lat="43.22333" lon="5.52481">
        <ele>123.1</ele>
        <time>2021-05-05T15:08:55Z</time>
      </trkpt>
      <trkpt lat="43.22339" lon="5.52481">
        <ele>123.8</ele>
        <time>2021-05-05T15:09:01Z</time>
      </trkpt>
      <trkpt lat="43.22345" lon="5.5248">
        <ele>124.4</ele>
        <time>2021-05-05T15:09:07Z</time>
      </trkpt>
      <trkpt lat="43.2235" lon="5.5248">
        <ele>124.9</ele>
        <time>2021-05-05T15:09:15Z</time>
      </trkpt>
      <trkpt lat="43.22354" lon="5.52481">
        <ele>125.1</ele>
        <time>2021-05-05T15:09:23Z</time>
      </trkpt>
      <trkpt lat="43.22359" lon="5.52483">
        <ele>125.3</ele>
        <time>2021-05-05T15:09:31Z</time>
      </trkpt>
      <trkpt lat="43.22363" lon="5.52486">
        <ele>125.5</ele>
        <time>2021-05-05T15:09:41Z</time>
      </trkpt>
      <trkpt lat="43.22369" lon="5.52486">
        <ele>126.3</ele>
        <time>2021-05-05T15:09:51Z</time>
      </trkpt>
      <trkpt lat="43.22373" lon="5.52482">
        <ele>126.9</ele>
        <time>2021-05-05T15:09:57Z</time>
      </trkpt>
      <trkpt lat="43.22377" lon="5.52479">
        <ele>127.4</ele>
        <time>2021-05-05T15:10:03Z</time>
      </trkpt>
      <trkpt lat="43.2238" lon="5.52473">
        <ele>127.8</ele>
        <time>2021-05-05T15:10:09Z</time>
      </trkpt>
      <trkpt lat="43.22379" lon="5.52466">
        <ele>127.9</ele>
        <time>2021-05-05T15:10:13Z</time>
      </trkpt>
      <trkpt lat="43.22378" lon="5.52459">
        <ele>128</ele>
        <time>2021-05-05T15:10:17Z</time>
      </trkpt>
      <trkpt lat="43.22378" lon="5.52451">
        <ele>128.2</ele>
        <time>2021-05-05T15:10:23Z</time>
      </trkpt>
      <trkpt lat="43.2238" lon="5.52444">
        <ele>128.2</ele>
        <time>2021-05-05T15:10:31Z</time>
      </trkpt>
      <trkpt lat="43.22381" lon="5.52437">
        <ele>128.3</ele>
        <time>2021-05-05T15:10:37Z</time>
      </trkpt>
      <trkpt lat="43.22384" lon="5.52432">
        <ele>127.9</ele>
        <time>2021-05-05T15:10:45Z</time>
      </trkpt>
      <trkpt lat="43.22389" lon="5.52428">
        <ele>127.2</ele>
        <time>2021-05-05T15:10:53Z</time>
      </trkpt>
      <trkpt lat="43.22394" lon="5.52426">
        <ele>126.6</ele>
        <time>2021-05-05T15:10:59Z</time>
      </trkpt>
      <trkpt lat="43.22398" lon="5.52426">
        <ele>125.9</ele>
        <time>2021-05-05T15:11:07Z</time>
      </trkpt>
      <trkpt lat="43.22402" lon="5.5243">
        <ele>125.7</ele>
        <time>2021-05-05T15:11:15Z</time>
      </trkpt>
      <trkpt lat="43.22407" lon="5.5243">
        <ele>125.1</ele>
        <time>2021-05-05T15:11:25Z</time>
      </trkpt>
      <trkpt lat="43.22412" lon="5.52431">
        <ele>124.5</ele>
        <time>2021-05-05T15:11:31Z</time>
      </trkpt>
      <trkpt lat="43.22419" lon="5.52431">
        <ele>124.8</ele>
        <time>2021-05-05T15:11:37Z</time>
      </trkpt>
      <trkpt lat="43.22425" lon="5.52429">
        <ele>126.9</ele>
        <time>2021-05-05T15:11:43Z</time>
      </trkpt>
      <trkpt lat="43.22431" lon="5.52425">
        <ele>128.9</ele>
        <time>2021-05-05T15:11:49Z</time>
      </trkpt>
      <trkpt lat="43.22438" lon="5.52421">
        <ele>130.7</ele>
        <time>2021-05-05T15:11:55Z</time>
      </trkpt>
      <trkpt lat="43.22443" lon="5.52418">
        <ele>132.2</ele>
        <time>2021-05-05T15:11:59Z</time>
      </trkpt>
      <trkpt lat="43.22448" lon="5.52414">
        <ele>134.1</ele>
        <time>2021-05-05T15:12:05Z</time>
      </trkpt>
      <trkpt lat="43.22451" lon="5.52409">
        <ele>135.4</ele>
        <time>2021-05-05T15:12:11Z</time>
      </trkpt>
      <trkpt lat="43.22449" lon="5.524">
        <ele>134.8</ele>
        <time>2021-05-05T15:12:15Z</time>
      </trkpt>
      <trkpt lat="43.22449" lon="5.52391">
        <ele>134.9</ele>
        <time>2021-05-05T15:12:21Z</time>
      </trkpt>
      <trkpt lat="43.22448" lon="5.52384">
        <ele>134.8</ele>
        <time>2021-05-05T15:12:25Z</time>
      </trkpt>
      <trkpt lat="43.22447" lon="5.52377">
        <ele>134.5</ele>
        <time>2021-05-05T15:12:29Z</time>
      </trkpt>
      <trkpt lat="43.22446" lon="5.52371">
        <ele>134.3</ele>
        <time>2021-05-05T15:12:35Z</time>
      </trkpt>
      <trkpt lat="43.22449" lon="5.52363">
        <ele>135.3</ele>
        <time>2021-05-05T15:12:43Z</time>
      </trkpt>
      <trkpt lat="43.22449" lon="5.52355">
        <ele>135.5</ele>
        <time>2021-05-05T15:12:49Z</time>
      </trkpt>
      <trkpt lat="43.22447" lon="5.52347">
        <ele>135</ele>
        <time>2021-05-05T15:12:55Z</time>
      </trkpt>
      <trkpt lat="43.22447" lon="5.5234">
        <ele>135.3</ele>
        <time>2021-05-05T15:13:01Z</time>
      </trkpt>
      <trkpt lat="43.22447" lon="5.52333">
        <ele>135.5</ele>
        <time>2021-05-05T15:13:07Z</time>
      </trkpt>
      <trkpt lat="43.22447" lon="5.52325">
        <ele>135.3</ele>
        <time>2021-05-05T15:13:15Z</time>
      </trkpt>
      <trkpt lat="43.2245" lon="5.52318">
        <ele>135.6</ele>
        <time>2021-05-05T15:13:23Z</time>
      </trkpt>
      <trkpt lat="43.22451" lon="5.52311">
        <ele>135.7</ele>
        <time>2021-05-05T15:13:29Z</time>
      </trkpt>
      <trkpt lat="43.22452" lon="5.52304">
        <ele>135.8</ele>
        <time>2021-05-05T15:13:35Z</time>
      </trkpt>
      <trkpt lat="43.2245" lon="5.52297">
        <ele>135</ele>
        <time>2021-05-05T15:13:41Z</time>
      </trkpt>
      <trkpt lat="43.22447" lon="5.52292">
        <ele>134</ele>
        <time>2021-05-05T15:13:47Z</time>
      </trkpt>
      <trkpt lat="43.22442" lon="5.52288">
        <ele>132.9</ele>
        <time>2021-05-05T15:13:55Z</time>
      </trkpt>
      <trkpt lat="43.2244" lon="5.52283">
        <ele>132.2</ele>
        <time>2021-05-05T15:14:01Z</time>
      </trkpt>
      <trkpt lat="43.22437" lon="5.52277">
        <ele>131.2</ele>
        <time>2021-05-05T15:14:09Z</time>
      </trkpt>
      <trkpt lat="43.22435" lon="5.5227">
        <ele>130.5</ele>
        <time>2021-05-05T15:14:15Z</time>
      </trkpt>
      <trkpt lat="43.22431" lon="5.52265">
        <ele>129.6</ele>
        <time>2021-05-05T15:14:21Z</time>
      </trkpt>
      <trkpt lat="43.22427" lon="5.52261">
        <ele>128.6</ele>
        <time>2021-05-05T15:14:27Z</time>
      </trkpt>
      <trkpt lat="43.22425" lon="5.52255">
        <ele>127.9</ele>
        <time>2021-05-05T15:14:35Z</time>
      </trkpt>
      <trkpt lat="43.22425" lon="5.52249">
        <ele>128</ele>
        <time>2021-05-05T15:15:33Z</time>
      </trkpt>
      <trkpt lat="43.22424" lon="5.52242">
        <ele>127.9</ele>
        <time>2021-05-05T15:15:43Z</time>
      </trkpt>
      <trkpt lat="43.22425" lon="5.52235">
        <ele>128.4</ele>
        <time>2021-05-05T15:15:49Z</time>
      </trkpt>
      <trkpt lat="43.22425" lon="5.52229">
        <ele>128.6</ele>
        <time>2021-05-05T15:15:57Z</time>
      </trkpt>
      <trkpt lat="43.22423" lon="5.52222">
        <ele>128.6</ele>
        <time>2021-05-05T15:16:03Z</time>
      </trkpt>
      <trkpt lat="43.22421" lon="5.52215">
        <ele>128.4</ele>
        <time>2021-05-05T15:16:09Z</time>
      </trkpt>
      <trkpt lat="43.22422" lon="5.52209">
        <ele>128.9</ele>
        <time>2021-05-05T15:16:15Z</time>
      </trkpt>
      <trkpt lat="43.22426" lon="5.52202">
        <ele>129.7</ele>
        <time>2021-05-05T15:16:23Z</time>
      </trkpt>
      <trkpt lat="43.2243" lon="5.52198">
        <ele>130.4</ele>
        <time>2021-05-05T15:16:31Z</time>
      </trkpt>
      <trkpt lat="43.22433" lon="5.52193">
        <ele>131</ele>
        <time>2021-05-05T15:16:43Z</time>
      </trkpt>
      <trkpt lat="43.22438" lon="5.52189">
        <ele>131.7</ele>
        <time>2021-05-05T15:16:53Z</time>
      </trkpt>
      <trkpt lat="43.22443" lon="5.52187">
        <ele>132.5</ele>
        <time>2021-05-05T15:16:59Z</time>
      </trkpt>
      <trkpt lat="43.2245" lon="5.52187">
        <ele>133.3</ele>
        <time>2021-05-05T15:17:05Z</time>
      </trkpt>
      <trkpt lat="43.22455" lon="5.52187">
        <ele>133.9</ele>
        <time>2021-05-05T15:17:09Z</time>
      </trkpt>
      <trkpt lat="43.2246" lon="5.52189">
        <ele>134.6</ele>
        <time>2021-05-05T15:17:13Z</time>
      </trkpt>
      <trkpt lat="43.22464" lon="5.52191">
        <ele>135.3</ele>
        <time>2021-05-05T15:17:21Z</time>
      </trkpt>
      <trkpt lat="43.2247" lon="5.52191">
        <ele>136</ele>
        <time>2021-05-05T15:17:27Z</time>
      </trkpt>
      <trkpt lat="43.22475" lon="5.52187">
        <ele>136.5</ele>
        <time>2021-05-05T15:17:33Z</time>
      </trkpt>
      <trkpt lat="43.22481" lon="5.52182">
        <ele>137</ele>
        <time>2021-05-05T15:17:39Z</time>
      </trkpt>
      <trkpt lat="43.22486" lon="5.52179">
        <ele>137.4</ele>
        <time>2021-05-05T15:17:45Z</time>
      </trkpt>
      <trkpt lat="43.2249" lon="5.52176">
        <ele>137.7</ele>
        <time>2021-05-05T15:17:51Z</time>
      </trkpt>
      <trkpt lat="43.22492" lon="5.5217">
        <ele>137.5</ele>
        <time>2021-05-05T15:17:57Z</time>
      </trkpt>
      <trkpt lat="43.22495" lon="5.52163">
        <ele>137.7</ele>
        <time>2021-05-05T15:18:03Z</time>
      </trkpt>
      <trkpt lat="43.22496" lon="5.52157">
        <ele>138</ele>
        <time>2021-05-05T15:18:09Z</time>
      </trkpt>
      <trkpt lat="43.22502" lon="5.52154">
        <ele>139.3</ele>
        <time>2021-05-05T15:18:15Z</time>
      </trkpt>
      <trkpt lat="43.22502" lon="5.52146">
        <ele>139.3</ele>
        <time>2021-05-05T15:18:21Z</time>
      </trkpt>
      <trkpt lat="43.225" lon="5.5214">
        <ele>138.7</ele>
        <time>2021-05-05T15:18:25Z</time>
      </trkpt>
      <trkpt lat="43.22498" lon="5.52132">
        <ele>138.9</ele>
        <time>2021-05-05T15:18:31Z</time>
      </trkpt>
      <trkpt lat="43.22498" lon="5.52124">
        <ele>139.2</ele>
        <time>2021-05-05T15:18:37Z</time>
      </trkpt>
      <trkpt lat="43.22496" lon="5.52118">
        <ele>139.8</ele>
        <time>2021-05-05T15:18:45Z</time>
      </trkpt>
      <trkpt lat="43.22495" lon="5.52111">
        <ele>140.1</ele>
        <time>2021-05-05T15:18:51Z</time>
      </trkpt>
      <trkpt lat="43.22497" lon="5.52104">
        <ele>140</ele>
        <time>2021-05-05T15:18:57Z</time>
      </trkpt>
      <trkpt lat="43.22499" lon="5.52097">
        <ele>139.9</ele>
        <time>2021-05-05T15:19:05Z</time>
      </trkpt>
      <trkpt lat="43.22501" lon="5.52091">
        <ele>140</ele>
        <time>2021-05-05T15:19:15Z</time>
      </trkpt>
      <trkpt lat="43.22502" lon="5.52084">
        <ele>140.4</ele>
        <time>2021-05-05T15:19:23Z</time>
      </trkpt>
      <trkpt lat="43.22504" lon="5.52078">
        <ele>141.2</ele>
        <time>2021-05-05T15:19:31Z</time>
      </trkpt>
      <trkpt lat="43.22508" lon="5.52076">
        <ele>142.2</ele>
        <time>2021-05-05T15:19:37Z</time>
      </trkpt>
      <trkpt lat="43.22515" lon="5.52073">
        <ele>143.7</ele>
        <time>2021-05-05T15:19:45Z</time>
      </trkpt>
      <trkpt lat="43.2252" lon="5.52075">
        <ele>144.6</ele>
        <time>2021-05-05T15:19:49Z</time>
      </trkpt>
      <trkpt lat="43.22525" lon="5.52075">
        <ele>145.5</ele>
        <time>2021-05-05T15:19:55Z</time>
      </trkpt>
      <trkpt lat="43.22532" lon="5.52073">
        <ele>146.8</ele>
        <time>2021-05-05T15:20:07Z</time>
      </trkpt>
      <trkpt lat="43.22537" lon="5.52074">
        <ele>147.7</ele>
        <time>2021-05-05T15:20:11Z</time>
      </trkpt>
      <trkpt lat="43.2254" lon="5.52067">
        <ele>148</ele>
        <time>2021-05-05T15:20:21Z</time>
      </trkpt>
      <trkpt lat="43.22545" lon="5.52062">
        <ele>148.5</ele>
        <time>2021-05-05T15:20:27Z</time>
      </trkpt>
      <trkpt lat="43.22546" lon="5.52054">
        <ele>148.2</ele>
        <time>2021-05-05T15:20:33Z</time>
      </trkpt>
      <trkpt lat="43.22546" lon="5.52047">
        <ele>147.9</ele>
        <time>2021-05-05T15:20:39Z</time>
      </trkpt>
      <trkpt lat="43.22545" lon="5.52041">
        <ele>147.5</ele>
        <time>2021-05-05T15:20:47Z</time>
      </trkpt>
      <trkpt lat="43.22546" lon="5.52033">
        <ele>147.1</ele>
        <time>2021-05-05T15:20:53Z</time>
      </trkpt>
      <trkpt lat="43.22546" lon="5.52026">
        <ele>146.7</ele>
        <time>2021-05-05T15:20:59Z</time>
      </trkpt>
      <trkpt lat="43.22545" lon="5.5202">
        <ele>146.3</ele>
        <time>2021-05-05T15:21:05Z</time>
      </trkpt>
      <trkpt lat="43.22545" lon="5.52012">
        <ele>145.9</ele>
        <time>2021-05-05T15:21:13Z</time>
      </trkpt>
      <trkpt lat="43.22542" lon="5.52005">
        <ele>145.7</ele>
        <time>2021-05-05T15:21:21Z</time>
      </trkpt>
      <trkpt lat="43.2254" lon="5.52">
        <ele>145.6</ele>
        <time>2021-05-05T15:21:27Z</time>
      </trkpt>
      <trkpt lat="43.22536" lon="5.51995">
        <ele>146.3</ele>
        <time>2021-05-05T15:21:37Z</time>
      </trkpt>
      <trkpt lat="43.22534" lon="5.51989">
        <ele>147.1</ele>
        <time>2021-05-05T15:21:49Z</time>
      </trkpt>
      <trkpt lat="43.22533" lon="5.51981">
        <ele>148</ele>
        <time>2021-05-05T15:21:57Z</time>
      </trkpt>
      <trkpt lat="43.22533" lon="5.51973">
        <ele>148.9</ele>
        <time>2021-05-05T15:22:05Z</time>
      </trkpt>
      <trkpt lat="43.22536" lon="5.51967">
        <ele>149</ele>
        <time>2021-05-05T15:22:11Z</time>
      </trkpt>
      <trkpt lat="43.22535" lon="5.5196">
        <ele>149.9</ele>
        <time>2021-05-05T15:22:19Z</time>
      </trkpt>
      <trkpt lat="43.22537" lon="5.51954">
        <ele>150.2</ele>
        <time>2021-05-05T15:22:27Z</time>
      </trkpt>
      <trkpt lat="43.22534" lon="5.51959">
        <ele>150.2</ele>
        <time>2021-05-05T15:24:09Z</time>
      </trkpt>
      <trkpt lat="43.22534" lon="5.51952">
        <ele>150.8</ele>
        <time>2021-05-05T15:24:57Z</time>
      </trkpt>
      <trkpt lat="43.22539" lon="5.51952">
        <ele>149.7</ele>
        <time>2021-05-05T15:25:09Z</time>
      </trkpt>
      <trkpt lat="43.22545" lon="5.51955">
        <ele>148.3</ele>
        <time>2021-05-05T15:25:17Z</time>
      </trkpt>
      <trkpt lat="43.22549" lon="5.51961">
        <ele>147.1</ele>
        <time>2021-05-05T15:25:25Z</time>
      </trkpt>
      <trkpt lat="43.22553" lon="5.51965">
        <ele>146.2</ele>
        <time>2021-05-05T15:25:39Z</time>
      </trkpt>
      <trkpt lat="43.22558" lon="5.51966">
        <ele>145.3</ele>
        <time>2021-05-05T15:25:45Z</time>
      </trkpt>
      <trkpt lat="43.22563" lon="5.51963">
        <ele>144.5</ele>
        <time>2021-05-05T15:25:49Z</time>
      </trkpt>
      <trkpt lat="43.22569" lon="5.51961">
        <ele>143.5</ele>
        <time>2021-05-05T15:25:55Z</time>
      </trkpt>
      <trkpt lat="43.22576" lon="5.5196">
        <ele>142.1</ele>
        <time>2021-05-05T15:25:59Z</time>
      </trkpt>
      <trkpt lat="43.22582" lon="5.5196">
        <ele>140.9</ele>
        <time>2021-05-05T15:26:03Z</time>
      </trkpt>
      <trkpt lat="43.22586" lon="5.51956">
        <ele>141.7</ele>
        <time>2021-05-05T15:26:13Z</time>
      </trkpt>
      <trkpt lat="43.22587" lon="5.51948">
        <ele>141.9</ele>
        <time>2021-05-05T15:26:19Z</time>
      </trkpt>
      <trkpt lat="43.22586" lon="5.5194">
        <ele>141</ele>
        <time>2021-05-05T15:26:27Z</time>
      </trkpt>
      <trkpt lat="43.22585" lon="5.51933">
        <ele>139.9</ele>
        <time>2021-05-05T15:26:31Z</time>
      </trkpt>
      <trkpt lat="43.22587" lon="5.51927">
        <ele>140.7</ele>
        <time>2021-05-05T15:26:39Z</time>
      </trkpt>
      <trkpt lat="43.2259" lon="5.5192">
        <ele>141.5</ele>
        <time>2021-05-05T15:26:47Z</time>
      </trkpt>
      <trkpt lat="43.22588" lon="5.51914">
        <ele>140.5</ele>
        <time>2021-05-05T15:26:53Z</time>
      </trkpt>
      <trkpt lat="43.22587" lon="5.51907">
        <ele>140.4</ele>
        <time>2021-05-05T15:26:59Z</time>
      </trkpt>
      <trkpt lat="43.22589" lon="5.51901">
        <ele>142</ele>
        <time>2021-05-05T15:27:05Z</time>
      </trkpt>
      <trkpt lat="43.22591" lon="5.51896">
        <ele>143.2</ele>
        <time>2021-05-05T15:27:17Z</time>
      </trkpt>
      <trkpt lat="43.22595" lon="5.5189">
        <ele>145.3</ele>
        <time>2021-05-05T15:27:25Z</time>
      </trkpt>
      <trkpt lat="43.22599" lon="5.51884">
        <ele>147.2</ele>
        <time>2021-05-05T15:27:33Z</time>
      </trkpt>
      <trkpt lat="43.22601" lon="5.51876">
        <ele>148.3</ele>
        <time>2021-05-05T15:27:39Z</time>
      </trkpt>
      <trkpt lat="43.22603" lon="5.5187">
        <ele>149.2</ele>
        <time>2021-05-05T15:27:47Z</time>
      </trkpt>
      <trkpt lat="43.22604" lon="5.51863">
        <ele>149.8</ele>
        <time>2021-05-05T15:27:53Z</time>
      </trkpt>
      <trkpt lat="43.22605" lon="5.51855">
        <ele>150.3</ele>
        <time>2021-05-05T15:27:59Z</time>
      </trkpt>
      <trkpt lat="43.22607" lon="5.51848">
        <ele>151</ele>
        <time>2021-05-05T15:28:05Z</time>
      </trkpt>
      <trkpt lat="43.22609" lon="5.51841">
        <ele>151.6</ele>
        <time>2021-05-05T15:28:13Z</time>
      </trkpt>
      <trkpt lat="43.22609" lon="5.51833">
        <ele>151.5</ele>
        <time>2021-05-05T15:28:25Z</time>
      </trkpt>
      <trkpt lat="43.22606" lon="5.51827">
        <ele>151</ele>
        <time>2021-05-05T15:28:31Z</time>
      </trkpt>
      <trkpt lat="43.22608" lon="5.51821">
        <ele>151.5</ele>
        <time>2021-05-05T15:28:39Z</time>
      </trkpt>
      <trkpt lat="43.2261" lon="5.51815">
        <ele>151.9</ele>
        <time>2021-05-05T15:28:45Z</time>
      </trkpt>
      <trkpt lat="43.22612" lon="5.51808">
        <ele>152.2</ele>
        <time>2021-05-05T15:28:51Z</time>
      </trkpt>
      <trkpt lat="43.22612" lon="5.51801">
        <ele>152.2</ele>
        <time>2021-05-05T15:28:57Z</time>
      </trkpt>
      <trkpt lat="43.22612" lon="5.51794">
        <ele>152.3</ele>
        <time>2021-05-05T15:29:03Z</time>
      </trkpt>
      <trkpt lat="43.22612" lon="5.51785">
        <ele>152.4</ele>
        <time>2021-05-05T15:29:11Z</time>
      </trkpt>
      <trkpt lat="43.22614" lon="5.51779">
        <ele>152.6</ele>
        <time>2021-05-05T15:29:15Z</time>
      </trkpt>
      <trkpt lat="43.22611" lon="5.51773">
        <ele>152.2</ele>
        <time>2021-05-05T15:29:19Z</time>
      </trkpt>
      <trkpt lat="43.22609" lon="5.51766">
        <ele>152</ele>
        <time>2021-05-05T15:29:25Z</time>
      </trkpt>
      <trkpt lat="43.22607" lon="5.51759">
        <ele>151.9</ele>
        <time>2021-05-05T15:29:31Z</time>
      </trkpt>
      <trkpt lat="43.22604" lon="5.51753">
        <ele>151.7</ele>
        <time>2021-05-05T15:29:37Z</time>
      </trkpt>
      <trkpt lat="43.226" lon="5.51749">
        <ele>151.5</ele>
        <time>2021-05-05T15:29:43Z</time>
      </trkpt>
      <trkpt lat="43.22596" lon="5.51745">
        <ele>151.6</ele>
        <time>2021-05-05T15:29:49Z</time>
      </trkpt>
      <trkpt lat="43.22593" lon="5.5174">
        <ele>152</ele>
        <time>2021-05-05T15:29:55Z</time>
      </trkpt>
      <trkpt lat="43.2259" lon="5.51735">
        <ele>152.4</ele>
        <time>2021-05-05T15:30:01Z</time>
      </trkpt>
      <trkpt lat="43.22588" lon="5.51727">
        <ele>153.3</ele>
        <time>2021-05-05T15:30:07Z</time>
      </trkpt>
      <trkpt lat="43.22589" lon="5.51719">
        <ele>154.3</ele>
        <time>2021-05-05T15:30:13Z</time>
      </trkpt>
      <trkpt lat="43.2259" lon="5.51712">
        <ele>155.4</ele>
        <time>2021-05-05T15:30:19Z</time>
      </trkpt>
      <trkpt lat="43.22593" lon="5.51703">
        <ele>156.5</ele>
        <time>2021-05-05T15:30:25Z</time>
      </trkpt>
      <trkpt lat="43.22596" lon="5.51696">
        <ele>157.5</ele>
        <time>2021-05-05T15:30:31Z</time>
      </trkpt>
      <trkpt lat="43.22601" lon="5.51691">
        <ele>158.2</ele>
        <time>2021-05-05T15:30:35Z</time>
      </trkpt>
      <trkpt lat="43.22604" lon="5.51687">
        <ele>158.8</ele>
        <time>2021-05-05T15:30:39Z</time>
      </trkpt>
      <trkpt lat="43.22607" lon="5.51681">
        <ele>159.5</ele>
        <time>2021-05-05T15:30:45Z</time>
      </trkpt>
      <trkpt lat="43.22611" lon="5.51676">
        <ele>160</ele>
        <time>2021-05-05T15:30:53Z</time>
      </trkpt>
      <trkpt lat="43.22615" lon="5.5167">
        <ele>160.6</ele>
        <time>2021-05-05T15:30:59Z</time>
      </trkpt>
      <trkpt lat="43.22618" lon="5.51663">
        <ele>161.3</ele>
        <time>2021-05-05T15:31:05Z</time>
      </trkpt>
      <trkpt lat="43.22622" lon="5.51658">
        <ele>161.5</ele>
        <time>2021-05-05T15:31:11Z</time>
      </trkpt>
      <trkpt lat="43.22626" lon="5.51654">
        <ele>161.7</ele>
        <time>2021-05-05T15:31:17Z</time>
      </trkpt>
      <trkpt lat="43.22631" lon="5.51649">
        <ele>161.7</ele>
        <time>2021-05-05T15:31:23Z</time>
      </trkpt>
      <trkpt lat="43.22635" lon="5.51645">
        <ele>161.7</ele>
        <time>2021-05-05T15:31:29Z</time>
      </trkpt>
      <trkpt lat="43.22639" lon="5.5164">
        <ele>161.5</ele>
        <time>2021-05-05T15:31:35Z</time>
      </trkpt>
      <trkpt lat="43.2264" lon="5.51634">
        <ele>161.5</ele>
        <time>2021-05-05T15:31:41Z</time>
      </trkpt>
      <trkpt lat="43.22646" lon="5.5163">
        <ele>161.1</ele>
        <time>2021-05-05T15:31:47Z</time>
      </trkpt>
      <trkpt lat="43.2265" lon="5.51628">
        <ele>160.7</ele>
        <time>2021-05-05T15:31:51Z</time>
      </trkpt>
      <trkpt lat="43.22655" lon="5.51624">
        <ele>160.2</ele>
        <time>2021-05-05T15:31:57Z</time>
      </trkpt>
      <trkpt lat="43.22657" lon="5.51616">
        <ele>159.8</ele>
        <time>2021-05-05T15:32:11Z</time>
      </trkpt>
      <trkpt lat="43.22659" lon="5.5161">
        <ele>159.4</ele>
        <time>2021-05-05T15:32:17Z</time>
      </trkpt>
      <trkpt lat="43.22659" lon="5.51604">
        <ele>159.2</ele>
        <time>2021-05-05T15:32:23Z</time>
      </trkpt>
      <trkpt lat="43.22659" lon="5.51595">
        <ele>158.9</ele>
        <time>2021-05-05T15:32:31Z</time>
      </trkpt>
      <trkpt lat="43.22658" lon="5.51588">
        <ele>158.8</ele>
        <time>2021-05-05T15:32:37Z</time>
      </trkpt>
      <trkpt lat="43.22658" lon="5.51581">
        <ele>158.8</ele>
        <time>2021-05-05T15:32:43Z</time>
      </trkpt>
      <trkpt lat="43.22656" lon="5.51575">
        <ele>159.2</ele>
        <time>2021-05-05T15:32:49Z</time>
      </trkpt>
      <trkpt lat="43.22653" lon="5.5157">
        <ele>159.9</ele>
        <time>2021-05-05T15:32:53Z</time>
      </trkpt>
      <trkpt lat="43.22651" lon="5.51564">
        <ele>160.3</ele>
        <time>2021-05-05T15:32:57Z</time>
      </trkpt>
      <trkpt lat="43.22649" lon="5.51557">
        <ele>161.1</ele>
        <time>2021-05-05T15:33:03Z</time>
      </trkpt>
      <trkpt lat="43.22647" lon="5.5155">
        <ele>161.8</ele>
        <time>2021-05-05T15:33:09Z</time>
      </trkpt>
      <trkpt lat="43.22643" lon="5.51545">
        <ele>162.9</ele>
        <time>2021-05-05T15:33:15Z</time>
      </trkpt>
      <trkpt lat="43.22641" lon="5.51539">
        <ele>163.8</ele>
        <time>2021-05-05T15:33:21Z</time>
      </trkpt>
      <trkpt lat="43.22641" lon="5.51532">
        <ele>164.1</ele>
        <time>2021-05-05T15:33:27Z</time>
      </trkpt>
      <trkpt lat="43.22641" lon="5.51525">
        <ele>164.4</ele>
        <time>2021-05-05T15:33:33Z</time>
      </trkpt>
      <trkpt lat="43.22641" lon="5.51518">
        <ele>164.6</ele>
        <time>2021-05-05T15:33:41Z</time>
      </trkpt>
      <trkpt lat="43.22642" lon="5.51511">
        <ele>164.3</ele>
        <time>2021-05-05T15:33:47Z</time>
      </trkpt>
      <trkpt lat="43.22642" lon="5.51505">
        <ele>164.6</ele>
        <time>2021-05-05T15:33:53Z</time>
      </trkpt>
      <trkpt lat="43.22643" lon="5.51498">
        <ele>164.6</ele>
        <time>2021-05-05T15:33:59Z</time>
      </trkpt>
      <trkpt lat="43.22645" lon="5.51491">
        <ele>164.2</ele>
        <time>2021-05-05T15:34:05Z</time>
      </trkpt>
      <trkpt lat="43.22645" lon="5.51484">
        <ele>164.4</ele>
        <time>2021-05-05T15:34:11Z</time>
      </trkpt>
      <trkpt lat="43.22647" lon="5.51478">
        <ele>163.7</ele>
        <time>2021-05-05T15:34:17Z</time>
      </trkpt>
      <trkpt lat="43.2265" lon="5.51472">
        <ele>163</ele>
        <time>2021-05-05T15:34:23Z</time>
      </trkpt>
      <trkpt lat="43.22649" lon="5.51464">
        <ele>163.8</ele>
        <time>2021-05-05T15:34:29Z</time>
      </trkpt>
      <trkpt lat="43.22648" lon="5.51457">
        <ele>164.3</ele>
        <time>2021-05-05T15:34:35Z</time>
      </trkpt>
      <trkpt lat="43.22649" lon="5.51449">
        <ele>164.4</ele>
        <time>2021-05-05T15:34:43Z</time>
      </trkpt>
      <trkpt lat="43.22651" lon="5.51443">
        <ele>163.5</ele>
        <time>2021-05-05T15:34:51Z</time>
      </trkpt>
      <trkpt lat="43.22656" lon="5.51439">
        <ele>161.5</ele>
        <time>2021-05-05T15:34:59Z</time>
      </trkpt>
      <trkpt lat="43.2266" lon="5.51436">
        <ele>159.6</ele>
        <time>2021-05-05T15:35:05Z</time>
      </trkpt>
      <trkpt lat="43.22666" lon="5.51431">
        <ele>157.2</ele>
        <time>2021-05-05T15:35:11Z</time>
      </trkpt>
      <trkpt lat="43.22669" lon="5.51428">
        <ele>157</ele>
        <time>2021-05-05T15:35:17Z</time>
      </trkpt>
      <trkpt lat="43.22674" lon="5.51424">
        <ele>157.5</ele>
        <time>2021-05-05T15:35:23Z</time>
      </trkpt>
      <trkpt lat="43.22679" lon="5.51421">
        <ele>157.9</ele>
        <time>2021-05-05T15:35:29Z</time>
      </trkpt>
      <trkpt lat="43.22684" lon="5.51414">
        <ele>158.5</ele>
        <time>2021-05-05T15:35:35Z</time>
      </trkpt>
      <trkpt lat="43.22687" lon="5.5141">
        <ele>159.4</ele>
        <time>2021-05-05T15:35:39Z</time>
      </trkpt>
      <trkpt lat="43.22691" lon="5.51405">
        <ele>160.3</ele>
        <time>2021-05-05T15:35:45Z</time>
      </trkpt>
      <trkpt lat="43.22696" lon="5.51401">
        <ele>161</ele>
        <time>2021-05-05T15:35:51Z</time>
      </trkpt>
      <trkpt lat="43.227" lon="5.51398">
        <ele>161.5</ele>
        <time>2021-05-05T15:35:57Z</time>
      </trkpt>
      <trkpt lat="43.22704" lon="5.51396">
        <ele>161.9</ele>
        <time>2021-05-05T15:36:03Z</time>
      </trkpt>
      <trkpt lat="43.22709" lon="5.51394">
        <ele>162</ele>
        <time>2021-05-05T15:36:09Z</time>
      </trkpt>
      <trkpt lat="43.22714" lon="5.51395">
        <ele>162.1</ele>
        <time>2021-05-05T15:37:05Z</time>
      </trkpt>
      <trkpt lat="43.2272" lon="5.51398">
        <ele>161.8</ele>
        <time>2021-05-05T15:37:13Z</time>
      </trkpt>
      <trkpt lat="43.22725" lon="5.514">
        <ele>161.7</ele>
        <time>2021-05-05T15:37:19Z</time>
      </trkpt>
      <trkpt lat="43.22729" lon="5.51402">
        <ele>161.7</ele>
        <time>2021-05-05T15:37:27Z</time>
      </trkpt>
      <trkpt lat="43.22735" lon="5.51401">
        <ele>161.9</ele>
        <time>2021-05-05T15:37:33Z</time>
      </trkpt>
      <trkpt lat="43.2274" lon="5.51396">
        <ele>162.1</ele>
        <time>2021-05-05T15:37:39Z</time>
      </trkpt>
      <trkpt lat="43.22744" lon="5.5139">
        <ele>162.3</ele>
        <time>2021-05-05T15:37:45Z</time>
      </trkpt>
      <trkpt lat="43.22749" lon="5.51385">
        <ele>162.4</ele>
        <time>2021-05-05T15:37:51Z</time>
      </trkpt>
      <trkpt lat="43.22753" lon="5.5138">
        <ele>164.1</ele>
        <time>2021-05-05T15:37:57Z</time>
      </trkpt>
      <trkpt lat="43.22755" lon="5.51373">
        <ele>165.4</ele>
        <time>2021-05-05T15:38:05Z</time>
      </trkpt>
      <trkpt lat="43.22755" lon="5.51367">
        <ele>165.4</ele>
        <time>2021-05-05T15:38:11Z</time>
      </trkpt>
      <trkpt lat="43.22754" lon="5.51358">
        <ele>165.1</ele>
        <time>2021-05-05T15:38:17Z</time>
      </trkpt>
      <trkpt lat="43.22753" lon="5.51352">
        <ele>164.8</ele>
        <time>2021-05-05T15:38:23Z</time>
      </trkpt>
      <trkpt lat="43.22754" lon="5.51345">
        <ele>165</ele>
        <time>2021-05-05T15:38:29Z</time>
      </trkpt>
      <trkpt lat="43.22753" lon="5.51338">
        <ele>164.7</ele>
        <time>2021-05-05T15:38:33Z</time>
      </trkpt>
      <trkpt lat="43.22753" lon="5.5133">
        <ele>164.8</ele>
        <time>2021-05-05T15:38:39Z</time>
      </trkpt>
      <trkpt lat="43.22754" lon="5.51324">
        <ele>166</ele>
        <time>2021-05-05T15:38:47Z</time>
      </trkpt>
      <trkpt lat="43.22753" lon="5.51317">
        <ele>165.8</ele>
        <time>2021-05-05T15:38:55Z</time>
      </trkpt>
      <trkpt lat="43.22752" lon="5.51311">
        <ele>166.2</ele>
        <time>2021-05-05T15:39:01Z</time>
      </trkpt>
      <trkpt lat="43.22753" lon="5.51303">
        <ele>167.2</ele>
        <time>2021-05-05T15:39:09Z</time>
      </trkpt>
      <trkpt lat="43.22755" lon="5.51296">
        <ele>168.5</ele>
        <time>2021-05-05T15:39:17Z</time>
      </trkpt>
      <trkpt lat="43.22753" lon="5.51289">
        <ele>168.3</ele>
        <time>2021-05-05T15:39:25Z</time>
      </trkpt>
      <trkpt lat="43.22754" lon="5.51281">
        <ele>169.2</ele>
        <time>2021-05-05T15:39:31Z</time>
      </trkpt>
      <trkpt lat="43.22754" lon="5.51274">
        <ele>170.1</ele>
        <time>2021-05-05T15:39:37Z</time>
      </trkpt>
      <trkpt lat="43.22754" lon="5.51268">
        <ele>170.3</ele>
        <time>2021-05-05T15:39:47Z</time>
      </trkpt>
      <trkpt lat="43.22753" lon="5.51261">
        <ele>170.3</ele>
        <time>2021-05-05T15:39:55Z</time>
      </trkpt>
      <trkpt lat="43.2275" lon="5.51253">
        <ele>169.9</ele>
        <time>2021-05-05T15:40:01Z</time>
      </trkpt>
      <trkpt lat="43.22745" lon="5.51249">
        <ele>171.5</ele>
        <time>2021-05-05T15:40:17Z</time>
      </trkpt>
      <trkpt lat="43.2274" lon="5.51245">
        <ele>173.1</ele>
        <time>2021-05-05T15:40:33Z</time>
      </trkpt>
      <trkpt lat="43.2274" lon="5.51236">
        <ele>173.4</ele>
        <time>2021-05-05T15:40:41Z</time>
      </trkpt>
      <trkpt lat="43.2274" lon="5.51228">
        <ele>173.5</ele>
        <time>2021-05-05T15:40:47Z</time>
      </trkpt>
      <trkpt lat="43.2274" lon="5.5122">
        <ele>173.8</ele>
        <time>2021-05-05T15:40:53Z</time>
      </trkpt>
      <trkpt lat="43.22739" lon="5.51213">
        <ele>174.2</ele>
        <time>2021-05-05T15:41:01Z</time>
      </trkpt>
      <trkpt lat="43.22739" lon="5.51206">
        <ele>174.4</ele>
        <time>2021-05-05T15:41:09Z</time>
      </trkpt>
      <trkpt lat="43.2274" lon="5.51199">
        <ele>173.9</ele>
        <time>2021-05-05T15:41:17Z</time>
      </trkpt>
      <trkpt lat="43.2274" lon="5.51193">
        <ele>174.2</ele>
        <time>2021-05-05T15:41:23Z</time>
      </trkpt>
      <trkpt lat="43.22742" lon="5.51186">
        <ele>173.3</ele>
        <time>2021-05-05T15:41:31Z</time>
      </trkpt>
      <trkpt lat="43.22742" lon="5.51179">
        <ele>173.3</ele>
        <time>2021-05-05T15:41:37Z</time>
      </trkpt>
      <trkpt lat="43.22744" lon="5.51172">
        <ele>172.7</ele>
        <time>2021-05-05T15:41:43Z</time>
      </trkpt>
      <trkpt lat="43.22746" lon="5.51165">
        <ele>171.7</ele>
        <time>2021-05-05T15:41:51Z</time>
      </trkpt>
      <trkpt lat="43.22745" lon="5.51157">
        <ele>172.3</ele>
        <time>2021-05-05T15:41:57Z</time>
      </trkpt>
      <trkpt lat="43.22747" lon="5.51151">
        <ele>171.5</ele>
        <time>2021-05-05T15:42:03Z</time>
      </trkpt>
      <trkpt lat="43.22749" lon="5.51145">
        <ele>170.9</ele>
        <time>2021-05-05T15:42:07Z</time>
      </trkpt>
      <trkpt lat="43.22749" lon="5.51138">
        <ele>170.8</ele>
        <time>2021-05-05T15:42:13Z</time>
      </trkpt>
      <trkpt lat="43.22751" lon="5.51132">
        <ele>170.8</ele>
        <time>2021-05-05T15:42:19Z</time>
      </trkpt>
      <trkpt lat="43.22751" lon="5.51124">
        <ele>171.1</ele>
        <time>2021-05-05T15:42:31Z</time>
      </trkpt>
      <trkpt lat="43.22751" lon="5.51117">
        <ele>170.8</ele>
        <time>2021-05-05T15:42:37Z</time>
      </trkpt>
      <trkpt lat="43.2275" lon="5.5111">
        <ele>170.8</ele>
        <time>2021-05-05T15:42:43Z</time>
      </trkpt>
      <trkpt lat="43.22749" lon="5.51102">
        <ele>171.5</ele>
        <time>2021-05-05T15:42:49Z</time>
      </trkpt>
      <trkpt lat="43.22749" lon="5.51095">
        <ele>171.2</ele>
        <time>2021-05-05T15:42:55Z</time>
      </trkpt>
      <trkpt lat="43.22748" lon="5.51089">
        <ele>171.9</ele>
        <time>2021-05-05T15:43:09Z</time>
      </trkpt>
      <trkpt lat="43.22747" lon="5.51081">
        <ele>172.4</ele>
        <time>2021-05-05T15:43:27Z</time>
      </trkpt>
      <trkpt lat="43.22751" lon="5.51075">
        <ele>171.3</ele>
        <time>2021-05-05T15:43:31Z</time>
      </trkpt>
      <trkpt lat="43.22747" lon="5.51069">
        <ele>173</ele>
        <time>2021-05-05T15:43:37Z</time>
      </trkpt>
      <trkpt lat="43.22743" lon="5.51065">
        <ele>175.2</ele>
        <time>2021-05-05T15:43:41Z</time>
      </trkpt>
      <trkpt lat="43.2274" lon="5.51058">
        <ele>176.8</ele>
        <time>2021-05-05T15:43:47Z</time>
      </trkpt>
      <trkpt lat="43.22739" lon="5.51051">
        <ele>177.9</ele>
        <time>2021-05-05T15:43:53Z</time>
      </trkpt>
      <trkpt lat="43.2274" lon="5.51044">
        <ele>177.8</ele>
        <time>2021-05-05T15:43:59Z</time>
      </trkpt>
      <trkpt lat="43.22741" lon="5.51038">
        <ele>177.4</ele>
        <time>2021-05-05T15:44:05Z</time>
      </trkpt>
      <trkpt lat="43.22741" lon="5.51031">
        <ele>177.1</ele>
        <time>2021-05-05T15:44:11Z</time>
      </trkpt>
      <trkpt lat="43.22743" lon="5.51024">
        <ele>176.5</ele>
        <time>2021-05-05T15:44:17Z</time>
      </trkpt>
      <trkpt lat="43.22744" lon="5.51018">
        <ele>176</ele>
        <time>2021-05-05T15:44:23Z</time>
      </trkpt>
      <trkpt lat="43.22745" lon="5.5101">
        <ele>175.5</ele>
        <time>2021-05-05T15:44:31Z</time>
      </trkpt>
      <trkpt lat="43.22748" lon="5.51004">
        <ele>173.4</ele>
        <time>2021-05-05T15:44:37Z</time>
      </trkpt>
      <trkpt lat="43.22749" lon="5.50996">
        <ele>172.3</ele>
        <time>2021-05-05T15:44:43Z</time>
      </trkpt>
      <trkpt lat="43.22751" lon="5.50989">
        <ele>172</ele>
        <time>2021-05-05T15:44:49Z</time>
      </trkpt>
      <trkpt lat="43.22751" lon="5.50981">
        <ele>171.9</ele>
        <time>2021-05-05T15:44:57Z</time>
      </trkpt>
      <trkpt lat="43.22754" lon="5.50976">
        <ele>172.3</ele>
        <time>2021-05-05T15:45:05Z</time>
      </trkpt>
      <trkpt lat="43.22753" lon="5.50968">
        <ele>171.8</ele>
        <time>2021-05-05T15:45:11Z</time>
      </trkpt>
      <trkpt lat="43.22753" lon="5.50961">
        <ele>171.6</ele>
        <time>2021-05-05T15:45:17Z</time>
      </trkpt>
      <trkpt lat="43.22753" lon="5.50954">
        <ele>171.5</ele>
        <time>2021-05-05T15:45:23Z</time>
      </trkpt>
      <trkpt lat="43.22756" lon="5.50947">
        <ele>171.7</ele>
        <time>2021-05-05T15:45:31Z</time>
      </trkpt>
      <trkpt lat="43.22757" lon="5.50938">
        <ele>171.6</ele>
        <time>2021-05-05T15:45:37Z</time>
      </trkpt>
      <trkpt lat="43.22761" lon="5.50933">
        <ele>172</ele>
        <time>2021-05-05T15:45:45Z</time>
      </trkpt>
      <trkpt lat="43.22765" lon="5.50929">
        <ele>172.3</ele>
        <time>2021-05-05T15:45:53Z</time>
      </trkpt>
      <trkpt lat="43.22769" lon="5.50925">
        <ele>172.7</ele>
        <time>2021-05-05T15:45:59Z</time>
      </trkpt>
      <trkpt lat="43.22774" lon="5.50921">
        <ele>173</ele>
        <time>2021-05-05T15:46:05Z</time>
      </trkpt>
      <trkpt lat="43.22777" lon="5.50915">
        <ele>173.2</ele>
        <time>2021-05-05T15:46:11Z</time>
      </trkpt>
      <trkpt lat="43.22779" lon="5.50907">
        <ele>174.5</ele>
        <time>2021-05-05T15:46:19Z</time>
      </trkpt>
      <trkpt lat="43.22781" lon="5.50899">
        <ele>175.6</ele>
        <time>2021-05-05T15:46:25Z</time>
      </trkpt>
      <trkpt lat="43.22782" lon="5.50891">
        <ele>176.5</ele>
        <time>2021-05-05T15:46:31Z</time>
      </trkpt>
      <trkpt lat="43.22786" lon="5.50884">
        <ele>177.1</ele>
        <time>2021-05-05T15:46:37Z</time>
      </trkpt>
      <trkpt lat="43.22786" lon="5.50877">
        <ele>177.9</ele>
        <time>2021-05-05T15:46:47Z</time>
      </trkpt>
      <trkpt lat="43.22786" lon="5.5087">
        <ele>178.5</ele>
        <time>2021-05-05T15:46:53Z</time>
      </trkpt>
      <trkpt lat="43.22788" lon="5.50863">
        <ele>178.9</ele>
        <time>2021-05-05T15:47:01Z</time>
      </trkpt>
      <trkpt lat="43.22791" lon="5.50857">
        <ele>179</ele>
        <time>2021-05-05T15:47:07Z</time>
      </trkpt>
      <trkpt lat="43.22792" lon="5.50851">
        <ele>179.2</ele>
        <time>2021-05-05T15:47:13Z</time>
      </trkpt>
      <trkpt lat="43.22795" lon="5.50844">
        <ele>178.9</ele>
        <time>2021-05-05T15:47:21Z</time>
      </trkpt>
      <trkpt lat="43.22799" lon="5.50839">
        <ele>178.2</ele>
        <time>2021-05-05T15:47:29Z</time>
      </trkpt>
      <trkpt lat="43.22803" lon="5.50836">
        <ele>177.1</ele>
        <time>2021-05-05T15:47:35Z</time>
      </trkpt>
      <trkpt lat="43.22809" lon="5.50836">
        <ele>175.5</ele>
        <time>2021-05-05T15:47:41Z</time>
      </trkpt>
      <trkpt lat="43.22814" lon="5.50834">
        <ele>173.7</ele>
        <time>2021-05-05T15:47:49Z</time>
      </trkpt>
      <trkpt lat="43.22819" lon="5.50832">
        <ele>172.7</ele>
        <time>2021-05-05T15:47:57Z</time>
      </trkpt>
      <trkpt lat="43.22822" lon="5.50828">
        <ele>173</ele>
        <time>2021-05-05T15:48:01Z</time>
      </trkpt>
      <trkpt lat="43.22826" lon="5.50825">
        <ele>172.7</ele>
        <time>2021-05-05T15:48:05Z</time>
      </trkpt>
      <trkpt lat="43.2283" lon="5.50823">
        <ele>172.1</ele>
        <time>2021-05-05T15:48:11Z</time>
      </trkpt>
      <trkpt lat="43.22836" lon="5.5082">
        <ele>171.6</ele>
        <time>2021-05-05T15:48:17Z</time>
      </trkpt>
      <trkpt lat="43.22841" lon="5.50819">
        <ele>171.9</ele>
        <time>2021-05-05T15:48:23Z</time>
      </trkpt>
      <trkpt lat="43.22846" lon="5.50821">
        <ele>171.1</ele>
        <time>2021-05-05T15:48:29Z</time>
      </trkpt>
      <trkpt lat="43.22851" lon="5.50824">
        <ele>170.3</ele>
        <time>2021-05-05T15:48:35Z</time>
      </trkpt>
      <trkpt lat="43.22855" lon="5.50827">
        <ele>169.4</ele>
        <time>2021-05-05T15:48:47Z</time>
      </trkpt>
      <trkpt lat="43.22859" lon="5.50835">
        <ele>168.2</ele>
        <time>2021-05-05T15:49:07Z</time>
      </trkpt>
      <trkpt lat="43.22864" lon="5.5084">
        <ele>169.2</ele>
        <time>2021-05-05T15:49:15Z</time>
      </trkpt>
      <trkpt lat="43.22867" lon="5.50845">
        <ele>170</ele>
        <time>2021-05-05T15:49:21Z</time>
      </trkpt>
      <trkpt lat="43.22871" lon="5.50849">
        <ele>170.8</ele>
        <time>2021-05-05T15:49:25Z</time>
      </trkpt>
      <trkpt lat="43.22872" lon="5.50857">
        <ele>172.2</ele>
        <time>2021-05-05T15:49:33Z</time>
      </trkpt>
      <trkpt lat="43.22877" lon="5.50861">
        <ele>173.1</ele>
        <time>2021-05-05T15:49:41Z</time>
      </trkpt>
      <trkpt lat="43.22881" lon="5.50865">
        <ele>174</ele>
        <time>2021-05-05T15:49:49Z</time>
      </trkpt>
      <trkpt lat="43.22887" lon="5.50866">
        <ele>174.4</ele>
        <time>2021-05-05T15:49:55Z</time>
      </trkpt>
      <trkpt lat="43.22892" lon="5.50868">
        <ele>175</ele>
        <time>2021-05-05T15:49:59Z</time>
      </trkpt>
      <trkpt lat="43.22897" lon="5.5087">
        <ele>175.5</ele>
        <time>2021-05-05T15:50:03Z</time>
      </trkpt>
      <trkpt lat="43.22904" lon="5.50869">
        <ele>175.6</ele>
        <time>2021-05-05T15:50:07Z</time>
      </trkpt>
      <trkpt lat="43.22909" lon="5.50867">
        <ele>175.4</ele>
        <time>2021-05-05T15:50:11Z</time>
      </trkpt>
      <trkpt lat="43.22915" lon="5.50867">
        <ele>175.6</ele>
        <time>2021-05-05T15:50:17Z</time>
      </trkpt>
      <trkpt lat="43.22919" lon="5.50864">
        <ele>176.1</ele>
        <time>2021-05-05T15:50:23Z</time>
      </trkpt>
      <trkpt lat="43.22925" lon="5.50861">
        <ele>177.5</ele>
        <time>2021-05-05T15:50:29Z</time>
      </trkpt>
      <trkpt lat="43.22929" lon="5.50858">
        <ele>178.5</ele>
        <time>2021-05-05T15:50:35Z</time>
      </trkpt>
      <trkpt lat="43.22934" lon="5.50855">
        <ele>179.8</ele>
        <time>2021-05-05T15:50:45Z</time>
      </trkpt>
      <trkpt lat="43.22938" lon="5.50851">
        <ele>180.5</ele>
        <time>2021-05-05T15:50:53Z</time>
      </trkpt>
      <trkpt lat="43.2294" lon="5.50844">
        <ele>179.9</ele>
        <time>2021-05-05T15:50:59Z</time>
      </trkpt>
      <trkpt lat="43.22939" lon="5.50838">
        <ele>178.1</ele>
        <time>2021-05-05T15:51:05Z</time>
      </trkpt>
      <trkpt lat="43.22938" lon="5.50832">
        <ele>176.9</ele>
        <time>2021-05-05T15:51:09Z</time>
      </trkpt>
      <trkpt lat="43.22936" lon="5.50824">
        <ele>176</ele>
        <time>2021-05-05T15:51:13Z</time>
      </trkpt>
      <trkpt lat="43.22934" lon="5.50818">
        <ele>175.1</ele>
        <time>2021-05-05T15:51:17Z</time>
      </trkpt>
      <trkpt lat="43.22929" lon="5.50811">
        <ele>173.6</ele>
        <time>2021-05-05T15:51:23Z</time>
      </trkpt>
      <trkpt lat="43.22928" lon="5.50803">
        <ele>173.4</ele>
        <time>2021-05-05T15:51:29Z</time>
      </trkpt>
      <trkpt lat="43.22926" lon="5.50796">
        <ele>172.9</ele>
        <time>2021-05-05T15:51:37Z</time>
      </trkpt>
      <trkpt lat="43.22923" lon="5.50791">
        <ele>172</ele>
        <time>2021-05-05T15:51:43Z</time>
      </trkpt>
      <trkpt lat="43.22921" lon="5.50784">
        <ele>171.6</ele>
        <time>2021-05-05T15:51:49Z</time>
      </trkpt>
      <trkpt lat="43.22921" lon="5.50777">
        <ele>171.8</ele>
        <time>2021-05-05T15:51:55Z</time>
      </trkpt>
      <trkpt lat="43.2292" lon="5.50769">
        <ele>172</ele>
        <time>2021-05-05T15:52:01Z</time>
      </trkpt>
      <trkpt lat="43.22921" lon="5.50763">
        <ele>172.4</ele>
        <time>2021-05-05T15:52:07Z</time>
      </trkpt>
      <trkpt lat="43.22924" lon="5.50755">
        <ele>173.4</ele>
        <time>2021-05-05T15:52:15Z</time>
      </trkpt>
      <trkpt lat="43.22928" lon="5.5075">
        <ele>174.2</ele>
        <time>2021-05-05T15:52:21Z</time>
      </trkpt>
      <trkpt lat="43.22931" lon="5.50744">
        <ele>175.8</ele>
        <time>2021-05-05T15:52:27Z</time>
      </trkpt>
      <trkpt lat="43.22933" lon="5.50736">
        <ele>177.2</ele>
        <time>2021-05-05T15:52:35Z</time>
      </trkpt>
      <trkpt lat="43.22935" lon="5.5073">
        <ele>178.2</ele>
        <time>2021-05-05T15:52:41Z</time>
      </trkpt>
      <trkpt lat="43.22937" lon="5.50724">
        <ele>179.1</ele>
        <time>2021-05-05T15:52:47Z</time>
      </trkpt>
      <trkpt lat="43.22941" lon="5.50718">
        <ele>180</ele>
        <time>2021-05-05T15:52:53Z</time>
      </trkpt>
      <trkpt lat="43.22945" lon="5.50711">
        <ele>180.8</ele>
        <time>2021-05-05T15:52:59Z</time>
      </trkpt>
      <trkpt lat="43.22947" lon="5.50704">
        <ele>181.3</ele>
        <time>2021-05-05T15:53:05Z</time>
      </trkpt>
      <trkpt lat="43.2295" lon="5.50698">
        <ele>181.7</ele>
        <time>2021-05-05T15:53:11Z</time>
      </trkpt>
      <trkpt lat="43.22951" lon="5.5069">
        <ele>182.1</ele>
        <time>2021-05-05T15:53:17Z</time>
      </trkpt>
      <trkpt lat="43.22952" lon="5.50682">
        <ele>182.4</ele>
        <time>2021-05-05T15:53:23Z</time>
      </trkpt>
      <trkpt lat="43.22955" lon="5.50675">
        <ele>182.3</ele>
        <time>2021-05-05T15:53:29Z</time>
      </trkpt>
      <trkpt lat="43.22959" lon="5.50669">
        <ele>181.9</ele>
        <time>2021-05-05T15:53:35Z</time>
      </trkpt>
      <trkpt lat="43.22964" lon="5.50666">
        <ele>181.2</ele>
        <time>2021-05-05T15:53:41Z</time>
      </trkpt>
      <trkpt lat="43.22968" lon="5.50661">
        <ele>181.5</ele>
        <time>2021-05-05T15:53:47Z</time>
      </trkpt>
      <trkpt lat="43.22972" lon="5.50655">
        <ele>182.1</ele>
        <time>2021-05-05T15:53:53Z</time>
      </trkpt>
      <trkpt lat="43.22975" lon="5.5065">
        <ele>182.5</ele>
        <time>2021-05-05T15:53:59Z</time>
      </trkpt>
      <trkpt lat="43.2298" lon="5.50647">
        <ele>182.3</ele>
        <time>2021-05-05T15:54:07Z</time>
      </trkpt>
      <trkpt lat="43.22984" lon="5.50644">
        <ele>182.1</ele>
        <time>2021-05-05T15:54:13Z</time>
      </trkpt>
      <trkpt lat="43.2299" lon="5.50641">
        <ele>181.6</ele>
        <time>2021-05-05T15:54:19Z</time>
      </trkpt>
      <trkpt lat="43.22995" lon="5.5064">
        <ele>180.7</ele>
        <time>2021-05-05T15:54:27Z</time>
      </trkpt>
      <trkpt lat="43.23" lon="5.5064">
        <ele>179.9</ele>
        <time>2021-05-05T15:54:33Z</time>
      </trkpt>
      <trkpt lat="43.23005" lon="5.50639">
        <ele>179.7</ele>
        <time>2021-05-05T15:54:37Z</time>
      </trkpt>
      <trkpt lat="43.2301" lon="5.50638">
        <ele>179.5</ele>
        <time>2021-05-05T15:54:43Z</time>
      </trkpt>
      <trkpt lat="43.23015" lon="5.50636">
        <ele>179.6</ele>
        <time>2021-05-05T15:54:51Z</time>
      </trkpt>
      <trkpt lat="43.2302" lon="5.50634">
        <ele>179.6</ele>
        <time>2021-05-05T15:55:45Z</time>
      </trkpt>
      <trkpt lat="43.23023" lon="5.50629">
        <ele>180.1</ele>
        <time>2021-05-05T15:57:25Z</time>
      </trkpt>
      <trkpt lat="43.23026" lon="5.50634">
        <ele>179.2</ele>
        <time>2021-05-05T15:57:51Z</time>
      </trkpt>
      <trkpt lat="43.23029" lon="5.50639">
        <ele>178.2</ele>
        <time>2021-05-05T15:57:57Z</time>
      </trkpt>
      <trkpt lat="43.23033" lon="5.50645">
        <ele>177.2</ele>
        <time>2021-05-05T15:58:05Z</time>
      </trkpt>
      <trkpt lat="43.23037" lon="5.50647">
        <ele>176.6</ele>
        <time>2021-05-05T15:58:11Z</time>
      </trkpt>
      <trkpt lat="43.23042" lon="5.50652">
        <ele>175.9</ele>
        <time>2021-05-05T15:58:19Z</time>
      </trkpt>
      <trkpt lat="43.23047" lon="5.50656">
        <ele>175.2</ele>
        <time>2021-05-05T15:58:27Z</time>
      </trkpt>
      <trkpt lat="43.23051" lon="5.50659">
        <ele>174.7</ele>
        <time>2021-05-05T15:58:31Z</time>
      </trkpt>
      <trkpt lat="43.23055" lon="5.50663">
        <ele>174.1</ele>
        <time>2021-05-05T15:58:37Z</time>
      </trkpt>
      <trkpt lat="43.23057" lon="5.50668">
        <ele>174</ele>
        <time>2021-05-05T15:58:43Z</time>
      </trkpt>
      <trkpt lat="43.23058" lon="5.50674">
        <ele>175.4</ele>
        <time>2021-05-05T15:58:49Z</time>
      </trkpt>
      <trkpt lat="43.23059" lon="5.50681">
        <ele>176.9</ele>
        <time>2021-05-05T15:58:55Z</time>
      </trkpt>
      <trkpt lat="43.23062" lon="5.50688">
        <ele>178.4</ele>
        <time>2021-05-05T15:59:01Z</time>
      </trkpt>
      <trkpt lat="43.23065" lon="5.50693">
        <ele>179.7</ele>
        <time>2021-05-05T15:59:07Z</time>
      </trkpt>
      <trkpt lat="43.23069" lon="5.50699">
        <ele>181</ele>
        <time>2021-05-05T15:59:13Z</time>
      </trkpt>
      <trkpt lat="43.23075" lon="5.50703">
        <ele>182.1</ele>
        <time>2021-05-05T15:59:19Z</time>
      </trkpt>
      <trkpt lat="43.23081" lon="5.50705">
        <ele>182.6</ele>
        <time>2021-05-05T15:59:25Z</time>
      </trkpt>
      <trkpt lat="43.23086" lon="5.50706">
        <ele>183.3</ele>
        <time>2021-05-05T15:59:31Z</time>
      </trkpt>
      <trkpt lat="43.2309" lon="5.50707">
        <ele>183.8</ele>
        <time>2021-05-05T15:59:35Z</time>
      </trkpt>
      <trkpt lat="43.23095" lon="5.50704">
        <ele>183.6</ele>
        <time>2021-05-05T15:59:41Z</time>
      </trkpt>
      <trkpt lat="43.231" lon="5.50703">
        <ele>183.7</ele>
        <time>2021-05-05T15:59:47Z</time>
      </trkpt>
      <trkpt lat="43.23106" lon="5.507">
        <ele>183.7</ele>
        <time>2021-05-05T15:59:53Z</time>
      </trkpt>
      <trkpt lat="43.23111" lon="5.50697">
        <ele>183.5</ele>
        <time>2021-05-05T15:59:59Z</time>
      </trkpt>
      <trkpt lat="43.23116" lon="5.50693">
        <ele>183.1</ele>
        <time>2021-05-05T16:00:05Z</time>
      </trkpt>
      <trkpt lat="43.2312" lon="5.5069">
        <ele>182.6</ele>
        <time>2021-05-05T16:00:11Z</time>
      </trkpt>
      <trkpt lat="43.23125" lon="5.50687">
        <ele>182.5</ele>
        <time>2021-05-05T16:00:19Z</time>
      </trkpt>
      <trkpt lat="43.2313" lon="5.50687">
        <ele>183.2</ele>
        <time>2021-05-05T16:00:25Z</time>
      </trkpt>
      <trkpt lat="43.23136" lon="5.50688">
        <ele>184</ele>
        <time>2021-05-05T16:00:31Z</time>
      </trkpt>
      <trkpt lat="43.23142" lon="5.50686">
        <ele>184.3</ele>
        <time>2021-05-05T16:00:37Z</time>
      </trkpt>
      <trkpt lat="43.23148" lon="5.50685">
        <ele>184.8</ele>
        <time>2021-05-05T16:00:43Z</time>
      </trkpt>
      <trkpt lat="43.23153" lon="5.50685">
        <ele>185.2</ele>
        <time>2021-05-05T16:00:49Z</time>
      </trkpt>
      <trkpt lat="43.23158" lon="5.50683">
        <ele>185.3</ele>
        <time>2021-05-05T16:00:57Z</time>
      </trkpt>
      <trkpt lat="43.23163" lon="5.5068">
        <ele>185.4</ele>
        <time>2021-05-05T16:01:05Z</time>
      </trkpt>
      <trkpt lat="43.23168" lon="5.5068">
        <ele>186</ele>
        <time>2021-05-05T16:01:11Z</time>
      </trkpt>
      <trkpt lat="43.23174" lon="5.50684">
        <ele>187.6</ele>
        <time>2021-05-05T16:01:17Z</time>
      </trkpt>
      <trkpt lat="43.23177" lon="5.50689">
        <ele>188.9</ele>
        <time>2021-05-05T16:01:25Z</time>
      </trkpt>
      <trkpt lat="43.23182" lon="5.50694">
        <ele>190.6</ele>
        <time>2021-05-05T16:01:31Z</time>
      </trkpt>
      <trkpt lat="43.23187" lon="5.50698">
        <ele>192</ele>
        <time>2021-05-05T16:01:37Z</time>
      </trkpt>
      <trkpt lat="43.23192" lon="5.50704">
        <ele>193.4</ele>
        <time>2021-05-05T16:01:43Z</time>
      </trkpt>
      <trkpt lat="43.23196" lon="5.50707">
        <ele>194.4</ele>
        <time>2021-05-05T16:01:49Z</time>
      </trkpt>
      <trkpt lat="43.232" lon="5.5071">
        <ele>195.4</ele>
        <time>2021-05-05T16:01:55Z</time>
      </trkpt>
      <trkpt lat="43.23205" lon="5.50713">
        <ele>196.2</ele>
        <time>2021-05-05T16:02:01Z</time>
      </trkpt>
      <trkpt lat="43.23209" lon="5.50714">
        <ele>196.9</ele>
        <time>2021-05-05T16:02:07Z</time>
      </trkpt>
      <trkpt lat="43.23215" lon="5.50714">
        <ele>197.4</ele>
        <time>2021-05-05T16:02:15Z</time>
      </trkpt>
      <trkpt lat="43.2322" lon="5.50712">
        <ele>197.7</ele>
        <time>2021-05-05T16:02:21Z</time>
      </trkpt>
      <trkpt lat="43.23224" lon="5.50711">
        <ele>198</ele>
        <time>2021-05-05T16:02:29Z</time>
      </trkpt>
      <trkpt lat="43.2323" lon="5.50707">
        <ele>198.2</ele>
        <time>2021-05-05T16:02:35Z</time>
      </trkpt>
      <trkpt lat="43.23236" lon="5.50705">
        <ele>198.8</ele>
        <time>2021-05-05T16:02:41Z</time>
      </trkpt>
      <trkpt lat="43.23241" lon="5.507">
        <ele>199</ele>
        <time>2021-05-05T16:02:49Z</time>
      </trkpt>
      <trkpt lat="43.23247" lon="5.50698">
        <ele>199.5</ele>
        <time>2021-05-05T16:02:57Z</time>
      </trkpt>
      <trkpt lat="43.23253" lon="5.50697">
        <ele>200</ele>
        <time>2021-05-05T16:03:03Z</time>
      </trkpt>
      <trkpt lat="43.23258" lon="5.50694">
        <ele>200</ele>
        <time>2021-05-05T16:03:09Z</time>
      </trkpt>
      <trkpt lat="43.23261" lon="5.50688">
        <ele>199.8</ele>
        <time>2021-05-05T16:03:15Z</time>
      </trkpt>
      <trkpt lat="43.23266" lon="5.5069">
        <ele>200.2</ele>
        <time>2021-05-05T16:03:23Z</time>
      </trkpt>
      <trkpt lat="43.23271" lon="5.50691">
        <ele>200.5</ele>
        <time>2021-05-05T16:03:29Z</time>
      </trkpt>
      <trkpt lat="43.23277" lon="5.50692">
        <ele>200.8</ele>
        <time>2021-05-05T16:03:37Z</time>
      </trkpt>
      <trkpt lat="43.23282" lon="5.5069">
        <ele>201</ele>
        <time>2021-05-05T16:03:43Z</time>
      </trkpt>
      <trkpt lat="43.23287" lon="5.50687">
        <ele>201</ele>
        <time>2021-05-05T16:03:49Z</time>
      </trkpt>
      <trkpt lat="43.23288" lon="5.5068">
        <ele>200.7</ele>
        <time>2021-05-05T16:03:55Z</time>
      </trkpt>
      <trkpt lat="43.23293" lon="5.50678">
        <ele>200.8</ele>
        <time>2021-05-05T16:04:03Z</time>
      </trkpt>
      <trkpt lat="43.23298" lon="5.5068">
        <ele>201.1</ele>
        <time>2021-05-05T16:04:09Z</time>
      </trkpt>
      <trkpt lat="43.23299" lon="5.50686">
        <ele>201.5</ele>
        <time>2021-05-05T16:04:25Z</time>
      </trkpt>
      <trkpt lat="43.23302" lon="5.50692">
        <ele>202</ele>
        <time>2021-05-05T16:04:41Z</time>
      </trkpt>
      <trkpt lat="43.23307" lon="5.50696">
        <ele>202.5</ele>
        <time>2021-05-05T16:04:49Z</time>
      </trkpt>
      <trkpt lat="43.23311" lon="5.50698">
        <ele>202.8</ele>
        <time>2021-05-05T16:05:37Z</time>
      </trkpt>
      <trkpt lat="43.23314" lon="5.50704">
        <ele>203.3</ele>
        <time>2021-05-05T16:05:49Z</time>
      </trkpt>
      <trkpt lat="43.23316" lon="5.5071">
        <ele>203.8</ele>
        <time>2021-05-05T16:05:57Z</time>
      </trkpt>
      <trkpt lat="43.23318" lon="5.50716">
        <ele>204.2</ele>
        <time>2021-05-05T16:06:05Z</time>
      </trkpt>
      <trkpt lat="43.23322" lon="5.50723">
        <ele>204.8</ele>
        <time>2021-05-05T16:06:11Z</time>
      </trkpt>
      <trkpt lat="43.23326" lon="5.50725">
        <ele>205.1</ele>
        <time>2021-05-05T16:06:15Z</time>
      </trkpt>
      <trkpt lat="43.23329" lon="5.5073">
        <ele>205.6</ele>
        <time>2021-05-05T16:06:21Z</time>
      </trkpt>
      <trkpt lat="43.23331" lon="5.50736">
        <ele>206</ele>
        <time>2021-05-05T16:06:27Z</time>
      </trkpt>
      <trkpt lat="43.23333" lon="5.50742">
        <ele>206.5</ele>
        <time>2021-05-05T16:06:33Z</time>
      </trkpt>
      <trkpt lat="43.23336" lon="5.50748">
        <ele>207.2</ele>
        <time>2021-05-05T16:06:43Z</time>
      </trkpt>
      <trkpt lat="43.23338" lon="5.50754">
        <ele>208.2</ele>
        <time>2021-05-05T16:06:51Z</time>
      </trkpt>
      <trkpt lat="43.23336" lon="5.5076">
        <ele>208.8</ele>
        <time>2021-05-05T16:07:01Z</time>
      </trkpt>
      <trkpt lat="43.23332" lon="5.50766">
        <ele>209.2</ele>
        <time>2021-05-05T16:07:11Z</time>
      </trkpt>
      <trkpt lat="43.23331" lon="5.50759">
        <ele>208.2</ele>
        <time>2021-05-05T16:07:29Z</time>
      </trkpt>
      <trkpt lat="43.2333" lon="5.50751">
        <ele>207.1</ele>
        <time>2021-05-05T16:07:41Z</time>
      </trkpt>
      <trkpt lat="43.23327" lon="5.50746">
        <ele>206.5</ele>
        <time>2021-05-05T16:07:47Z</time>
      </trkpt>
      <trkpt lat="43.23322" lon="5.50749">
        <ele>206.4</ele>
        <time>2021-05-05T16:07:55Z</time>
      </trkpt>
      <trkpt lat="43.23322" lon="5.50757">
        <ele>207.6</ele>
        <time>2021-05-05T16:08:05Z</time>
      </trkpt>
      <trkpt lat="43.23323" lon="5.50764">
        <ele>208.6</ele>
        <time>2021-05-05T16:08:11Z</time>
      </trkpt>
      <trkpt lat="43.23324" lon="5.5077">
        <ele>209.8</ele>
        <time>2021-05-05T16:08:17Z</time>
      </trkpt>
      <trkpt lat="43.23326" lon="5.50777">
        <ele>210.7</ele>
        <time>2021-05-05T16:08:23Z</time>
      </trkpt>
      <trkpt lat="43.23326" lon="5.50783">
        <ele>211.7</ele>
        <time>2021-05-05T16:08:31Z</time>
      </trkpt>
      <trkpt lat="43.23327" lon="5.5079">
        <ele>212.8</ele>
        <time>2021-05-05T16:08:39Z</time>
      </trkpt>
      <trkpt lat="43.2333" lon="5.50796">
        <ele>213.7</ele>
        <time>2021-05-05T16:08:49Z</time>
      </trkpt>
      <trkpt lat="43.23332" lon="5.50803">
        <ele>214.7</ele>
        <time>2021-05-05T16:08:59Z</time>
      </trkpt>
      <trkpt lat="43.23336" lon="5.50809">
        <ele>215.6</ele>
        <time>2021-05-05T16:09:07Z</time>
      </trkpt>
      <trkpt lat="43.23338" lon="5.50817">
        <ele>216.7</ele>
        <time>2021-05-05T16:09:15Z</time>
      </trkpt>
      <trkpt lat="43.23341" lon="5.50823">
        <ele>217.6</ele>
        <time>2021-05-05T16:09:23Z</time>
      </trkpt>
      <trkpt lat="43.23344" lon="5.50827">
        <ele>218.1</ele>
        <time>2021-05-05T16:09:31Z</time>
      </trkpt>
      <trkpt lat="43.23348" lon="5.50832">
        <ele>218.7</ele>
        <time>2021-05-05T16:09:37Z</time>
      </trkpt>
      <trkpt lat="43.23352" lon="5.50838">
        <ele>219.2</ele>
        <time>2021-05-05T16:09:45Z</time>
      </trkpt>
      <trkpt lat="43.23356" lon="5.50841">
        <ele>219.5</ele>
        <time>2021-05-05T16:09:51Z</time>
      </trkpt>
      <trkpt lat="43.23361" lon="5.50844">
        <ele>219.6</ele>
        <time>2021-05-05T16:09:59Z</time>
      </trkpt>
      <trkpt lat="43.23365" lon="5.50848">
        <ele>219.9</ele>
        <time>2021-05-05T16:10:07Z</time>
      </trkpt>
      <trkpt lat="43.2337" lon="5.50851">
        <ele>220</ele>
        <time>2021-05-05T16:10:13Z</time>
      </trkpt>
      <trkpt lat="43.23373" lon="5.50856">
        <ele>220.3</ele>
        <time>2021-05-05T16:10:23Z</time>
      </trkpt>
      <trkpt lat="43.23373" lon="5.50863">
        <ele>220.9</ele>
        <time>2021-05-05T16:10:31Z</time>
      </trkpt>
      <trkpt lat="43.23373" lon="5.5087">
        <ele>221.5</ele>
        <time>2021-05-05T16:10:39Z</time>
      </trkpt>
      <trkpt lat="43.23375" lon="5.50877">
        <ele>221.9</ele>
        <time>2021-05-05T16:10:47Z</time>
      </trkpt>
      <trkpt lat="43.23378" lon="5.50882">
        <ele>222.2</ele>
        <time>2021-05-05T16:10:55Z</time>
      </trkpt>
      <trkpt lat="43.23381" lon="5.50888">
        <ele>222.5</ele>
        <time>2021-05-05T16:11:03Z</time>
      </trkpt>
      <trkpt lat="43.23383" lon="5.50895">
        <ele>222.9</ele>
        <time>2021-05-05T16:11:11Z</time>
      </trkpt>
      <trkpt lat="43.23385" lon="5.50903">
        <ele>223.3</ele>
        <time>2021-05-05T16:11:19Z</time>
      </trkpt>
      <trkpt lat="43.23387" lon="5.5091">
        <ele>223.6</ele>
        <time>2021-05-05T16:11:29Z</time>
      </trkpt>
      <trkpt lat="43.23391" lon="5.50916">
        <ele>223.7</ele>
        <time>2021-05-05T16:12:23Z</time>
      </trkpt>
      <trkpt lat="43.23396" lon="5.50919">
        <ele>223.6</ele>
        <time>2021-05-05T16:12:39Z</time>
      </trkpt>
      <trkpt lat="43.23399" lon="5.50924">
        <ele>223.7</ele>
        <time>2021-05-05T16:12:45Z</time>
      </trkpt>
      <trkpt lat="43.23403" lon="5.50928">
        <ele>223.7</ele>
        <time>2021-05-05T16:12:51Z</time>
      </trkpt>
      <trkpt lat="43.23407" lon="5.50933">
        <ele>223.7</ele>
        <time>2021-05-05T16:12:57Z</time>
      </trkpt>
      <trkpt lat="43.2341" lon="5.5094">
        <ele>223.8</ele>
        <time>2021-05-05T16:13:03Z</time>
      </trkpt>
      <trkpt lat="43.23413" lon="5.50945">
        <ele>224</ele>
        <time>2021-05-05T16:13:07Z</time>
      </trkpt>
      <trkpt lat="43.23415" lon="5.50951">
        <ele>224.2</ele>
        <time>2021-05-05T16:13:11Z</time>
      </trkpt>
      <trkpt lat="43.23418" lon="5.50958">
        <ele>224.4</ele>
        <time>2021-05-05T16:13:17Z</time>
      </trkpt>
      <trkpt lat="43.23421" lon="5.50963">
        <ele>224.7</ele>
        <time>2021-05-05T16:13:23Z</time>
      </trkpt>
      <trkpt lat="43.23426" lon="5.5097">
        <ele>225</ele>
        <time>2021-05-05T16:13:29Z</time>
      </trkpt>
      <trkpt lat="43.23429" lon="5.50977">
        <ele>225.3</ele>
        <time>2021-05-05T16:13:35Z</time>
      </trkpt>
      <trkpt lat="43.23432" lon="5.50984">
        <ele>225.6</ele>
        <time>2021-05-05T16:13:41Z</time>
      </trkpt>
      <trkpt lat="43.23436" lon="5.5099">
        <ele>225.8</ele>
        <time>2021-05-05T16:13:47Z</time>
      </trkpt>
      <trkpt lat="43.2344" lon="5.50996">
        <ele>226</ele>
        <time>2021-05-05T16:13:53Z</time>
      </trkpt>
      <trkpt lat="43.23444" lon="5.51003">
        <ele>226.1</ele>
        <time>2021-05-05T16:13:59Z</time>
      </trkpt>
      <trkpt lat="43.23447" lon="5.5101">
        <ele>226</ele>
        <time>2021-05-05T16:14:05Z</time>
      </trkpt>
      <trkpt lat="43.23451" lon="5.51016">
        <ele>225.9</ele>
        <time>2021-05-05T16:14:11Z</time>
      </trkpt>
      <trkpt lat="43.23454" lon="5.51021">
        <ele>225.9</ele>
        <time>2021-05-05T16:14:15Z</time>
      </trkpt>
      <trkpt lat="43.23455" lon="5.51027">
        <ele>225.9</ele>
        <time>2021-05-05T16:14:19Z</time>
      </trkpt>
      <trkpt lat="43.23455" lon="5.51034">
        <ele>226</ele>
        <time>2021-05-05T16:14:23Z</time>
      </trkpt>
      <trkpt lat="43.23452" lon="5.51041">
        <ele>226.1</ele>
        <time>2021-05-05T16:14:29Z</time>
      </trkpt>
      <trkpt lat="43.2345" lon="5.51049">
        <ele>226.3</ele>
        <time>2021-05-05T16:14:35Z</time>
      </trkpt>
      <trkpt lat="43.23448" lon="5.51057">
        <ele>226.4</ele>
        <time>2021-05-05T16:14:41Z</time>
      </trkpt>
      <trkpt lat="43.23446" lon="5.51066">
        <ele>226.5</ele>
        <time>2021-05-05T16:14:47Z</time>
      </trkpt>
      <trkpt lat="43.23445" lon="5.51072">
        <ele>226.6</ele>
        <time>2021-05-05T16:14:51Z</time>
      </trkpt>
      <trkpt lat="43.23444" lon="5.51078">
        <ele>226.6</ele>
        <time>2021-05-05T16:14:55Z</time>
      </trkpt>
      <trkpt lat="43.23441" lon="5.51087">
        <ele>226.8</ele>
        <time>2021-05-05T16:15:01Z</time>
      </trkpt>
      <trkpt lat="43.23439" lon="5.51095">
        <ele>227</ele>
        <time>2021-05-05T16:15:07Z</time>
      </trkpt>
      <trkpt lat="43.23436" lon="5.51102">
        <ele>227.3</ele>
        <time>2021-05-05T16:15:13Z</time>
      </trkpt>
      <trkpt lat="43.23433" lon="5.5111">
        <ele>227.5</ele>
        <time>2021-05-05T16:15:19Z</time>
      </trkpt>
      <trkpt lat="43.23429" lon="5.51117">
        <ele>227.7</ele>
        <time>2021-05-05T16:15:25Z</time>
      </trkpt>
      <trkpt lat="43.23427" lon="5.51125">
        <ele>227.9</ele>
        <time>2021-05-05T16:15:31Z</time>
      </trkpt>
      <trkpt lat="43.23424" lon="5.51133">
        <ele>228.1</ele>
        <time>2021-05-05T16:15:37Z</time>
      </trkpt>
      <trkpt lat="43.23421" lon="5.51141">
        <ele>228.4</ele>
        <time>2021-05-05T16:15:43Z</time>
      </trkpt>
      <trkpt lat="43.23418" lon="5.51148">
        <ele>228.6</ele>
        <time>2021-05-05T16:15:49Z</time>
      </trkpt>
      <trkpt lat="43.23416" lon="5.51155">
        <ele>228.8</ele>
        <time>2021-05-05T16:15:55Z</time>
      </trkpt>
      <trkpt lat="43.23414" lon="5.51162">
        <ele>229</ele>
        <time>2021-05-05T16:16:01Z</time>
      </trkpt>
      <trkpt lat="43.23412" lon="5.51168">
        <ele>229.2</ele>
        <time>2021-05-05T16:16:07Z</time>
      </trkpt>
      <trkpt lat="43.2341" lon="5.51175">
        <ele>229.4</ele>
        <time>2021-05-05T16:16:13Z</time>
      </trkpt>
      <trkpt lat="43.23408" lon="5.51183">
        <ele>229.6</ele>
        <time>2021-05-05T16:16:19Z</time>
      </trkpt>
      <trkpt lat="43.23407" lon="5.51191">
        <ele>229.7</ele>
        <time>2021-05-05T16:16:25Z</time>
      </trkpt>
      <trkpt lat="43.23406" lon="5.51197">
        <ele>229.8</ele>
        <time>2021-05-05T16:16:29Z</time>
      </trkpt>
      <trkpt lat="43.23404" lon="5.51205">
        <ele>230</ele>
        <time>2021-05-05T16:16:35Z</time>
      </trkpt>
      <trkpt lat="43.23401" lon="5.51213">
        <ele>230.2</ele>
        <time>2021-05-05T16:16:41Z</time>
      </trkpt>
      <trkpt lat="43.234" lon="5.51219">
        <ele>230.3</ele>
        <time>2021-05-05T16:16:45Z</time>
      </trkpt>
      <trkpt lat="43.23398" lon="5.51228">
        <ele>230.5</ele>
        <time>2021-05-05T16:16:51Z</time>
      </trkpt>
      <trkpt lat="43.23397" lon="5.51237">
        <ele>230.6</ele>
        <time>2021-05-05T16:16:57Z</time>
      </trkpt>
      <trkpt lat="43.23395" lon="5.51244">
        <ele>230.7</ele>
        <time>2021-05-05T16:17:03Z</time>
      </trkpt>
      <trkpt lat="43.23393" lon="5.51252">
        <ele>230.9</ele>
        <time>2021-05-05T16:17:09Z</time>
      </trkpt>
      <trkpt lat="43.23391" lon="5.51259">
        <ele>231.1</ele>
        <time>2021-05-05T16:17:13Z</time>
      </trkpt>
      <trkpt lat="43.23389" lon="5.51264">
        <ele>231.3</ele>
        <time>2021-05-05T16:17:17Z</time>
      </trkpt>
      <trkpt lat="43.23385" lon="5.51271">
        <ele>231.6</ele>
        <time>2021-05-05T16:17:23Z</time>
      </trkpt>
      <trkpt lat="43.23382" lon="5.51279">
        <ele>231.8</ele>
        <time>2021-05-05T16:17:29Z</time>
      </trkpt>
      <trkpt lat="43.23377" lon="5.51286">
        <ele>232.1</ele>
        <time>2021-05-05T16:17:35Z</time>
      </trkpt>
      <trkpt lat="43.23373" lon="5.51292">
        <ele>232.3</ele>
        <time>2021-05-05T16:17:41Z</time>
      </trkpt>
      <trkpt lat="43.23369" lon="5.51299">
        <ele>232.6</ele>
        <time>2021-05-05T16:17:47Z</time>
      </trkpt>
      <trkpt lat="43.23365" lon="5.51303">
        <ele>232.7</ele>
        <time>2021-05-05T16:17:53Z</time>
      </trkpt>
      <trkpt lat="43.23362" lon="5.5131">
        <ele>232.9</ele>
        <time>2021-05-05T16:18:03Z</time>
      </trkpt>
      <trkpt lat="43.23359" lon="5.51316">
        <ele>233.1</ele>
        <time>2021-05-05T16:18:09Z</time>
      </trkpt>
      <trkpt lat="43.23356" lon="5.51322">
        <ele>233.3</ele>
        <time>2021-05-05T16:18:15Z</time>
      </trkpt>
      <trkpt lat="43.23354" lon="5.5133">
        <ele>233.4</ele>
        <time>2021-05-05T16:18:23Z</time>
      </trkpt>
      <trkpt lat="43.23352" lon="5.51336">
        <ele>233.7</ele>
        <time>2021-05-05T16:18:29Z</time>
      </trkpt>
      <trkpt lat="43.23347" lon="5.5134">
        <ele>234</ele>
        <time>2021-05-05T16:18:37Z</time>
      </trkpt>
    </trkseg>
  </trk>
</gpx>